<?xml version="1.0" encoding="UTF-8" standalone="no" ?>
<gpx xmlns="http://www.topografix.com/GPX/1/1" xmlns:xsi="http://www.w3.org/2001/XMLSchema-instance" xsi:schemaLocation="http://www.topografix.com/GPX/1/1 http://www.topografix.com/GPX/1/1/gpx.xsd" version="1.1" creator="VisuGPX - https://www.visugpx.com">
  <metadata>
    <name>Camps-la-Source Cyclisme</name>
  </metadata>
  <trk>
    <name><![CDATA[Camps-la-Source Cyclisme]]></name>
    <trkseg>
      <trkpt lat="43.38665" lon="6.07684">
        <ele>261.20001220703</ele>
        <time>2019-10-24T07:20:21.000Z</time>
      </trkpt>
      <trkpt lat="43.38665" lon="6.07673">
        <ele>261.20001220703</ele>
        <time>2019-10-24T07:20:28.000Z</time>
      </trkpt>
      <trkpt lat="43.38666" lon="6.07672">
        <ele>261.20001220703</ele>
        <time>2019-10-24T07:20:31.000Z</time>
      </trkpt>
      <trkpt lat="43.38664" lon="6.0766">
        <ele>261.20001220703</ele>
        <time>2019-10-24T07:21:52.000Z</time>
      </trkpt>
      <trkpt lat="43.38665" lon="6.07658">
        <ele>261.20001220703</ele>
        <time>2019-10-24T07:21:53.000Z</time>
      </trkpt>
      <trkpt lat="43.38668" lon="6.0764">
        <ele>261.39999389648</ele>
        <time>2019-10-24T07:21:59.000Z</time>
      </trkpt>
      <trkpt lat="43.38659" lon="6.07627">
        <ele>261.79998779297</ele>
        <time>2019-10-24T07:22:04.000Z</time>
      </trkpt>
      <trkpt lat="43.38654" lon="6.07624">
        <ele>262</ele>
        <time>2019-10-24T07:22:06.000Z</time>
      </trkpt>
      <trkpt lat="43.38638" lon="6.07622">
        <ele>262</ele>
        <time>2019-10-24T07:22:11.000Z</time>
      </trkpt>
      <trkpt lat="43.38616" lon="6.07625">
        <ele>262</ele>
        <time>2019-10-24T07:22:18.000Z</time>
      </trkpt>
      <trkpt lat="43.38594" lon="6.07629">
        <ele>260.79998779297</ele>
        <time>2019-10-24T07:22:23.000Z</time>
      </trkpt>
      <trkpt lat="43.38589" lon="6.0763">
        <ele>260.39999389648</ele>
        <time>2019-10-24T07:22:24.000Z</time>
      </trkpt>
      <trkpt lat="43.38577" lon="6.07634">
        <ele>259.79998779297</ele>
        <time>2019-10-24T07:22:27.000Z</time>
      </trkpt>
      <trkpt lat="43.38561" lon="6.07637">
        <ele>258.60000610352</ele>
        <time>2019-10-24T07:22:31.000Z</time>
      </trkpt>
      <trkpt lat="43.38551" lon="6.07642">
        <ele>257.39999389648</ele>
        <time>2019-10-24T07:22:35.000Z</time>
      </trkpt>
      <trkpt lat="43.38547" lon="6.07646">
        <ele>257</ele>
        <time>2019-10-24T07:22:37.000Z</time>
      </trkpt>
      <trkpt lat="43.38539" lon="6.07654">
        <ele>256.39999389648</ele>
        <time>2019-10-24T07:22:40.000Z</time>
      </trkpt>
      <trkpt lat="43.38534" lon="6.07655">
        <ele>256</ele>
        <time>2019-10-24T07:22:42.000Z</time>
      </trkpt>
      <trkpt lat="43.3853" lon="6.07655">
        <ele>255.60000610352</ele>
        <time>2019-10-24T07:22:45.000Z</time>
      </trkpt>
      <trkpt lat="43.38524" lon="6.07654">
        <ele>254.80000305176</ele>
        <time>2019-10-24T07:22:48.000Z</time>
      </trkpt>
      <trkpt lat="43.38505" lon="6.0766">
        <ele>254.60000610352</ele>
        <time>2019-10-24T07:22:55.000Z</time>
      </trkpt>
      <trkpt lat="43.385" lon="6.07662">
        <ele>254.39999389648</ele>
        <time>2019-10-24T07:22:57.000Z</time>
      </trkpt>
      <trkpt lat="43.38487" lon="6.07667">
        <ele>254.60000610352</ele>
        <time>2019-10-24T07:23:02.000Z</time>
      </trkpt>
      <trkpt lat="43.38462" lon="6.07674">
        <ele>254</ele>
        <time>2019-10-24T07:23:10.000Z</time>
      </trkpt>
      <trkpt lat="43.3844" lon="6.07681">
        <ele>253.60000610352</ele>
        <time>2019-10-24T07:23:16.000Z</time>
      </trkpt>
      <trkpt lat="43.38435" lon="6.07692">
        <ele>253.39999389648</ele>
        <time>2019-10-24T07:23:19.000Z</time>
      </trkpt>
      <trkpt lat="43.38434" lon="6.07696">
        <ele>253.39999389648</ele>
        <time>2019-10-24T07:23:20.000Z</time>
      </trkpt>
      <trkpt lat="43.38433" lon="6.07701">
        <ele>253.39999389648</ele>
        <time>2019-10-24T07:23:21.000Z</time>
      </trkpt>
      <trkpt lat="43.38425" lon="6.07741">
        <ele>253.39999389648</ele>
        <time>2019-10-24T07:23:29.000Z</time>
      </trkpt>
      <trkpt lat="43.38415" lon="6.07785">
        <ele>253.19999694824</ele>
        <time>2019-10-24T07:23:38.000Z</time>
      </trkpt>
      <trkpt lat="43.38398" lon="6.07821">
        <ele>253.19999694824</ele>
        <time>2019-10-24T07:23:46.000Z</time>
      </trkpt>
      <trkpt lat="43.38369" lon="6.07864">
        <ele>253.80000305176</ele>
        <time>2019-10-24T07:23:57.000Z</time>
      </trkpt>
      <trkpt lat="43.38342" lon="6.07902">
        <ele>253.80000305176</ele>
        <time>2019-10-24T07:24:07.000Z</time>
      </trkpt>
      <trkpt lat="43.38319" lon="6.07932">
        <ele>253.80000305176</ele>
        <time>2019-10-24T07:24:15.000Z</time>
      </trkpt>
      <trkpt lat="43.383" lon="6.07967">
        <ele>253.80000305176</ele>
        <time>2019-10-24T07:24:23.000Z</time>
      </trkpt>
      <trkpt lat="43.38283" lon="6.08004">
        <ele>254</ele>
        <time>2019-10-24T07:24:31.000Z</time>
      </trkpt>
      <trkpt lat="43.38269" lon="6.08039">
        <ele>253.60000610352</ele>
        <time>2019-10-24T07:24:39.000Z</time>
      </trkpt>
      <trkpt lat="43.38257" lon="6.08065">
        <ele>254</ele>
        <time>2019-10-24T07:24:45.000Z</time>
      </trkpt>
      <trkpt lat="43.38248" lon="6.08089">
        <ele>254</ele>
        <time>2019-10-24T07:24:50.000Z</time>
      </trkpt>
      <trkpt lat="43.38234" lon="6.08129">
        <ele>254.19999694824</ele>
        <time>2019-10-24T07:24:58.000Z</time>
      </trkpt>
      <trkpt lat="43.38221" lon="6.08162">
        <ele>254.39999389648</ele>
        <time>2019-10-24T07:25:05.000Z</time>
      </trkpt>
      <trkpt lat="43.38213" lon="6.08174">
        <ele>254.60000610352</ele>
        <time>2019-10-24T07:25:08.000Z</time>
      </trkpt>
      <trkpt lat="43.38202" lon="6.0819">
        <ele>254.60000610352</ele>
        <time>2019-10-24T07:25:12.000Z</time>
      </trkpt>
      <trkpt lat="43.38183" lon="6.08213">
        <ele>254.80000305176</ele>
        <time>2019-10-24T07:25:18.000Z</time>
      </trkpt>
      <trkpt lat="43.38181" lon="6.08217">
        <ele>254.80000305176</ele>
        <time>2019-10-24T07:25:19.000Z</time>
      </trkpt>
      <trkpt lat="43.38159" lon="6.08244">
        <ele>255.19999694824</ele>
        <time>2019-10-24T07:25:26.000Z</time>
      </trkpt>
      <trkpt lat="43.38141" lon="6.08267">
        <ele>255</ele>
        <time>2019-10-24T07:25:32.000Z</time>
      </trkpt>
      <trkpt lat="43.38121" lon="6.08296">
        <ele>255</ele>
        <time>2019-10-24T07:25:39.000Z</time>
      </trkpt>
      <trkpt lat="43.38118" lon="6.08299">
        <ele>255</ele>
        <time>2019-10-24T07:25:40.000Z</time>
      </trkpt>
      <trkpt lat="43.38102" lon="6.08307">
        <ele>255.19999694824</ele>
        <time>2019-10-24T07:25:44.000Z</time>
      </trkpt>
      <trkpt lat="43.3809" lon="6.08307">
        <ele>255.19999694824</ele>
        <time>2019-10-24T07:25:47.000Z</time>
      </trkpt>
      <trkpt lat="43.38078" lon="6.08308">
        <ele>255.39999389648</ele>
        <time>2019-10-24T07:25:50.000Z</time>
      </trkpt>
      <trkpt lat="43.38066" lon="6.08307">
        <ele>255.80000305176</ele>
        <time>2019-10-24T07:25:53.000Z</time>
      </trkpt>
      <trkpt lat="43.38062" lon="6.08307">
        <ele>255.80000305176</ele>
        <time>2019-10-24T07:25:54.000Z</time>
      </trkpt>
      <trkpt lat="43.38051" lon="6.08307">
        <ele>255.80000305176</ele>
        <time>2019-10-24T07:25:57.000Z</time>
      </trkpt>
      <trkpt lat="43.38015" lon="6.08303">
        <ele>256.60000610352</ele>
        <time>2019-10-24T07:26:07.000Z</time>
      </trkpt>
      <trkpt lat="43.38008" lon="6.08302">
        <ele>257</ele>
        <time>2019-10-24T07:26:09.000Z</time>
      </trkpt>
      <trkpt lat="43.37992" lon="6.08301">
        <ele>257.60000610352</ele>
        <time>2019-10-24T07:26:14.000Z</time>
      </trkpt>
      <trkpt lat="43.37973" lon="6.08299">
        <ele>258.20001220703</ele>
        <time>2019-10-24T07:26:20.000Z</time>
      </trkpt>
      <trkpt lat="43.37967" lon="6.08298">
        <ele>258.79998779297</ele>
        <time>2019-10-24T07:26:22.000Z</time>
      </trkpt>
      <trkpt lat="43.37957" lon="6.08297">
        <ele>259.20001220703</ele>
        <time>2019-10-24T07:26:25.000Z</time>
      </trkpt>
      <trkpt lat="43.37946" lon="6.08295">
        <ele>260.20001220703</ele>
        <time>2019-10-24T07:26:29.000Z</time>
      </trkpt>
      <trkpt lat="43.3794" lon="6.08295">
        <ele>260.79998779297</ele>
        <time>2019-10-24T07:26:31.000Z</time>
      </trkpt>
      <trkpt lat="43.37935" lon="6.08294">
        <ele>261.60000610352</ele>
        <time>2019-10-24T07:26:33.000Z</time>
      </trkpt>
      <trkpt lat="43.3793" lon="6.08293">
        <ele>262.60000610352</ele>
        <time>2019-10-24T07:26:35.000Z</time>
      </trkpt>
      <trkpt lat="43.37922" lon="6.08291">
        <ele>264</ele>
        <time>2019-10-24T07:26:38.000Z</time>
      </trkpt>
      <trkpt lat="43.37912" lon="6.08289">
        <ele>265</ele>
        <time>2019-10-24T07:26:42.000Z</time>
      </trkpt>
      <trkpt lat="43.37907" lon="6.0829">
        <ele>265.39999389648</ele>
        <time>2019-10-24T07:26:44.000Z</time>
      </trkpt>
      <trkpt lat="43.37903" lon="6.08294">
        <ele>266.20001220703</ele>
        <time>2019-10-24T07:26:46.000Z</time>
      </trkpt>
      <trkpt lat="43.37902" lon="6.08303">
        <ele>266.60000610352</ele>
        <time>2019-10-24T07:26:48.000Z</time>
      </trkpt>
      <trkpt lat="43.37901" lon="6.08312">
        <ele>266.79998779297</ele>
        <time>2019-10-24T07:26:50.000Z</time>
      </trkpt>
      <trkpt lat="43.37898" lon="6.08339">
        <ele>266.79998779297</ele>
        <time>2019-10-24T07:26:55.000Z</time>
      </trkpt>
      <trkpt lat="43.37897" lon="6.08351">
        <ele>266.60000610352</ele>
        <time>2019-10-24T07:26:57.000Z</time>
      </trkpt>
      <trkpt lat="43.37895" lon="6.08371">
        <ele>266.20001220703</ele>
        <time>2019-10-24T07:27:01.000Z</time>
      </trkpt>
      <trkpt lat="43.3789" lon="6.08407">
        <ele>266.20001220703</ele>
        <time>2019-10-24T07:27:08.000Z</time>
      </trkpt>
      <trkpt lat="43.37886" lon="6.08423">
        <ele>266</ele>
        <time>2019-10-24T07:27:11.000Z</time>
      </trkpt>
      <trkpt lat="43.37879" lon="6.08439">
        <ele>266.20001220703</ele>
        <time>2019-10-24T07:27:14.000Z</time>
      </trkpt>
      <trkpt lat="43.37878" lon="6.08445">
        <ele>266</ele>
        <time>2019-10-24T07:27:15.000Z</time>
      </trkpt>
      <trkpt lat="43.37875" lon="6.08471">
        <ele>265.60000610352</ele>
        <time>2019-10-24T07:27:20.000Z</time>
      </trkpt>
      <trkpt lat="43.37872" lon="6.08503">
        <ele>265.79998779297</ele>
        <time>2019-10-24T07:27:26.000Z</time>
      </trkpt>
      <trkpt lat="43.37866" lon="6.08542">
        <ele>266</ele>
        <time>2019-10-24T07:27:34.000Z</time>
      </trkpt>
      <trkpt lat="43.37862" lon="6.08573">
        <ele>267.20001220703</ele>
        <time>2019-10-24T07:27:40.000Z</time>
      </trkpt>
      <trkpt lat="43.37857" lon="6.08599">
        <ele>267.79998779297</ele>
        <time>2019-10-24T07:27:45.000Z</time>
      </trkpt>
      <trkpt lat="43.37854" lon="6.08609">
        <ele>268</ele>
        <time>2019-10-24T07:27:47.000Z</time>
      </trkpt>
      <trkpt lat="43.37839" lon="6.08632">
        <ele>268.79998779297</ele>
        <time>2019-10-24T07:27:53.000Z</time>
      </trkpt>
      <trkpt lat="43.37837" lon="6.08636">
        <ele>269</ele>
        <time>2019-10-24T07:27:54.000Z</time>
      </trkpt>
      <trkpt lat="43.37828" lon="6.08658">
        <ele>270</ele>
        <time>2019-10-24T07:27:59.000Z</time>
      </trkpt>
      <trkpt lat="43.37827" lon="6.08664">
        <ele>270.20001220703</ele>
        <time>2019-10-24T07:28:00.000Z</time>
      </trkpt>
      <trkpt lat="43.37825" lon="6.08679">
        <ele>271</ele>
        <time>2019-10-24T07:28:03.000Z</time>
      </trkpt>
      <trkpt lat="43.37822" lon="6.08702">
        <ele>272</ele>
        <time>2019-10-24T07:28:08.000Z</time>
      </trkpt>
      <trkpt lat="43.37821" lon="6.08706">
        <ele>272.20001220703</ele>
        <time>2019-10-24T07:28:09.000Z</time>
      </trkpt>
      <trkpt lat="43.37819" lon="6.08719">
        <ele>272.60000610352</ele>
        <time>2019-10-24T07:28:12.000Z</time>
      </trkpt>
      <trkpt lat="43.37815" lon="6.08731">
        <ele>273.60000610352</ele>
        <time>2019-10-24T07:28:15.000Z</time>
      </trkpt>
      <trkpt lat="43.37809" lon="6.08741">
        <ele>274.60000610352</ele>
        <time>2019-10-24T07:28:18.000Z</time>
      </trkpt>
      <trkpt lat="43.37803" lon="6.08747">
        <ele>275.39999389648</ele>
        <time>2019-10-24T07:28:21.000Z</time>
      </trkpt>
      <trkpt lat="43.37797" lon="6.08751">
        <ele>275.79998779297</ele>
        <time>2019-10-24T07:28:23.000Z</time>
      </trkpt>
      <trkpt lat="43.37787" lon="6.08758">
        <ele>276.79998779297</ele>
        <time>2019-10-24T07:28:27.000Z</time>
      </trkpt>
      <trkpt lat="43.37785" lon="6.08759">
        <ele>277</ele>
        <time>2019-10-24T07:28:28.000Z</time>
      </trkpt>
      <trkpt lat="43.37779" lon="6.0877">
        <ele>278.39999389648</ele>
        <time>2019-10-24T07:28:32.000Z</time>
      </trkpt>
      <trkpt lat="43.37778" lon="6.08773">
        <ele>278.79998779297</ele>
        <time>2019-10-24T07:28:33.000Z</time>
      </trkpt>
      <trkpt lat="43.3777" lon="6.08794">
        <ele>279.60000610352</ele>
        <time>2019-10-24T07:28:39.000Z</time>
      </trkpt>
      <trkpt lat="43.37767" lon="6.08817">
        <ele>280.60000610352</ele>
        <time>2019-10-24T07:28:45.000Z</time>
      </trkpt>
      <trkpt lat="43.37772" lon="6.08855">
        <ele>281.20001220703</ele>
        <time>2019-10-24T07:28:53.000Z</time>
      </trkpt>
      <trkpt lat="43.37768" lon="6.08887">
        <ele>281</ele>
        <time>2019-10-24T07:28:59.000Z</time>
      </trkpt>
      <trkpt lat="43.37757" lon="6.08931">
        <ele>281.79998779297</ele>
        <time>2019-10-24T07:29:08.000Z</time>
      </trkpt>
      <trkpt lat="43.37754" lon="6.0894">
        <ele>282</ele>
        <time>2019-10-24T07:29:10.000Z</time>
      </trkpt>
      <trkpt lat="43.37744" lon="6.08979">
        <ele>282.79998779297</ele>
        <time>2019-10-24T07:29:18.000Z</time>
      </trkpt>
      <trkpt lat="43.37742" lon="6.08984">
        <ele>283</ele>
        <time>2019-10-24T07:29:19.000Z</time>
      </trkpt>
      <trkpt lat="43.37735" lon="6.09013">
        <ele>284</ele>
        <time>2019-10-24T07:29:25.000Z</time>
      </trkpt>
      <trkpt lat="43.3773" lon="6.09032">
        <ele>284.39999389648</ele>
        <time>2019-10-24T07:29:29.000Z</time>
      </trkpt>
      <trkpt lat="43.37726" lon="6.09052">
        <ele>285</ele>
        <time>2019-10-24T07:29:33.000Z</time>
      </trkpt>
      <trkpt lat="43.37722" lon="6.09069">
        <ele>285</ele>
        <time>2019-10-24T07:29:36.000Z</time>
      </trkpt>
      <trkpt lat="43.37718" lon="6.09098">
        <ele>283.79998779297</ele>
        <time>2019-10-24T07:29:40.000Z</time>
      </trkpt>
      <trkpt lat="43.37715" lon="6.09114">
        <ele>283.39999389648</ele>
        <time>2019-10-24T07:29:42.000Z</time>
      </trkpt>
      <trkpt lat="43.37712" lon="6.0913">
        <ele>282.79998779297</ele>
        <time>2019-10-24T07:29:44.000Z</time>
      </trkpt>
      <trkpt lat="43.37706" lon="6.09166">
        <ele>281.60000610352</ele>
        <time>2019-10-24T07:29:48.000Z</time>
      </trkpt>
      <trkpt lat="43.37704" lon="6.09174">
        <ele>281.20001220703</ele>
        <time>2019-10-24T07:29:49.000Z</time>
      </trkpt>
      <trkpt lat="43.37699" lon="6.09203">
        <ele>280.20001220703</ele>
        <time>2019-10-24T07:29:52.000Z</time>
      </trkpt>
      <trkpt lat="43.37697" lon="6.09223">
        <ele>279.79998779297</ele>
        <time>2019-10-24T07:29:54.000Z</time>
      </trkpt>
      <trkpt lat="43.37694" lon="6.09254">
        <ele>279</ele>
        <time>2019-10-24T07:29:57.000Z</time>
      </trkpt>
      <trkpt lat="43.37691" lon="6.09285">
        <ele>277.79998779297</ele>
        <time>2019-10-24T07:30:00.000Z</time>
      </trkpt>
      <trkpt lat="43.37689" lon="6.09305">
        <ele>277.20001220703</ele>
        <time>2019-10-24T07:30:02.000Z</time>
      </trkpt>
      <trkpt lat="43.37689" lon="6.09316">
        <ele>276.60000610352</ele>
        <time>2019-10-24T07:30:03.000Z</time>
      </trkpt>
      <trkpt lat="43.37686" lon="6.09358">
        <ele>275.39999389648</ele>
        <time>2019-10-24T07:30:07.000Z</time>
      </trkpt>
      <trkpt lat="43.37684" lon="6.09377">
        <ele>275.39999389648</ele>
        <time>2019-10-24T07:30:09.000Z</time>
      </trkpt>
      <trkpt lat="43.37684" lon="6.09385">
        <ele>275.20001220703</ele>
        <time>2019-10-24T07:30:10.000Z</time>
      </trkpt>
      <trkpt lat="43.37682" lon="6.09411">
        <ele>274.20001220703</ele>
        <time>2019-10-24T07:30:13.000Z</time>
      </trkpt>
      <trkpt lat="43.37681" lon="6.09419">
        <ele>274</ele>
        <time>2019-10-24T07:30:14.000Z</time>
      </trkpt>
      <trkpt lat="43.3768" lon="6.09434">
        <ele>273.79998779297</ele>
        <time>2019-10-24T07:30:16.000Z</time>
      </trkpt>
      <trkpt lat="43.37676" lon="6.09488">
        <ele>273.79998779297</ele>
        <time>2019-10-24T07:30:24.000Z</time>
      </trkpt>
      <trkpt lat="43.37676" lon="6.09529">
        <ele>273.39999389648</ele>
        <time>2019-10-24T07:30:30.000Z</time>
      </trkpt>
      <trkpt lat="43.37676" lon="6.09536">
        <ele>273.20001220703</ele>
        <time>2019-10-24T07:30:31.000Z</time>
      </trkpt>
      <trkpt lat="43.37675" lon="6.09543">
        <ele>273.20001220703</ele>
        <time>2019-10-24T07:30:32.000Z</time>
      </trkpt>
      <trkpt lat="43.3767" lon="6.09554">
        <ele>273.20001220703</ele>
        <time>2019-10-24T07:30:34.000Z</time>
      </trkpt>
      <trkpt lat="43.37663" lon="6.09563">
        <ele>273.20001220703</ele>
        <time>2019-10-24T07:30:36.000Z</time>
      </trkpt>
      <trkpt lat="43.37653" lon="6.09576">
        <ele>273.39999389648</ele>
        <time>2019-10-24T07:30:39.000Z</time>
      </trkpt>
      <trkpt lat="43.3763" lon="6.096">
        <ele>274.39999389648</ele>
        <time>2019-10-24T07:30:45.000Z</time>
      </trkpt>
      <trkpt lat="43.37622" lon="6.09607">
        <ele>275</ele>
        <time>2019-10-24T07:30:47.000Z</time>
      </trkpt>
      <trkpt lat="43.37608" lon="6.09617">
        <ele>275.60000610352</ele>
        <time>2019-10-24T07:30:50.000Z</time>
      </trkpt>
      <trkpt lat="43.37595" lon="6.09625">
        <ele>276.20001220703</ele>
        <time>2019-10-24T07:30:53.000Z</time>
      </trkpt>
      <trkpt lat="43.37587" lon="6.09629">
        <ele>276.60000610352</ele>
        <time>2019-10-24T07:30:55.000Z</time>
      </trkpt>
      <trkpt lat="43.37582" lon="6.09631">
        <ele>276.79998779297</ele>
        <time>2019-10-24T07:30:56.000Z</time>
      </trkpt>
      <trkpt lat="43.37558" lon="6.09637">
        <ele>277.60000610352</ele>
        <time>2019-10-24T07:31:01.000Z</time>
      </trkpt>
      <trkpt lat="43.37548" lon="6.0964">
        <ele>278</ele>
        <time>2019-10-24T07:31:03.000Z</time>
      </trkpt>
      <trkpt lat="43.37519" lon="6.0965">
        <ele>278.60000610352</ele>
        <time>2019-10-24T07:31:09.000Z</time>
      </trkpt>
      <trkpt lat="43.3751" lon="6.09656">
        <ele>279</ele>
        <time>2019-10-24T07:31:11.000Z</time>
      </trkpt>
      <trkpt lat="43.37506" lon="6.09659">
        <ele>279</ele>
        <time>2019-10-24T07:31:12.000Z</time>
      </trkpt>
      <trkpt lat="43.37498" lon="6.09668">
        <ele>279.39999389648</ele>
        <time>2019-10-24T07:31:14.000Z</time>
      </trkpt>
      <trkpt lat="43.37487" lon="6.09693">
        <ele>280</ele>
        <time>2019-10-24T07:31:18.000Z</time>
      </trkpt>
      <trkpt lat="43.37485" lon="6.097">
        <ele>280</ele>
        <time>2019-10-24T07:31:19.000Z</time>
      </trkpt>
      <trkpt lat="43.37473" lon="6.09742">
        <ele>280.39999389648</ele>
        <time>2019-10-24T07:31:25.000Z</time>
      </trkpt>
      <trkpt lat="43.37471" lon="6.09748">
        <ele>280.39999389648</ele>
        <time>2019-10-24T07:31:26.000Z</time>
      </trkpt>
      <trkpt lat="43.37456" lon="6.09768">
        <ele>281.20001220703</ele>
        <time>2019-10-24T07:31:30.000Z</time>
      </trkpt>
      <trkpt lat="43.37443" lon="6.09776">
        <ele>282</ele>
        <time>2019-10-24T07:31:33.000Z</time>
      </trkpt>
      <trkpt lat="43.37439" lon="6.09777">
        <ele>282.20001220703</ele>
        <time>2019-10-24T07:31:34.000Z</time>
      </trkpt>
      <trkpt lat="43.37434" lon="6.09779">
        <ele>282.60000610352</ele>
        <time>2019-10-24T07:31:35.000Z</time>
      </trkpt>
      <trkpt lat="43.37412" lon="6.09784">
        <ele>283.60000610352</ele>
        <time>2019-10-24T07:31:40.000Z</time>
      </trkpt>
      <trkpt lat="43.37398" lon="6.09789">
        <ele>284.20001220703</ele>
        <time>2019-10-24T07:31:43.000Z</time>
      </trkpt>
      <trkpt lat="43.37394" lon="6.09791">
        <ele>284.60000610352</ele>
        <time>2019-10-24T07:31:44.000Z</time>
      </trkpt>
      <trkpt lat="43.3739" lon="6.09794">
        <ele>284.79998779297</ele>
        <time>2019-10-24T07:31:45.000Z</time>
      </trkpt>
      <trkpt lat="43.3738" lon="6.09804">
        <ele>285.79998779297</ele>
        <time>2019-10-24T07:31:48.000Z</time>
      </trkpt>
      <trkpt lat="43.37377" lon="6.09807">
        <ele>286.20001220703</ele>
        <time>2019-10-24T07:31:49.000Z</time>
      </trkpt>
      <trkpt lat="43.37371" lon="6.09815">
        <ele>286.60000610352</ele>
        <time>2019-10-24T07:31:51.000Z</time>
      </trkpt>
      <trkpt lat="43.37363" lon="6.0983">
        <ele>287.20001220703</ele>
        <time>2019-10-24T07:31:54.000Z</time>
      </trkpt>
      <trkpt lat="43.37361" lon="6.09835">
        <ele>287.39999389648</ele>
        <time>2019-10-24T07:31:55.000Z</time>
      </trkpt>
      <trkpt lat="43.37357" lon="6.09847">
        <ele>287.79998779297</ele>
        <time>2019-10-24T07:31:57.000Z</time>
      </trkpt>
      <trkpt lat="43.37354" lon="6.09859">
        <ele>288.39999389648</ele>
        <time>2019-10-24T07:31:59.000Z</time>
      </trkpt>
      <trkpt lat="43.37352" lon="6.09865">
        <ele>288.60000610352</ele>
        <time>2019-10-24T07:32:00.000Z</time>
      </trkpt>
      <trkpt lat="43.3735" lon="6.0989">
        <ele>289.39999389648</ele>
        <time>2019-10-24T07:32:04.000Z</time>
      </trkpt>
      <trkpt lat="43.37349" lon="6.09903">
        <ele>289.60000610352</ele>
        <time>2019-10-24T07:32:06.000Z</time>
      </trkpt>
      <trkpt lat="43.37348" lon="6.09922">
        <ele>290.60000610352</ele>
        <time>2019-10-24T07:32:09.000Z</time>
      </trkpt>
      <trkpt lat="43.37347" lon="6.09954">
        <ele>291.39999389648</ele>
        <time>2019-10-24T07:32:14.000Z</time>
      </trkpt>
      <trkpt lat="43.37345" lon="6.09966">
        <ele>291.60000610352</ele>
        <time>2019-10-24T07:32:16.000Z</time>
      </trkpt>
      <trkpt lat="43.3734" lon="6.09983">
        <ele>292</ele>
        <time>2019-10-24T07:32:19.000Z</time>
      </trkpt>
      <trkpt lat="43.37337" lon="6.09988">
        <ele>292.20001220703</ele>
        <time>2019-10-24T07:32:20.000Z</time>
      </trkpt>
      <trkpt lat="43.37332" lon="6.09996">
        <ele>292.79998779297</ele>
        <time>2019-10-24T07:32:22.000Z</time>
      </trkpt>
      <trkpt lat="43.37326" lon="6.10004">
        <ele>293</ele>
        <time>2019-10-24T07:32:24.000Z</time>
      </trkpt>
      <trkpt lat="43.37314" lon="6.10017">
        <ele>294</ele>
        <time>2019-10-24T07:32:29.000Z</time>
      </trkpt>
      <trkpt lat="43.37312" lon="6.10019">
        <ele>294.20001220703</ele>
        <time>2019-10-24T07:32:30.000Z</time>
      </trkpt>
      <trkpt lat="43.37302" lon="6.10039">
        <ele>294.79998779297</ele>
        <time>2019-10-24T07:32:35.000Z</time>
      </trkpt>
      <trkpt lat="43.37289" lon="6.10059">
        <ele>295</ele>
        <time>2019-10-24T07:32:40.000Z</time>
      </trkpt>
      <trkpt lat="43.3727" lon="6.10091">
        <ele>295.79998779297</ele>
        <time>2019-10-24T07:32:48.000Z</time>
      </trkpt>
      <trkpt lat="43.37268" lon="6.10095">
        <ele>296.20001220703</ele>
        <time>2019-10-24T07:32:49.000Z</time>
      </trkpt>
      <trkpt lat="43.37258" lon="6.10124">
        <ele>297.39999389648</ele>
        <time>2019-10-24T07:32:55.000Z</time>
      </trkpt>
      <trkpt lat="43.37256" lon="6.10129">
        <ele>297.39999389648</ele>
        <time>2019-10-24T07:32:56.000Z</time>
      </trkpt>
      <trkpt lat="43.3725" lon="6.10167">
        <ele>298.20001220703</ele>
        <time>2019-10-24T07:33:03.000Z</time>
      </trkpt>
      <trkpt lat="43.37251" lon="6.10194">
        <ele>298.39999389648</ele>
        <time>2019-10-24T07:33:08.000Z</time>
      </trkpt>
      <trkpt lat="43.37252" lon="6.10199">
        <ele>298.39999389648</ele>
        <time>2019-10-24T07:33:09.000Z</time>
      </trkpt>
      <trkpt lat="43.37255" lon="6.10226">
        <ele>298.79998779297</ele>
        <time>2019-10-24T07:33:14.000Z</time>
      </trkpt>
      <trkpt lat="43.37256" lon="6.10231">
        <ele>298.79998779297</ele>
        <time>2019-10-24T07:33:15.000Z</time>
      </trkpt>
      <trkpt lat="43.37261" lon="6.10247">
        <ele>299</ele>
        <time>2019-10-24T07:33:18.000Z</time>
      </trkpt>
      <trkpt lat="43.37266" lon="6.10265">
        <ele>298.79998779297</ele>
        <time>2019-10-24T07:33:21.000Z</time>
      </trkpt>
      <trkpt lat="43.37268" lon="6.10273">
        <ele>298.79998779297</ele>
        <time>2019-10-24T07:33:22.000Z</time>
      </trkpt>
      <trkpt lat="43.37272" lon="6.10288">
        <ele>298.39999389648</ele>
        <time>2019-10-24T07:33:24.000Z</time>
      </trkpt>
      <trkpt lat="43.37275" lon="6.10313">
        <ele>298.39999389648</ele>
        <time>2019-10-24T07:33:27.000Z</time>
      </trkpt>
      <trkpt lat="43.37272" lon="6.10362">
        <ele>297.60000610352</ele>
        <time>2019-10-24T07:33:33.000Z</time>
      </trkpt>
      <trkpt lat="43.37272" lon="6.10377">
        <ele>297.20001220703</ele>
        <time>2019-10-24T07:33:35.000Z</time>
      </trkpt>
      <trkpt lat="43.37273" lon="6.10411">
        <ele>297</ele>
        <time>2019-10-24T07:33:39.000Z</time>
      </trkpt>
      <trkpt lat="43.37276" lon="6.10444">
        <ele>296.39999389648</ele>
        <time>2019-10-24T07:33:43.000Z</time>
      </trkpt>
      <trkpt lat="43.37278" lon="6.1046">
        <ele>296.20001220703</ele>
        <time>2019-10-24T07:33:45.000Z</time>
      </trkpt>
      <trkpt lat="43.37281" lon="6.1051">
        <ele>295.39999389648</ele>
        <time>2019-10-24T07:33:51.000Z</time>
      </trkpt>
      <trkpt lat="43.37281" lon="6.10552">
        <ele>294.20001220703</ele>
        <time>2019-10-24T07:33:56.000Z</time>
      </trkpt>
      <trkpt lat="43.37281" lon="6.1056">
        <ele>294.20001220703</ele>
        <time>2019-10-24T07:33:57.000Z</time>
      </trkpt>
      <trkpt lat="43.3728" lon="6.10568">
        <ele>294.20001220703</ele>
        <time>2019-10-24T07:33:58.000Z</time>
      </trkpt>
      <trkpt lat="43.37273" lon="6.10591">
        <ele>294</ele>
        <time>2019-10-24T07:34:01.000Z</time>
      </trkpt>
      <trkpt lat="43.3727" lon="6.10598">
        <ele>294</ele>
        <time>2019-10-24T07:34:02.000Z</time>
      </trkpt>
      <trkpt lat="43.37267" lon="6.10606">
        <ele>294</ele>
        <time>2019-10-24T07:34:03.000Z</time>
      </trkpt>
      <trkpt lat="43.37251" lon="6.10641">
        <ele>293.20001220703</ele>
        <time>2019-10-24T07:34:08.000Z</time>
      </trkpt>
      <trkpt lat="43.37241" lon="6.10662">
        <ele>293</ele>
        <time>2019-10-24T07:34:11.000Z</time>
      </trkpt>
      <trkpt lat="43.37226" lon="6.107">
        <ele>292.39999389648</ele>
        <time>2019-10-24T07:34:16.000Z</time>
      </trkpt>
      <trkpt lat="43.37224" lon="6.10708">
        <ele>292.20001220703</ele>
        <time>2019-10-24T07:34:17.000Z</time>
      </trkpt>
      <trkpt lat="43.37213" lon="6.10753">
        <ele>291.39999389648</ele>
        <time>2019-10-24T07:34:22.000Z</time>
      </trkpt>
      <trkpt lat="43.37211" lon="6.10761">
        <ele>291.20001220703</ele>
        <time>2019-10-24T07:34:23.000Z</time>
      </trkpt>
      <trkpt lat="43.37202" lon="6.10797">
        <ele>290.39999389648</ele>
        <time>2019-10-24T07:34:27.000Z</time>
      </trkpt>
      <trkpt lat="43.372" lon="6.10806">
        <ele>290.20001220703</ele>
        <time>2019-10-24T07:34:28.000Z</time>
      </trkpt>
      <trkpt lat="43.37197" lon="6.10815">
        <ele>290</ele>
        <time>2019-10-24T07:34:29.000Z</time>
      </trkpt>
      <trkpt lat="43.3719" lon="6.10854">
        <ele>289</ele>
        <time>2019-10-24T07:34:33.000Z</time>
      </trkpt>
      <trkpt lat="43.37189" lon="6.10874">
        <ele>288.60000610352</ele>
        <time>2019-10-24T07:34:35.000Z</time>
      </trkpt>
      <trkpt lat="43.37189" lon="6.10903">
        <ele>288.20001220703</ele>
        <time>2019-10-24T07:34:38.000Z</time>
      </trkpt>
      <trkpt lat="43.37189" lon="6.10921">
        <ele>288</ele>
        <time>2019-10-24T07:34:40.000Z</time>
      </trkpt>
      <trkpt lat="43.37188" lon="6.10944">
        <ele>287.79998779297</ele>
        <time>2019-10-24T07:34:43.000Z</time>
      </trkpt>
      <trkpt lat="43.37187" lon="6.1095">
        <ele>288</ele>
        <time>2019-10-24T07:34:44.000Z</time>
      </trkpt>
      <trkpt lat="43.37185" lon="6.10967">
        <ele>288.20001220703</ele>
        <time>2019-10-24T07:34:47.000Z</time>
      </trkpt>
      <trkpt lat="43.37183" lon="6.10984">
        <ele>288.60000610352</ele>
        <time>2019-10-24T07:34:50.000Z</time>
      </trkpt>
      <trkpt lat="43.37182" lon="6.11001">
        <ele>289</ele>
        <time>2019-10-24T07:34:53.000Z</time>
      </trkpt>
      <trkpt lat="43.37178" lon="6.11023">
        <ele>289</ele>
        <time>2019-10-24T07:34:57.000Z</time>
      </trkpt>
      <trkpt lat="43.37175" lon="6.11061">
        <ele>289.60000610352</ele>
        <time>2019-10-24T07:35:04.000Z</time>
      </trkpt>
      <trkpt lat="43.37174" lon="6.11093">
        <ele>290</ele>
        <time>2019-10-24T07:35:10.000Z</time>
      </trkpt>
      <trkpt lat="43.37174" lon="6.11098">
        <ele>290</ele>
        <time>2019-10-24T07:35:11.000Z</time>
      </trkpt>
      <trkpt lat="43.37173" lon="6.11135">
        <ele>290.39999389648</ele>
        <time>2019-10-24T07:35:17.000Z</time>
      </trkpt>
      <trkpt lat="43.3717" lon="6.11169">
        <ele>290.39999389648</ele>
        <time>2019-10-24T07:35:23.000Z</time>
      </trkpt>
      <trkpt lat="43.37161" lon="6.11201">
        <ele>290.60000610352</ele>
        <time>2019-10-24T07:35:29.000Z</time>
      </trkpt>
      <trkpt lat="43.3715" lon="6.11223">
        <ele>290.79998779297</ele>
        <time>2019-10-24T07:35:34.000Z</time>
      </trkpt>
      <trkpt lat="43.37139" lon="6.11257">
        <ele>291.20001220703</ele>
        <time>2019-10-24T07:35:41.000Z</time>
      </trkpt>
      <trkpt lat="43.37137" lon="6.11262">
        <ele>291.39999389648</ele>
        <time>2019-10-24T07:35:42.000Z</time>
      </trkpt>
      <trkpt lat="43.37127" lon="6.11296">
        <ele>291.79998779297</ele>
        <time>2019-10-24T07:35:49.000Z</time>
      </trkpt>
      <trkpt lat="43.37116" lon="6.11329">
        <ele>292</ele>
        <time>2019-10-24T07:35:55.000Z</time>
      </trkpt>
      <trkpt lat="43.37101" lon="6.11371">
        <ele>292.39999389648</ele>
        <time>2019-10-24T07:36:03.000Z</time>
      </trkpt>
      <trkpt lat="43.37087" lon="6.11406">
        <ele>292.60000610352</ele>
        <time>2019-10-24T07:36:10.000Z</time>
      </trkpt>
      <trkpt lat="43.37085" lon="6.11411">
        <ele>292.79998779297</ele>
        <time>2019-10-24T07:36:11.000Z</time>
      </trkpt>
      <trkpt lat="43.37073" lon="6.11449">
        <ele>293.20001220703</ele>
        <time>2019-10-24T07:36:19.000Z</time>
      </trkpt>
      <trkpt lat="43.37068" lon="6.11487">
        <ele>293.60000610352</ele>
        <time>2019-10-24T07:36:27.000Z</time>
      </trkpt>
      <trkpt lat="43.37065" lon="6.11519">
        <ele>294</ele>
        <time>2019-10-24T07:36:34.000Z</time>
      </trkpt>
      <trkpt lat="43.37065" lon="6.11542">
        <ele>294.20001220703</ele>
        <time>2019-10-24T07:36:39.000Z</time>
      </trkpt>
      <trkpt lat="43.37066" lon="6.11568">
        <ele>294.39999389648</ele>
        <time>2019-10-24T07:36:44.000Z</time>
      </trkpt>
      <trkpt lat="43.37068" lon="6.11598">
        <ele>294.39999389648</ele>
        <time>2019-10-24T07:36:49.000Z</time>
      </trkpt>
      <trkpt lat="43.3707" lon="6.11616">
        <ele>294.60000610352</ele>
        <time>2019-10-24T07:36:52.000Z</time>
      </trkpt>
      <trkpt lat="43.3707" lon="6.11632">
        <ele>295</ele>
        <time>2019-10-24T07:36:55.000Z</time>
      </trkpt>
      <trkpt lat="43.37068" lon="6.11669">
        <ele>295.79998779297</ele>
        <time>2019-10-24T07:37:02.000Z</time>
      </trkpt>
      <trkpt lat="43.37064" lon="6.11706">
        <ele>296.79998779297</ele>
        <time>2019-10-24T07:37:09.000Z</time>
      </trkpt>
      <trkpt lat="43.37063" lon="6.11711">
        <ele>296.79998779297</ele>
        <time>2019-10-24T07:37:10.000Z</time>
      </trkpt>
      <trkpt lat="43.37056" lon="6.11742">
        <ele>297.79998779297</ele>
        <time>2019-10-24T07:37:16.000Z</time>
      </trkpt>
      <trkpt lat="43.37055" lon="6.11747">
        <ele>298</ele>
        <time>2019-10-24T07:37:17.000Z</time>
      </trkpt>
      <trkpt lat="43.37049" lon="6.11783">
        <ele>299.20001220703</ele>
        <time>2019-10-24T07:37:23.000Z</time>
      </trkpt>
      <trkpt lat="43.37046" lon="6.11794">
        <ele>299.39999389648</ele>
        <time>2019-10-24T07:37:25.000Z</time>
      </trkpt>
      <trkpt lat="43.37038" lon="6.11824">
        <ele>299.79998779297</ele>
        <time>2019-10-24T07:37:30.000Z</time>
      </trkpt>
      <trkpt lat="43.37037" lon="6.1183">
        <ele>300</ele>
        <time>2019-10-24T07:37:31.000Z</time>
      </trkpt>
      <trkpt lat="43.37034" lon="6.11853">
        <ele>300.39999389648</ele>
        <time>2019-10-24T07:37:35.000Z</time>
      </trkpt>
      <trkpt lat="43.37033" lon="6.11868">
        <ele>300.60000610352</ele>
        <time>2019-10-24T07:37:38.000Z</time>
      </trkpt>
      <trkpt lat="43.37032" lon="6.11887">
        <ele>301.60000610352</ele>
        <time>2019-10-24T07:37:42.000Z</time>
      </trkpt>
      <trkpt lat="43.37032" lon="6.11892">
        <ele>301.60000610352</ele>
        <time>2019-10-24T07:37:43.000Z</time>
      </trkpt>
      <trkpt lat="43.37032" lon="6.11918">
        <ele>302</ele>
        <time>2019-10-24T07:37:48.000Z</time>
      </trkpt>
      <trkpt lat="43.37026" lon="6.11953">
        <ele>302.39999389648</ele>
        <time>2019-10-24T07:37:54.000Z</time>
      </trkpt>
      <trkpt lat="43.37024" lon="6.11965">
        <ele>302.60000610352</ele>
        <time>2019-10-24T07:37:56.000Z</time>
      </trkpt>
      <trkpt lat="43.37018" lon="6.11996">
        <ele>303</ele>
        <time>2019-10-24T07:38:02.000Z</time>
      </trkpt>
      <trkpt lat="43.37015" lon="6.12012">
        <ele>303.60000610352</ele>
        <time>2019-10-24T07:38:05.000Z</time>
      </trkpt>
      <trkpt lat="43.3701" lon="6.12032">
        <ele>303.60000610352</ele>
        <time>2019-10-24T07:38:09.000Z</time>
      </trkpt>
      <trkpt lat="43.37008" lon="6.12071">
        <ele>304.60000610352</ele>
        <time>2019-10-24T07:38:16.000Z</time>
      </trkpt>
      <trkpt lat="43.37008" lon="6.12077">
        <ele>304.79998779297</ele>
        <time>2019-10-24T07:38:17.000Z</time>
      </trkpt>
      <trkpt lat="43.37005" lon="6.12099">
        <ele>305</ele>
        <time>2019-10-24T07:38:21.000Z</time>
      </trkpt>
      <trkpt lat="43.37" lon="6.12107">
        <ele>305</ele>
        <time>2019-10-24T07:38:23.000Z</time>
      </trkpt>
      <trkpt lat="43.36994" lon="6.12114">
        <ele>305</ele>
        <time>2019-10-24T07:38:25.000Z</time>
      </trkpt>
      <trkpt lat="43.36983" lon="6.1213">
        <ele>305.60000610352</ele>
        <time>2019-10-24T07:38:29.000Z</time>
      </trkpt>
      <trkpt lat="43.36981" lon="6.12135">
        <ele>305.60000610352</ele>
        <time>2019-10-24T07:38:30.000Z</time>
      </trkpt>
      <trkpt lat="43.36971" lon="6.12161">
        <ele>306</ele>
        <time>2019-10-24T07:38:35.000Z</time>
      </trkpt>
      <trkpt lat="43.36969" lon="6.12166">
        <ele>306.20001220703</ele>
        <time>2019-10-24T07:38:36.000Z</time>
      </trkpt>
      <trkpt lat="43.36962" lon="6.1218">
        <ele>306.79998779297</ele>
        <time>2019-10-24T07:38:39.000Z</time>
      </trkpt>
      <trkpt lat="43.36957" lon="6.12189">
        <ele>307</ele>
        <time>2019-10-24T07:38:41.000Z</time>
      </trkpt>
      <trkpt lat="43.36947" lon="6.12213">
        <ele>307.39999389648</ele>
        <time>2019-10-24T07:38:46.000Z</time>
      </trkpt>
      <trkpt lat="43.36936" lon="6.12236">
        <ele>307.79998779297</ele>
        <time>2019-10-24T07:38:51.000Z</time>
      </trkpt>
      <trkpt lat="43.36933" lon="6.12241">
        <ele>307.79998779297</ele>
        <time>2019-10-24T07:38:52.000Z</time>
      </trkpt>
      <trkpt lat="43.36929" lon="6.12252">
        <ele>307.79998779297</ele>
        <time>2019-10-24T07:38:54.000Z</time>
      </trkpt>
      <trkpt lat="43.36926" lon="6.12256">
        <ele>307.79998779297</ele>
        <time>2019-10-24T07:38:55.000Z</time>
      </trkpt>
      <trkpt lat="43.36923" lon="6.12259">
        <ele>308</ele>
        <time>2019-10-24T07:38:56.000Z</time>
      </trkpt>
      <trkpt lat="43.36909" lon="6.12274">
        <ele>308.60000610352</ele>
        <time>2019-10-24T07:39:01.000Z</time>
      </trkpt>
      <trkpt lat="43.36906" lon="6.12278">
        <ele>308.79998779297</ele>
        <time>2019-10-24T07:39:02.000Z</time>
      </trkpt>
      <trkpt lat="43.36886" lon="6.12308">
        <ele>309.60000610352</ele>
        <time>2019-10-24T07:39:09.000Z</time>
      </trkpt>
      <trkpt lat="43.36883" lon="6.12313">
        <ele>309.60000610352</ele>
        <time>2019-10-24T07:39:10.000Z</time>
      </trkpt>
      <trkpt lat="43.36874" lon="6.12325">
        <ele>309.79998779297</ele>
        <time>2019-10-24T07:39:13.000Z</time>
      </trkpt>
      <trkpt lat="43.36872" lon="6.1233">
        <ele>310</ele>
        <time>2019-10-24T07:39:14.000Z</time>
      </trkpt>
      <trkpt lat="43.36863" lon="6.12357">
        <ele>310.39999389648</ele>
        <time>2019-10-24T07:39:19.000Z</time>
      </trkpt>
      <trkpt lat="43.36866" lon="6.12374">
        <ele>311.20001220703</ele>
        <time>2019-10-24T07:39:22.000Z</time>
      </trkpt>
      <trkpt lat="43.36868" lon="6.1238">
        <ele>311.39999389648</ele>
        <time>2019-10-24T07:39:23.000Z</time>
      </trkpt>
      <trkpt lat="43.36869" lon="6.12386">
        <ele>311.60000610352</ele>
        <time>2019-10-24T07:39:24.000Z</time>
      </trkpt>
      <trkpt lat="43.36868" lon="6.12402">
        <ele>311.79998779297</ele>
        <time>2019-10-24T07:39:27.000Z</time>
      </trkpt>
      <trkpt lat="43.36874" lon="6.12432">
        <ele>312.20001220703</ele>
        <time>2019-10-24T07:39:32.000Z</time>
      </trkpt>
      <trkpt lat="43.36874" lon="6.12439">
        <ele>312.39999389648</ele>
        <time>2019-10-24T07:39:33.000Z</time>
      </trkpt>
      <trkpt lat="43.36875" lon="6.12465">
        <ele>313.20001220703</ele>
        <time>2019-10-24T07:39:37.000Z</time>
      </trkpt>
      <trkpt lat="43.36875" lon="6.1247">
        <ele>313.39999389648</ele>
        <time>2019-10-24T07:39:38.000Z</time>
      </trkpt>
      <trkpt lat="43.3687" lon="6.12484">
        <ele>313.79998779297</ele>
        <time>2019-10-24T07:39:41.000Z</time>
      </trkpt>
      <trkpt lat="43.3687" lon="6.1249">
        <ele>314.39999389648</ele>
        <time>2019-10-24T07:39:44.000Z</time>
      </trkpt>
      <trkpt lat="43.3687" lon="6.12493">
        <ele>314.39999389648</ele>
        <time>2019-10-24T07:39:45.000Z</time>
      </trkpt>
      <trkpt lat="43.3687" lon="6.1251">
        <ele>314.39999389648</ele>
        <time>2019-10-24T07:39:50.000Z</time>
      </trkpt>
      <trkpt lat="43.36876" lon="6.12533">
        <ele>314.60000610352</ele>
        <time>2019-10-24T07:39:55.000Z</time>
      </trkpt>
      <trkpt lat="43.36884" lon="6.12563">
        <ele>315.20001220703</ele>
        <time>2019-10-24T07:40:01.000Z</time>
      </trkpt>
      <trkpt lat="43.36885" lon="6.12569">
        <ele>315.39999389648</ele>
        <time>2019-10-24T07:40:02.000Z</time>
      </trkpt>
      <trkpt lat="43.3689" lon="6.12594">
        <ele>316.20001220703</ele>
        <time>2019-10-24T07:40:07.000Z</time>
      </trkpt>
      <trkpt lat="43.36892" lon="6.12603">
        <ele>316.60000610352</ele>
        <time>2019-10-24T07:40:09.000Z</time>
      </trkpt>
      <trkpt lat="43.36897" lon="6.12622">
        <ele>317.39999389648</ele>
        <time>2019-10-24T07:40:13.000Z</time>
      </trkpt>
      <trkpt lat="43.369" lon="6.1264">
        <ele>317.79998779297</ele>
        <time>2019-10-24T07:40:17.000Z</time>
      </trkpt>
      <trkpt lat="43.36903" lon="6.12654">
        <ele>318.39999389648</ele>
        <time>2019-10-24T07:40:20.000Z</time>
      </trkpt>
      <trkpt lat="43.36913" lon="6.12687">
        <ele>317.60000610352</ele>
        <time>2019-10-24T07:40:27.000Z</time>
      </trkpt>
      <trkpt lat="43.36921" lon="6.12715">
        <ele>317.79998779297</ele>
        <time>2019-10-24T07:40:33.000Z</time>
      </trkpt>
      <trkpt lat="43.36926" lon="6.12736">
        <ele>317.60000610352</ele>
        <time>2019-10-24T07:40:38.000Z</time>
      </trkpt>
      <trkpt lat="43.36935" lon="6.12749">
        <ele>317.60000610352</ele>
        <time>2019-10-24T07:40:42.000Z</time>
      </trkpt>
      <trkpt lat="43.36937" lon="6.12754">
        <ele>317.60000610352</ele>
        <time>2019-10-24T07:40:43.000Z</time>
      </trkpt>
      <trkpt lat="43.36937" lon="6.12763">
        <ele>317.60000610352</ele>
        <time>2019-10-24T07:40:45.000Z</time>
      </trkpt>
      <trkpt lat="43.36932" lon="6.12786">
        <ele>318</ele>
        <time>2019-10-24T07:40:50.000Z</time>
      </trkpt>
      <trkpt lat="43.3692" lon="6.12811">
        <ele>318.60000610352</ele>
        <time>2019-10-24T07:40:56.000Z</time>
      </trkpt>
      <trkpt lat="43.36917" lon="6.12819">
        <ele>319.20001220703</ele>
        <time>2019-10-24T07:40:58.000Z</time>
      </trkpt>
      <trkpt lat="43.36909" lon="6.12834">
        <ele>319.79998779297</ele>
        <time>2019-10-24T07:41:02.000Z</time>
      </trkpt>
      <trkpt lat="43.36906" lon="6.12842">
        <ele>320.20001220703</ele>
        <time>2019-10-24T07:41:04.000Z</time>
      </trkpt>
      <trkpt lat="43.36896" lon="6.12855">
        <ele>321</ele>
        <time>2019-10-24T07:41:08.000Z</time>
      </trkpt>
      <trkpt lat="43.36882" lon="6.12864">
        <ele>321.20001220703</ele>
        <time>2019-10-24T07:41:12.000Z</time>
      </trkpt>
      <trkpt lat="43.36874" lon="6.12873">
        <ele>321.60000610352</ele>
        <time>2019-10-24T07:41:15.000Z</time>
      </trkpt>
      <trkpt lat="43.3686" lon="6.12882">
        <ele>322.60000610352</ele>
        <time>2019-10-24T07:41:19.000Z</time>
      </trkpt>
      <trkpt lat="43.36857" lon="6.12885">
        <ele>323.20001220703</ele>
        <time>2019-10-24T07:41:20.000Z</time>
      </trkpt>
      <trkpt lat="43.36851" lon="6.12891">
        <ele>324</ele>
        <time>2019-10-24T07:41:22.000Z</time>
      </trkpt>
      <trkpt lat="43.3684" lon="6.12902">
        <ele>324.60000610352</ele>
        <time>2019-10-24T07:41:26.000Z</time>
      </trkpt>
      <trkpt lat="43.36834" lon="6.12907">
        <ele>325.20001220703</ele>
        <time>2019-10-24T07:41:28.000Z</time>
      </trkpt>
      <trkpt lat="43.36829" lon="6.12912">
        <ele>326.39999389648</ele>
        <time>2019-10-24T07:41:30.000Z</time>
      </trkpt>
      <trkpt lat="43.36821" lon="6.12924">
        <ele>327</ele>
        <time>2019-10-24T07:41:33.000Z</time>
      </trkpt>
      <trkpt lat="43.3681" lon="6.12939">
        <ele>327.39999389648</ele>
        <time>2019-10-24T07:41:37.000Z</time>
      </trkpt>
      <trkpt lat="43.36797" lon="6.12954">
        <ele>328.20001220703</ele>
        <time>2019-10-24T07:41:41.000Z</time>
      </trkpt>
      <trkpt lat="43.36794" lon="6.12957">
        <ele>328.60000610352</ele>
        <time>2019-10-24T07:41:42.000Z</time>
      </trkpt>
      <trkpt lat="43.36783" lon="6.12971">
        <ele>329.60000610352</ele>
        <time>2019-10-24T07:41:46.000Z</time>
      </trkpt>
      <trkpt lat="43.36776" lon="6.12977">
        <ele>330</ele>
        <time>2019-10-24T07:41:48.000Z</time>
      </trkpt>
      <trkpt lat="43.36758" lon="6.12997">
        <ele>330.79998779297</ele>
        <time>2019-10-24T07:41:54.000Z</time>
      </trkpt>
      <trkpt lat="43.36747" lon="6.13016">
        <ele>331.79998779297</ele>
        <time>2019-10-24T07:41:59.000Z</time>
      </trkpt>
      <trkpt lat="43.36739" lon="6.13029">
        <ele>333</ele>
        <time>2019-10-24T07:42:03.000Z</time>
      </trkpt>
      <trkpt lat="43.36735" lon="6.13036">
        <ele>333.79998779297</ele>
        <time>2019-10-24T07:42:05.000Z</time>
      </trkpt>
      <trkpt lat="43.3673" lon="6.13045">
        <ele>334</ele>
        <time>2019-10-24T07:42:07.000Z</time>
      </trkpt>
      <trkpt lat="43.3672" lon="6.13061">
        <ele>334.39999389648</ele>
        <time>2019-10-24T07:42:11.000Z</time>
      </trkpt>
      <trkpt lat="43.36715" lon="6.13076">
        <ele>335.20001220703</ele>
        <time>2019-10-24T07:42:14.000Z</time>
      </trkpt>
      <trkpt lat="43.36712" lon="6.13087">
        <ele>335.39999389648</ele>
        <time>2019-10-24T07:42:16.000Z</time>
      </trkpt>
      <trkpt lat="43.36705" lon="6.13112">
        <ele>336.20001220703</ele>
        <time>2019-10-24T07:42:21.000Z</time>
      </trkpt>
      <trkpt lat="43.36704" lon="6.13117">
        <ele>336.39999389648</ele>
        <time>2019-10-24T07:42:22.000Z</time>
      </trkpt>
      <trkpt lat="43.367" lon="6.13126">
        <ele>337.20001220703</ele>
        <time>2019-10-24T07:42:24.000Z</time>
      </trkpt>
      <trkpt lat="43.36692" lon="6.13141">
        <ele>337.79998779297</ele>
        <time>2019-10-24T07:42:28.000Z</time>
      </trkpt>
      <trkpt lat="43.36687" lon="6.13145">
        <ele>338.20001220703</ele>
        <time>2019-10-24T07:42:30.000Z</time>
      </trkpt>
      <trkpt lat="43.36681" lon="6.13147">
        <ele>339.20001220703</ele>
        <time>2019-10-24T07:42:32.000Z</time>
      </trkpt>
      <trkpt lat="43.36678" lon="6.13149">
        <ele>339.79998779297</ele>
        <time>2019-10-24T07:42:33.000Z</time>
      </trkpt>
      <trkpt lat="43.36669" lon="6.13153">
        <ele>340.79998779297</ele>
        <time>2019-10-24T07:42:36.000Z</time>
      </trkpt>
      <trkpt lat="43.36667" lon="6.13156">
        <ele>340.79998779297</ele>
        <time>2019-10-24T07:42:37.000Z</time>
      </trkpt>
      <trkpt lat="43.36663" lon="6.13168">
        <ele>341.60000610352</ele>
        <time>2019-10-24T07:42:40.000Z</time>
      </trkpt>
      <trkpt lat="43.36662" lon="6.13177">
        <ele>342</ele>
        <time>2019-10-24T07:42:42.000Z</time>
      </trkpt>
      <trkpt lat="43.36661" lon="6.13189">
        <ele>343.20001220703</ele>
        <time>2019-10-24T07:42:45.000Z</time>
      </trkpt>
      <trkpt lat="43.3666" lon="6.13194">
        <ele>343.39999389648</ele>
        <time>2019-10-24T07:42:46.000Z</time>
      </trkpt>
      <trkpt lat="43.36656" lon="6.13221">
        <ele>344.60000610352</ele>
        <time>2019-10-24T07:42:51.000Z</time>
      </trkpt>
      <trkpt lat="43.36654" lon="6.13247">
        <ele>345.60000610352</ele>
        <time>2019-10-24T07:42:56.000Z</time>
      </trkpt>
      <trkpt lat="43.36653" lon="6.13262">
        <ele>346.39999389648</ele>
        <time>2019-10-24T07:42:59.000Z</time>
      </trkpt>
      <trkpt lat="43.36651" lon="6.13272">
        <ele>346.79998779297</ele>
        <time>2019-10-24T07:43:01.000Z</time>
      </trkpt>
      <trkpt lat="43.36648" lon="6.13288">
        <ele>347.60000610352</ele>
        <time>2019-10-24T07:43:05.000Z</time>
      </trkpt>
      <trkpt lat="43.36646" lon="6.13298">
        <ele>347.79998779297</ele>
        <time>2019-10-24T07:43:07.000Z</time>
      </trkpt>
      <trkpt lat="43.36642" lon="6.13316">
        <ele>348.39999389648</ele>
        <time>2019-10-24T07:43:11.000Z</time>
      </trkpt>
      <trkpt lat="43.36641" lon="6.13325">
        <ele>348.79998779297</ele>
        <time>2019-10-24T07:43:13.000Z</time>
      </trkpt>
      <trkpt lat="43.36636" lon="6.13349">
        <ele>349.79998779297</ele>
        <time>2019-10-24T07:43:18.000Z</time>
      </trkpt>
      <trkpt lat="43.36635" lon="6.13353">
        <ele>350</ele>
        <time>2019-10-24T07:43:19.000Z</time>
      </trkpt>
      <trkpt lat="43.36627" lon="6.13383">
        <ele>350.60000610352</ele>
        <time>2019-10-24T07:43:25.000Z</time>
      </trkpt>
      <trkpt lat="43.36621" lon="6.13403">
        <ele>351</ele>
        <time>2019-10-24T07:43:29.000Z</time>
      </trkpt>
      <trkpt lat="43.36618" lon="6.13414">
        <ele>351.39999389648</ele>
        <time>2019-10-24T07:43:31.000Z</time>
      </trkpt>
      <trkpt lat="43.36611" lon="6.13439">
        <ele>351.79998779297</ele>
        <time>2019-10-24T07:43:36.000Z</time>
      </trkpt>
      <trkpt lat="43.36609" lon="6.13449">
        <ele>352.20001220703</ele>
        <time>2019-10-24T07:43:38.000Z</time>
      </trkpt>
      <trkpt lat="43.36604" lon="6.13468">
        <ele>352.60000610352</ele>
        <time>2019-10-24T07:43:42.000Z</time>
      </trkpt>
      <trkpt lat="43.36599" lon="6.135">
        <ele>353.39999389648</ele>
        <time>2019-10-24T07:43:48.000Z</time>
      </trkpt>
      <trkpt lat="43.36593" lon="6.13528">
        <ele>354.20001220703</ele>
        <time>2019-10-24T07:43:53.000Z</time>
      </trkpt>
      <trkpt lat="43.36592" lon="6.13532">
        <ele>354.60000610352</ele>
        <time>2019-10-24T07:43:54.000Z</time>
      </trkpt>
      <trkpt lat="43.36585" lon="6.13546">
        <ele>355</ele>
        <time>2019-10-24T07:43:57.000Z</time>
      </trkpt>
      <trkpt lat="43.36581" lon="6.13567">
        <ele>355.79998779297</ele>
        <time>2019-10-24T07:44:01.000Z</time>
      </trkpt>
      <trkpt lat="43.36578" lon="6.13585">
        <ele>356.79998779297</ele>
        <time>2019-10-24T07:44:05.000Z</time>
      </trkpt>
      <trkpt lat="43.36577" lon="6.13588">
        <ele>357</ele>
        <time>2019-10-24T07:44:06.000Z</time>
      </trkpt>
      <trkpt lat="43.36573" lon="6.13607">
        <ele>357.79998779297</ele>
        <time>2019-10-24T07:44:11.000Z</time>
      </trkpt>
      <trkpt lat="43.3657" lon="6.13617">
        <ele>358</ele>
        <time>2019-10-24T07:44:13.000Z</time>
      </trkpt>
      <trkpt lat="43.36567" lon="6.13632">
        <ele>358.39999389648</ele>
        <time>2019-10-24T07:44:16.000Z</time>
      </trkpt>
      <trkpt lat="43.36566" lon="6.13642">
        <ele>359</ele>
        <time>2019-10-24T07:44:18.000Z</time>
      </trkpt>
      <trkpt lat="43.36562" lon="6.13663">
        <ele>359.79998779297</ele>
        <time>2019-10-24T07:44:22.000Z</time>
      </trkpt>
      <trkpt lat="43.3656" lon="6.13672">
        <ele>360</ele>
        <time>2019-10-24T07:44:24.000Z</time>
      </trkpt>
      <trkpt lat="43.36557" lon="6.13683">
        <ele>361.20001220703</ele>
        <time>2019-10-24T07:44:27.000Z</time>
      </trkpt>
      <trkpt lat="43.36556" lon="6.13687">
        <ele>361.60000610352</ele>
        <time>2019-10-24T07:44:28.000Z</time>
      </trkpt>
      <trkpt lat="43.36556" lon="6.13701">
        <ele>362.39999389648</ele>
        <time>2019-10-24T07:44:31.000Z</time>
      </trkpt>
      <trkpt lat="43.36554" lon="6.1371">
        <ele>363.20001220703</ele>
        <time>2019-10-24T07:44:33.000Z</time>
      </trkpt>
      <trkpt lat="43.36553" lon="6.13714">
        <ele>363.39999389648</ele>
        <time>2019-10-24T07:44:34.000Z</time>
      </trkpt>
      <trkpt lat="43.36548" lon="6.13736">
        <ele>364.79998779297</ele>
        <time>2019-10-24T07:44:39.000Z</time>
      </trkpt>
      <trkpt lat="43.36544" lon="6.13755">
        <ele>365.60000610352</ele>
        <time>2019-10-24T07:44:44.000Z</time>
      </trkpt>
      <trkpt lat="43.36544" lon="6.13765">
        <ele>366</ele>
        <time>2019-10-24T07:44:46.000Z</time>
      </trkpt>
      <trkpt lat="43.36543" lon="6.13774">
        <ele>366.60000610352</ele>
        <time>2019-10-24T07:44:48.000Z</time>
      </trkpt>
      <trkpt lat="43.36541" lon="6.13787">
        <ele>367.20001220703</ele>
        <time>2019-10-24T07:44:51.000Z</time>
      </trkpt>
      <trkpt lat="43.36539" lon="6.13798">
        <ele>368.20001220703</ele>
        <time>2019-10-24T07:44:54.000Z</time>
      </trkpt>
      <trkpt lat="43.36539" lon="6.13802">
        <ele>368.60000610352</ele>
        <time>2019-10-24T07:44:55.000Z</time>
      </trkpt>
      <trkpt lat="43.36534" lon="6.13828">
        <ele>369.20001220703</ele>
        <time>2019-10-24T07:45:00.000Z</time>
      </trkpt>
      <trkpt lat="43.36533" lon="6.13838">
        <ele>369.60000610352</ele>
        <time>2019-10-24T07:45:02.000Z</time>
      </trkpt>
      <trkpt lat="43.36533" lon="6.13858">
        <ele>370.20001220703</ele>
        <time>2019-10-24T07:45:06.000Z</time>
      </trkpt>
      <trkpt lat="43.3653" lon="6.13876">
        <ele>370.60000610352</ele>
        <time>2019-10-24T07:45:10.000Z</time>
      </trkpt>
      <trkpt lat="43.36529" lon="6.13881">
        <ele>370.79998779297</ele>
        <time>2019-10-24T07:45:11.000Z</time>
      </trkpt>
      <trkpt lat="43.36526" lon="6.13899">
        <ele>371.60000610352</ele>
        <time>2019-10-24T07:45:15.000Z</time>
      </trkpt>
      <trkpt lat="43.36524" lon="6.13908">
        <ele>372</ele>
        <time>2019-10-24T07:45:17.000Z</time>
      </trkpt>
      <trkpt lat="43.36522" lon="6.1393">
        <ele>372.79998779297</ele>
        <time>2019-10-24T07:45:22.000Z</time>
      </trkpt>
      <trkpt lat="43.36522" lon="6.13935">
        <ele>372.79998779297</ele>
        <time>2019-10-24T07:45:23.000Z</time>
      </trkpt>
      <trkpt lat="43.36523" lon="6.13959">
        <ele>373.39999389648</ele>
        <time>2019-10-24T07:45:28.000Z</time>
      </trkpt>
      <trkpt lat="43.36527" lon="6.13977">
        <ele>373.79998779297</ele>
        <time>2019-10-24T07:45:32.000Z</time>
      </trkpt>
      <trkpt lat="43.36526" lon="6.13982">
        <ele>373.79998779297</ele>
        <time>2019-10-24T07:45:33.000Z</time>
      </trkpt>
      <trkpt lat="43.36524" lon="6.14002">
        <ele>375</ele>
        <time>2019-10-24T07:45:37.000Z</time>
      </trkpt>
      <trkpt lat="43.36523" lon="6.14007">
        <ele>375</ele>
        <time>2019-10-24T07:45:38.000Z</time>
      </trkpt>
      <trkpt lat="43.36521" lon="6.14031">
        <ele>375.20001220703</ele>
        <time>2019-10-24T07:45:42.000Z</time>
      </trkpt>
      <trkpt lat="43.36523" lon="6.14056">
        <ele>375.39999389648</ele>
        <time>2019-10-24T07:45:46.000Z</time>
      </trkpt>
      <trkpt lat="43.3653" lon="6.14079">
        <ele>375.79998779297</ele>
        <time>2019-10-24T07:45:50.000Z</time>
      </trkpt>
      <trkpt lat="43.36532" lon="6.14084">
        <ele>376</ele>
        <time>2019-10-24T07:45:51.000Z</time>
      </trkpt>
      <trkpt lat="43.36541" lon="6.14123">
        <ele>377.20001220703</ele>
        <time>2019-10-24T07:45:58.000Z</time>
      </trkpt>
      <trkpt lat="43.36542" lon="6.14134">
        <ele>377.79998779297</ele>
        <time>2019-10-24T07:46:00.000Z</time>
      </trkpt>
      <trkpt lat="43.36544" lon="6.14145">
        <ele>378.20001220703</ele>
        <time>2019-10-24T07:46:02.000Z</time>
      </trkpt>
      <trkpt lat="43.36545" lon="6.14151">
        <ele>378.39999389648</ele>
        <time>2019-10-24T07:46:03.000Z</time>
      </trkpt>
      <trkpt lat="43.36549" lon="6.14191">
        <ele>379.79998779297</ele>
        <time>2019-10-24T07:46:10.000Z</time>
      </trkpt>
      <trkpt lat="43.36549" lon="6.14206">
        <ele>380.79998779297</ele>
        <time>2019-10-24T07:46:13.000Z</time>
      </trkpt>
      <trkpt lat="43.36547" lon="6.14226">
        <ele>381.39999389648</ele>
        <time>2019-10-24T07:46:17.000Z</time>
      </trkpt>
      <trkpt lat="43.36545" lon="6.1424">
        <ele>382</ele>
        <time>2019-10-24T07:46:20.000Z</time>
      </trkpt>
      <trkpt lat="43.36544" lon="6.1425">
        <ele>382.39999389648</ele>
        <time>2019-10-24T07:46:22.000Z</time>
      </trkpt>
      <trkpt lat="43.36541" lon="6.14274">
        <ele>383.20001220703</ele>
        <time>2019-10-24T07:46:27.000Z</time>
      </trkpt>
      <trkpt lat="43.36538" lon="6.14284">
        <ele>383.39999389648</ele>
        <time>2019-10-24T07:46:29.000Z</time>
      </trkpt>
      <trkpt lat="43.36531" lon="6.14305">
        <ele>384.39999389648</ele>
        <time>2019-10-24T07:46:34.000Z</time>
      </trkpt>
      <trkpt lat="43.36519" lon="6.14325">
        <ele>385.20001220703</ele>
        <time>2019-10-24T07:46:39.000Z</time>
      </trkpt>
      <trkpt lat="43.36518" lon="6.1433">
        <ele>385.20001220703</ele>
        <time>2019-10-24T07:46:40.000Z</time>
      </trkpt>
      <trkpt lat="43.36517" lon="6.14342">
        <ele>385.39999389648</ele>
        <time>2019-10-24T07:46:42.000Z</time>
      </trkpt>
      <trkpt lat="43.36518" lon="6.14348">
        <ele>385.60000610352</ele>
        <time>2019-10-24T07:46:43.000Z</time>
      </trkpt>
      <trkpt lat="43.36523" lon="6.14365">
        <ele>386</ele>
        <time>2019-10-24T07:46:46.000Z</time>
      </trkpt>
      <trkpt lat="43.36527" lon="6.14377">
        <ele>386.39999389648</ele>
        <time>2019-10-24T07:46:48.000Z</time>
      </trkpt>
      <trkpt lat="43.36532" lon="6.14394">
        <ele>387.39999389648</ele>
        <time>2019-10-24T07:46:51.000Z</time>
      </trkpt>
      <trkpt lat="43.36539" lon="6.14419">
        <ele>387.79998779297</ele>
        <time>2019-10-24T07:46:55.000Z</time>
      </trkpt>
      <trkpt lat="43.36541" lon="6.14432">
        <ele>387.79998779297</ele>
        <time>2019-10-24T07:46:57.000Z</time>
      </trkpt>
      <trkpt lat="43.36542" lon="6.14453">
        <ele>388</ele>
        <time>2019-10-24T07:47:00.000Z</time>
      </trkpt>
      <trkpt lat="43.36539" lon="6.14466">
        <ele>388.20001220703</ele>
        <time>2019-10-24T07:47:02.000Z</time>
      </trkpt>
      <trkpt lat="43.36536" lon="6.14479">
        <ele>388.20001220703</ele>
        <time>2019-10-24T07:47:04.000Z</time>
      </trkpt>
      <trkpt lat="43.36531" lon="6.1449">
        <ele>388.39999389648</ele>
        <time>2019-10-24T07:47:06.000Z</time>
      </trkpt>
      <trkpt lat="43.36529" lon="6.14496">
        <ele>388.60000610352</ele>
        <time>2019-10-24T07:47:07.000Z</time>
      </trkpt>
      <trkpt lat="43.36527" lon="6.14502">
        <ele>388.60000610352</ele>
        <time>2019-10-24T07:47:08.000Z</time>
      </trkpt>
      <trkpt lat="43.36526" lon="6.14509">
        <ele>388.79998779297</ele>
        <time>2019-10-24T07:47:09.000Z</time>
      </trkpt>
      <trkpt lat="43.36529" lon="6.14535">
        <ele>389.20001220703</ele>
        <time>2019-10-24T07:47:13.000Z</time>
      </trkpt>
      <trkpt lat="43.36529" lon="6.14541">
        <ele>389.20001220703</ele>
        <time>2019-10-24T07:47:14.000Z</time>
      </trkpt>
      <trkpt lat="43.3653" lon="6.14547">
        <ele>389.60000610352</ele>
        <time>2019-10-24T07:47:15.000Z</time>
      </trkpt>
      <trkpt lat="43.36531" lon="6.1457">
        <ele>390.60000610352</ele>
        <time>2019-10-24T07:47:19.000Z</time>
      </trkpt>
      <trkpt lat="43.36531" lon="6.14575">
        <ele>390.79998779297</ele>
        <time>2019-10-24T07:47:20.000Z</time>
      </trkpt>
      <trkpt lat="43.3653" lon="6.14596">
        <ele>392</ele>
        <time>2019-10-24T07:47:24.000Z</time>
      </trkpt>
      <trkpt lat="43.3653" lon="6.1461">
        <ele>392.79998779297</ele>
        <time>2019-10-24T07:47:27.000Z</time>
      </trkpt>
      <trkpt lat="43.36529" lon="6.14615">
        <ele>393</ele>
        <time>2019-10-24T07:47:28.000Z</time>
      </trkpt>
      <trkpt lat="43.36528" lon="6.14633">
        <ele>394.39999389648</ele>
        <time>2019-10-24T07:47:32.000Z</time>
      </trkpt>
      <trkpt lat="43.36526" lon="6.14644">
        <ele>395.39999389648</ele>
        <time>2019-10-24T07:47:35.000Z</time>
      </trkpt>
      <trkpt lat="43.36524" lon="6.14654">
        <ele>395.60000610352</ele>
        <time>2019-10-24T07:47:37.000Z</time>
      </trkpt>
      <trkpt lat="43.36524" lon="6.14667">
        <ele>396.20001220703</ele>
        <time>2019-10-24T07:47:40.000Z</time>
      </trkpt>
      <trkpt lat="43.36524" lon="6.14675">
        <ele>396.60000610352</ele>
        <time>2019-10-24T07:47:42.000Z</time>
      </trkpt>
      <trkpt lat="43.36527" lon="6.14686">
        <ele>397.20001220703</ele>
        <time>2019-10-24T07:47:45.000Z</time>
      </trkpt>
      <trkpt lat="43.36528" lon="6.1469">
        <ele>397.60000610352</ele>
        <time>2019-10-24T07:47:46.000Z</time>
      </trkpt>
      <trkpt lat="43.3653" lon="6.14711">
        <ele>398.60000610352</ele>
        <time>2019-10-24T07:47:51.000Z</time>
      </trkpt>
      <trkpt lat="43.36529" lon="6.14746">
        <ele>399.60000610352</ele>
        <time>2019-10-24T07:47:58.000Z</time>
      </trkpt>
      <trkpt lat="43.3653" lon="6.14757">
        <ele>400</ele>
        <time>2019-10-24T07:48:00.000Z</time>
      </trkpt>
      <trkpt lat="43.36531" lon="6.14772">
        <ele>401.20001220703</ele>
        <time>2019-10-24T07:48:03.000Z</time>
      </trkpt>
      <trkpt lat="43.36532" lon="6.14782">
        <ele>401.60000610352</ele>
        <time>2019-10-24T07:48:05.000Z</time>
      </trkpt>
      <trkpt lat="43.36534" lon="6.14791">
        <ele>402.39999389648</ele>
        <time>2019-10-24T07:48:07.000Z</time>
      </trkpt>
      <trkpt lat="43.36537" lon="6.14805">
        <ele>403.39999389648</ele>
        <time>2019-10-24T07:48:10.000Z</time>
      </trkpt>
      <trkpt lat="43.3654" lon="6.14814">
        <ele>403.79998779297</ele>
        <time>2019-10-24T07:48:12.000Z</time>
      </trkpt>
      <trkpt lat="43.36544" lon="6.14828">
        <ele>404.79998779297</ele>
        <time>2019-10-24T07:48:15.000Z</time>
      </trkpt>
      <trkpt lat="43.36547" lon="6.14842">
        <ele>405.79998779297</ele>
        <time>2019-10-24T07:48:18.000Z</time>
      </trkpt>
      <trkpt lat="43.3655" lon="6.14872">
        <ele>407.20001220703</ele>
        <time>2019-10-24T07:48:25.000Z</time>
      </trkpt>
      <trkpt lat="43.36553" lon="6.1489">
        <ele>408.20001220703</ele>
        <time>2019-10-24T07:48:29.000Z</time>
      </trkpt>
      <trkpt lat="43.36554" lon="6.14905">
        <ele>409.39999389648</ele>
        <time>2019-10-24T07:48:32.000Z</time>
      </trkpt>
      <trkpt lat="43.36558" lon="6.14939">
        <ele>410.39999389648</ele>
        <time>2019-10-24T07:48:38.000Z</time>
      </trkpt>
      <trkpt lat="43.36559" lon="6.14945">
        <ele>410.79998779297</ele>
        <time>2019-10-24T07:48:39.000Z</time>
      </trkpt>
      <trkpt lat="43.36561" lon="6.14959">
        <ele>411</ele>
        <time>2019-10-24T07:48:41.000Z</time>
      </trkpt>
      <trkpt lat="43.36562" lon="6.14979">
        <ele>411.20001220703</ele>
        <time>2019-10-24T07:48:44.000Z</time>
      </trkpt>
      <trkpt lat="43.36561" lon="6.14992">
        <ele>411.60000610352</ele>
        <time>2019-10-24T07:48:46.000Z</time>
      </trkpt>
      <trkpt lat="43.36562" lon="6.15019">
        <ele>412.60000610352</ele>
        <time>2019-10-24T07:48:50.000Z</time>
      </trkpt>
      <trkpt lat="43.36563" lon="6.15065">
        <ele>412.79998779297</ele>
        <time>2019-10-24T07:48:57.000Z</time>
      </trkpt>
      <trkpt lat="43.36565" lon="6.15079">
        <ele>412.79998779297</ele>
        <time>2019-10-24T07:48:59.000Z</time>
      </trkpt>
      <trkpt lat="43.36566" lon="6.15104">
        <ele>413.60000610352</ele>
        <time>2019-10-24T07:49:03.000Z</time>
      </trkpt>
      <trkpt lat="43.36566" lon="6.1511">
        <ele>414</ele>
        <time>2019-10-24T07:49:04.000Z</time>
      </trkpt>
      <trkpt lat="43.36564" lon="6.15133">
        <ele>415.20001220703</ele>
        <time>2019-10-24T07:49:08.000Z</time>
      </trkpt>
      <trkpt lat="43.36564" lon="6.15153">
        <ele>416.20001220703</ele>
        <time>2019-10-24T07:49:12.000Z</time>
      </trkpt>
      <trkpt lat="43.36564" lon="6.15168">
        <ele>417.39999389648</ele>
        <time>2019-10-24T07:49:15.000Z</time>
      </trkpt>
      <trkpt lat="43.36557" lon="6.15192">
        <ele>418.20001220703</ele>
        <time>2019-10-24T07:49:20.000Z</time>
      </trkpt>
      <trkpt lat="43.36553" lon="6.15201">
        <ele>418.60000610352</ele>
        <time>2019-10-24T07:49:22.000Z</time>
      </trkpt>
      <trkpt lat="43.36544" lon="6.15213">
        <ele>419.79998779297</ele>
        <time>2019-10-24T07:49:26.000Z</time>
      </trkpt>
      <trkpt lat="43.36536" lon="6.15219">
        <ele>421.39999389648</ele>
        <time>2019-10-24T07:49:29.000Z</time>
      </trkpt>
      <trkpt lat="43.36527" lon="6.15227">
        <ele>422.60000610352</ele>
        <time>2019-10-24T07:49:32.000Z</time>
      </trkpt>
      <trkpt lat="43.36521" lon="6.15231">
        <ele>423.20001220703</ele>
        <time>2019-10-24T07:49:34.000Z</time>
      </trkpt>
      <trkpt lat="43.36512" lon="6.15238">
        <ele>424</ele>
        <time>2019-10-24T07:49:37.000Z</time>
      </trkpt>
      <trkpt lat="43.36504" lon="6.15249">
        <ele>424.60000610352</ele>
        <time>2019-10-24T07:49:40.000Z</time>
      </trkpt>
      <trkpt lat="43.36494" lon="6.15266">
        <ele>425.20001220703</ele>
        <time>2019-10-24T07:49:45.000Z</time>
      </trkpt>
      <trkpt lat="43.36485" lon="6.15286">
        <ele>425.39999389648</ele>
        <time>2019-10-24T07:49:50.000Z</time>
      </trkpt>
      <trkpt lat="43.36479" lon="6.15307">
        <ele>425.79998779297</ele>
        <time>2019-10-24T07:49:56.000Z</time>
      </trkpt>
      <trkpt lat="43.36478" lon="6.15317">
        <ele>426.39999389648</ele>
        <time>2019-10-24T07:49:59.000Z</time>
      </trkpt>
      <trkpt lat="43.36474" lon="6.1533">
        <ele>427</ele>
        <time>2019-10-24T07:50:03.000Z</time>
      </trkpt>
      <trkpt lat="43.3646" lon="6.1535">
        <ele>427.79998779297</ele>
        <time>2019-10-24T07:50:09.000Z</time>
      </trkpt>
      <trkpt lat="43.36449" lon="6.15357">
        <ele>427.79998779297</ele>
        <time>2019-10-24T07:50:12.000Z</time>
      </trkpt>
      <trkpt lat="43.36446" lon="6.15359">
        <ele>428</ele>
        <time>2019-10-24T07:50:13.000Z</time>
      </trkpt>
      <trkpt lat="43.36432" lon="6.15368">
        <ele>428.20001220703</ele>
        <time>2019-10-24T07:50:17.000Z</time>
      </trkpt>
      <trkpt lat="43.36425" lon="6.15375">
        <ele>428</ele>
        <time>2019-10-24T07:50:19.000Z</time>
      </trkpt>
      <trkpt lat="43.36416" lon="6.15387">
        <ele>424.60000610352</ele>
        <time>2019-10-24T07:50:22.000Z</time>
      </trkpt>
      <trkpt lat="43.36399" lon="6.1542">
        <ele>428.39999389648</ele>
        <time>2019-10-24T07:50:29.000Z</time>
      </trkpt>
      <trkpt lat="43.36382" lon="6.15443">
        <ele>428.20001220703</ele>
        <time>2019-10-24T07:50:35.000Z</time>
      </trkpt>
      <trkpt lat="43.36365" lon="6.15458">
        <ele>428</ele>
        <time>2019-10-24T07:50:41.000Z</time>
      </trkpt>
      <trkpt lat="43.3635" lon="6.15464">
        <ele>427.60000610352</ele>
        <time>2019-10-24T07:50:45.000Z</time>
      </trkpt>
      <trkpt lat="43.36342" lon="6.15468">
        <ele>426.79998779297</ele>
        <time>2019-10-24T07:50:47.000Z</time>
      </trkpt>
      <trkpt lat="43.36338" lon="6.15472">
        <ele>426.60000610352</ele>
        <time>2019-10-24T07:50:48.000Z</time>
      </trkpt>
      <trkpt lat="43.36334" lon="6.15475">
        <ele>426.39999389648</ele>
        <time>2019-10-24T07:50:49.000Z</time>
      </trkpt>
      <trkpt lat="43.36321" lon="6.15487">
        <ele>426.60000610352</ele>
        <time>2019-10-24T07:50:52.000Z</time>
      </trkpt>
      <trkpt lat="43.36317" lon="6.15492">
        <ele>426.79998779297</ele>
        <time>2019-10-24T07:50:53.000Z</time>
      </trkpt>
      <trkpt lat="43.36302" lon="6.15515">
        <ele>426.39999389648</ele>
        <time>2019-10-24T07:50:57.000Z</time>
      </trkpt>
      <trkpt lat="43.36293" lon="6.15533">
        <ele>426</ele>
        <time>2019-10-24T07:51:00.000Z</time>
      </trkpt>
      <trkpt lat="43.36289" lon="6.15546">
        <ele>426</ele>
        <time>2019-10-24T07:51:02.000Z</time>
      </trkpt>
      <trkpt lat="43.36289" lon="6.15571">
        <ele>426.20001220703</ele>
        <time>2019-10-24T07:51:06.000Z</time>
      </trkpt>
      <trkpt lat="43.3629" lon="6.15584">
        <ele>426.39999389648</ele>
        <time>2019-10-24T07:51:08.000Z</time>
      </trkpt>
      <trkpt lat="43.36292" lon="6.15607">
        <ele>427</ele>
        <time>2019-10-24T07:51:12.000Z</time>
      </trkpt>
      <trkpt lat="43.36287" lon="6.15638">
        <ele>427.79998779297</ele>
        <time>2019-10-24T07:51:18.000Z</time>
      </trkpt>
      <trkpt lat="43.36277" lon="6.15658">
        <ele>428.20001220703</ele>
        <time>2019-10-24T07:51:22.000Z</time>
      </trkpt>
      <trkpt lat="43.36274" lon="6.15662">
        <ele>428.20001220703</ele>
        <time>2019-10-24T07:51:23.000Z</time>
      </trkpt>
      <trkpt lat="43.36255" lon="6.1568">
        <ele>427.79998779297</ele>
        <time>2019-10-24T07:51:28.000Z</time>
      </trkpt>
      <trkpt lat="43.36252" lon="6.15684">
        <ele>427.60000610352</ele>
        <time>2019-10-24T07:51:29.000Z</time>
      </trkpt>
      <trkpt lat="43.36246" lon="6.15701">
        <ele>428</ele>
        <time>2019-10-24T07:51:32.000Z</time>
      </trkpt>
      <trkpt lat="43.36247" lon="6.15732">
        <ele>428</ele>
        <time>2019-10-24T07:51:37.000Z</time>
      </trkpt>
      <trkpt lat="43.36252" lon="6.15763">
        <ele>428.79998779297</ele>
        <time>2019-10-24T07:51:42.000Z</time>
      </trkpt>
      <trkpt lat="43.36252" lon="6.15769">
        <ele>429.39999389648</ele>
        <time>2019-10-24T07:51:43.000Z</time>
      </trkpt>
      <trkpt lat="43.36252" lon="6.15781">
        <ele>429.79998779297</ele>
        <time>2019-10-24T07:51:45.000Z</time>
      </trkpt>
      <trkpt lat="43.36252" lon="6.15787">
        <ele>430</ele>
        <time>2019-10-24T07:51:46.000Z</time>
      </trkpt>
      <trkpt lat="43.36248" lon="6.15809">
        <ele>430.39999389648</ele>
        <time>2019-10-24T07:51:50.000Z</time>
      </trkpt>
      <trkpt lat="43.36247" lon="6.15814">
        <ele>430.79998779297</ele>
        <time>2019-10-24T07:51:51.000Z</time>
      </trkpt>
      <trkpt lat="43.36241" lon="6.15828">
        <ele>432</ele>
        <time>2019-10-24T07:51:54.000Z</time>
      </trkpt>
      <trkpt lat="43.36234" lon="6.15839">
        <ele>432.39999389648</ele>
        <time>2019-10-24T07:51:57.000Z</time>
      </trkpt>
      <trkpt lat="43.36224" lon="6.15859">
        <ele>432.79998779297</ele>
        <time>2019-10-24T07:52:03.000Z</time>
      </trkpt>
      <trkpt lat="43.36204" lon="6.15886">
        <ele>431.79998779297</ele>
        <time>2019-10-24T07:52:10.000Z</time>
      </trkpt>
      <trkpt lat="43.36196" lon="6.15893">
        <ele>431.60000610352</ele>
        <time>2019-10-24T07:52:12.000Z</time>
      </trkpt>
      <trkpt lat="43.36183" lon="6.15904">
        <ele>431.60000610352</ele>
        <time>2019-10-24T07:52:15.000Z</time>
      </trkpt>
      <trkpt lat="43.36178" lon="6.15908">
        <ele>431.60000610352</ele>
        <time>2019-10-24T07:52:16.000Z</time>
      </trkpt>
      <trkpt lat="43.36169" lon="6.15916">
        <ele>430</ele>
        <time>2019-10-24T07:52:18.000Z</time>
      </trkpt>
      <trkpt lat="43.36165" lon="6.15921">
        <ele>429.39999389648</ele>
        <time>2019-10-24T07:52:19.000Z</time>
      </trkpt>
      <trkpt lat="43.36162" lon="6.15924">
        <ele>428.79998779297</ele>
        <time>2019-10-24T07:52:20.000Z</time>
      </trkpt>
      <trkpt lat="43.36157" lon="6.1593">
        <ele>427.79998779297</ele>
        <time>2019-10-24T07:52:23.000Z</time>
      </trkpt>
      <trkpt lat="43.36153" lon="6.15939">
        <ele>427</ele>
        <time>2019-10-24T07:52:28.000Z</time>
      </trkpt>
      <trkpt lat="43.36152" lon="6.15942">
        <ele>427</ele>
        <time>2019-10-24T07:52:29.000Z</time>
      </trkpt>
      <trkpt lat="43.36147" lon="6.15953">
        <ele>426.39999389648</ele>
        <time>2019-10-24T07:52:33.000Z</time>
      </trkpt>
      <trkpt lat="43.36144" lon="6.1596">
        <ele>426</ele>
        <time>2019-10-24T07:52:35.000Z</time>
      </trkpt>
      <trkpt lat="43.3614" lon="6.15977">
        <ele>425</ele>
        <time>2019-10-24T07:52:39.000Z</time>
      </trkpt>
      <trkpt lat="43.36139" lon="6.15981">
        <ele>424.39999389648</ele>
        <time>2019-10-24T07:52:40.000Z</time>
      </trkpt>
      <trkpt lat="43.36133" lon="6.15998">
        <ele>423.20001220703</ele>
        <time>2019-10-24T07:52:43.000Z</time>
      </trkpt>
      <trkpt lat="43.36129" lon="6.16012">
        <ele>422.20001220703</ele>
        <time>2019-10-24T07:52:45.000Z</time>
      </trkpt>
      <trkpt lat="43.36127" lon="6.1602">
        <ele>421.60000610352</ele>
        <time>2019-10-24T07:52:46.000Z</time>
      </trkpt>
      <trkpt lat="43.36121" lon="6.16036">
        <ele>420.60000610352</ele>
        <time>2019-10-24T07:52:48.000Z</time>
      </trkpt>
      <trkpt lat="43.36118" lon="6.16044">
        <ele>419.39999389648</ele>
        <time>2019-10-24T07:52:49.000Z</time>
      </trkpt>
      <trkpt lat="43.36115" lon="6.16053">
        <ele>418.20001220703</ele>
        <time>2019-10-24T07:52:50.000Z</time>
      </trkpt>
      <trkpt lat="43.36109" lon="6.16069">
        <ele>416.39999389648</ele>
        <time>2019-10-24T07:52:52.000Z</time>
      </trkpt>
      <trkpt lat="43.36105" lon="6.16076">
        <ele>415.79998779297</ele>
        <time>2019-10-24T07:52:53.000Z</time>
      </trkpt>
      <trkpt lat="43.361" lon="6.16081">
        <ele>415.39999389648</ele>
        <time>2019-10-24T07:52:54.000Z</time>
      </trkpt>
      <trkpt lat="43.3609" lon="6.16089">
        <ele>414</ele>
        <time>2019-10-24T07:52:56.000Z</time>
      </trkpt>
      <trkpt lat="43.36073" lon="6.16083">
        <ele>413</ele>
        <time>2019-10-24T07:52:59.000Z</time>
      </trkpt>
      <trkpt lat="43.36069" lon="6.16078">
        <ele>412.79998779297</ele>
        <time>2019-10-24T07:53:00.000Z</time>
      </trkpt>
      <trkpt lat="43.36064" lon="6.16073">
        <ele>412.20001220703</ele>
        <time>2019-10-24T07:53:01.000Z</time>
      </trkpt>
      <trkpt lat="43.3606" lon="6.16068">
        <ele>411.39999389648</ele>
        <time>2019-10-24T07:53:02.000Z</time>
      </trkpt>
      <trkpt lat="43.36055" lon="6.16065">
        <ele>410.60000610352</ele>
        <time>2019-10-24T07:53:03.000Z</time>
      </trkpt>
      <trkpt lat="43.36052" lon="6.16064">
        <ele>409.79998779297</ele>
        <time>2019-10-24T07:53:04.000Z</time>
      </trkpt>
      <trkpt lat="43.36048" lon="6.16067">
        <ele>408.39999389648</ele>
        <time>2019-10-24T07:53:05.000Z</time>
      </trkpt>
      <trkpt lat="43.36045" lon="6.16073">
        <ele>407.20001220703</ele>
        <time>2019-10-24T07:53:06.000Z</time>
      </trkpt>
      <trkpt lat="43.36043" lon="6.16085">
        <ele>406.20001220703</ele>
        <time>2019-10-24T07:53:08.000Z</time>
      </trkpt>
      <trkpt lat="43.36043" lon="6.16101">
        <ele>405.20001220703</ele>
        <time>2019-10-24T07:53:10.000Z</time>
      </trkpt>
      <trkpt lat="43.36044" lon="6.16112">
        <ele>404.60000610352</ele>
        <time>2019-10-24T07:53:11.000Z</time>
      </trkpt>
      <trkpt lat="43.36045" lon="6.16123">
        <ele>404</ele>
        <time>2019-10-24T07:53:12.000Z</time>
      </trkpt>
      <trkpt lat="43.36048" lon="6.16149">
        <ele>402.60000610352</ele>
        <time>2019-10-24T07:53:14.000Z</time>
      </trkpt>
      <trkpt lat="43.3605" lon="6.16162">
        <ele>402</ele>
        <time>2019-10-24T07:53:15.000Z</time>
      </trkpt>
      <trkpt lat="43.36052" lon="6.16174">
        <ele>401.39999389648</ele>
        <time>2019-10-24T07:53:16.000Z</time>
      </trkpt>
      <trkpt lat="43.36053" lon="6.16184">
        <ele>400.79998779297</ele>
        <time>2019-10-24T07:53:17.000Z</time>
      </trkpt>
      <trkpt lat="43.36053" lon="6.16195">
        <ele>400</ele>
        <time>2019-10-24T07:53:18.000Z</time>
      </trkpt>
      <trkpt lat="43.36053" lon="6.16205">
        <ele>399</ele>
        <time>2019-10-24T07:53:19.000Z</time>
      </trkpt>
      <trkpt lat="43.36052" lon="6.16216">
        <ele>397.79998779297</ele>
        <time>2019-10-24T07:53:20.000Z</time>
      </trkpt>
      <trkpt lat="43.3605" lon="6.16226">
        <ele>396.79998779297</ele>
        <time>2019-10-24T07:53:21.000Z</time>
      </trkpt>
      <trkpt lat="43.36047" lon="6.16237">
        <ele>395.60000610352</ele>
        <time>2019-10-24T07:53:22.000Z</time>
      </trkpt>
      <trkpt lat="43.36044" lon="6.16247">
        <ele>394.79998779297</ele>
        <time>2019-10-24T07:53:23.000Z</time>
      </trkpt>
      <trkpt lat="43.36041" lon="6.16258">
        <ele>393.60000610352</ele>
        <time>2019-10-24T07:53:24.000Z</time>
      </trkpt>
      <trkpt lat="43.36038" lon="6.16269">
        <ele>393</ele>
        <time>2019-10-24T07:53:25.000Z</time>
      </trkpt>
      <trkpt lat="43.36036" lon="6.16281">
        <ele>392.60000610352</ele>
        <time>2019-10-24T07:53:26.000Z</time>
      </trkpt>
      <trkpt lat="43.36032" lon="6.16309">
        <ele>391.39999389648</ele>
        <time>2019-10-24T07:53:28.000Z</time>
      </trkpt>
      <trkpt lat="43.36027" lon="6.16336">
        <ele>389.39999389648</ele>
        <time>2019-10-24T07:53:30.000Z</time>
      </trkpt>
      <trkpt lat="43.36026" lon="6.1635">
        <ele>388.39999389648</ele>
        <time>2019-10-24T07:53:31.000Z</time>
      </trkpt>
      <trkpt lat="43.36022" lon="6.16379">
        <ele>387.20001220703</ele>
        <time>2019-10-24T07:53:33.000Z</time>
      </trkpt>
      <trkpt lat="43.36022" lon="6.16394">
        <ele>386.60000610352</ele>
        <time>2019-10-24T07:53:34.000Z</time>
      </trkpt>
      <trkpt lat="43.36021" lon="6.16408">
        <ele>385.60000610352</ele>
        <time>2019-10-24T07:53:35.000Z</time>
      </trkpt>
      <trkpt lat="43.36019" lon="6.1642">
        <ele>383.79998779297</ele>
        <time>2019-10-24T07:53:36.000Z</time>
      </trkpt>
      <trkpt lat="43.36016" lon="6.16434">
        <ele>382.79998779297</ele>
        <time>2019-10-24T07:53:37.000Z</time>
      </trkpt>
      <trkpt lat="43.36011" lon="6.16463">
        <ele>380.79998779297</ele>
        <time>2019-10-24T07:53:39.000Z</time>
      </trkpt>
      <trkpt lat="43.36007" lon="6.16495">
        <ele>378.79998779297</ele>
        <time>2019-10-24T07:53:41.000Z</time>
      </trkpt>
      <trkpt lat="43.36004" lon="6.16511">
        <ele>377.39999389648</ele>
        <time>2019-10-24T07:53:42.000Z</time>
      </trkpt>
      <trkpt lat="43.36002" lon="6.16528">
        <ele>376.39999389648</ele>
        <time>2019-10-24T07:53:43.000Z</time>
      </trkpt>
      <trkpt lat="43.35999" lon="6.16545">
        <ele>375</ele>
        <time>2019-10-24T07:53:44.000Z</time>
      </trkpt>
      <trkpt lat="43.35996" lon="6.16561">
        <ele>373.79998779297</ele>
        <time>2019-10-24T07:53:45.000Z</time>
      </trkpt>
      <trkpt lat="43.35989" lon="6.16587">
        <ele>372.20001220703</ele>
        <time>2019-10-24T07:53:47.000Z</time>
      </trkpt>
      <trkpt lat="43.35982" lon="6.16607">
        <ele>370.39999389648</ele>
        <time>2019-10-24T07:53:49.000Z</time>
      </trkpt>
      <trkpt lat="43.35978" lon="6.16616">
        <ele>369.79998779297</ele>
        <time>2019-10-24T07:53:50.000Z</time>
      </trkpt>
      <trkpt lat="43.35972" lon="6.16624">
        <ele>368.60000610352</ele>
        <time>2019-10-24T07:53:51.000Z</time>
      </trkpt>
      <trkpt lat="43.35966" lon="6.16632">
        <ele>367.60000610352</ele>
        <time>2019-10-24T07:53:52.000Z</time>
      </trkpt>
      <trkpt lat="43.3596" lon="6.1664">
        <ele>366.60000610352</ele>
        <time>2019-10-24T07:53:53.000Z</time>
      </trkpt>
      <trkpt lat="43.35953" lon="6.16648">
        <ele>365.60000610352</ele>
        <time>2019-10-24T07:53:54.000Z</time>
      </trkpt>
      <trkpt lat="43.35946" lon="6.16656">
        <ele>364.39999389648</ele>
        <time>2019-10-24T07:53:55.000Z</time>
      </trkpt>
      <trkpt lat="43.3593" lon="6.16673">
        <ele>363</ele>
        <time>2019-10-24T07:53:57.000Z</time>
      </trkpt>
      <trkpt lat="43.35913" lon="6.16691">
        <ele>362</ele>
        <time>2019-10-24T07:53:59.000Z</time>
      </trkpt>
      <trkpt lat="43.35904" lon="6.16701">
        <ele>360.79998779297</ele>
        <time>2019-10-24T07:54:00.000Z</time>
      </trkpt>
      <trkpt lat="43.35895" lon="6.16711">
        <ele>359.60000610352</ele>
        <time>2019-10-24T07:54:01.000Z</time>
      </trkpt>
      <trkpt lat="43.35881" lon="6.1673">
        <ele>358</ele>
        <time>2019-10-24T07:54:03.000Z</time>
      </trkpt>
      <trkpt lat="43.35875" lon="6.16739">
        <ele>357</ele>
        <time>2019-10-24T07:54:04.000Z</time>
      </trkpt>
      <trkpt lat="43.35869" lon="6.16746">
        <ele>355</ele>
        <time>2019-10-24T07:54:05.000Z</time>
      </trkpt>
      <trkpt lat="43.35863" lon="6.16752">
        <ele>353.39999389648</ele>
        <time>2019-10-24T07:54:06.000Z</time>
      </trkpt>
      <trkpt lat="43.35856" lon="6.16757">
        <ele>352</ele>
        <time>2019-10-24T07:54:07.000Z</time>
      </trkpt>
      <trkpt lat="43.35843" lon="6.16767">
        <ele>350.60000610352</ele>
        <time>2019-10-24T07:54:09.000Z</time>
      </trkpt>
      <trkpt lat="43.35829" lon="6.16775">
        <ele>349.60000610352</ele>
        <time>2019-10-24T07:54:11.000Z</time>
      </trkpt>
      <trkpt lat="43.35821" lon="6.16777">
        <ele>349.20001220703</ele>
        <time>2019-10-24T07:54:12.000Z</time>
      </trkpt>
      <trkpt lat="43.35813" lon="6.16778">
        <ele>348.60000610352</ele>
        <time>2019-10-24T07:54:13.000Z</time>
      </trkpt>
      <trkpt lat="43.35798" lon="6.1678">
        <ele>347.20001220703</ele>
        <time>2019-10-24T07:54:15.000Z</time>
      </trkpt>
      <trkpt lat="43.35777" lon="6.16793">
        <ele>345.79998779297</ele>
        <time>2019-10-24T07:54:18.000Z</time>
      </trkpt>
      <trkpt lat="43.35762" lon="6.16807">
        <ele>344.20001220703</ele>
        <time>2019-10-24T07:54:20.000Z</time>
      </trkpt>
      <trkpt lat="43.35751" lon="6.16826">
        <ele>342.79998779297</ele>
        <time>2019-10-24T07:54:22.000Z</time>
      </trkpt>
      <trkpt lat="43.35743" lon="6.1685">
        <ele>341.79998779297</ele>
        <time>2019-10-24T07:54:24.000Z</time>
      </trkpt>
      <trkpt lat="43.35735" lon="6.1687">
        <ele>340.39999389648</ele>
        <time>2019-10-24T07:54:26.000Z</time>
      </trkpt>
      <trkpt lat="43.35726" lon="6.16882">
        <ele>338.79998779297</ele>
        <time>2019-10-24T07:54:28.000Z</time>
      </trkpt>
      <trkpt lat="43.35722" lon="6.16886">
        <ele>338.39999389648</ele>
        <time>2019-10-24T07:54:29.000Z</time>
      </trkpt>
      <trkpt lat="43.35715" lon="6.16889">
        <ele>337.39999389648</ele>
        <time>2019-10-24T07:54:31.000Z</time>
      </trkpt>
      <trkpt lat="43.35708" lon="6.16893">
        <ele>336.39999389648</ele>
        <time>2019-10-24T07:54:33.000Z</time>
      </trkpt>
      <trkpt lat="43.357" lon="6.16894">
        <ele>335.60000610352</ele>
        <time>2019-10-24T07:54:35.000Z</time>
      </trkpt>
      <trkpt lat="43.35695" lon="6.16894">
        <ele>335.20001220703</ele>
        <time>2019-10-24T07:54:36.000Z</time>
      </trkpt>
      <trkpt lat="43.35687" lon="6.16895">
        <ele>334.79998779297</ele>
        <time>2019-10-24T07:54:38.000Z</time>
      </trkpt>
      <trkpt lat="43.35679" lon="6.16896">
        <ele>333.60000610352</ele>
        <time>2019-10-24T07:54:40.000Z</time>
      </trkpt>
      <trkpt lat="43.35672" lon="6.16899">
        <ele>332.60000610352</ele>
        <time>2019-10-24T07:54:42.000Z</time>
      </trkpt>
      <trkpt lat="43.35669" lon="6.16902">
        <ele>332.20001220703</ele>
        <time>2019-10-24T07:54:43.000Z</time>
      </trkpt>
      <trkpt lat="43.35662" lon="6.16909">
        <ele>331.60000610352</ele>
        <time>2019-10-24T07:54:45.000Z</time>
      </trkpt>
      <trkpt lat="43.35659" lon="6.16912">
        <ele>331.39999389648</ele>
        <time>2019-10-24T07:54:46.000Z</time>
      </trkpt>
      <trkpt lat="43.35652" lon="6.16919">
        <ele>330.79998779297</ele>
        <time>2019-10-24T07:54:48.000Z</time>
      </trkpt>
      <trkpt lat="43.35649" lon="6.16923">
        <ele>330.39999389648</ele>
        <time>2019-10-24T07:54:49.000Z</time>
      </trkpt>
      <trkpt lat="43.35642" lon="6.16932">
        <ele>329.39999389648</ele>
        <time>2019-10-24T07:54:51.000Z</time>
      </trkpt>
      <trkpt lat="43.35638" lon="6.16937">
        <ele>329.20001220703</ele>
        <time>2019-10-24T07:54:52.000Z</time>
      </trkpt>
      <trkpt lat="43.35634" lon="6.16942">
        <ele>328.39999389648</ele>
        <time>2019-10-24T07:54:53.000Z</time>
      </trkpt>
      <trkpt lat="43.35631" lon="6.16947">
        <ele>327.79998779297</ele>
        <time>2019-10-24T07:54:54.000Z</time>
      </trkpt>
      <trkpt lat="43.35624" lon="6.16957">
        <ele>327.20001220703</ele>
        <time>2019-10-24T07:54:56.000Z</time>
      </trkpt>
      <trkpt lat="43.35612" lon="6.16972">
        <ele>325.60000610352</ele>
        <time>2019-10-24T07:54:59.000Z</time>
      </trkpt>
      <trkpt lat="43.35604" lon="6.16982">
        <ele>324.60000610352</ele>
        <time>2019-10-24T07:55:01.000Z</time>
      </trkpt>
      <trkpt lat="43.356" lon="6.16987">
        <ele>324</ele>
        <time>2019-10-24T07:55:02.000Z</time>
      </trkpt>
      <trkpt lat="43.35592" lon="6.16997">
        <ele>323.39999389648</ele>
        <time>2019-10-24T07:55:04.000Z</time>
      </trkpt>
      <trkpt lat="43.35588" lon="6.17002">
        <ele>323</ele>
        <time>2019-10-24T07:55:05.000Z</time>
      </trkpt>
      <trkpt lat="43.35579" lon="6.17012">
        <ele>321.79998779297</ele>
        <time>2019-10-24T07:55:07.000Z</time>
      </trkpt>
      <trkpt lat="43.35571" lon="6.17023">
        <ele>320.39999389648</ele>
        <time>2019-10-24T07:55:09.000Z</time>
      </trkpt>
      <trkpt lat="43.35558" lon="6.1704">
        <ele>318.79998779297</ele>
        <time>2019-10-24T07:55:12.000Z</time>
      </trkpt>
      <trkpt lat="43.3555" lon="6.17051">
        <ele>317.39999389648</ele>
        <time>2019-10-24T07:55:14.000Z</time>
      </trkpt>
      <trkpt lat="43.35541" lon="6.17064">
        <ele>315.79998779297</ele>
        <time>2019-10-24T07:55:16.000Z</time>
      </trkpt>
      <trkpt lat="43.35533" lon="6.17076">
        <ele>313.79998779297</ele>
        <time>2019-10-24T07:55:18.000Z</time>
      </trkpt>
      <trkpt lat="43.35526" lon="6.1709">
        <ele>312</ele>
        <time>2019-10-24T07:55:20.000Z</time>
      </trkpt>
      <trkpt lat="43.35521" lon="6.17106">
        <ele>310.20001220703</ele>
        <time>2019-10-24T07:55:22.000Z</time>
      </trkpt>
      <trkpt lat="43.35519" lon="6.17113">
        <ele>308.79998779297</ele>
        <time>2019-10-24T07:55:23.000Z</time>
      </trkpt>
      <trkpt lat="43.35517" lon="6.1712">
        <ele>308</ele>
        <time>2019-10-24T07:55:24.000Z</time>
      </trkpt>
      <trkpt lat="43.35517" lon="6.17127">
        <ele>307.39999389648</ele>
        <time>2019-10-24T07:55:25.000Z</time>
      </trkpt>
      <trkpt lat="43.35517" lon="6.1714">
        <ele>306.39999389648</ele>
        <time>2019-10-24T07:55:27.000Z</time>
      </trkpt>
      <trkpt lat="43.35516" lon="6.17149">
        <ele>305</ele>
        <time>2019-10-24T07:55:29.000Z</time>
      </trkpt>
      <trkpt lat="43.35512" lon="6.17155">
        <ele>303.79998779297</ele>
        <time>2019-10-24T07:55:31.000Z</time>
      </trkpt>
      <trkpt lat="43.35509" lon="6.17156">
        <ele>303</ele>
        <time>2019-10-24T07:55:32.000Z</time>
      </trkpt>
      <trkpt lat="43.35507" lon="6.17155">
        <ele>302.20001220703</ele>
        <time>2019-10-24T07:55:33.000Z</time>
      </trkpt>
      <trkpt lat="43.35502" lon="6.17146">
        <ele>301</ele>
        <time>2019-10-24T07:55:36.000Z</time>
      </trkpt>
      <trkpt lat="43.355" lon="6.17135">
        <ele>300</ele>
        <time>2019-10-24T07:55:38.000Z</time>
      </trkpt>
      <trkpt lat="43.35498" lon="6.17129">
        <ele>299.60000610352</ele>
        <time>2019-10-24T07:55:39.000Z</time>
      </trkpt>
      <trkpt lat="43.35495" lon="6.17115">
        <ele>299.20001220703</ele>
        <time>2019-10-24T07:55:41.000Z</time>
      </trkpt>
      <trkpt lat="43.35494" lon="6.171">
        <ele>298.60000610352</ele>
        <time>2019-10-24T07:55:43.000Z</time>
      </trkpt>
      <trkpt lat="43.35495" lon="6.17085">
        <ele>297.60000610352</ele>
        <time>2019-10-24T07:55:45.000Z</time>
      </trkpt>
      <trkpt lat="43.35497" lon="6.17071">
        <ele>296.79998779297</ele>
        <time>2019-10-24T07:55:47.000Z</time>
      </trkpt>
      <trkpt lat="43.35497" lon="6.17067">
        <ele>296.39999389648</ele>
        <time>2019-10-24T07:55:48.000Z</time>
      </trkpt>
      <trkpt lat="43.35496" lon="6.17063">
        <ele>295.60000610352</ele>
        <time>2019-10-24T07:55:49.000Z</time>
      </trkpt>
      <trkpt lat="43.35495" lon="6.17061">
        <ele>295</ele>
        <time>2019-10-24T07:55:50.000Z</time>
      </trkpt>
      <trkpt lat="43.35492" lon="6.17063">
        <ele>294</ele>
        <time>2019-10-24T07:55:52.000Z</time>
      </trkpt>
      <trkpt lat="43.3549" lon="6.17066">
        <ele>293.60000610352</ele>
        <time>2019-10-24T07:55:53.000Z</time>
      </trkpt>
      <trkpt lat="43.35486" lon="6.17075">
        <ele>292.39999389648</ele>
        <time>2019-10-24T07:55:55.000Z</time>
      </trkpt>
      <trkpt lat="43.35484" lon="6.17079">
        <ele>291.79998779297</ele>
        <time>2019-10-24T07:55:56.000Z</time>
      </trkpt>
      <trkpt lat="43.35481" lon="6.17084">
        <ele>291.20001220703</ele>
        <time>2019-10-24T07:55:57.000Z</time>
      </trkpt>
      <trkpt lat="43.35474" lon="6.17099">
        <ele>290</ele>
        <time>2019-10-24T07:56:00.000Z</time>
      </trkpt>
      <trkpt lat="43.3547" lon="6.17107">
        <ele>289</ele>
        <time>2019-10-24T07:56:02.000Z</time>
      </trkpt>
      <trkpt lat="43.35465" lon="6.1711">
        <ele>287.60000610352</ele>
        <time>2019-10-24T07:56:04.000Z</time>
      </trkpt>
      <trkpt lat="43.35463" lon="6.17109">
        <ele>287.20001220703</ele>
        <time>2019-10-24T07:56:05.000Z</time>
      </trkpt>
      <trkpt lat="43.35462" lon="6.17107">
        <ele>286.39999389648</ele>
        <time>2019-10-24T07:56:06.000Z</time>
      </trkpt>
      <trkpt lat="43.35462" lon="6.171">
        <ele>285.20001220703</ele>
        <time>2019-10-24T07:56:08.000Z</time>
      </trkpt>
      <trkpt lat="43.35462" lon="6.17095">
        <ele>284.79998779297</ele>
        <time>2019-10-24T07:56:09.000Z</time>
      </trkpt>
      <trkpt lat="43.35462" lon="6.17083">
        <ele>284</ele>
        <time>2019-10-24T07:56:11.000Z</time>
      </trkpt>
      <trkpt lat="43.3546" lon="6.17069">
        <ele>283.20001220703</ele>
        <time>2019-10-24T07:56:13.000Z</time>
      </trkpt>
      <trkpt lat="43.3546" lon="6.17062">
        <ele>282.79998779297</ele>
        <time>2019-10-24T07:56:14.000Z</time>
      </trkpt>
      <trkpt lat="43.35459" lon="6.17049">
        <ele>281.79998779297</ele>
        <time>2019-10-24T07:56:16.000Z</time>
      </trkpt>
      <trkpt lat="43.35458" lon="6.17038">
        <ele>281</ele>
        <time>2019-10-24T07:56:18.000Z</time>
      </trkpt>
      <trkpt lat="43.35457" lon="6.17032">
        <ele>280.60000610352</ele>
        <time>2019-10-24T07:56:19.000Z</time>
      </trkpt>
      <trkpt lat="43.35455" lon="6.17009">
        <ele>279.39999389648</ele>
        <time>2019-10-24T07:56:23.000Z</time>
      </trkpt>
      <trkpt lat="43.35452" lon="6.16999">
        <ele>278.60000610352</ele>
        <time>2019-10-24T07:56:25.000Z</time>
      </trkpt>
      <trkpt lat="43.35449" lon="6.16996">
        <ele>278.20001220703</ele>
        <time>2019-10-24T07:56:26.000Z</time>
      </trkpt>
      <trkpt lat="43.35442" lon="6.16993">
        <ele>277.60000610352</ele>
        <time>2019-10-24T07:56:28.000Z</time>
      </trkpt>
      <trkpt lat="43.35433" lon="6.16993">
        <ele>276.79998779297</ele>
        <time>2019-10-24T07:56:30.000Z</time>
      </trkpt>
      <trkpt lat="43.35422" lon="6.16995">
        <ele>275.60000610352</ele>
        <time>2019-10-24T07:56:32.000Z</time>
      </trkpt>
      <trkpt lat="43.35416" lon="6.16995">
        <ele>275.20001220703</ele>
        <time>2019-10-24T07:56:33.000Z</time>
      </trkpt>
      <trkpt lat="43.3541" lon="6.16996">
        <ele>274.60000610352</ele>
        <time>2019-10-24T07:56:34.000Z</time>
      </trkpt>
      <trkpt lat="43.35399" lon="6.16999">
        <ele>273</ele>
        <time>2019-10-24T07:56:36.000Z</time>
      </trkpt>
      <trkpt lat="43.35392" lon="6.17002">
        <ele>272.20001220703</ele>
        <time>2019-10-24T07:56:37.000Z</time>
      </trkpt>
      <trkpt lat="43.35387" lon="6.17005">
        <ele>271.39999389648</ele>
        <time>2019-10-24T07:56:38.000Z</time>
      </trkpt>
      <trkpt lat="43.35377" lon="6.17014">
        <ele>270.39999389648</ele>
        <time>2019-10-24T07:56:40.000Z</time>
      </trkpt>
      <trkpt lat="43.35373" lon="6.1702">
        <ele>269.60000610352</ele>
        <time>2019-10-24T07:56:41.000Z</time>
      </trkpt>
      <trkpt lat="43.35368" lon="6.17026">
        <ele>269</ele>
        <time>2019-10-24T07:56:42.000Z</time>
      </trkpt>
      <trkpt lat="43.35358" lon="6.17038">
        <ele>268</ele>
        <time>2019-10-24T07:56:44.000Z</time>
      </trkpt>
      <trkpt lat="43.35349" lon="6.17047">
        <ele>267</ele>
        <time>2019-10-24T07:56:46.000Z</time>
      </trkpt>
      <trkpt lat="43.35344" lon="6.17052">
        <ele>266.60000610352</ele>
        <time>2019-10-24T07:56:47.000Z</time>
      </trkpt>
      <trkpt lat="43.35331" lon="6.1707">
        <ele>265.60000610352</ele>
        <time>2019-10-24T07:56:50.000Z</time>
      </trkpt>
      <trkpt lat="43.35328" lon="6.17078">
        <ele>265.20001220703</ele>
        <time>2019-10-24T07:56:51.000Z</time>
      </trkpt>
      <trkpt lat="43.35322" lon="6.17093">
        <ele>264.60000610352</ele>
        <time>2019-10-24T07:56:53.000Z</time>
      </trkpt>
      <trkpt lat="43.35317" lon="6.17106">
        <ele>263.60000610352</ele>
        <time>2019-10-24T07:56:55.000Z</time>
      </trkpt>
      <trkpt lat="43.35313" lon="6.17112">
        <ele>263.20001220703</ele>
        <time>2019-10-24T07:56:56.000Z</time>
      </trkpt>
      <trkpt lat="43.35309" lon="6.17118">
        <ele>262.79998779297</ele>
        <time>2019-10-24T07:56:57.000Z</time>
      </trkpt>
      <trkpt lat="43.35301" lon="6.17128">
        <ele>261.79998779297</ele>
        <time>2019-10-24T07:56:59.000Z</time>
      </trkpt>
      <trkpt lat="43.35293" lon="6.1714">
        <ele>260.60000610352</ele>
        <time>2019-10-24T07:57:01.000Z</time>
      </trkpt>
      <trkpt lat="43.35285" lon="6.17152">
        <ele>259.60000610352</ele>
        <time>2019-10-24T07:57:03.000Z</time>
      </trkpt>
      <trkpt lat="43.35281" lon="6.17157">
        <ele>259.20001220703</ele>
        <time>2019-10-24T07:57:04.000Z</time>
      </trkpt>
      <trkpt lat="43.35272" lon="6.17168">
        <ele>258.60000610352</ele>
        <time>2019-10-24T07:57:06.000Z</time>
      </trkpt>
      <trkpt lat="43.35259" lon="6.17181">
        <ele>257.39999389648</ele>
        <time>2019-10-24T07:57:09.000Z</time>
      </trkpt>
      <trkpt lat="43.35255" lon="6.17185">
        <ele>257.20001220703</ele>
        <time>2019-10-24T07:57:10.000Z</time>
      </trkpt>
      <trkpt lat="43.35247" lon="6.17196">
        <ele>256.79998779297</ele>
        <time>2019-10-24T07:57:12.000Z</time>
      </trkpt>
      <trkpt lat="43.3524" lon="6.17208">
        <ele>256.20001220703</ele>
        <time>2019-10-24T07:57:14.000Z</time>
      </trkpt>
      <trkpt lat="43.35237" lon="6.17215">
        <ele>255.60000610352</ele>
        <time>2019-10-24T07:57:15.000Z</time>
      </trkpt>
      <trkpt lat="43.35232" lon="6.17229">
        <ele>255</ele>
        <time>2019-10-24T07:57:17.000Z</time>
      </trkpt>
      <trkpt lat="43.3523" lon="6.17236">
        <ele>254.80000305176</ele>
        <time>2019-10-24T07:57:18.000Z</time>
      </trkpt>
      <trkpt lat="43.35225" lon="6.17258">
        <ele>254.19999694824</ele>
        <time>2019-10-24T07:57:21.000Z</time>
      </trkpt>
      <trkpt lat="43.35224" lon="6.17265">
        <ele>254</ele>
        <time>2019-10-24T07:57:22.000Z</time>
      </trkpt>
      <trkpt lat="43.35219" lon="6.17291">
        <ele>253.39999389648</ele>
        <time>2019-10-24T07:57:26.000Z</time>
      </trkpt>
      <trkpt lat="43.35218" lon="6.17298">
        <ele>253.19999694824</ele>
        <time>2019-10-24T07:57:27.000Z</time>
      </trkpt>
      <trkpt lat="43.35217" lon="6.17305">
        <ele>253</ele>
        <time>2019-10-24T07:57:28.000Z</time>
      </trkpt>
      <trkpt lat="43.35211" lon="6.17323">
        <ele>251.80000305176</ele>
        <time>2019-10-24T07:57:31.000Z</time>
      </trkpt>
      <trkpt lat="43.35209" lon="6.17328">
        <ele>251.39999389648</ele>
        <time>2019-10-24T07:57:32.000Z</time>
      </trkpt>
      <trkpt lat="43.35203" lon="6.17334">
        <ele>250.80000305176</ele>
        <time>2019-10-24T07:57:34.000Z</time>
      </trkpt>
      <trkpt lat="43.35193" lon="6.17339">
        <ele>249.80000305176</ele>
        <time>2019-10-24T07:57:36.000Z</time>
      </trkpt>
      <trkpt lat="43.35188" lon="6.17341">
        <ele>249.39999389648</ele>
        <time>2019-10-24T07:57:37.000Z</time>
      </trkpt>
      <trkpt lat="43.35178" lon="6.17342">
        <ele>248.19999694824</ele>
        <time>2019-10-24T07:57:39.000Z</time>
      </trkpt>
      <trkpt lat="43.35172" lon="6.17342">
        <ele>247.80000305176</ele>
        <time>2019-10-24T07:57:40.000Z</time>
      </trkpt>
      <trkpt lat="43.35161" lon="6.17341">
        <ele>247</ele>
        <time>2019-10-24T07:57:42.000Z</time>
      </trkpt>
      <trkpt lat="43.35139" lon="6.1734">
        <ele>245.80000305176</ele>
        <time>2019-10-24T07:57:46.000Z</time>
      </trkpt>
      <trkpt lat="43.35122" lon="6.1734">
        <ele>244.60000610352</ele>
        <time>2019-10-24T07:57:49.000Z</time>
      </trkpt>
      <trkpt lat="43.35104" lon="6.17343">
        <ele>243.39999389648</ele>
        <time>2019-10-24T07:57:52.000Z</time>
      </trkpt>
      <trkpt lat="43.35093" lon="6.17348">
        <ele>242.60000610352</ele>
        <time>2019-10-24T07:57:54.000Z</time>
      </trkpt>
      <trkpt lat="43.35087" lon="6.17351">
        <ele>241.80000305176</ele>
        <time>2019-10-24T07:57:55.000Z</time>
      </trkpt>
      <trkpt lat="43.35064" lon="6.17364">
        <ele>241.19999694824</ele>
        <time>2019-10-24T07:57:59.000Z</time>
      </trkpt>
      <trkpt lat="43.35053" lon="6.17369">
        <ele>240.80000305176</ele>
        <time>2019-10-24T07:58:01.000Z</time>
      </trkpt>
      <trkpt lat="43.35041" lon="6.17372">
        <ele>240.39999389648</ele>
        <time>2019-10-24T07:58:03.000Z</time>
      </trkpt>
      <trkpt lat="43.35031" lon="6.17373">
        <ele>240.19999694824</ele>
        <time>2019-10-24T07:58:05.000Z</time>
      </trkpt>
      <trkpt lat="43.35013" lon="6.17373">
        <ele>240.80000305176</ele>
        <time>2019-10-24T07:58:10.000Z</time>
      </trkpt>
      <trkpt lat="43.35001" lon="6.17372">
        <ele>241.19999694824</ele>
        <time>2019-10-24T07:58:14.000Z</time>
      </trkpt>
      <trkpt lat="43.34981" lon="6.17368">
        <ele>240.80000305176</ele>
        <time>2019-10-24T07:58:20.000Z</time>
      </trkpt>
      <trkpt lat="43.34972" lon="6.17369">
        <ele>239.80000305176</ele>
        <time>2019-10-24T07:58:24.000Z</time>
      </trkpt>
      <trkpt lat="43.3497" lon="6.17371">
        <ele>239.39999389648</ele>
        <time>2019-10-24T07:58:25.000Z</time>
      </trkpt>
      <trkpt lat="43.34962" lon="6.1738">
        <ele>239</ele>
        <time>2019-10-24T07:58:28.000Z</time>
      </trkpt>
      <trkpt lat="43.34947" lon="6.17388">
        <ele>238.39999389648</ele>
        <time>2019-10-24T07:58:32.000Z</time>
      </trkpt>
      <trkpt lat="43.34942" lon="6.17389">
        <ele>238.19999694824</ele>
        <time>2019-10-24T07:58:33.000Z</time>
      </trkpt>
      <trkpt lat="43.34905" lon="6.17396">
        <ele>237.60000610352</ele>
        <time>2019-10-24T07:58:41.000Z</time>
      </trkpt>
      <trkpt lat="43.34868" lon="6.17397">
        <ele>237</ele>
        <time>2019-10-24T07:58:49.000Z</time>
      </trkpt>
      <trkpt lat="43.34864" lon="6.17398">
        <ele>237</ele>
        <time>2019-10-24T07:58:50.000Z</time>
      </trkpt>
      <trkpt lat="43.34844" lon="6.174">
        <ele>236.80000305176</ele>
        <time>2019-10-24T07:58:55.000Z</time>
      </trkpt>
      <trkpt lat="43.34816" lon="6.17407">
        <ele>236.39999389648</ele>
        <time>2019-10-24T07:59:02.000Z</time>
      </trkpt>
      <trkpt lat="43.34811" lon="6.17406">
        <ele>236.39999389648</ele>
        <time>2019-10-24T07:59:03.000Z</time>
      </trkpt>
      <trkpt lat="43.3479" lon="6.17388">
        <ele>236.39999389648</ele>
        <time>2019-10-24T07:59:09.000Z</time>
      </trkpt>
      <trkpt lat="43.34782" lon="6.17381">
        <ele>236.19999694824</ele>
        <time>2019-10-24T07:59:11.000Z</time>
      </trkpt>
      <trkpt lat="43.34768" lon="6.1737">
        <ele>236.60000610352</ele>
        <time>2019-10-24T07:59:15.000Z</time>
      </trkpt>
      <trkpt lat="43.34749" lon="6.17357">
        <ele>236.60000610352</ele>
        <time>2019-10-24T07:59:20.000Z</time>
      </trkpt>
      <trkpt lat="43.34745" lon="6.17356">
        <ele>236.60000610352</ele>
        <time>2019-10-24T07:59:21.000Z</time>
      </trkpt>
      <trkpt lat="43.3471" lon="6.17346">
        <ele>237</ele>
        <time>2019-10-24T07:59:29.000Z</time>
      </trkpt>
      <trkpt lat="43.34674" lon="6.17339">
        <ele>237</ele>
        <time>2019-10-24T07:59:37.000Z</time>
      </trkpt>
      <trkpt lat="43.34647" lon="6.17333">
        <ele>237.39999389648</ele>
        <time>2019-10-24T07:59:44.000Z</time>
      </trkpt>
      <trkpt lat="43.34613" lon="6.17325">
        <ele>237.60000610352</ele>
        <time>2019-10-24T07:59:52.000Z</time>
      </trkpt>
      <trkpt lat="43.34578" lon="6.17317">
        <ele>237.60000610352</ele>
        <time>2019-10-24T08:00:00.000Z</time>
      </trkpt>
      <trkpt lat="43.34549" lon="6.17301">
        <ele>237.80000305176</ele>
        <time>2019-10-24T08:00:07.000Z</time>
      </trkpt>
      <trkpt lat="43.34525" lon="6.17282">
        <ele>238</ele>
        <time>2019-10-24T08:00:13.000Z</time>
      </trkpt>
      <trkpt lat="43.34518" lon="6.17274">
        <ele>238.19999694824</ele>
        <time>2019-10-24T08:00:15.000Z</time>
      </trkpt>
      <trkpt lat="43.34508" lon="6.17261">
        <ele>238.19999694824</ele>
        <time>2019-10-24T08:00:18.000Z</time>
      </trkpt>
      <trkpt lat="43.34499" lon="6.17256">
        <ele>238</ele>
        <time>2019-10-24T08:00:20.000Z</time>
      </trkpt>
      <trkpt lat="43.34486" lon="6.1726">
        <ele>238</ele>
        <time>2019-10-24T08:00:23.000Z</time>
      </trkpt>
      <trkpt lat="43.34474" lon="6.17274">
        <ele>238</ele>
        <time>2019-10-24T08:00:26.000Z</time>
      </trkpt>
      <trkpt lat="43.3447" lon="6.17278">
        <ele>238</ele>
        <time>2019-10-24T08:00:27.000Z</time>
      </trkpt>
      <trkpt lat="43.34451" lon="6.1729">
        <ele>238</ele>
        <time>2019-10-24T08:00:31.000Z</time>
      </trkpt>
      <trkpt lat="43.34402" lon="6.17306">
        <ele>238.39999389648</ele>
        <time>2019-10-24T08:00:41.000Z</time>
      </trkpt>
      <trkpt lat="43.34377" lon="6.17315">
        <ele>238.60000610352</ele>
        <time>2019-10-24T08:00:46.000Z</time>
      </trkpt>
      <trkpt lat="43.34355" lon="6.17321">
        <ele>239.19999694824</ele>
        <time>2019-10-24T08:00:51.000Z</time>
      </trkpt>
      <trkpt lat="43.34347" lon="6.17324">
        <ele>239.60000610352</ele>
        <time>2019-10-24T08:00:53.000Z</time>
      </trkpt>
      <trkpt lat="43.3433" lon="6.17329">
        <ele>240.60000610352</ele>
        <time>2019-10-24T08:00:57.000Z</time>
      </trkpt>
      <trkpt lat="43.34326" lon="6.17331">
        <ele>240.60000610352</ele>
        <time>2019-10-24T08:00:58.000Z</time>
      </trkpt>
      <trkpt lat="43.34288" lon="6.17345">
        <ele>241.39999389648</ele>
        <time>2019-10-24T08:01:07.000Z</time>
      </trkpt>
      <trkpt lat="43.34285" lon="6.17346">
        <ele>241.39999389648</ele>
        <time>2019-10-24T08:01:08.000Z</time>
      </trkpt>
      <trkpt lat="43.34282" lon="6.17341">
        <ele>241.39999389648</ele>
        <time>2019-10-24T08:01:10.000Z</time>
      </trkpt>
      <trkpt lat="43.3428" lon="6.17325">
        <ele>241</ele>
        <time>2019-10-24T08:01:14.000Z</time>
      </trkpt>
      <trkpt lat="43.3427" lon="6.17303">
        <ele>239.60000610352</ele>
        <time>2019-10-24T08:01:18.000Z</time>
      </trkpt>
      <trkpt lat="43.34267" lon="6.17298">
        <ele>239.19999694824</ele>
        <time>2019-10-24T08:01:19.000Z</time>
      </trkpt>
      <trkpt lat="43.34265" lon="6.17293">
        <ele>239</ele>
        <time>2019-10-24T08:01:20.000Z</time>
      </trkpt>
      <trkpt lat="43.34257" lon="6.1727">
        <ele>238.80000305176</ele>
        <time>2019-10-24T08:01:24.000Z</time>
      </trkpt>
      <trkpt lat="43.34238" lon="6.17222">
        <ele>238.39999389648</ele>
        <time>2019-10-24T08:01:33.000Z</time>
      </trkpt>
      <trkpt lat="43.34231" lon="6.17207">
        <ele>238.39999389648</ele>
        <time>2019-10-24T08:01:36.000Z</time>
      </trkpt>
      <trkpt lat="43.34228" lon="6.17203">
        <ele>238.19999694824</ele>
        <time>2019-10-24T08:01:37.000Z</time>
      </trkpt>
      <trkpt lat="43.34224" lon="6.17193">
        <ele>238.19999694824</ele>
        <time>2019-10-24T08:01:39.000Z</time>
      </trkpt>
      <trkpt lat="43.34204" lon="6.17144">
        <ele>238.60000610352</ele>
        <time>2019-10-24T08:01:48.000Z</time>
      </trkpt>
      <trkpt lat="43.34186" lon="6.17101">
        <ele>238.39999389648</ele>
        <time>2019-10-24T08:01:56.000Z</time>
      </trkpt>
      <trkpt lat="43.34165" lon="6.17057">
        <ele>238.19999694824</ele>
        <time>2019-10-24T08:02:05.000Z</time>
      </trkpt>
      <trkpt lat="43.3415" lon="6.17027">
        <ele>238.39999389648</ele>
        <time>2019-10-24T08:02:11.000Z</time>
      </trkpt>
      <trkpt lat="43.34135" lon="6.16995">
        <ele>238.39999389648</ele>
        <time>2019-10-24T08:02:17.000Z</time>
      </trkpt>
      <trkpt lat="43.34124" lon="6.16955">
        <ele>238.60000610352</ele>
        <time>2019-10-24T08:02:24.000Z</time>
      </trkpt>
      <trkpt lat="43.34112" lon="6.16914">
        <ele>239.19999694824</ele>
        <time>2019-10-24T08:02:31.000Z</time>
      </trkpt>
      <trkpt lat="43.34108" lon="6.16903">
        <ele>239.19999694824</ele>
        <time>2019-10-24T08:02:33.000Z</time>
      </trkpt>
      <trkpt lat="43.34101" lon="6.16881">
        <ele>239.19999694824</ele>
        <time>2019-10-24T08:02:37.000Z</time>
      </trkpt>
      <trkpt lat="43.34094" lon="6.16865">
        <ele>239.19999694824</ele>
        <time>2019-10-24T08:02:40.000Z</time>
      </trkpt>
      <trkpt lat="43.34091" lon="6.16861">
        <ele>239.19999694824</ele>
        <time>2019-10-24T08:02:41.000Z</time>
      </trkpt>
      <trkpt lat="43.34084" lon="6.16852">
        <ele>239.39999389648</ele>
        <time>2019-10-24T08:02:43.000Z</time>
      </trkpt>
      <trkpt lat="43.34072" lon="6.16842">
        <ele>239.60000610352</ele>
        <time>2019-10-24T08:02:46.000Z</time>
      </trkpt>
      <trkpt lat="43.34064" lon="6.16837">
        <ele>239.80000305176</ele>
        <time>2019-10-24T08:02:48.000Z</time>
      </trkpt>
      <trkpt lat="43.34055" lon="6.16832">
        <ele>240</ele>
        <time>2019-10-24T08:02:50.000Z</time>
      </trkpt>
      <trkpt lat="43.34043" lon="6.16826">
        <ele>240.19999694824</ele>
        <time>2019-10-24T08:02:53.000Z</time>
      </trkpt>
      <trkpt lat="43.34007" lon="6.16804">
        <ele>240.60000610352</ele>
        <time>2019-10-24T08:03:02.000Z</time>
      </trkpt>
      <trkpt lat="43.34003" lon="6.16802">
        <ele>240.60000610352</ele>
        <time>2019-10-24T08:03:03.000Z</time>
      </trkpt>
      <trkpt lat="43.33991" lon="6.16798">
        <ele>240.39999389648</ele>
        <time>2019-10-24T08:03:06.000Z</time>
      </trkpt>
      <trkpt lat="43.33988" lon="6.16798">
        <ele>240.39999389648</ele>
        <time>2019-10-24T08:03:07.000Z</time>
      </trkpt>
      <trkpt lat="43.33975" lon="6.16798">
        <ele>240.60000610352</ele>
        <time>2019-10-24T08:03:10.000Z</time>
      </trkpt>
      <trkpt lat="43.33967" lon="6.16796">
        <ele>240.60000610352</ele>
        <time>2019-10-24T08:03:12.000Z</time>
      </trkpt>
      <trkpt lat="43.33954" lon="6.16793">
        <ele>240.39999389648</ele>
        <time>2019-10-24T08:03:15.000Z</time>
      </trkpt>
      <trkpt lat="43.33947" lon="6.16792">
        <ele>240.19999694824</ele>
        <time>2019-10-24T08:03:17.000Z</time>
      </trkpt>
      <trkpt lat="43.33938" lon="6.16792">
        <ele>240</ele>
        <time>2019-10-24T08:03:19.000Z</time>
      </trkpt>
      <trkpt lat="43.33918" lon="6.16788">
        <ele>240</ele>
        <time>2019-10-24T08:03:24.000Z</time>
      </trkpt>
      <trkpt lat="43.33902" lon="6.16787">
        <ele>240.60000610352</ele>
        <time>2019-10-24T08:03:28.000Z</time>
      </trkpt>
      <trkpt lat="43.33899" lon="6.16787">
        <ele>240.80000305176</ele>
        <time>2019-10-24T08:03:29.000Z</time>
      </trkpt>
      <trkpt lat="43.33883" lon="6.16786">
        <ele>241.80000305176</ele>
        <time>2019-10-24T08:03:34.000Z</time>
      </trkpt>
      <trkpt lat="43.33879" lon="6.16785">
        <ele>242</ele>
        <time>2019-10-24T08:03:35.000Z</time>
      </trkpt>
      <trkpt lat="43.33865" lon="6.1678">
        <ele>242.39999389648</ele>
        <time>2019-10-24T08:03:39.000Z</time>
      </trkpt>
      <trkpt lat="43.33838" lon="6.16777">
        <ele>242.60000610352</ele>
        <time>2019-10-24T08:03:45.000Z</time>
      </trkpt>
      <trkpt lat="43.33818" lon="6.16774">
        <ele>242.80000305176</ele>
        <time>2019-10-24T08:03:50.000Z</time>
      </trkpt>
      <trkpt lat="43.33814" lon="6.16772">
        <ele>243</ele>
        <time>2019-10-24T08:03:51.000Z</time>
      </trkpt>
      <trkpt lat="43.33801" lon="6.16768">
        <ele>243.39999389648</ele>
        <time>2019-10-24T08:03:54.000Z</time>
      </trkpt>
      <trkpt lat="43.33775" lon="6.16759">
        <ele>244</ele>
        <time>2019-10-24T08:04:00.000Z</time>
      </trkpt>
      <trkpt lat="43.33759" lon="6.16754">
        <ele>244</ele>
        <time>2019-10-24T08:04:03.000Z</time>
      </trkpt>
      <trkpt lat="43.3375" lon="6.16748">
        <ele>244</ele>
        <time>2019-10-24T08:04:05.000Z</time>
      </trkpt>
      <trkpt lat="43.33731" lon="6.16733">
        <ele>244.19999694824</ele>
        <time>2019-10-24T08:04:10.000Z</time>
      </trkpt>
      <trkpt lat="43.33727" lon="6.16729">
        <ele>244</ele>
        <time>2019-10-24T08:04:11.000Z</time>
      </trkpt>
      <trkpt lat="43.33723" lon="6.16725">
        <ele>244</ele>
        <time>2019-10-24T08:04:12.000Z</time>
      </trkpt>
      <trkpt lat="43.33711" lon="6.16706">
        <ele>244</ele>
        <time>2019-10-24T08:04:16.000Z</time>
      </trkpt>
      <trkpt lat="43.33697" lon="6.16679">
        <ele>244</ele>
        <time>2019-10-24T08:04:21.000Z</time>
      </trkpt>
      <trkpt lat="43.33682" lon="6.16656">
        <ele>244.39999389648</ele>
        <time>2019-10-24T08:04:26.000Z</time>
      </trkpt>
      <trkpt lat="43.3367" lon="6.16631">
        <ele>245.19999694824</ele>
        <time>2019-10-24T08:04:32.000Z</time>
      </trkpt>
      <trkpt lat="43.33665" lon="6.16624">
        <ele>245.39999389648</ele>
        <time>2019-10-24T08:04:34.000Z</time>
      </trkpt>
      <trkpt lat="43.33653" lon="6.16607">
        <ele>246.39999389648</ele>
        <time>2019-10-24T08:04:38.000Z</time>
      </trkpt>
      <trkpt lat="43.3365" lon="6.16601">
        <ele>246.80000305176</ele>
        <time>2019-10-24T08:04:39.000Z</time>
      </trkpt>
      <trkpt lat="43.33643" lon="6.16589">
        <ele>247</ele>
        <time>2019-10-24T08:04:41.000Z</time>
      </trkpt>
      <trkpt lat="43.33636" lon="6.16574">
        <ele>247.39999389648</ele>
        <time>2019-10-24T08:04:44.000Z</time>
      </trkpt>
      <trkpt lat="43.33635" lon="6.16567">
        <ele>247.60000610352</ele>
        <time>2019-10-24T08:04:45.000Z</time>
      </trkpt>
      <trkpt lat="43.33634" lon="6.16547">
        <ele>247.60000610352</ele>
        <time>2019-10-24T08:04:48.000Z</time>
      </trkpt>
      <trkpt lat="43.33634" lon="6.1654">
        <ele>247.60000610352</ele>
        <time>2019-10-24T08:04:49.000Z</time>
      </trkpt>
      <trkpt lat="43.33635" lon="6.16506">
        <ele>246.80000305176</ele>
        <time>2019-10-24T08:04:54.000Z</time>
      </trkpt>
      <trkpt lat="43.33635" lon="6.16482">
        <ele>246</ele>
        <time>2019-10-24T08:04:57.000Z</time>
      </trkpt>
      <trkpt lat="43.33634" lon="6.16475">
        <ele>245.80000305176</ele>
        <time>2019-10-24T08:04:58.000Z</time>
      </trkpt>
      <trkpt lat="43.33633" lon="6.16467">
        <ele>245.60000610352</ele>
        <time>2019-10-24T08:04:59.000Z</time>
      </trkpt>
      <trkpt lat="43.33626" lon="6.16452">
        <ele>244.60000610352</ele>
        <time>2019-10-24T08:05:01.000Z</time>
      </trkpt>
      <trkpt lat="43.33621" lon="6.16448">
        <ele>244.19999694824</ele>
        <time>2019-10-24T08:05:02.000Z</time>
      </trkpt>
      <trkpt lat="43.33613" lon="6.1644">
        <ele>243.80000305176</ele>
        <time>2019-10-24T08:05:04.000Z</time>
      </trkpt>
      <trkpt lat="43.33608" lon="6.16439">
        <ele>243.80000305176</ele>
        <time>2019-10-24T08:05:05.000Z</time>
      </trkpt>
      <trkpt lat="43.33603" lon="6.16438">
        <ele>243.80000305176</ele>
        <time>2019-10-24T08:05:06.000Z</time>
      </trkpt>
      <trkpt lat="43.33586" lon="6.16436">
        <ele>243.80000305176</ele>
        <time>2019-10-24T08:05:10.000Z</time>
      </trkpt>
      <trkpt lat="43.33581" lon="6.16437">
        <ele>244</ele>
        <time>2019-10-24T08:05:11.000Z</time>
      </trkpt>
      <trkpt lat="43.3356" lon="6.1644">
        <ele>244.80000305176</ele>
        <time>2019-10-24T08:05:17.000Z</time>
      </trkpt>
      <trkpt lat="43.33526" lon="6.16445">
        <ele>245.39999389648</ele>
        <time>2019-10-24T08:05:26.000Z</time>
      </trkpt>
      <trkpt lat="43.33507" lon="6.16445">
        <ele>245.80000305176</ele>
        <time>2019-10-24T08:05:31.000Z</time>
      </trkpt>
      <trkpt lat="43.33488" lon="6.16446">
        <ele>246.39999389648</ele>
        <time>2019-10-24T08:05:36.000Z</time>
      </trkpt>
      <trkpt lat="43.33469" lon="6.16452">
        <ele>246.80000305176</ele>
        <time>2019-10-24T08:05:42.000Z</time>
      </trkpt>
      <trkpt lat="43.33466" lon="6.16453">
        <ele>247.19999694824</ele>
        <time>2019-10-24T08:05:43.000Z</time>
      </trkpt>
      <trkpt lat="43.33451" lon="6.16463">
        <ele>247.60000610352</ele>
        <time>2019-10-24T08:05:48.000Z</time>
      </trkpt>
      <trkpt lat="43.33429" lon="6.16483">
        <ele>247.80000305176</ele>
        <time>2019-10-24T08:05:55.000Z</time>
      </trkpt>
      <trkpt lat="43.33426" lon="6.16486">
        <ele>248</ele>
        <time>2019-10-24T08:05:56.000Z</time>
      </trkpt>
      <trkpt lat="43.33405" lon="6.16502">
        <ele>248.80000305176</ele>
        <time>2019-10-24T08:06:02.000Z</time>
      </trkpt>
      <trkpt lat="43.33395" lon="6.16511">
        <ele>249</ele>
        <time>2019-10-24T08:06:05.000Z</time>
      </trkpt>
      <trkpt lat="43.33366" lon="6.16527">
        <ele>249.60000610352</ele>
        <time>2019-10-24T08:06:13.000Z</time>
      </trkpt>
      <trkpt lat="43.33344" lon="6.16532">
        <ele>249.80000305176</ele>
        <time>2019-10-24T08:06:19.000Z</time>
      </trkpt>
      <trkpt lat="43.33337" lon="6.16534">
        <ele>249.80000305176</ele>
        <time>2019-10-24T08:06:21.000Z</time>
      </trkpt>
      <trkpt lat="43.33304" lon="6.16545">
        <ele>250.60000610352</ele>
        <time>2019-10-24T08:06:30.000Z</time>
      </trkpt>
      <trkpt lat="43.333" lon="6.16547">
        <ele>250.80000305176</ele>
        <time>2019-10-24T08:06:31.000Z</time>
      </trkpt>
      <trkpt lat="43.33287" lon="6.16559">
        <ele>251.60000610352</ele>
        <time>2019-10-24T08:06:35.000Z</time>
      </trkpt>
      <trkpt lat="43.3328" lon="6.16563">
        <ele>251.80000305176</ele>
        <time>2019-10-24T08:06:37.000Z</time>
      </trkpt>
      <trkpt lat="43.33255" lon="6.16574">
        <ele>252.39999389648</ele>
        <time>2019-10-24T08:06:44.000Z</time>
      </trkpt>
      <trkpt lat="43.33239" lon="6.16582">
        <ele>252.80000305176</ele>
        <time>2019-10-24T08:06:49.000Z</time>
      </trkpt>
      <trkpt lat="43.33229" lon="6.16589">
        <ele>253.19999694824</ele>
        <time>2019-10-24T08:06:52.000Z</time>
      </trkpt>
      <trkpt lat="43.33217" lon="6.16596">
        <ele>254</ele>
        <time>2019-10-24T08:06:56.000Z</time>
      </trkpt>
      <trkpt lat="43.33201" lon="6.16605">
        <ele>254.80000305176</ele>
        <time>2019-10-24T08:07:01.000Z</time>
      </trkpt>
      <trkpt lat="43.33194" lon="6.16607">
        <ele>255</ele>
        <time>2019-10-24T08:07:03.000Z</time>
      </trkpt>
      <trkpt lat="43.33188" lon="6.16611">
        <ele>255.19999694824</ele>
        <time>2019-10-24T08:07:05.000Z</time>
      </trkpt>
      <trkpt lat="43.33168" lon="6.16622">
        <ele>255.80000305176</ele>
        <time>2019-10-24T08:07:11.000Z</time>
      </trkpt>
      <trkpt lat="43.33148" lon="6.1663">
        <ele>256.79998779297</ele>
        <time>2019-10-24T08:07:17.000Z</time>
      </trkpt>
      <trkpt lat="43.33144" lon="6.16632">
        <ele>257.20001220703</ele>
        <time>2019-10-24T08:07:18.000Z</time>
      </trkpt>
      <trkpt lat="43.33125" lon="6.16639">
        <ele>258</ele>
        <time>2019-10-24T08:07:23.000Z</time>
      </trkpt>
      <trkpt lat="43.33115" lon="6.16641">
        <ele>258.20001220703</ele>
        <time>2019-10-24T08:07:25.000Z</time>
      </trkpt>
      <trkpt lat="43.33096" lon="6.16646">
        <ele>258.79998779297</ele>
        <time>2019-10-24T08:07:29.000Z</time>
      </trkpt>
      <trkpt lat="43.33091" lon="6.16647">
        <ele>259</ele>
        <time>2019-10-24T08:07:30.000Z</time>
      </trkpt>
      <trkpt lat="43.33087" lon="6.16647">
        <ele>259.39999389648</ele>
        <time>2019-10-24T08:07:31.000Z</time>
      </trkpt>
      <trkpt lat="43.33072" lon="6.16648">
        <ele>260.20001220703</ele>
        <time>2019-10-24T08:07:34.000Z</time>
      </trkpt>
      <trkpt lat="43.33057" lon="6.16649">
        <ele>260.79998779297</ele>
        <time>2019-10-24T08:07:37.000Z</time>
      </trkpt>
      <trkpt lat="43.33052" lon="6.1665">
        <ele>261</ele>
        <time>2019-10-24T08:07:38.000Z</time>
      </trkpt>
      <trkpt lat="43.33037" lon="6.16652">
        <ele>261.60000610352</ele>
        <time>2019-10-24T08:07:41.000Z</time>
      </trkpt>
      <trkpt lat="43.33027" lon="6.16653">
        <ele>262.39999389648</ele>
        <time>2019-10-24T08:07:43.000Z</time>
      </trkpt>
      <trkpt lat="43.33013" lon="6.16654">
        <ele>263.39999389648</ele>
        <time>2019-10-24T08:07:46.000Z</time>
      </trkpt>
      <trkpt lat="43.33004" lon="6.16655">
        <ele>264</ele>
        <time>2019-10-24T08:07:48.000Z</time>
      </trkpt>
      <trkpt lat="43.3299" lon="6.16656">
        <ele>264.60000610352</ele>
        <time>2019-10-24T08:07:51.000Z</time>
      </trkpt>
      <trkpt lat="43.3297" lon="6.16655">
        <ele>265.60000610352</ele>
        <time>2019-10-24T08:07:55.000Z</time>
      </trkpt>
      <trkpt lat="43.32965" lon="6.16655">
        <ele>266</ele>
        <time>2019-10-24T08:07:56.000Z</time>
      </trkpt>
      <trkpt lat="43.3296" lon="6.16654">
        <ele>266.20001220703</ele>
        <time>2019-10-24T08:07:57.000Z</time>
      </trkpt>
      <trkpt lat="43.32941" lon="6.16651">
        <ele>267</ele>
        <time>2019-10-24T08:08:01.000Z</time>
      </trkpt>
      <trkpt lat="43.32925" lon="6.16648">
        <ele>268</ele>
        <time>2019-10-24T08:08:04.000Z</time>
      </trkpt>
      <trkpt lat="43.32905" lon="6.16646">
        <ele>269.20001220703</ele>
        <time>2019-10-24T08:08:08.000Z</time>
      </trkpt>
      <trkpt lat="43.329" lon="6.16646">
        <ele>269.60000610352</ele>
        <time>2019-10-24T08:08:09.000Z</time>
      </trkpt>
      <trkpt lat="43.3289" lon="6.16646">
        <ele>270.20001220703</ele>
        <time>2019-10-24T08:08:11.000Z</time>
      </trkpt>
      <trkpt lat="43.32874" lon="6.16646">
        <ele>271.20001220703</ele>
        <time>2019-10-24T08:08:14.000Z</time>
      </trkpt>
      <trkpt lat="43.32864" lon="6.16647">
        <ele>271.79998779297</ele>
        <time>2019-10-24T08:08:16.000Z</time>
      </trkpt>
      <trkpt lat="43.32853" lon="6.16648">
        <ele>272.39999389648</ele>
        <time>2019-10-24T08:08:18.000Z</time>
      </trkpt>
      <trkpt lat="43.32838" lon="6.16649">
        <ele>273.60000610352</ele>
        <time>2019-10-24T08:08:21.000Z</time>
      </trkpt>
      <trkpt lat="43.32817" lon="6.1665">
        <ele>274.60000610352</ele>
        <time>2019-10-24T08:08:25.000Z</time>
      </trkpt>
      <trkpt lat="43.32798" lon="6.16652">
        <ele>275.39999389648</ele>
        <time>2019-10-24T08:08:29.000Z</time>
      </trkpt>
      <trkpt lat="43.3278" lon="6.16653">
        <ele>276.79998779297</ele>
        <time>2019-10-24T08:08:33.000Z</time>
      </trkpt>
      <trkpt lat="43.32776" lon="6.16653">
        <ele>277</ele>
        <time>2019-10-24T08:08:34.000Z</time>
      </trkpt>
      <trkpt lat="43.32772" lon="6.16653">
        <ele>277.20001220703</ele>
        <time>2019-10-24T08:08:35.000Z</time>
      </trkpt>
      <trkpt lat="43.32764" lon="6.16654">
        <ele>277.79998779297</ele>
        <time>2019-10-24T08:08:37.000Z</time>
      </trkpt>
      <trkpt lat="43.3276" lon="6.16654">
        <ele>278</ele>
        <time>2019-10-24T08:08:38.000Z</time>
      </trkpt>
      <trkpt lat="43.32749" lon="6.16654">
        <ele>279.20001220703</ele>
        <time>2019-10-24T08:08:41.000Z</time>
      </trkpt>
      <trkpt lat="43.32743" lon="6.16653">
        <ele>279.39999389648</ele>
        <time>2019-10-24T08:08:43.000Z</time>
      </trkpt>
      <trkpt lat="43.32739" lon="6.16653">
        <ele>280.20001220703</ele>
        <time>2019-10-24T08:08:44.000Z</time>
      </trkpt>
      <trkpt lat="43.32735" lon="6.16653">
        <ele>280.60000610352</ele>
        <time>2019-10-24T08:08:45.000Z</time>
      </trkpt>
      <trkpt lat="43.32721" lon="6.1665">
        <ele>281.20001220703</ele>
        <time>2019-10-24T08:08:48.000Z</time>
      </trkpt>
      <trkpt lat="43.32707" lon="6.16648">
        <ele>281.79998779297</ele>
        <time>2019-10-24T08:08:51.000Z</time>
      </trkpt>
      <trkpt lat="43.32698" lon="6.16646">
        <ele>282.39999389648</ele>
        <time>2019-10-24T08:08:53.000Z</time>
      </trkpt>
      <trkpt lat="43.32689" lon="6.16642">
        <ele>283</ele>
        <time>2019-10-24T08:08:55.000Z</time>
      </trkpt>
      <trkpt lat="43.32685" lon="6.1664">
        <ele>283.39999389648</ele>
        <time>2019-10-24T08:08:56.000Z</time>
      </trkpt>
      <trkpt lat="43.32673" lon="6.16634">
        <ele>284.39999389648</ele>
        <time>2019-10-24T08:08:59.000Z</time>
      </trkpt>
      <trkpt lat="43.3266" lon="6.1663">
        <ele>285.39999389648</ele>
        <time>2019-10-24T08:09:02.000Z</time>
      </trkpt>
      <trkpt lat="43.32656" lon="6.1663">
        <ele>285.39999389648</ele>
        <time>2019-10-24T08:09:03.000Z</time>
      </trkpt>
      <trkpt lat="43.3264" lon="6.16644">
        <ele>286.39999389648</ele>
        <time>2019-10-24T08:09:07.000Z</time>
      </trkpt>
      <trkpt lat="43.32637" lon="6.16649">
        <ele>286.79998779297</ele>
        <time>2019-10-24T08:09:08.000Z</time>
      </trkpt>
      <trkpt lat="43.32631" lon="6.16659">
        <ele>287.20001220703</ele>
        <time>2019-10-24T08:09:10.000Z</time>
      </trkpt>
      <trkpt lat="43.32626" lon="6.16667">
        <ele>287.20001220703</ele>
        <time>2019-10-24T08:09:12.000Z</time>
      </trkpt>
      <trkpt lat="43.32613" lon="6.1669">
        <ele>287.20001220703</ele>
        <time>2019-10-24T08:09:17.000Z</time>
      </trkpt>
      <trkpt lat="43.32591" lon="6.16724">
        <ele>287</ele>
        <time>2019-10-24T08:09:25.000Z</time>
      </trkpt>
      <trkpt lat="43.32587" lon="6.16745">
        <ele>287.39999389648</ele>
        <time>2019-10-24T08:09:30.000Z</time>
      </trkpt>
      <trkpt lat="43.3259" lon="6.16755">
        <ele>287.20001220703</ele>
        <time>2019-10-24T08:09:32.000Z</time>
      </trkpt>
      <trkpt lat="43.32593" lon="6.16767">
        <ele>286.79998779297</ele>
        <time>2019-10-24T08:09:34.000Z</time>
      </trkpt>
      <trkpt lat="43.32605" lon="6.16808">
        <ele>285.39999389648</ele>
        <time>2019-10-24T08:09:40.000Z</time>
      </trkpt>
      <trkpt lat="43.32608" lon="6.1683">
        <ele>284.79998779297</ele>
        <time>2019-10-24T08:09:44.000Z</time>
      </trkpt>
      <trkpt lat="43.326" lon="6.16837">
        <ele>284.60000610352</ele>
        <time>2019-10-24T08:09:47.000Z</time>
      </trkpt>
      <trkpt lat="43.32588" lon="6.16838">
        <ele>285</ele>
        <time>2019-10-24T08:09:51.000Z</time>
      </trkpt>
      <trkpt lat="43.32584" lon="6.16839">
        <ele>285</ele>
        <time>2019-10-24T08:09:52.000Z</time>
      </trkpt>
      <trkpt lat="43.32564" lon="6.16844">
        <ele>286</ele>
        <time>2019-10-24T08:09:58.000Z</time>
      </trkpt>
      <trkpt lat="43.32561" lon="6.16844">
        <ele>286.20001220703</ele>
        <time>2019-10-24T08:09:59.000Z</time>
      </trkpt>
      <trkpt lat="43.32548" lon="6.16847">
        <ele>287.20001220703</ele>
        <time>2019-10-24T08:10:03.000Z</time>
      </trkpt>
      <trkpt lat="43.32544" lon="6.16849">
        <ele>287.39999389648</ele>
        <time>2019-10-24T08:10:04.000Z</time>
      </trkpt>
      <trkpt lat="43.3253" lon="6.16854">
        <ele>288.20001220703</ele>
        <time>2019-10-24T08:10:08.000Z</time>
      </trkpt>
      <trkpt lat="43.32523" lon="6.16856">
        <ele>288.39999389648</ele>
        <time>2019-10-24T08:10:10.000Z</time>
      </trkpt>
      <trkpt lat="43.32506" lon="6.16858">
        <ele>289</ele>
        <time>2019-10-24T08:10:15.000Z</time>
      </trkpt>
      <trkpt lat="43.325" lon="6.16859">
        <ele>289.60000610352</ele>
        <time>2019-10-24T08:10:17.000Z</time>
      </trkpt>
      <trkpt lat="43.32491" lon="6.16861">
        <ele>289.79998779297</ele>
        <time>2019-10-24T08:10:20.000Z</time>
      </trkpt>
      <trkpt lat="43.32474" lon="6.16865">
        <ele>290.39999389648</ele>
        <time>2019-10-24T08:10:25.000Z</time>
      </trkpt>
      <trkpt lat="43.32471" lon="6.16867">
        <ele>290.60000610352</ele>
        <time>2019-10-24T08:10:26.000Z</time>
      </trkpt>
      <trkpt lat="43.32452" lon="6.16876">
        <ele>291.60000610352</ele>
        <time>2019-10-24T08:10:31.000Z</time>
      </trkpt>
      <trkpt lat="43.32431" lon="6.16889">
        <ele>292.79998779297</ele>
        <time>2019-10-24T08:10:36.000Z</time>
      </trkpt>
      <trkpt lat="43.32423" lon="6.16894">
        <ele>293.20001220703</ele>
        <time>2019-10-24T08:10:38.000Z</time>
      </trkpt>
      <trkpt lat="43.32403" lon="6.16906">
        <ele>293.79998779297</ele>
        <time>2019-10-24T08:10:43.000Z</time>
      </trkpt>
      <trkpt lat="43.32399" lon="6.16909">
        <ele>294</ele>
        <time>2019-10-24T08:10:44.000Z</time>
      </trkpt>
      <trkpt lat="43.32376" lon="6.16924">
        <ele>295</ele>
        <time>2019-10-24T08:10:50.000Z</time>
      </trkpt>
      <trkpt lat="43.32372" lon="6.16926">
        <ele>295.20001220703</ele>
        <time>2019-10-24T08:10:51.000Z</time>
      </trkpt>
      <trkpt lat="43.32352" lon="6.16934">
        <ele>295.60000610352</ele>
        <time>2019-10-24T08:10:56.000Z</time>
      </trkpt>
      <trkpt lat="43.32348" lon="6.16933">
        <ele>295.60000610352</ele>
        <time>2019-10-24T08:10:57.000Z</time>
      </trkpt>
      <trkpt lat="43.32335" lon="6.16934">
        <ele>296</ele>
        <time>2019-10-24T08:11:00.000Z</time>
      </trkpt>
      <trkpt lat="43.32324" lon="6.16937">
        <ele>296.20001220703</ele>
        <time>2019-10-24T08:11:03.000Z</time>
      </trkpt>
      <trkpt lat="43.32301" lon="6.1694">
        <ele>297</ele>
        <time>2019-10-24T08:11:09.000Z</time>
      </trkpt>
      <trkpt lat="43.32281" lon="6.16941">
        <ele>297.20001220703</ele>
        <time>2019-10-24T08:11:14.000Z</time>
      </trkpt>
      <trkpt lat="43.32251" lon="6.1695">
        <ele>297.60000610352</ele>
        <time>2019-10-24T08:11:21.000Z</time>
      </trkpt>
      <trkpt lat="43.32227" lon="6.16958">
        <ele>297</ele>
        <time>2019-10-24T08:11:27.000Z</time>
      </trkpt>
      <trkpt lat="43.32199" lon="6.16968">
        <ele>296.20001220703</ele>
        <time>2019-10-24T08:11:33.000Z</time>
      </trkpt>
      <trkpt lat="43.32194" lon="6.1697">
        <ele>296</ele>
        <time>2019-10-24T08:11:34.000Z</time>
      </trkpt>
      <trkpt lat="43.32165" lon="6.16985">
        <ele>295.20001220703</ele>
        <time>2019-10-24T08:11:40.000Z</time>
      </trkpt>
      <trkpt lat="43.3216" lon="6.16987">
        <ele>295.20001220703</ele>
        <time>2019-10-24T08:11:41.000Z</time>
      </trkpt>
      <trkpt lat="43.3215" lon="6.16992">
        <ele>295</ele>
        <time>2019-10-24T08:11:43.000Z</time>
      </trkpt>
      <trkpt lat="43.32131" lon="6.16999">
        <ele>294.60000610352</ele>
        <time>2019-10-24T08:11:47.000Z</time>
      </trkpt>
      <trkpt lat="43.32097" lon="6.17018">
        <ele>294.39999389648</ele>
        <time>2019-10-24T08:11:54.000Z</time>
      </trkpt>
      <trkpt lat="43.32092" lon="6.17021">
        <ele>294.20001220703</ele>
        <time>2019-10-24T08:11:55.000Z</time>
      </trkpt>
      <trkpt lat="43.32069" lon="6.17035">
        <ele>294</ele>
        <time>2019-10-24T08:12:00.000Z</time>
      </trkpt>
      <trkpt lat="43.32061" lon="6.1704">
        <ele>294</ele>
        <time>2019-10-24T08:12:02.000Z</time>
      </trkpt>
      <trkpt lat="43.32035" lon="6.17055">
        <ele>293.79998779297</ele>
        <time>2019-10-24T08:12:08.000Z</time>
      </trkpt>
      <trkpt lat="43.32005" lon="6.17073">
        <ele>294.39999389648</ele>
        <time>2019-10-24T08:12:15.000Z</time>
      </trkpt>
      <trkpt lat="43.31993" lon="6.17079">
        <ele>294.60000610352</ele>
        <time>2019-10-24T08:12:18.000Z</time>
      </trkpt>
      <trkpt lat="43.3198" lon="6.17079">
        <ele>294.60000610352</ele>
        <time>2019-10-24T08:12:21.000Z</time>
      </trkpt>
      <trkpt lat="43.31957" lon="6.17086">
        <ele>293.60000610352</ele>
        <time>2019-10-24T08:12:26.000Z</time>
      </trkpt>
      <trkpt lat="43.31952" lon="6.17086">
        <ele>293.60000610352</ele>
        <time>2019-10-24T08:12:27.000Z</time>
      </trkpt>
      <trkpt lat="43.31947" lon="6.17086">
        <ele>293.39999389648</ele>
        <time>2019-10-24T08:12:28.000Z</time>
      </trkpt>
      <trkpt lat="43.31937" lon="6.17086">
        <ele>293</ele>
        <time>2019-10-24T08:12:30.000Z</time>
      </trkpt>
      <trkpt lat="43.31932" lon="6.17087">
        <ele>292.79998779297</ele>
        <time>2019-10-24T08:12:31.000Z</time>
      </trkpt>
      <trkpt lat="43.31926" lon="6.17087">
        <ele>292.60000610352</ele>
        <time>2019-10-24T08:12:32.000Z</time>
      </trkpt>
      <trkpt lat="43.31904" lon="6.17088">
        <ele>291.39999389648</ele>
        <time>2019-10-24T08:12:36.000Z</time>
      </trkpt>
      <trkpt lat="43.31886" lon="6.1709">
        <ele>290.20001220703</ele>
        <time>2019-10-24T08:12:39.000Z</time>
      </trkpt>
      <trkpt lat="43.31874" lon="6.17087">
        <ele>290</ele>
        <time>2019-10-24T08:12:41.000Z</time>
      </trkpt>
      <trkpt lat="43.31862" lon="6.17082">
        <ele>289</ele>
        <time>2019-10-24T08:12:43.000Z</time>
      </trkpt>
      <trkpt lat="43.31856" lon="6.1708">
        <ele>288.60000610352</ele>
        <time>2019-10-24T08:12:44.000Z</time>
      </trkpt>
      <trkpt lat="43.31844" lon="6.17079">
        <ele>288.20001220703</ele>
        <time>2019-10-24T08:12:46.000Z</time>
      </trkpt>
      <trkpt lat="43.31833" lon="6.1708">
        <ele>288.20001220703</ele>
        <time>2019-10-24T08:12:48.000Z</time>
      </trkpt>
      <trkpt lat="43.31821" lon="6.17083">
        <ele>288.39999389648</ele>
        <time>2019-10-24T08:12:51.000Z</time>
      </trkpt>
      <trkpt lat="43.318" lon="6.17088">
        <ele>288.39999389648</ele>
        <time>2019-10-24T08:12:56.000Z</time>
      </trkpt>
      <trkpt lat="43.31771" lon="6.17091">
        <ele>288.20001220703</ele>
        <time>2019-10-24T08:13:03.000Z</time>
      </trkpt>
      <trkpt lat="43.31762" lon="6.17094">
        <ele>288</ele>
        <time>2019-10-24T08:13:05.000Z</time>
      </trkpt>
      <trkpt lat="43.31744" lon="6.17099">
        <ele>287.39999389648</ele>
        <time>2019-10-24T08:13:09.000Z</time>
      </trkpt>
      <trkpt lat="43.31739" lon="6.17099">
        <ele>287.20001220703</ele>
        <time>2019-10-24T08:13:10.000Z</time>
      </trkpt>
      <trkpt lat="43.31722" lon="6.17101">
        <ele>286.39999389648</ele>
        <time>2019-10-24T08:13:13.000Z</time>
      </trkpt>
      <trkpt lat="43.31703" lon="6.17102">
        <ele>285.39999389648</ele>
        <time>2019-10-24T08:13:16.000Z</time>
      </trkpt>
      <trkpt lat="43.31696" lon="6.17102">
        <ele>285.20001220703</ele>
        <time>2019-10-24T08:13:17.000Z</time>
      </trkpt>
      <trkpt lat="43.31671" lon="6.17099">
        <ele>284</ele>
        <time>2019-10-24T08:13:21.000Z</time>
      </trkpt>
      <trkpt lat="43.31664" lon="6.17098">
        <ele>283.79998779297</ele>
        <time>2019-10-24T08:13:22.000Z</time>
      </trkpt>
      <trkpt lat="43.31644" lon="6.17093">
        <ele>283</ele>
        <time>2019-10-24T08:13:25.000Z</time>
      </trkpt>
      <trkpt lat="43.31636" lon="6.17091">
        <ele>282.39999389648</ele>
        <time>2019-10-24T08:13:26.000Z</time>
      </trkpt>
      <trkpt lat="43.31629" lon="6.17089">
        <ele>281.60000610352</ele>
        <time>2019-10-24T08:13:27.000Z</time>
      </trkpt>
      <trkpt lat="43.31614" lon="6.17085">
        <ele>280.39999389648</ele>
        <time>2019-10-24T08:13:29.000Z</time>
      </trkpt>
      <trkpt lat="43.31606" lon="6.17083">
        <ele>279.79998779297</ele>
        <time>2019-10-24T08:13:30.000Z</time>
      </trkpt>
      <trkpt lat="43.31598" lon="6.17081">
        <ele>279</ele>
        <time>2019-10-24T08:13:31.000Z</time>
      </trkpt>
      <trkpt lat="43.31581" lon="6.17074">
        <ele>277.39999389648</ele>
        <time>2019-10-24T08:13:33.000Z</time>
      </trkpt>
      <trkpt lat="43.31573" lon="6.1707">
        <ele>275.20001220703</ele>
        <time>2019-10-24T08:13:34.000Z</time>
      </trkpt>
      <trkpt lat="43.31566" lon="6.17066">
        <ele>274</ele>
        <time>2019-10-24T08:13:35.000Z</time>
      </trkpt>
      <trkpt lat="43.31558" lon="6.17061">
        <ele>272.79998779297</ele>
        <time>2019-10-24T08:13:36.000Z</time>
      </trkpt>
      <trkpt lat="43.31549" lon="6.17057">
        <ele>271.39999389648</ele>
        <time>2019-10-24T08:13:37.000Z</time>
      </trkpt>
      <trkpt lat="43.3154" lon="6.17055">
        <ele>270.20001220703</ele>
        <time>2019-10-24T08:13:38.000Z</time>
      </trkpt>
      <trkpt lat="43.31523" lon="6.17056">
        <ele>268.39999389648</ele>
        <time>2019-10-24T08:13:40.000Z</time>
      </trkpt>
      <trkpt lat="43.31515" lon="6.17055">
        <ele>267.60000610352</ele>
        <time>2019-10-24T08:13:41.000Z</time>
      </trkpt>
      <trkpt lat="43.31506" lon="6.17052">
        <ele>266.79998779297</ele>
        <time>2019-10-24T08:13:42.000Z</time>
      </trkpt>
      <trkpt lat="43.31497" lon="6.1705">
        <ele>266.20001220703</ele>
        <time>2019-10-24T08:13:43.000Z</time>
      </trkpt>
      <trkpt lat="43.31487" lon="6.17048">
        <ele>265.39999389648</ele>
        <time>2019-10-24T08:13:44.000Z</time>
      </trkpt>
      <trkpt lat="43.31478" lon="6.17046">
        <ele>264.79998779297</ele>
        <time>2019-10-24T08:13:45.000Z</time>
      </trkpt>
      <trkpt lat="43.31469" lon="6.17043">
        <ele>263.79998779297</ele>
        <time>2019-10-24T08:13:46.000Z</time>
      </trkpt>
      <trkpt lat="43.31451" lon="6.17037">
        <ele>262.60000610352</ele>
        <time>2019-10-24T08:13:48.000Z</time>
      </trkpt>
      <trkpt lat="43.31443" lon="6.17035">
        <ele>261.79998779297</ele>
        <time>2019-10-24T08:13:49.000Z</time>
      </trkpt>
      <trkpt lat="43.31434" lon="6.17034">
        <ele>261.60000610352</ele>
        <time>2019-10-24T08:13:50.000Z</time>
      </trkpt>
      <trkpt lat="43.3142" lon="6.17035">
        <ele>260.39999389648</ele>
        <time>2019-10-24T08:13:52.000Z</time>
      </trkpt>
      <trkpt lat="43.31413" lon="6.17037">
        <ele>259.79998779297</ele>
        <time>2019-10-24T08:13:53.000Z</time>
      </trkpt>
      <trkpt lat="43.31407" lon="6.17036">
        <ele>259.20001220703</ele>
        <time>2019-10-24T08:13:54.000Z</time>
      </trkpt>
      <trkpt lat="43.31396" lon="6.17034">
        <ele>258.79998779297</ele>
        <time>2019-10-24T08:13:56.000Z</time>
      </trkpt>
      <trkpt lat="43.31386" lon="6.1704">
        <ele>258.60000610352</ele>
        <time>2019-10-24T08:13:59.000Z</time>
      </trkpt>
      <trkpt lat="43.3137" lon="6.17052">
        <ele>259.20001220703</ele>
        <time>2019-10-24T08:14:04.000Z</time>
      </trkpt>
      <trkpt lat="43.31364" lon="6.17053">
        <ele>259.60000610352</ele>
        <time>2019-10-24T08:14:06.000Z</time>
      </trkpt>
      <trkpt lat="43.31354" lon="6.17055">
        <ele>260</ele>
        <time>2019-10-24T08:14:09.000Z</time>
      </trkpt>
      <trkpt lat="43.3135" lon="6.17055">
        <ele>260.39999389648</ele>
        <time>2019-10-24T08:14:10.000Z</time>
      </trkpt>
      <trkpt lat="43.3133" lon="6.17054">
        <ele>261.39999389648</ele>
        <time>2019-10-24T08:14:15.000Z</time>
      </trkpt>
      <trkpt lat="43.31326" lon="6.17054">
        <ele>261.60000610352</ele>
        <time>2019-10-24T08:14:16.000Z</time>
      </trkpt>
      <trkpt lat="43.31294" lon="6.17052">
        <ele>262.20001220703</ele>
        <time>2019-10-24T08:14:24.000Z</time>
      </trkpt>
      <trkpt lat="43.31286" lon="6.1705">
        <ele>262.60000610352</ele>
        <time>2019-10-24T08:14:26.000Z</time>
      </trkpt>
      <trkpt lat="43.31267" lon="6.17047">
        <ele>263.60000610352</ele>
        <time>2019-10-24T08:14:31.000Z</time>
      </trkpt>
      <trkpt lat="43.31263" lon="6.17046">
        <ele>263.60000610352</ele>
        <time>2019-10-24T08:14:32.000Z</time>
      </trkpt>
      <trkpt lat="43.31241" lon="6.17042">
        <ele>264.60000610352</ele>
        <time>2019-10-24T08:14:38.000Z</time>
      </trkpt>
      <trkpt lat="43.31237" lon="6.17042">
        <ele>264.79998779297</ele>
        <time>2019-10-24T08:14:39.000Z</time>
      </trkpt>
      <trkpt lat="43.31227" lon="6.17041">
        <ele>266</ele>
        <time>2019-10-24T08:14:42.000Z</time>
      </trkpt>
      <trkpt lat="43.31223" lon="6.17041">
        <ele>266.20001220703</ele>
        <time>2019-10-24T08:14:43.000Z</time>
      </trkpt>
      <trkpt lat="43.31211" lon="6.17048">
        <ele>267</ele>
        <time>2019-10-24T08:14:47.000Z</time>
      </trkpt>
      <trkpt lat="43.31209" lon="6.1705">
        <ele>267.39999389648</ele>
        <time>2019-10-24T08:14:48.000Z</time>
      </trkpt>
      <trkpt lat="43.31202" lon="6.17053">
        <ele>268.20001220703</ele>
        <time>2019-10-24T08:14:50.000Z</time>
      </trkpt>
      <trkpt lat="43.31192" lon="6.17054">
        <ele>268.39999389648</ele>
        <time>2019-10-24T08:14:53.000Z</time>
      </trkpt>
      <trkpt lat="43.31173" lon="6.1705">
        <ele>269.39999389648</ele>
        <time>2019-10-24T08:14:59.000Z</time>
      </trkpt>
      <trkpt lat="43.31168" lon="6.17048">
        <ele>269.79998779297</ele>
        <time>2019-10-24T08:15:01.000Z</time>
      </trkpt>
      <trkpt lat="43.31159" lon="6.17045">
        <ele>270.39999389648</ele>
        <time>2019-10-24T08:15:04.000Z</time>
      </trkpt>
      <trkpt lat="43.31152" lon="6.17042">
        <ele>270.79998779297</ele>
        <time>2019-10-24T08:15:06.000Z</time>
      </trkpt>
      <trkpt lat="43.31142" lon="6.17038">
        <ele>271.60000610352</ele>
        <time>2019-10-24T08:15:09.000Z</time>
      </trkpt>
      <trkpt lat="43.31139" lon="6.17036">
        <ele>272</ele>
        <time>2019-10-24T08:15:10.000Z</time>
      </trkpt>
      <trkpt lat="43.31133" lon="6.17034">
        <ele>272.60000610352</ele>
        <time>2019-10-24T08:15:12.000Z</time>
      </trkpt>
      <trkpt lat="43.31118" lon="6.17028">
        <ele>273.39999389648</ele>
        <time>2019-10-24T08:15:16.000Z</time>
      </trkpt>
      <trkpt lat="43.31111" lon="6.17025">
        <ele>273.79998779297</ele>
        <time>2019-10-24T08:15:18.000Z</time>
      </trkpt>
      <trkpt lat="43.31082" lon="6.17009">
        <ele>274.39999389648</ele>
        <time>2019-10-24T08:15:25.000Z</time>
      </trkpt>
      <trkpt lat="43.31057" lon="6.16989">
        <ele>274</ele>
        <time>2019-10-24T08:15:32.000Z</time>
      </trkpt>
      <trkpt lat="43.31036" lon="6.16974">
        <ele>273.39999389648</ele>
        <time>2019-10-24T08:15:38.000Z</time>
      </trkpt>
      <trkpt lat="43.31021" lon="6.16966">
        <ele>273.79998779297</ele>
        <time>2019-10-24T08:15:43.000Z</time>
      </trkpt>
      <trkpt lat="43.31012" lon="6.16961">
        <ele>274.60000610352</ele>
        <time>2019-10-24T08:15:46.000Z</time>
      </trkpt>
      <trkpt lat="43.31005" lon="6.16957">
        <ele>275.20001220703</ele>
        <time>2019-10-24T08:15:48.000Z</time>
      </trkpt>
      <trkpt lat="43.30998" lon="6.16954">
        <ele>275.79998779297</ele>
        <time>2019-10-24T08:15:50.000Z</time>
      </trkpt>
      <trkpt lat="43.30987" lon="6.16947">
        <ele>276</ele>
        <time>2019-10-24T08:15:53.000Z</time>
      </trkpt>
      <trkpt lat="43.30966" lon="6.16929">
        <ele>276.39999389648</ele>
        <time>2019-10-24T08:15:59.000Z</time>
      </trkpt>
      <trkpt lat="43.30952" lon="6.16917">
        <ele>276.79998779297</ele>
        <time>2019-10-24T08:16:03.000Z</time>
      </trkpt>
      <trkpt lat="43.30941" lon="6.16909">
        <ele>277.20001220703</ele>
        <time>2019-10-24T08:16:06.000Z</time>
      </trkpt>
      <trkpt lat="43.30919" lon="6.1689">
        <ele>277.60000610352</ele>
        <time>2019-10-24T08:16:12.000Z</time>
      </trkpt>
      <trkpt lat="43.30916" lon="6.16886">
        <ele>277.79998779297</ele>
        <time>2019-10-24T08:16:13.000Z</time>
      </trkpt>
      <trkpt lat="43.3089" lon="6.16861">
        <ele>278.20001220703</ele>
        <time>2019-10-24T08:16:20.000Z</time>
      </trkpt>
      <trkpt lat="43.3086" lon="6.16827">
        <ele>278.60000610352</ele>
        <time>2019-10-24T08:16:29.000Z</time>
      </trkpt>
      <trkpt lat="43.30854" lon="6.16819">
        <ele>278.79998779297</ele>
        <time>2019-10-24T08:16:31.000Z</time>
      </trkpt>
      <trkpt lat="43.30836" lon="6.16794">
        <ele>279.79998779297</ele>
        <time>2019-10-24T08:16:37.000Z</time>
      </trkpt>
      <trkpt lat="43.30833" lon="6.16791">
        <ele>280</ele>
        <time>2019-10-24T08:16:38.000Z</time>
      </trkpt>
      <trkpt lat="43.30821" lon="6.16785">
        <ele>280</ele>
        <time>2019-10-24T08:16:41.000Z</time>
      </trkpt>
      <trkpt lat="43.30813" lon="6.16782">
        <ele>280</ele>
        <time>2019-10-24T08:16:43.000Z</time>
      </trkpt>
      <trkpt lat="43.30809" lon="6.1678">
        <ele>280</ele>
        <time>2019-10-24T08:16:44.000Z</time>
      </trkpt>
      <trkpt lat="43.30794" lon="6.16769">
        <ele>281</ele>
        <time>2019-10-24T08:16:48.000Z</time>
      </trkpt>
      <trkpt lat="43.30767" lon="6.16744">
        <ele>281.39999389648</ele>
        <time>2019-10-24T08:16:56.000Z</time>
      </trkpt>
      <trkpt lat="43.30758" lon="6.16734">
        <ele>282</ele>
        <time>2019-10-24T08:16:59.000Z</time>
      </trkpt>
      <trkpt lat="43.30749" lon="6.16725">
        <ele>282.39999389648</ele>
        <time>2019-10-24T08:17:02.000Z</time>
      </trkpt>
      <trkpt lat="43.30744" lon="6.16718">
        <ele>283</ele>
        <time>2019-10-24T08:17:04.000Z</time>
      </trkpt>
      <trkpt lat="43.30737" lon="6.16707">
        <ele>284.20001220703</ele>
        <time>2019-10-24T08:17:07.000Z</time>
      </trkpt>
      <trkpt lat="43.30735" lon="6.16704">
        <ele>284.39999389648</ele>
        <time>2019-10-24T08:17:08.000Z</time>
      </trkpt>
      <trkpt lat="43.30728" lon="6.16689">
        <ele>285.20001220703</ele>
        <time>2019-10-24T08:17:12.000Z</time>
      </trkpt>
      <trkpt lat="43.30724" lon="6.16676">
        <ele>285.79998779297</ele>
        <time>2019-10-24T08:17:15.000Z</time>
      </trkpt>
      <trkpt lat="43.30721" lon="6.16663">
        <ele>286.20001220703</ele>
        <time>2019-10-24T08:17:18.000Z</time>
      </trkpt>
      <trkpt lat="43.30721" lon="6.16646">
        <ele>287.20001220703</ele>
        <time>2019-10-24T08:17:22.000Z</time>
      </trkpt>
      <trkpt lat="43.30721" lon="6.16642">
        <ele>287.60000610352</ele>
        <time>2019-10-24T08:17:23.000Z</time>
      </trkpt>
      <trkpt lat="43.30717" lon="6.16623">
        <ele>288.20001220703</ele>
        <time>2019-10-24T08:17:27.000Z</time>
      </trkpt>
      <trkpt lat="43.30704" lon="6.16616">
        <ele>288.60000610352</ele>
        <time>2019-10-24T08:17:31.000Z</time>
      </trkpt>
      <trkpt lat="43.30676" lon="6.16615">
        <ele>289</ele>
        <time>2019-10-24T08:17:38.000Z</time>
      </trkpt>
      <trkpt lat="43.30655" lon="6.16614">
        <ele>289</ele>
        <time>2019-10-24T08:17:44.000Z</time>
      </trkpt>
      <trkpt lat="43.30646" lon="6.16613">
        <ele>289</ele>
        <time>2019-10-24T08:17:49.000Z</time>
      </trkpt>
      <trkpt lat="43.30641" lon="6.16599">
        <ele>289.39999389648</ele>
        <time>2019-10-24T08:17:55.000Z</time>
      </trkpt>
      <trkpt lat="43.3064" lon="6.16596">
        <ele>289.60000610352</ele>
        <time>2019-10-24T08:17:56.000Z</time>
      </trkpt>
      <trkpt lat="43.30635" lon="6.16583">
        <ele>290.79998779297</ele>
        <time>2019-10-24T08:18:01.000Z</time>
      </trkpt>
      <trkpt lat="43.30633" lon="6.16567">
        <ele>292</ele>
        <time>2019-10-24T08:18:06.000Z</time>
      </trkpt>
      <trkpt lat="43.30633" lon="6.16564">
        <ele>292.20001220703</ele>
        <time>2019-10-24T08:18:07.000Z</time>
      </trkpt>
      <trkpt lat="43.30631" lon="6.16556">
        <ele>293.20001220703</ele>
        <time>2019-10-24T08:18:10.000Z</time>
      </trkpt>
      <trkpt lat="43.30627" lon="6.16549">
        <ele>293.79998779297</ele>
        <time>2019-10-24T08:18:13.000Z</time>
      </trkpt>
      <trkpt lat="43.30622" lon="6.16541">
        <ele>294.20001220703</ele>
        <time>2019-10-24T08:18:16.000Z</time>
      </trkpt>
      <trkpt lat="43.30618" lon="6.16529">
        <ele>295.20001220703</ele>
        <time>2019-10-24T08:18:21.000Z</time>
      </trkpt>
      <trkpt lat="43.30619" lon="6.16517">
        <ele>296.20001220703</ele>
        <time>2019-10-24T08:18:25.000Z</time>
      </trkpt>
      <trkpt lat="43.30619" lon="6.16511">
        <ele>296.60000610352</ele>
        <time>2019-10-24T08:18:27.000Z</time>
      </trkpt>
      <trkpt lat="43.30619" lon="6.165">
        <ele>297.39999389648</ele>
        <time>2019-10-24T08:18:30.000Z</time>
      </trkpt>
      <trkpt lat="43.3062" lon="6.16483">
        <ele>298.20001220703</ele>
        <time>2019-10-24T08:18:35.000Z</time>
      </trkpt>
      <trkpt lat="43.3062" lon="6.1648">
        <ele>298.39999389648</ele>
        <time>2019-10-24T08:18:36.000Z</time>
      </trkpt>
      <trkpt lat="43.3062" lon="6.16459">
        <ele>299.60000610352</ele>
        <time>2019-10-24T08:18:42.000Z</time>
      </trkpt>
      <trkpt lat="43.30617" lon="6.16445">
        <ele>300.79998779297</ele>
        <time>2019-10-24T08:18:46.000Z</time>
      </trkpt>
      <trkpt lat="43.30614" lon="6.16429">
        <ele>301.79998779297</ele>
        <time>2019-10-24T08:18:51.000Z</time>
      </trkpt>
      <trkpt lat="43.30611" lon="6.1642">
        <ele>302.79998779297</ele>
        <time>2019-10-24T08:18:54.000Z</time>
      </trkpt>
      <trkpt lat="43.30608" lon="6.16407">
        <ele>303.60000610352</ele>
        <time>2019-10-24T08:18:58.000Z</time>
      </trkpt>
      <trkpt lat="43.30607" lon="6.16404">
        <ele>304</ele>
        <time>2019-10-24T08:18:59.000Z</time>
      </trkpt>
      <trkpt lat="43.30602" lon="6.1638">
        <ele>305</ele>
        <time>2019-10-24T08:19:06.000Z</time>
      </trkpt>
      <trkpt lat="43.30599" lon="6.16365">
        <ele>306</ele>
        <time>2019-10-24T08:19:10.000Z</time>
      </trkpt>
      <trkpt lat="43.30597" lon="6.16351">
        <ele>307.20001220703</ele>
        <time>2019-10-24T08:19:14.000Z</time>
      </trkpt>
      <trkpt lat="43.30597" lon="6.16328">
        <ele>307.60000610352</ele>
        <time>2019-10-24T08:19:20.000Z</time>
      </trkpt>
      <trkpt lat="43.30599" lon="6.16316">
        <ele>308</ele>
        <time>2019-10-24T08:19:23.000Z</time>
      </trkpt>
      <trkpt lat="43.30602" lon="6.16306">
        <ele>309</ele>
        <time>2019-10-24T08:19:26.000Z</time>
      </trkpt>
      <trkpt lat="43.30604" lon="6.16299">
        <ele>309.60000610352</ele>
        <time>2019-10-24T08:19:28.000Z</time>
      </trkpt>
      <trkpt lat="43.30606" lon="6.16292">
        <ele>310.20001220703</ele>
        <time>2019-10-24T08:19:30.000Z</time>
      </trkpt>
      <trkpt lat="43.30609" lon="6.1628">
        <ele>311.39999389648</ele>
        <time>2019-10-24T08:19:34.000Z</time>
      </trkpt>
      <trkpt lat="43.30609" lon="6.16277">
        <ele>311.60000610352</ele>
        <time>2019-10-24T08:19:35.000Z</time>
      </trkpt>
      <trkpt lat="43.30605" lon="6.16253">
        <ele>312.20001220703</ele>
        <time>2019-10-24T08:19:42.000Z</time>
      </trkpt>
      <trkpt lat="43.30604" lon="6.16249">
        <ele>312.60000610352</ele>
        <time>2019-10-24T08:19:43.000Z</time>
      </trkpt>
      <trkpt lat="43.30598" lon="6.16232">
        <ele>313.60000610352</ele>
        <time>2019-10-24T08:19:48.000Z</time>
      </trkpt>
      <trkpt lat="43.30591" lon="6.16208">
        <ele>314</ele>
        <time>2019-10-24T08:19:55.000Z</time>
      </trkpt>
      <trkpt lat="43.30584" lon="6.16185">
        <ele>314.20001220703</ele>
        <time>2019-10-24T08:20:01.000Z</time>
      </trkpt>
      <trkpt lat="43.30574" lon="6.16158">
        <ele>313.39999389648</ele>
        <time>2019-10-24T08:20:06.000Z</time>
      </trkpt>
      <trkpt lat="43.30559" lon="6.16132">
        <ele>312</ele>
        <time>2019-10-24T08:20:10.000Z</time>
      </trkpt>
      <trkpt lat="43.30555" lon="6.16127">
        <ele>311.79998779297</ele>
        <time>2019-10-24T08:20:11.000Z</time>
      </trkpt>
      <trkpt lat="43.30533" lon="6.16098">
        <ele>311.60000610352</ele>
        <time>2019-10-24T08:20:17.000Z</time>
      </trkpt>
      <trkpt lat="43.30505" lon="6.16049">
        <ele>311.60000610352</ele>
        <time>2019-10-24T08:20:27.000Z</time>
      </trkpt>
      <trkpt lat="43.30494" lon="6.16027">
        <ele>310.79998779297</ele>
        <time>2019-10-24T08:20:31.000Z</time>
      </trkpt>
      <trkpt lat="43.30489" lon="6.16014">
        <ele>310.39999389648</ele>
        <time>2019-10-24T08:20:33.000Z</time>
      </trkpt>
      <trkpt lat="43.30477" lon="6.15984">
        <ele>309.60000610352</ele>
        <time>2019-10-24T08:20:38.000Z</time>
      </trkpt>
      <trkpt lat="43.30476" lon="6.15978">
        <ele>309.39999389648</ele>
        <time>2019-10-24T08:20:39.000Z</time>
      </trkpt>
      <trkpt lat="43.30473" lon="6.15965">
        <ele>308.60000610352</ele>
        <time>2019-10-24T08:20:41.000Z</time>
      </trkpt>
      <trkpt lat="43.3047" lon="6.15952">
        <ele>307.39999389648</ele>
        <time>2019-10-24T08:20:43.000Z</time>
      </trkpt>
      <trkpt lat="43.30467" lon="6.1593">
        <ele>306</ele>
        <time>2019-10-24T08:20:46.000Z</time>
      </trkpt>
      <trkpt lat="43.30467" lon="6.15914">
        <ele>305</ele>
        <time>2019-10-24T08:20:48.000Z</time>
      </trkpt>
      <trkpt lat="43.30467" lon="6.15906">
        <ele>304.39999389648</ele>
        <time>2019-10-24T08:20:49.000Z</time>
      </trkpt>
      <trkpt lat="43.30467" lon="6.15898">
        <ele>303.60000610352</ele>
        <time>2019-10-24T08:20:50.000Z</time>
      </trkpt>
      <trkpt lat="43.30467" lon="6.15889">
        <ele>302.79998779297</ele>
        <time>2019-10-24T08:20:51.000Z</time>
      </trkpt>
      <trkpt lat="43.30467" lon="6.15872">
        <ele>302</ele>
        <time>2019-10-24T08:20:53.000Z</time>
      </trkpt>
      <trkpt lat="43.30466" lon="6.15863">
        <ele>301</ele>
        <time>2019-10-24T08:20:54.000Z</time>
      </trkpt>
      <trkpt lat="43.30464" lon="6.15853">
        <ele>300.39999389648</ele>
        <time>2019-10-24T08:20:55.000Z</time>
      </trkpt>
      <trkpt lat="43.3046" lon="6.15834">
        <ele>299.79998779297</ele>
        <time>2019-10-24T08:20:57.000Z</time>
      </trkpt>
      <trkpt lat="43.3045" lon="6.158">
        <ele>299.20001220703</ele>
        <time>2019-10-24T08:21:01.000Z</time>
      </trkpt>
      <trkpt lat="43.30439" lon="6.15755">
        <ele>298.39999389648</ele>
        <time>2019-10-24T08:21:06.000Z</time>
      </trkpt>
      <trkpt lat="43.30438" lon="6.15747">
        <ele>296.79998779297</ele>
        <time>2019-10-24T08:21:07.000Z</time>
      </trkpt>
      <trkpt lat="43.30436" lon="6.15733">
        <ele>295.20001220703</ele>
        <time>2019-10-24T08:21:09.000Z</time>
      </trkpt>
      <trkpt lat="43.3043" lon="6.15717">
        <ele>294.20001220703</ele>
        <time>2019-10-24T08:21:11.000Z</time>
      </trkpt>
      <trkpt lat="43.30427" lon="6.15709">
        <ele>293.20001220703</ele>
        <time>2019-10-24T08:21:12.000Z</time>
      </trkpt>
      <trkpt lat="43.30422" lon="6.15692">
        <ele>291.79998779297</ele>
        <time>2019-10-24T08:21:14.000Z</time>
      </trkpt>
      <trkpt lat="43.3042" lon="6.15685">
        <ele>291.60000610352</ele>
        <time>2019-10-24T08:21:15.000Z</time>
      </trkpt>
      <trkpt lat="43.30416" lon="6.15669">
        <ele>293.79998779297</ele>
        <time>2019-10-24T08:21:18.000Z</time>
      </trkpt>
      <trkpt lat="43.30415" lon="6.15665">
        <ele>294</ele>
        <time>2019-10-24T08:21:19.000Z</time>
      </trkpt>
      <trkpt lat="43.30408" lon="6.15647">
        <ele>293</ele>
        <time>2019-10-24T08:21:25.000Z</time>
      </trkpt>
      <trkpt lat="43.30397" lon="6.15628">
        <ele>294</ele>
        <time>2019-10-24T08:21:31.000Z</time>
      </trkpt>
      <trkpt lat="43.30392" lon="6.15619">
        <ele>294.79998779297</ele>
        <time>2019-10-24T08:21:34.000Z</time>
      </trkpt>
      <trkpt lat="43.30385" lon="6.15609">
        <ele>295.79998779297</ele>
        <time>2019-10-24T08:21:37.000Z</time>
      </trkpt>
      <trkpt lat="43.30383" lon="6.15606">
        <ele>296</ele>
        <time>2019-10-24T08:21:38.000Z</time>
      </trkpt>
      <trkpt lat="43.30373" lon="6.15585">
        <ele>296.79998779297</ele>
        <time>2019-10-24T08:21:43.000Z</time>
      </trkpt>
      <trkpt lat="43.30371" lon="6.15581">
        <ele>297</ele>
        <time>2019-10-24T08:21:44.000Z</time>
      </trkpt>
      <trkpt lat="43.30369" lon="6.15569">
        <ele>298</ele>
        <time>2019-10-24T08:21:47.000Z</time>
      </trkpt>
      <trkpt lat="43.30368" lon="6.15562">
        <ele>298.39999389648</ele>
        <time>2019-10-24T08:21:49.000Z</time>
      </trkpt>
      <trkpt lat="43.30366" lon="6.1555">
        <ele>298.79998779297</ele>
        <time>2019-10-24T08:21:53.000Z</time>
      </trkpt>
      <trkpt lat="43.30364" lon="6.15543">
        <ele>299.20001220703</ele>
        <time>2019-10-24T08:21:55.000Z</time>
      </trkpt>
      <trkpt lat="43.30361" lon="6.15531">
        <ele>300</ele>
        <time>2019-10-24T08:21:58.000Z</time>
      </trkpt>
      <trkpt lat="43.30357" lon="6.15516">
        <ele>300.79998779297</ele>
        <time>2019-10-24T08:22:02.000Z</time>
      </trkpt>
      <trkpt lat="43.30356" lon="6.15512">
        <ele>301.20001220703</ele>
        <time>2019-10-24T08:22:03.000Z</time>
      </trkpt>
      <trkpt lat="43.30349" lon="6.15488">
        <ele>301.20001220703</ele>
        <time>2019-10-24T08:22:09.000Z</time>
      </trkpt>
      <trkpt lat="43.30344" lon="6.15466">
        <ele>302.39999389648</ele>
        <time>2019-10-24T08:22:14.000Z</time>
      </trkpt>
      <trkpt lat="43.30344" lon="6.15461">
        <ele>302.60000610352</ele>
        <time>2019-10-24T08:22:15.000Z</time>
      </trkpt>
      <trkpt lat="43.30339" lon="6.15428">
        <ele>303.39999389648</ele>
        <time>2019-10-24T08:22:22.000Z</time>
      </trkpt>
      <trkpt lat="43.30327" lon="6.15408">
        <ele>304.60000610352</ele>
        <time>2019-10-24T08:22:28.000Z</time>
      </trkpt>
      <trkpt lat="43.30325" lon="6.15401">
        <ele>305.39999389648</ele>
        <time>2019-10-24T08:22:30.000Z</time>
      </trkpt>
      <trkpt lat="43.30324" lon="6.15398">
        <ele>305.79998779297</ele>
        <time>2019-10-24T08:22:31.000Z</time>
      </trkpt>
      <trkpt lat="43.30321" lon="6.15386">
        <ele>306.79998779297</ele>
        <time>2019-10-24T08:22:35.000Z</time>
      </trkpt>
      <trkpt lat="43.30321" lon="6.15378">
        <ele>307.60000610352</ele>
        <time>2019-10-24T08:22:37.000Z</time>
      </trkpt>
      <trkpt lat="43.30321" lon="6.15375">
        <ele>308</ele>
        <time>2019-10-24T08:22:38.000Z</time>
      </trkpt>
      <trkpt lat="43.30323" lon="6.15358">
        <ele>309</ele>
        <time>2019-10-24T08:22:43.000Z</time>
      </trkpt>
      <trkpt lat="43.30322" lon="6.1534">
        <ele>310</ele>
        <time>2019-10-24T08:22:48.000Z</time>
      </trkpt>
      <trkpt lat="43.30323" lon="6.15333">
        <ele>310.20001220703</ele>
        <time>2019-10-24T08:22:50.000Z</time>
      </trkpt>
      <trkpt lat="43.30324" lon="6.15311">
        <ele>310</ele>
        <time>2019-10-24T08:22:55.000Z</time>
      </trkpt>
      <trkpt lat="43.30326" lon="6.15281">
        <ele>309</ele>
        <time>2019-10-24T08:22:59.000Z</time>
      </trkpt>
      <trkpt lat="43.30327" lon="6.15262">
        <ele>307.60000610352</ele>
        <time>2019-10-24T08:23:01.000Z</time>
      </trkpt>
      <trkpt lat="43.30328" lon="6.15253">
        <ele>306.60000610352</ele>
        <time>2019-10-24T08:23:02.000Z</time>
      </trkpt>
      <trkpt lat="43.30327" lon="6.15244">
        <ele>306.20001220703</ele>
        <time>2019-10-24T08:23:03.000Z</time>
      </trkpt>
      <trkpt lat="43.30326" lon="6.15235">
        <ele>306.20001220703</ele>
        <time>2019-10-24T08:23:04.000Z</time>
      </trkpt>
      <trkpt lat="43.30324" lon="6.15218">
        <ele>306</ele>
        <time>2019-10-24T08:23:06.000Z</time>
      </trkpt>
      <trkpt lat="43.30327" lon="6.15201">
        <ele>304.79998779297</ele>
        <time>2019-10-24T08:23:08.000Z</time>
      </trkpt>
      <trkpt lat="43.30334" lon="6.15185">
        <ele>303.60000610352</ele>
        <time>2019-10-24T08:23:10.000Z</time>
      </trkpt>
      <trkpt lat="43.30338" lon="6.15177">
        <ele>303</ele>
        <time>2019-10-24T08:23:11.000Z</time>
      </trkpt>
      <trkpt lat="43.30341" lon="6.15168">
        <ele>302.20001220703</ele>
        <time>2019-10-24T08:23:12.000Z</time>
      </trkpt>
      <trkpt lat="43.30343" lon="6.15158">
        <ele>301.20001220703</ele>
        <time>2019-10-24T08:23:13.000Z</time>
      </trkpt>
      <trkpt lat="43.30344" lon="6.15148">
        <ele>300.60000610352</ele>
        <time>2019-10-24T08:23:14.000Z</time>
      </trkpt>
      <trkpt lat="43.30343" lon="6.15138">
        <ele>299.79998779297</ele>
        <time>2019-10-24T08:23:15.000Z</time>
      </trkpt>
      <trkpt lat="43.3034" lon="6.15131">
        <ele>299.20001220703</ele>
        <time>2019-10-24T08:23:16.000Z</time>
      </trkpt>
      <trkpt lat="43.30337" lon="6.15123">
        <ele>297.79998779297</ele>
        <time>2019-10-24T08:23:18.000Z</time>
      </trkpt>
      <trkpt lat="43.30335" lon="6.15118">
        <ele>296.60000610352</ele>
        <time>2019-10-24T08:23:20.000Z</time>
      </trkpt>
      <trkpt lat="43.30328" lon="6.15108">
        <ele>296</ele>
        <time>2019-10-24T08:23:24.000Z</time>
      </trkpt>
      <trkpt lat="43.30314" lon="6.15087">
        <ele>296.20001220703</ele>
        <time>2019-10-24T08:23:31.000Z</time>
      </trkpt>
      <trkpt lat="43.30309" lon="6.15071">
        <ele>297.60000610352</ele>
        <time>2019-10-24T08:23:37.000Z</time>
      </trkpt>
      <trkpt lat="43.30308" lon="6.15069">
        <ele>297.79998779297</ele>
        <time>2019-10-24T08:23:38.000Z</time>
      </trkpt>
      <trkpt lat="43.30307" lon="6.15061">
        <ele>298.79998779297</ele>
        <time>2019-10-24T08:23:41.000Z</time>
      </trkpt>
      <trkpt lat="43.30308" lon="6.15055">
        <ele>299.39999389648</ele>
        <time>2019-10-24T08:23:43.000Z</time>
      </trkpt>
      <trkpt lat="43.3031" lon="6.15049">
        <ele>299.79998779297</ele>
        <time>2019-10-24T08:23:45.000Z</time>
      </trkpt>
      <trkpt lat="43.30315" lon="6.1504">
        <ele>300.79998779297</ele>
        <time>2019-10-24T08:23:49.000Z</time>
      </trkpt>
      <trkpt lat="43.30325" lon="6.1503">
        <ele>302.20001220703</ele>
        <time>2019-10-24T08:23:54.000Z</time>
      </trkpt>
      <trkpt lat="43.30329" lon="6.15027">
        <ele>303</ele>
        <time>2019-10-24T08:23:56.000Z</time>
      </trkpt>
      <trkpt lat="43.30331" lon="6.15026">
        <ele>303.60000610352</ele>
        <time>2019-10-24T08:23:57.000Z</time>
      </trkpt>
      <trkpt lat="43.30335" lon="6.15018">
        <ele>304.79998779297</ele>
        <time>2019-10-24T08:24:00.000Z</time>
      </trkpt>
      <trkpt lat="43.30336" lon="6.15015">
        <ele>305</ele>
        <time>2019-10-24T08:24:01.000Z</time>
      </trkpt>
      <trkpt lat="43.30337" lon="6.15009">
        <ele>305.79998779297</ele>
        <time>2019-10-24T08:24:03.000Z</time>
      </trkpt>
      <trkpt lat="43.30338" lon="6.15001">
        <ele>307</ele>
        <time>2019-10-24T08:24:06.000Z</time>
      </trkpt>
      <trkpt lat="43.30338" lon="6.14997">
        <ele>307.20001220703</ele>
        <time>2019-10-24T08:24:07.000Z</time>
      </trkpt>
      <trkpt lat="43.30337" lon="6.14986">
        <ele>308</ele>
        <time>2019-10-24T08:24:10.000Z</time>
      </trkpt>
      <trkpt lat="43.30334" lon="6.14968">
        <ele>308.60000610352</ele>
        <time>2019-10-24T08:24:15.000Z</time>
      </trkpt>
      <trkpt lat="43.30332" lon="6.14956">
        <ele>309.20001220703</ele>
        <time>2019-10-24T08:24:18.000Z</time>
      </trkpt>
      <trkpt lat="43.30328" lon="6.14936">
        <ele>310.20001220703</ele>
        <time>2019-10-24T08:24:23.000Z</time>
      </trkpt>
      <trkpt lat="43.30327" lon="6.14932">
        <ele>310.39999389648</ele>
        <time>2019-10-24T08:24:24.000Z</time>
      </trkpt>
      <trkpt lat="43.30324" lon="6.14918">
        <ele>311</ele>
        <time>2019-10-24T08:24:28.000Z</time>
      </trkpt>
      <trkpt lat="43.30322" lon="6.14907">
        <ele>311.39999389648</ele>
        <time>2019-10-24T08:24:31.000Z</time>
      </trkpt>
      <trkpt lat="43.3032" lon="6.14891">
        <ele>312</ele>
        <time>2019-10-24T08:24:35.000Z</time>
      </trkpt>
      <trkpt lat="43.30318" lon="6.14876">
        <ele>313.20001220703</ele>
        <time>2019-10-24T08:24:39.000Z</time>
      </trkpt>
      <trkpt lat="43.30318" lon="6.14872">
        <ele>313.20001220703</ele>
        <time>2019-10-24T08:24:40.000Z</time>
      </trkpt>
      <trkpt lat="43.30317" lon="6.14849">
        <ele>314.20001220703</ele>
        <time>2019-10-24T08:24:46.000Z</time>
      </trkpt>
      <trkpt lat="43.30316" lon="6.14838">
        <ele>314.60000610352</ele>
        <time>2019-10-24T08:24:49.000Z</time>
      </trkpt>
      <trkpt lat="43.30316" lon="6.14821">
        <ele>315</ele>
        <time>2019-10-24T08:24:53.000Z</time>
      </trkpt>
      <trkpt lat="43.30318" lon="6.148">
        <ele>315.79998779297</ele>
        <time>2019-10-24T08:24:58.000Z</time>
      </trkpt>
      <trkpt lat="43.3032" lon="6.14786">
        <ele>316</ele>
        <time>2019-10-24T08:25:01.000Z</time>
      </trkpt>
      <trkpt lat="43.30322" lon="6.14767">
        <ele>316.39999389648</ele>
        <time>2019-10-24T08:25:05.000Z</time>
      </trkpt>
      <trkpt lat="43.30325" lon="6.14747">
        <ele>316.60000610352</ele>
        <time>2019-10-24T08:25:10.000Z</time>
      </trkpt>
      <trkpt lat="43.30328" lon="6.14728">
        <ele>317.20001220703</ele>
        <time>2019-10-24T08:25:15.000Z</time>
      </trkpt>
      <trkpt lat="43.30329" lon="6.14724">
        <ele>317.39999389648</ele>
        <time>2019-10-24T08:25:16.000Z</time>
      </trkpt>
      <trkpt lat="43.30334" lon="6.14702">
        <ele>318.20001220703</ele>
        <time>2019-10-24T08:25:21.000Z</time>
      </trkpt>
      <trkpt lat="43.30335" lon="6.14698">
        <ele>318.39999389648</ele>
        <time>2019-10-24T08:25:22.000Z</time>
      </trkpt>
      <trkpt lat="43.30337" lon="6.14685">
        <ele>319</ele>
        <time>2019-10-24T08:25:25.000Z</time>
      </trkpt>
      <trkpt lat="43.30341" lon="6.14669">
        <ele>319.39999389648</ele>
        <time>2019-10-24T08:25:29.000Z</time>
      </trkpt>
      <trkpt lat="43.30344" lon="6.14653">
        <ele>319.39999389648</ele>
        <time>2019-10-24T08:25:34.000Z</time>
      </trkpt>
      <trkpt lat="43.30347" lon="6.14634">
        <ele>319.60000610352</ele>
        <time>2019-10-24T08:25:38.000Z</time>
      </trkpt>
      <trkpt lat="43.30348" lon="6.14627">
        <ele>319.60000610352</ele>
        <time>2019-10-24T08:25:39.000Z</time>
      </trkpt>
      <trkpt lat="43.30351" lon="6.14605">
        <ele>318.79998779297</ele>
        <time>2019-10-24T08:25:42.000Z</time>
      </trkpt>
      <trkpt lat="43.30353" lon="6.14587">
        <ele>317.79998779297</ele>
        <time>2019-10-24T08:25:44.000Z</time>
      </trkpt>
      <trkpt lat="43.30358" lon="6.1457">
        <ele>316.79998779297</ele>
        <time>2019-10-24T08:25:46.000Z</time>
      </trkpt>
      <trkpt lat="43.30364" lon="6.14557">
        <ele>316</ele>
        <time>2019-10-24T08:25:48.000Z</time>
      </trkpt>
      <trkpt lat="43.30367" lon="6.14552">
        <ele>315.79998779297</ele>
        <time>2019-10-24T08:25:49.000Z</time>
      </trkpt>
      <trkpt lat="43.30371" lon="6.14545">
        <ele>315.60000610352</ele>
        <time>2019-10-24T08:25:50.000Z</time>
      </trkpt>
      <trkpt lat="43.30374" lon="6.14539">
        <ele>315.20001220703</ele>
        <time>2019-10-24T08:25:51.000Z</time>
      </trkpt>
      <trkpt lat="43.30381" lon="6.14528">
        <ele>314.60000610352</ele>
        <time>2019-10-24T08:25:53.000Z</time>
      </trkpt>
      <trkpt lat="43.30384" lon="6.14524">
        <ele>314.60000610352</ele>
        <time>2019-10-24T08:25:54.000Z</time>
      </trkpt>
      <trkpt lat="43.30388" lon="6.14519">
        <ele>314.60000610352</ele>
        <time>2019-10-24T08:25:55.000Z</time>
      </trkpt>
      <trkpt lat="43.30401" lon="6.14508">
        <ele>314</ele>
        <time>2019-10-24T08:25:58.000Z</time>
      </trkpt>
      <trkpt lat="43.30419" lon="6.14503">
        <ele>313.60000610352</ele>
        <time>2019-10-24T08:26:02.000Z</time>
      </trkpt>
      <trkpt lat="43.3044" lon="6.14502">
        <ele>313.79998779297</ele>
        <time>2019-10-24T08:26:08.000Z</time>
      </trkpt>
      <trkpt lat="43.30453" lon="6.14502">
        <ele>313.60000610352</ele>
        <time>2019-10-24T08:26:11.000Z</time>
      </trkpt>
      <trkpt lat="43.30468" lon="6.14502">
        <ele>313.39999389648</ele>
        <time>2019-10-24T08:26:15.000Z</time>
      </trkpt>
      <trkpt lat="43.30488" lon="6.14502">
        <ele>312.60000610352</ele>
        <time>2019-10-24T08:26:22.000Z</time>
      </trkpt>
      <trkpt lat="43.30491" lon="6.14502">
        <ele>312.39999389648</ele>
        <time>2019-10-24T08:26:23.000Z</time>
      </trkpt>
      <trkpt lat="43.30499" lon="6.14497">
        <ele>311.60000610352</ele>
        <time>2019-10-24T08:26:27.000Z</time>
      </trkpt>
      <trkpt lat="43.30501" lon="6.14495">
        <ele>311.39999389648</ele>
        <time>2019-10-24T08:26:28.000Z</time>
      </trkpt>
      <trkpt lat="43.30502" lon="6.14493">
        <ele>311</ele>
        <time>2019-10-24T08:26:29.000Z</time>
      </trkpt>
      <trkpt lat="43.30501" lon="6.14485">
        <ele>310</ele>
        <time>2019-10-24T08:26:31.000Z</time>
      </trkpt>
      <trkpt lat="43.30497" lon="6.14477">
        <ele>309.79998779297</ele>
        <time>2019-10-24T08:26:34.000Z</time>
      </trkpt>
      <trkpt lat="43.30493" lon="6.14471">
        <ele>310</ele>
        <time>2019-10-24T08:26:37.000Z</time>
      </trkpt>
      <trkpt lat="43.30491" lon="6.14463">
        <ele>310</ele>
        <time>2019-10-24T08:26:42.000Z</time>
      </trkpt>
      <trkpt lat="43.30486" lon="6.14449">
        <ele>310.60000610352</ele>
        <time>2019-10-24T08:27:39.000Z</time>
      </trkpt>
      <trkpt lat="43.30479" lon="6.14437">
        <ele>311.20001220703</ele>
        <time>2019-10-24T08:27:44.000Z</time>
      </trkpt>
      <trkpt lat="43.30475" lon="6.14429">
        <ele>311.60000610352</ele>
        <time>2019-10-24T08:27:47.000Z</time>
      </trkpt>
      <trkpt lat="43.30469" lon="6.14413">
        <ele>312.20001220703</ele>
        <time>2019-10-24T08:27:52.000Z</time>
      </trkpt>
      <trkpt lat="43.30467" lon="6.1441">
        <ele>312.39999389648</ele>
        <time>2019-10-24T08:27:53.000Z</time>
      </trkpt>
      <trkpt lat="43.30465" lon="6.1439">
        <ele>313.20001220703</ele>
        <time>2019-10-24T08:27:58.000Z</time>
      </trkpt>
      <trkpt lat="43.30464" lon="6.14386">
        <ele>313.60000610352</ele>
        <time>2019-10-24T08:27:59.000Z</time>
      </trkpt>
      <trkpt lat="43.30462" lon="6.14375">
        <ele>314.39999389648</ele>
        <time>2019-10-24T08:28:02.000Z</time>
      </trkpt>
      <trkpt lat="43.30458" lon="6.14363">
        <ele>315.20001220703</ele>
        <time>2019-10-24T08:28:06.000Z</time>
      </trkpt>
      <trkpt lat="43.30457" lon="6.1436">
        <ele>315.60000610352</ele>
        <time>2019-10-24T08:28:07.000Z</time>
      </trkpt>
      <trkpt lat="43.30452" lon="6.14346">
        <ele>316.60000610352</ele>
        <time>2019-10-24T08:28:12.000Z</time>
      </trkpt>
      <trkpt lat="43.30452" lon="6.14344">
        <ele>317.20001220703</ele>
        <time>2019-10-24T08:28:13.000Z</time>
      </trkpt>
      <trkpt lat="43.3045" lon="6.14338">
        <ele>317.79998779297</ele>
        <time>2019-10-24T08:28:15.000Z</time>
      </trkpt>
      <trkpt lat="43.30446" lon="6.14321">
        <ele>319</ele>
        <time>2019-10-24T08:28:21.000Z</time>
      </trkpt>
      <trkpt lat="43.30446" lon="6.14301">
        <ele>320</ele>
        <time>2019-10-24T08:28:27.000Z</time>
      </trkpt>
      <trkpt lat="43.30446" lon="6.14298">
        <ele>320</ele>
        <time>2019-10-24T08:28:28.000Z</time>
      </trkpt>
      <trkpt lat="43.30447" lon="6.14269">
        <ele>320.39999389648</ele>
        <time>2019-10-24T08:28:35.000Z</time>
      </trkpt>
      <trkpt lat="43.30453" lon="6.14239">
        <ele>320.20001220703</ele>
        <time>2019-10-24T08:28:42.000Z</time>
      </trkpt>
      <trkpt lat="43.30462" lon="6.14209">
        <ele>320.60000610352</ele>
        <time>2019-10-24T08:28:49.000Z</time>
      </trkpt>
      <trkpt lat="43.30466" lon="6.14199">
        <ele>321.20001220703</ele>
        <time>2019-10-24T08:28:52.000Z</time>
      </trkpt>
      <trkpt lat="43.30469" lon="6.14192">
        <ele>322.20001220703</ele>
        <time>2019-10-24T08:28:54.000Z</time>
      </trkpt>
      <trkpt lat="43.30472" lon="6.14186">
        <ele>323</ele>
        <time>2019-10-24T08:28:56.000Z</time>
      </trkpt>
      <trkpt lat="43.30476" lon="6.14181">
        <ele>323.39999389648</ele>
        <time>2019-10-24T08:28:58.000Z</time>
      </trkpt>
      <trkpt lat="43.30482" lon="6.1417">
        <ele>324.39999389648</ele>
        <time>2019-10-24T08:29:02.000Z</time>
      </trkpt>
      <trkpt lat="43.30483" lon="6.14166">
        <ele>325</ele>
        <time>2019-10-24T08:29:03.000Z</time>
      </trkpt>
      <trkpt lat="43.30487" lon="6.14156">
        <ele>326</ele>
        <time>2019-10-24T08:29:06.000Z</time>
      </trkpt>
      <trkpt lat="43.3049" lon="6.14146">
        <ele>327</ele>
        <time>2019-10-24T08:29:09.000Z</time>
      </trkpt>
      <trkpt lat="43.30491" lon="6.14143">
        <ele>327.39999389648</ele>
        <time>2019-10-24T08:29:10.000Z</time>
      </trkpt>
      <trkpt lat="43.30494" lon="6.14134">
        <ele>328.60000610352</ele>
        <time>2019-10-24T08:29:13.000Z</time>
      </trkpt>
      <trkpt lat="43.30495" lon="6.14132">
        <ele>329</ele>
        <time>2019-10-24T08:29:14.000Z</time>
      </trkpt>
      <trkpt lat="43.30495" lon="6.14127">
        <ele>329.79998779297</ele>
        <time>2019-10-24T08:29:16.000Z</time>
      </trkpt>
      <trkpt lat="43.30495" lon="6.14117">
        <ele>330.79998779297</ele>
        <time>2019-10-24T08:29:19.000Z</time>
      </trkpt>
      <trkpt lat="43.30496" lon="6.14114">
        <ele>331.20001220703</ele>
        <time>2019-10-24T08:29:20.000Z</time>
      </trkpt>
      <trkpt lat="43.30497" lon="6.14105">
        <ele>331.79998779297</ele>
        <time>2019-10-24T08:29:23.000Z</time>
      </trkpt>
      <trkpt lat="43.30497" lon="6.14098">
        <ele>332.20001220703</ele>
        <time>2019-10-24T08:29:25.000Z</time>
      </trkpt>
      <trkpt lat="43.30501" lon="6.14083">
        <ele>333</ele>
        <time>2019-10-24T08:29:29.000Z</time>
      </trkpt>
      <trkpt lat="43.30502" lon="6.14074">
        <ele>333</ele>
        <time>2019-10-24T08:29:31.000Z</time>
      </trkpt>
      <trkpt lat="43.30506" lon="6.14048">
        <ele>333.20001220703</ele>
        <time>2019-10-24T08:29:37.000Z</time>
      </trkpt>
      <trkpt lat="43.30513" lon="6.14022">
        <ele>333.20001220703</ele>
        <time>2019-10-24T08:29:43.000Z</time>
      </trkpt>
      <trkpt lat="43.30518" lon="6.14002">
        <ele>333.60000610352</ele>
        <time>2019-10-24T08:29:48.000Z</time>
      </trkpt>
      <trkpt lat="43.30522" lon="6.13983">
        <ele>334.20001220703</ele>
        <time>2019-10-24T08:29:53.000Z</time>
      </trkpt>
      <trkpt lat="43.3053" lon="6.13963">
        <ele>335.20001220703</ele>
        <time>2019-10-24T08:29:59.000Z</time>
      </trkpt>
      <trkpt lat="43.30531" lon="6.1396">
        <ele>335.60000610352</ele>
        <time>2019-10-24T08:30:00.000Z</time>
      </trkpt>
      <trkpt lat="43.30539" lon="6.13942">
        <ele>335.79998779297</ele>
        <time>2019-10-24T08:30:05.000Z</time>
      </trkpt>
      <trkpt lat="43.30548" lon="6.13926">
        <ele>336.60000610352</ele>
        <time>2019-10-24T08:30:10.000Z</time>
      </trkpt>
      <trkpt lat="43.3055" lon="6.13923">
        <ele>336.79998779297</ele>
        <time>2019-10-24T08:30:11.000Z</time>
      </trkpt>
      <trkpt lat="43.30557" lon="6.1391">
        <ele>337.79998779297</ele>
        <time>2019-10-24T08:30:15.000Z</time>
      </trkpt>
      <trkpt lat="43.3056" lon="6.13904">
        <ele>338.39999389648</ele>
        <time>2019-10-24T08:30:17.000Z</time>
      </trkpt>
      <trkpt lat="43.30563" lon="6.13899">
        <ele>339</ele>
        <time>2019-10-24T08:30:19.000Z</time>
      </trkpt>
      <trkpt lat="43.3057" lon="6.13889">
        <ele>340.39999389648</ele>
        <time>2019-10-24T08:30:23.000Z</time>
      </trkpt>
      <trkpt lat="43.30574" lon="6.13885">
        <ele>341.20001220703</ele>
        <time>2019-10-24T08:30:25.000Z</time>
      </trkpt>
      <trkpt lat="43.30576" lon="6.13882">
        <ele>341.60000610352</ele>
        <time>2019-10-24T08:30:26.000Z</time>
      </trkpt>
      <trkpt lat="43.30577" lon="6.13877">
        <ele>342.60000610352</ele>
        <time>2019-10-24T08:30:28.000Z</time>
      </trkpt>
      <trkpt lat="43.30577" lon="6.13869">
        <ele>343.39999389648</ele>
        <time>2019-10-24T08:30:30.000Z</time>
      </trkpt>
      <trkpt lat="43.30576" lon="6.13866">
        <ele>343.79998779297</ele>
        <time>2019-10-24T08:30:31.000Z</time>
      </trkpt>
      <trkpt lat="43.30572" lon="6.13857">
        <ele>345</ele>
        <time>2019-10-24T08:30:34.000Z</time>
      </trkpt>
      <trkpt lat="43.3057" lon="6.13855">
        <ele>345.39999389648</ele>
        <time>2019-10-24T08:30:35.000Z</time>
      </trkpt>
      <trkpt lat="43.30565" lon="6.13851">
        <ele>346.20001220703</ele>
        <time>2019-10-24T08:30:38.000Z</time>
      </trkpt>
      <trkpt lat="43.30559" lon="6.13845">
        <ele>347</ele>
        <time>2019-10-24T08:30:41.000Z</time>
      </trkpt>
      <trkpt lat="43.30557" lon="6.13843">
        <ele>347.20001220703</ele>
        <time>2019-10-24T08:30:42.000Z</time>
      </trkpt>
      <trkpt lat="43.30552" lon="6.13834">
        <ele>348.20001220703</ele>
        <time>2019-10-24T08:30:45.000Z</time>
      </trkpt>
      <trkpt lat="43.30552" lon="6.13831">
        <ele>348.60000610352</ele>
        <time>2019-10-24T08:30:46.000Z</time>
      </trkpt>
      <trkpt lat="43.30551" lon="6.13806">
        <ele>349.20001220703</ele>
        <time>2019-10-24T08:30:52.000Z</time>
      </trkpt>
      <trkpt lat="43.30553" lon="6.13803">
        <ele>349.39999389648</ele>
        <time>2019-10-24T08:30:53.000Z</time>
      </trkpt>
      <trkpt lat="43.30555" lon="6.13786">
        <ele>350.20001220703</ele>
        <time>2019-10-24T08:30:57.000Z</time>
      </trkpt>
      <trkpt lat="43.30556" lon="6.13778">
        <ele>350.60000610352</ele>
        <time>2019-10-24T08:30:59.000Z</time>
      </trkpt>
      <trkpt lat="43.30554" lon="6.13764">
        <ele>351.39999389648</ele>
        <time>2019-10-24T08:31:03.000Z</time>
      </trkpt>
      <trkpt lat="43.30554" lon="6.13761">
        <ele>351.79998779297</ele>
        <time>2019-10-24T08:31:04.000Z</time>
      </trkpt>
      <trkpt lat="43.30551" lon="6.13752">
        <ele>352.79998779297</ele>
        <time>2019-10-24T08:31:08.000Z</time>
      </trkpt>
      <trkpt lat="43.30548" lon="6.13745">
        <ele>354</ele>
        <time>2019-10-24T08:31:11.000Z</time>
      </trkpt>
      <trkpt lat="43.30545" lon="6.13735">
        <ele>355.20001220703</ele>
        <time>2019-10-24T08:31:15.000Z</time>
      </trkpt>
      <trkpt lat="43.30544" lon="6.13727">
        <ele>356.60000610352</ele>
        <time>2019-10-24T08:31:19.000Z</time>
      </trkpt>
      <trkpt lat="43.30543" lon="6.13718">
        <ele>357.79998779297</ele>
        <time>2019-10-24T08:31:22.000Z</time>
      </trkpt>
      <trkpt lat="43.30542" lon="6.13711">
        <ele>358.79998779297</ele>
        <time>2019-10-24T08:31:25.000Z</time>
      </trkpt>
      <trkpt lat="43.30541" lon="6.13706">
        <ele>359.60000610352</ele>
        <time>2019-10-24T08:31:27.000Z</time>
      </trkpt>
      <trkpt lat="43.30541" lon="6.13704">
        <ele>360</ele>
        <time>2019-10-24T08:31:28.000Z</time>
      </trkpt>
      <trkpt lat="43.30544" lon="6.13697">
        <ele>361.20001220703</ele>
        <time>2019-10-24T08:31:31.000Z</time>
      </trkpt>
      <trkpt lat="43.30545" lon="6.13696">
        <ele>361.39999389648</ele>
        <time>2019-10-24T08:31:32.000Z</time>
      </trkpt>
      <trkpt lat="43.30549" lon="6.13694">
        <ele>362.20001220703</ele>
        <time>2019-10-24T08:31:35.000Z</time>
      </trkpt>
      <trkpt lat="43.30553" lon="6.13693">
        <ele>363</ele>
        <time>2019-10-24T08:31:37.000Z</time>
      </trkpt>
      <trkpt lat="43.30554" lon="6.13693">
        <ele>363.39999389648</ele>
        <time>2019-10-24T08:31:38.000Z</time>
      </trkpt>
      <trkpt lat="43.30559" lon="6.13692">
        <ele>364.60000610352</ele>
        <time>2019-10-24T08:31:41.000Z</time>
      </trkpt>
      <trkpt lat="43.30562" lon="6.1369">
        <ele>365.60000610352</ele>
        <time>2019-10-24T08:31:43.000Z</time>
      </trkpt>
      <trkpt lat="43.30564" lon="6.1369">
        <ele>366</ele>
        <time>2019-10-24T08:31:44.000Z</time>
      </trkpt>
      <trkpt lat="43.30572" lon="6.13687">
        <ele>367</ele>
        <time>2019-10-24T08:31:48.000Z</time>
      </trkpt>
      <trkpt lat="43.30573" lon="6.13687">
        <ele>367.20001220703</ele>
        <time>2019-10-24T08:31:49.000Z</time>
      </trkpt>
      <trkpt lat="43.30579" lon="6.13686">
        <ele>367.79998779297</ele>
        <time>2019-10-24T08:31:52.000Z</time>
      </trkpt>
      <trkpt lat="43.30586" lon="6.13684">
        <ele>368.79998779297</ele>
        <time>2019-10-24T08:31:56.000Z</time>
      </trkpt>
      <trkpt lat="43.30588" lon="6.13684">
        <ele>369</ele>
        <time>2019-10-24T08:31:57.000Z</time>
      </trkpt>
      <trkpt lat="43.30597" lon="6.13683">
        <ele>369.79998779297</ele>
        <time>2019-10-24T08:32:01.000Z</time>
      </trkpt>
      <trkpt lat="43.30604" lon="6.13682">
        <ele>370</ele>
        <time>2019-10-24T08:32:04.000Z</time>
      </trkpt>
      <trkpt lat="43.30609" lon="6.1368">
        <ele>370.79998779297</ele>
        <time>2019-10-24T08:32:07.000Z</time>
      </trkpt>
      <trkpt lat="43.30611" lon="6.13679">
        <ele>371</ele>
        <time>2019-10-24T08:32:08.000Z</time>
      </trkpt>
      <trkpt lat="43.30613" lon="6.13678">
        <ele>371.20001220703</ele>
        <time>2019-10-24T08:32:09.000Z</time>
      </trkpt>
      <trkpt lat="43.3062" lon="6.13674">
        <ele>371.39999389648</ele>
        <time>2019-10-24T08:32:13.000Z</time>
      </trkpt>
      <trkpt lat="43.30631" lon="6.13669">
        <ele>371.79998779297</ele>
        <time>2019-10-24T08:32:18.000Z</time>
      </trkpt>
      <trkpt lat="43.30634" lon="6.13667">
        <ele>371.79998779297</ele>
        <time>2019-10-24T08:32:19.000Z</time>
      </trkpt>
      <trkpt lat="43.30641" lon="6.13653">
        <ele>372</ele>
        <time>2019-10-24T08:32:23.000Z</time>
      </trkpt>
      <trkpt lat="43.30648" lon="6.13634">
        <ele>372.20001220703</ele>
        <time>2019-10-24T08:32:28.000Z</time>
      </trkpt>
      <trkpt lat="43.30657" lon="6.13615">
        <ele>371.60000610352</ele>
        <time>2019-10-24T08:32:33.000Z</time>
      </trkpt>
      <trkpt lat="43.3067" lon="6.13583">
        <ele>370.79998779297</ele>
        <time>2019-10-24T08:32:40.000Z</time>
      </trkpt>
      <trkpt lat="43.30678" lon="6.13559">
        <ele>370.60000610352</ele>
        <time>2019-10-24T08:32:46.000Z</time>
      </trkpt>
      <trkpt lat="43.30681" lon="6.13549">
        <ele>370.60000610352</ele>
        <time>2019-10-24T08:32:48.000Z</time>
      </trkpt>
      <trkpt lat="43.30687" lon="6.13529">
        <ele>370</ele>
        <time>2019-10-24T08:32:51.000Z</time>
      </trkpt>
      <trkpt lat="43.30689" lon="6.13522">
        <ele>369.79998779297</ele>
        <time>2019-10-24T08:32:52.000Z</time>
      </trkpt>
      <trkpt lat="43.30694" lon="6.1349">
        <ele>368.79998779297</ele>
        <time>2019-10-24T08:32:57.000Z</time>
      </trkpt>
      <trkpt lat="43.30693" lon="6.13466">
        <ele>368.20001220703</ele>
        <time>2019-10-24T08:33:01.000Z</time>
      </trkpt>
      <trkpt lat="43.30692" lon="6.13461">
        <ele>368.20001220703</ele>
        <time>2019-10-24T08:33:02.000Z</time>
      </trkpt>
      <trkpt lat="43.30686" lon="6.13435">
        <ele>367.79998779297</ele>
        <time>2019-10-24T08:33:07.000Z</time>
      </trkpt>
      <trkpt lat="43.30686" lon="6.13432">
        <ele>367.60000610352</ele>
        <time>2019-10-24T08:33:08.000Z</time>
      </trkpt>
      <trkpt lat="43.30691" lon="6.1342">
        <ele>367.60000610352</ele>
        <time>2019-10-24T08:33:12.000Z</time>
      </trkpt>
      <trkpt lat="43.30703" lon="6.13406">
        <ele>367.60000610352</ele>
        <time>2019-10-24T08:33:17.000Z</time>
      </trkpt>
      <trkpt lat="43.3072" lon="6.13389">
        <ele>366.79998779297</ele>
        <time>2019-10-24T08:33:23.000Z</time>
      </trkpt>
      <trkpt lat="43.30725" lon="6.13374">
        <ele>366.60000610352</ele>
        <time>2019-10-24T08:33:26.000Z</time>
      </trkpt>
      <trkpt lat="43.30726" lon="6.13369">
        <ele>366.20001220703</ele>
        <time>2019-10-24T08:33:27.000Z</time>
      </trkpt>
      <trkpt lat="43.30726" lon="6.1335">
        <ele>365.60000610352</ele>
        <time>2019-10-24T08:33:30.000Z</time>
      </trkpt>
      <trkpt lat="43.30725" lon="6.13341">
        <ele>365.20001220703</ele>
        <time>2019-10-24T08:33:31.000Z</time>
      </trkpt>
      <trkpt lat="43.30715" lon="6.13315">
        <ele>364.20001220703</ele>
        <time>2019-10-24T08:33:34.000Z</time>
      </trkpt>
      <trkpt lat="43.30711" lon="6.13307">
        <ele>363.60000610352</ele>
        <time>2019-10-24T08:33:35.000Z</time>
      </trkpt>
      <trkpt lat="43.30703" lon="6.13292">
        <ele>362.20001220703</ele>
        <time>2019-10-24T08:33:37.000Z</time>
      </trkpt>
      <trkpt lat="43.30699" lon="6.13276">
        <ele>361</ele>
        <time>2019-10-24T08:33:39.000Z</time>
      </trkpt>
      <trkpt lat="43.307" lon="6.1326">
        <ele>359.60000610352</ele>
        <time>2019-10-24T08:33:41.000Z</time>
      </trkpt>
      <trkpt lat="43.30702" lon="6.13252">
        <ele>359.20001220703</ele>
        <time>2019-10-24T08:33:42.000Z</time>
      </trkpt>
      <trkpt lat="43.30708" lon="6.1324">
        <ele>358.79998779297</ele>
        <time>2019-10-24T08:33:44.000Z</time>
      </trkpt>
      <trkpt lat="43.30713" lon="6.13231">
        <ele>358.60000610352</ele>
        <time>2019-10-24T08:33:46.000Z</time>
      </trkpt>
      <trkpt lat="43.30718" lon="6.13223">
        <ele>358.39999389648</ele>
        <time>2019-10-24T08:33:48.000Z</time>
      </trkpt>
      <trkpt lat="43.30723" lon="6.13214">
        <ele>358.20001220703</ele>
        <time>2019-10-24T08:33:50.000Z</time>
      </trkpt>
      <trkpt lat="43.30726" lon="6.13209">
        <ele>357.79998779297</ele>
        <time>2019-10-24T08:33:51.000Z</time>
      </trkpt>
      <trkpt lat="43.30736" lon="6.13196">
        <ele>357.39999389648</ele>
        <time>2019-10-24T08:33:54.000Z</time>
      </trkpt>
      <trkpt lat="43.30742" lon="6.13186">
        <ele>357.39999389648</ele>
        <time>2019-10-24T08:33:56.000Z</time>
      </trkpt>
      <trkpt lat="43.30759" lon="6.13162">
        <ele>356.20001220703</ele>
        <time>2019-10-24T08:34:01.000Z</time>
      </trkpt>
      <trkpt lat="43.30762" lon="6.13157">
        <ele>356</ele>
        <time>2019-10-24T08:34:02.000Z</time>
      </trkpt>
      <trkpt lat="43.30766" lon="6.13153">
        <ele>356</ele>
        <time>2019-10-24T08:34:03.000Z</time>
      </trkpt>
      <trkpt lat="43.30772" lon="6.13135">
        <ele>355.39999389648</ele>
        <time>2019-10-24T08:34:06.000Z</time>
      </trkpt>
      <trkpt lat="43.30769" lon="6.13122">
        <ele>355.20001220703</ele>
        <time>2019-10-24T08:34:09.000Z</time>
      </trkpt>
      <trkpt lat="43.30762" lon="6.13116">
        <ele>355</ele>
        <time>2019-10-24T08:34:12.000Z</time>
      </trkpt>
      <trkpt lat="43.30756" lon="6.13113">
        <ele>355</ele>
        <time>2019-10-24T08:34:14.000Z</time>
      </trkpt>
      <trkpt lat="43.30742" lon="6.13105">
        <ele>356</ele>
        <time>2019-10-24T08:34:19.000Z</time>
      </trkpt>
      <trkpt lat="43.30736" lon="6.13101">
        <ele>357.20001220703</ele>
        <time>2019-10-24T08:34:22.000Z</time>
      </trkpt>
      <trkpt lat="43.30726" lon="6.13097">
        <ele>358</ele>
        <time>2019-10-24T08:34:26.000Z</time>
      </trkpt>
      <trkpt lat="43.30718" lon="6.13093">
        <ele>358.20001220703</ele>
        <time>2019-10-24T08:34:29.000Z</time>
      </trkpt>
      <trkpt lat="43.3071" lon="6.13089">
        <ele>358.79998779297</ele>
        <time>2019-10-24T08:34:32.000Z</time>
      </trkpt>
      <trkpt lat="43.30705" lon="6.13086">
        <ele>359.20001220703</ele>
        <time>2019-10-24T08:34:34.000Z</time>
      </trkpt>
      <trkpt lat="43.3069" lon="6.13077">
        <ele>359.39999389648</ele>
        <time>2019-10-24T08:34:39.000Z</time>
      </trkpt>
      <trkpt lat="43.30669" lon="6.13059">
        <ele>359.39999389648</ele>
        <time>2019-10-24T08:34:46.000Z</time>
      </trkpt>
      <trkpt lat="43.30658" lon="6.1304">
        <ele>359.39999389648</ele>
        <time>2019-10-24T08:34:51.000Z</time>
      </trkpt>
      <trkpt lat="43.30657" lon="6.13015">
        <ele>358.39999389648</ele>
        <time>2019-10-24T08:34:56.000Z</time>
      </trkpt>
      <trkpt lat="43.30669" lon="6.12987">
        <ele>358.60000610352</ele>
        <time>2019-10-24T08:35:03.000Z</time>
      </trkpt>
      <trkpt lat="43.30685" lon="6.12969">
        <ele>358.60000610352</ele>
        <time>2019-10-24T08:35:09.000Z</time>
      </trkpt>
      <trkpt lat="43.30697" lon="6.12964">
        <ele>359</ele>
        <time>2019-10-24T08:35:14.000Z</time>
      </trkpt>
      <trkpt lat="43.30704" lon="6.12961">
        <ele>360</ele>
        <time>2019-10-24T08:35:18.000Z</time>
      </trkpt>
      <trkpt lat="43.30707" lon="6.12958">
        <ele>360.60000610352</ele>
        <time>2019-10-24T08:35:20.000Z</time>
      </trkpt>
      <trkpt lat="43.30709" lon="6.12951">
        <ele>361</ele>
        <time>2019-10-24T08:35:22.000Z</time>
      </trkpt>
      <trkpt lat="43.30708" lon="6.12943">
        <ele>361.39999389648</ele>
        <time>2019-10-24T08:35:24.000Z</time>
      </trkpt>
      <trkpt lat="43.30708" lon="6.12939">
        <ele>361.60000610352</ele>
        <time>2019-10-24T08:35:25.000Z</time>
      </trkpt>
      <trkpt lat="43.30705" lon="6.12913">
        <ele>361.79998779297</ele>
        <time>2019-10-24T08:35:31.000Z</time>
      </trkpt>
      <trkpt lat="43.307" lon="6.129">
        <ele>362.20001220703</ele>
        <time>2019-10-24T08:35:34.000Z</time>
      </trkpt>
      <trkpt lat="43.30696" lon="6.12892">
        <ele>362.39999389648</ele>
        <time>2019-10-24T08:35:36.000Z</time>
      </trkpt>
      <trkpt lat="43.30694" lon="6.12887">
        <ele>362.39999389648</ele>
        <time>2019-10-24T08:35:37.000Z</time>
      </trkpt>
      <trkpt lat="43.3069" lon="6.1287">
        <ele>362.20001220703</ele>
        <time>2019-10-24T08:35:40.000Z</time>
      </trkpt>
      <trkpt lat="43.30691" lon="6.12861">
        <ele>362.20001220703</ele>
        <time>2019-10-24T08:35:42.000Z</time>
      </trkpt>
      <trkpt lat="43.30689" lon="6.12842">
        <ele>362.60000610352</ele>
        <time>2019-10-24T08:35:46.000Z</time>
      </trkpt>
      <trkpt lat="43.30693" lon="6.12814">
        <ele>362.60000610352</ele>
        <time>2019-10-24T08:35:51.000Z</time>
      </trkpt>
      <trkpt lat="43.30698" lon="6.12799">
        <ele>361</ele>
        <time>2019-10-24T08:35:54.000Z</time>
      </trkpt>
      <trkpt lat="43.30699" lon="6.12794">
        <ele>360.79998779297</ele>
        <time>2019-10-24T08:35:55.000Z</time>
      </trkpt>
      <trkpt lat="43.30705" lon="6.12779">
        <ele>361</ele>
        <time>2019-10-24T08:35:59.000Z</time>
      </trkpt>
      <trkpt lat="43.30714" lon="6.12743">
        <ele>362</ele>
        <time>2019-10-24T08:36:07.000Z</time>
      </trkpt>
      <trkpt lat="43.30716" lon="6.1274">
        <ele>362.20001220703</ele>
        <time>2019-10-24T08:36:08.000Z</time>
      </trkpt>
      <trkpt lat="43.30721" lon="6.1272">
        <ele>363</ele>
        <time>2019-10-24T08:36:13.000Z</time>
      </trkpt>
      <trkpt lat="43.30731" lon="6.12683">
        <ele>362.60000610352</ele>
        <time>2019-10-24T08:36:21.000Z</time>
      </trkpt>
      <trkpt lat="43.30733" lon="6.12665">
        <ele>363.20001220703</ele>
        <time>2019-10-24T08:36:26.000Z</time>
      </trkpt>
      <trkpt lat="43.30728" lon="6.1265">
        <ele>363</ele>
        <time>2019-10-24T08:36:30.000Z</time>
      </trkpt>
      <trkpt lat="43.30713" lon="6.12631">
        <ele>363</ele>
        <time>2019-10-24T08:36:36.000Z</time>
      </trkpt>
      <trkpt lat="43.30704" lon="6.12614">
        <ele>363.20001220703</ele>
        <time>2019-10-24T08:36:42.000Z</time>
      </trkpt>
      <trkpt lat="43.30701" lon="6.12601">
        <ele>364.39999389648</ele>
        <time>2019-10-24T08:36:47.000Z</time>
      </trkpt>
      <trkpt lat="43.30699" lon="6.12593">
        <ele>365.60000610352</ele>
        <time>2019-10-24T08:36:50.000Z</time>
      </trkpt>
      <trkpt lat="43.30695" lon="6.12586">
        <ele>366.79998779297</ele>
        <time>2019-10-24T08:36:53.000Z</time>
      </trkpt>
      <trkpt lat="43.30691" lon="6.12579">
        <ele>367.60000610352</ele>
        <time>2019-10-24T08:36:56.000Z</time>
      </trkpt>
      <trkpt lat="43.30684" lon="6.12572">
        <ele>367.79998779297</ele>
        <time>2019-10-24T08:37:00.000Z</time>
      </trkpt>
      <trkpt lat="43.30681" lon="6.12572">
        <ele>367.79998779297</ele>
        <time>2019-10-24T08:37:01.000Z</time>
      </trkpt>
      <trkpt lat="43.30672" lon="6.12585">
        <ele>367.20001220703</ele>
        <time>2019-10-24T08:37:04.000Z</time>
      </trkpt>
      <trkpt lat="43.30666" lon="6.12596">
        <ele>366.60000610352</ele>
        <time>2019-10-24T08:37:06.000Z</time>
      </trkpt>
      <trkpt lat="43.30657" lon="6.12605">
        <ele>365.60000610352</ele>
        <time>2019-10-24T08:37:08.000Z</time>
      </trkpt>
      <trkpt lat="43.30653" lon="6.12608">
        <ele>365.20001220703</ele>
        <time>2019-10-24T08:37:09.000Z</time>
      </trkpt>
      <trkpt lat="43.30646" lon="6.12611">
        <ele>364.20001220703</ele>
        <time>2019-10-24T08:37:11.000Z</time>
      </trkpt>
      <trkpt lat="43.30643" lon="6.12612">
        <ele>364</ele>
        <time>2019-10-24T08:37:12.000Z</time>
      </trkpt>
      <trkpt lat="43.30636" lon="6.12615">
        <ele>364</ele>
        <time>2019-10-24T08:37:14.000Z</time>
      </trkpt>
      <trkpt lat="43.30627" lon="6.12618">
        <ele>363.79998779297</ele>
        <time>2019-10-24T08:37:16.000Z</time>
      </trkpt>
      <trkpt lat="43.30623" lon="6.1262">
        <ele>363.60000610352</ele>
        <time>2019-10-24T08:37:17.000Z</time>
      </trkpt>
      <trkpt lat="43.3061" lon="6.12623">
        <ele>362.60000610352</ele>
        <time>2019-10-24T08:37:20.000Z</time>
      </trkpt>
      <trkpt lat="43.30601" lon="6.12626">
        <ele>362.20001220703</ele>
        <time>2019-10-24T08:37:22.000Z</time>
      </trkpt>
      <trkpt lat="43.30574" lon="6.12634">
        <ele>361.39999389648</ele>
        <time>2019-10-24T08:37:28.000Z</time>
      </trkpt>
      <trkpt lat="43.30556" lon="6.12641">
        <ele>360.60000610352</ele>
        <time>2019-10-24T08:37:32.000Z</time>
      </trkpt>
      <trkpt lat="43.30551" lon="6.12641">
        <ele>360.60000610352</ele>
        <time>2019-10-24T08:37:33.000Z</time>
      </trkpt>
      <trkpt lat="43.30543" lon="6.1264">
        <ele>360.20001220703</ele>
        <time>2019-10-24T08:37:35.000Z</time>
      </trkpt>
      <trkpt lat="43.30533" lon="6.12638">
        <ele>360</ele>
        <time>2019-10-24T08:37:38.000Z</time>
      </trkpt>
      <trkpt lat="43.30521" lon="6.12633">
        <ele>361.39999389648</ele>
        <time>2019-10-24T08:37:43.000Z</time>
      </trkpt>
      <trkpt lat="43.30509" lon="6.12629">
        <ele>362.60000610352</ele>
        <time>2019-10-24T08:37:48.000Z</time>
      </trkpt>
      <trkpt lat="43.30507" lon="6.12628">
        <ele>362.79998779297</ele>
        <time>2019-10-24T08:37:49.000Z</time>
      </trkpt>
      <trkpt lat="43.30502" lon="6.12625">
        <ele>363.60000610352</ele>
        <time>2019-10-24T08:37:52.000Z</time>
      </trkpt>
      <trkpt lat="43.30498" lon="6.12622">
        <ele>364.39999389648</ele>
        <time>2019-10-24T08:37:55.000Z</time>
      </trkpt>
      <trkpt lat="43.30496" lon="6.12621">
        <ele>364.79998779297</ele>
        <time>2019-10-24T08:37:56.000Z</time>
      </trkpt>
      <trkpt lat="43.30494" lon="6.12619">
        <ele>365.39999389648</ele>
        <time>2019-10-24T08:38:00.000Z</time>
      </trkpt>
      <trkpt lat="43.30489" lon="6.12616">
        <ele>365.60000610352</ele>
        <time>2019-10-24T08:39:25.000Z</time>
      </trkpt>
      <trkpt lat="43.30479" lon="6.12616">
        <ele>365.39999389648</ele>
        <time>2019-10-24T08:39:29.000Z</time>
      </trkpt>
      <trkpt lat="43.30475" lon="6.12616">
        <ele>365.20001220703</ele>
        <time>2019-10-24T08:39:30.000Z</time>
      </trkpt>
      <trkpt lat="43.30469" lon="6.12615">
        <ele>364.20001220703</ele>
        <time>2019-10-24T08:39:32.000Z</time>
      </trkpt>
      <trkpt lat="43.30459" lon="6.12616">
        <ele>363.20001220703</ele>
        <time>2019-10-24T08:39:35.000Z</time>
      </trkpt>
      <trkpt lat="43.30455" lon="6.12617">
        <ele>362.39999389648</ele>
        <time>2019-10-24T08:39:36.000Z</time>
      </trkpt>
      <trkpt lat="43.30451" lon="6.12617">
        <ele>361.79998779297</ele>
        <time>2019-10-24T08:39:37.000Z</time>
      </trkpt>
      <trkpt lat="43.30446" lon="6.12616">
        <ele>360.60000610352</ele>
        <time>2019-10-24T08:39:38.000Z</time>
      </trkpt>
      <trkpt lat="43.30438" lon="6.12614">
        <ele>359</ele>
        <time>2019-10-24T08:39:40.000Z</time>
      </trkpt>
      <trkpt lat="43.30434" lon="6.12612">
        <ele>358.39999389648</ele>
        <time>2019-10-24T08:39:41.000Z</time>
      </trkpt>
      <trkpt lat="43.3043" lon="6.12611">
        <ele>357.60000610352</ele>
        <time>2019-10-24T08:39:42.000Z</time>
      </trkpt>
      <trkpt lat="43.30423" lon="6.12611">
        <ele>355.39999389648</ele>
        <time>2019-10-24T08:39:44.000Z</time>
      </trkpt>
      <trkpt lat="43.30421" lon="6.12612">
        <ele>354.79998779297</ele>
        <time>2019-10-24T08:39:45.000Z</time>
      </trkpt>
      <trkpt lat="43.30419" lon="6.12613">
        <ele>354.20001220703</ele>
        <time>2019-10-24T08:39:46.000Z</time>
      </trkpt>
      <trkpt lat="43.30412" lon="6.12616">
        <ele>353.20001220703</ele>
        <time>2019-10-24T08:39:50.000Z</time>
      </trkpt>
      <trkpt lat="43.30408" lon="6.12618">
        <ele>352.20001220703</ele>
        <time>2019-10-24T08:39:52.000Z</time>
      </trkpt>
      <trkpt lat="43.30402" lon="6.12624">
        <ele>351</ele>
        <time>2019-10-24T08:39:55.000Z</time>
      </trkpt>
      <trkpt lat="43.30396" lon="6.12633">
        <ele>349.20001220703</ele>
        <time>2019-10-24T08:39:58.000Z</time>
      </trkpt>
      <trkpt lat="43.30392" lon="6.12635">
        <ele>348.60000610352</ele>
        <time>2019-10-24T08:39:59.000Z</time>
      </trkpt>
      <trkpt lat="43.30388" lon="6.12636">
        <ele>347.60000610352</ele>
        <time>2019-10-24T08:40:00.000Z</time>
      </trkpt>
      <trkpt lat="43.30383" lon="6.12637">
        <ele>345.79998779297</ele>
        <time>2019-10-24T08:40:02.000Z</time>
      </trkpt>
      <trkpt lat="43.30376" lon="6.12634">
        <ele>344.60000610352</ele>
        <time>2019-10-24T08:40:04.000Z</time>
      </trkpt>
      <trkpt lat="43.30368" lon="6.12633">
        <ele>343.20001220703</ele>
        <time>2019-10-24T08:40:06.000Z</time>
      </trkpt>
      <trkpt lat="43.30357" lon="6.12634">
        <ele>342.39999389648</ele>
        <time>2019-10-24T08:40:08.000Z</time>
      </trkpt>
      <trkpt lat="43.30344" lon="6.12637">
        <ele>341.79998779297</ele>
        <time>2019-10-24T08:40:10.000Z</time>
      </trkpt>
      <trkpt lat="43.30331" lon="6.1264">
        <ele>340.39999389648</ele>
        <time>2019-10-24T08:40:12.000Z</time>
      </trkpt>
      <trkpt lat="43.30318" lon="6.12643">
        <ele>339.39999389648</ele>
        <time>2019-10-24T08:40:14.000Z</time>
      </trkpt>
      <trkpt lat="43.30305" lon="6.12648">
        <ele>338</ele>
        <time>2019-10-24T08:40:17.000Z</time>
      </trkpt>
      <trkpt lat="43.30299" lon="6.12654">
        <ele>336.20001220703</ele>
        <time>2019-10-24T08:40:19.000Z</time>
      </trkpt>
      <trkpt lat="43.30294" lon="6.12663">
        <ele>335.20001220703</ele>
        <time>2019-10-24T08:40:21.000Z</time>
      </trkpt>
      <trkpt lat="43.30292" lon="6.12667">
        <ele>335</ele>
        <time>2019-10-24T08:40:22.000Z</time>
      </trkpt>
      <trkpt lat="43.30286" lon="6.12681">
        <ele>334.20001220703</ele>
        <time>2019-10-24T08:40:25.000Z</time>
      </trkpt>
      <trkpt lat="43.30282" lon="6.12689">
        <ele>334</ele>
        <time>2019-10-24T08:40:27.000Z</time>
      </trkpt>
      <trkpt lat="43.30275" lon="6.12699">
        <ele>333</ele>
        <time>2019-10-24T08:40:30.000Z</time>
      </trkpt>
      <trkpt lat="43.30273" lon="6.12702">
        <ele>332.60000610352</ele>
        <time>2019-10-24T08:40:31.000Z</time>
      </trkpt>
      <trkpt lat="43.30271" lon="6.12706">
        <ele>332</ele>
        <time>2019-10-24T08:40:32.000Z</time>
      </trkpt>
      <trkpt lat="43.30265" lon="6.12712">
        <ele>330.79998779297</ele>
        <time>2019-10-24T08:40:35.000Z</time>
      </trkpt>
      <trkpt lat="43.30264" lon="6.12713">
        <ele>330.39999389648</ele>
        <time>2019-10-24T08:40:36.000Z</time>
      </trkpt>
      <trkpt lat="43.30262" lon="6.12715">
        <ele>330.20001220703</ele>
        <time>2019-10-24T08:40:37.000Z</time>
      </trkpt>
      <trkpt lat="43.30261" lon="6.12715">
        <ele>329.79998779297</ele>
        <time>2019-10-24T08:40:38.000Z</time>
      </trkpt>
      <trkpt lat="43.30261" lon="6.12716">
        <ele>329.39999389648</ele>
        <time>2019-10-24T08:40:39.000Z</time>
      </trkpt>
      <trkpt lat="43.30257" lon="6.12714">
        <ele>328.20001220703</ele>
        <time>2019-10-24T08:41:19.000Z</time>
      </trkpt>
      <trkpt lat="43.30255" lon="6.12712">
        <ele>328.39999389648</ele>
        <time>2019-10-24T08:41:20.000Z</time>
      </trkpt>
      <trkpt lat="43.30247" lon="6.12698">
        <ele>327.79998779297</ele>
        <time>2019-10-24T08:41:24.000Z</time>
      </trkpt>
      <trkpt lat="43.30243" lon="6.12688">
        <ele>327.60000610352</ele>
        <time>2019-10-24T08:41:26.000Z</time>
      </trkpt>
      <trkpt lat="43.3024" lon="6.12677">
        <ele>326.39999389648</ele>
        <time>2019-10-24T08:41:28.000Z</time>
      </trkpt>
      <trkpt lat="43.30239" lon="6.1267">
        <ele>325.79998779297</ele>
        <time>2019-10-24T08:41:29.000Z</time>
      </trkpt>
      <trkpt lat="43.30238" lon="6.12664">
        <ele>325.20001220703</ele>
        <time>2019-10-24T08:41:30.000Z</time>
      </trkpt>
      <trkpt lat="43.30239" lon="6.12656">
        <ele>325</ele>
        <time>2019-10-24T08:41:31.000Z</time>
      </trkpt>
      <trkpt lat="43.3024" lon="6.12641">
        <ele>323.79998779297</ele>
        <time>2019-10-24T08:41:33.000Z</time>
      </trkpt>
      <trkpt lat="43.30241" lon="6.12633">
        <ele>322.60000610352</ele>
        <time>2019-10-24T08:41:34.000Z</time>
      </trkpt>
      <trkpt lat="43.30242" lon="6.12626">
        <ele>321.60000610352</ele>
        <time>2019-10-24T08:41:35.000Z</time>
      </trkpt>
      <trkpt lat="43.30243" lon="6.12618">
        <ele>320.20001220703</ele>
        <time>2019-10-24T08:41:36.000Z</time>
      </trkpt>
      <trkpt lat="43.30245" lon="6.12602">
        <ele>318.39999389648</ele>
        <time>2019-10-24T08:41:38.000Z</time>
      </trkpt>
      <trkpt lat="43.30247" lon="6.12591">
        <ele>317.39999389648</ele>
        <time>2019-10-24T08:41:39.000Z</time>
      </trkpt>
      <trkpt lat="43.30248" lon="6.1258">
        <ele>316.39999389648</ele>
        <time>2019-10-24T08:41:40.000Z</time>
      </trkpt>
      <trkpt lat="43.30249" lon="6.12568">
        <ele>315.79998779297</ele>
        <time>2019-10-24T08:41:41.000Z</time>
      </trkpt>
      <trkpt lat="43.30252" lon="6.12545">
        <ele>314.60000610352</ele>
        <time>2019-10-24T08:41:43.000Z</time>
      </trkpt>
      <trkpt lat="43.30252" lon="6.12533">
        <ele>313.39999389648</ele>
        <time>2019-10-24T08:41:44.000Z</time>
      </trkpt>
      <trkpt lat="43.30253" lon="6.12521">
        <ele>312.20001220703</ele>
        <time>2019-10-24T08:41:45.000Z</time>
      </trkpt>
      <trkpt lat="43.30254" lon="6.12509">
        <ele>311.39999389648</ele>
        <time>2019-10-24T08:41:46.000Z</time>
      </trkpt>
      <trkpt lat="43.30253" lon="6.12496">
        <ele>309.60000610352</ele>
        <time>2019-10-24T08:41:47.000Z</time>
      </trkpt>
      <trkpt lat="43.30253" lon="6.12482">
        <ele>308.20001220703</ele>
        <time>2019-10-24T08:41:48.000Z</time>
      </trkpt>
      <trkpt lat="43.30252" lon="6.12455">
        <ele>307.20001220703</ele>
        <time>2019-10-24T08:41:50.000Z</time>
      </trkpt>
      <trkpt lat="43.30251" lon="6.12442">
        <ele>306</ele>
        <time>2019-10-24T08:41:51.000Z</time>
      </trkpt>
      <trkpt lat="43.3025" lon="6.12429">
        <ele>304</ele>
        <time>2019-10-24T08:41:52.000Z</time>
      </trkpt>
      <trkpt lat="43.30248" lon="6.12418">
        <ele>303</ele>
        <time>2019-10-24T08:41:53.000Z</time>
      </trkpt>
      <trkpt lat="43.30247" lon="6.12407">
        <ele>302.39999389648</ele>
        <time>2019-10-24T08:41:54.000Z</time>
      </trkpt>
      <trkpt lat="43.30246" lon="6.12397">
        <ele>302</ele>
        <time>2019-10-24T08:41:55.000Z</time>
      </trkpt>
      <trkpt lat="43.30244" lon="6.12389">
        <ele>301.79998779297</ele>
        <time>2019-10-24T08:41:56.000Z</time>
      </trkpt>
      <trkpt lat="43.30242" lon="6.12382">
        <ele>301.20001220703</ele>
        <time>2019-10-24T08:41:57.000Z</time>
      </trkpt>
      <trkpt lat="43.30239" lon="6.12375">
        <ele>300.79998779297</ele>
        <time>2019-10-24T08:41:58.000Z</time>
      </trkpt>
      <trkpt lat="43.30237" lon="6.12369">
        <ele>300.39999389648</ele>
        <time>2019-10-24T08:41:59.000Z</time>
      </trkpt>
      <trkpt lat="43.30233" lon="6.12363">
        <ele>299.39999389648</ele>
        <time>2019-10-24T08:42:00.000Z</time>
      </trkpt>
      <trkpt lat="43.30229" lon="6.12359">
        <ele>298.39999389648</ele>
        <time>2019-10-24T08:42:01.000Z</time>
      </trkpt>
      <trkpt lat="43.30225" lon="6.12355">
        <ele>297.20001220703</ele>
        <time>2019-10-24T08:42:02.000Z</time>
      </trkpt>
      <trkpt lat="43.30221" lon="6.12351">
        <ele>296.39999389648</ele>
        <time>2019-10-24T08:42:03.000Z</time>
      </trkpt>
      <trkpt lat="43.30218" lon="6.12347">
        <ele>296</ele>
        <time>2019-10-24T08:42:04.000Z</time>
      </trkpt>
      <trkpt lat="43.30217" lon="6.12342">
        <ele>295.60000610352</ele>
        <time>2019-10-24T08:42:05.000Z</time>
      </trkpt>
      <trkpt lat="43.30217" lon="6.12337">
        <ele>294.39999389648</ele>
        <time>2019-10-24T08:42:06.000Z</time>
      </trkpt>
      <trkpt lat="43.3022" lon="6.12329">
        <ele>293</ele>
        <time>2019-10-24T08:42:08.000Z</time>
      </trkpt>
      <trkpt lat="43.30224" lon="6.12321">
        <ele>291.60000610352</ele>
        <time>2019-10-24T08:42:10.000Z</time>
      </trkpt>
      <trkpt lat="43.30225" lon="6.1231">
        <ele>290.20001220703</ele>
        <time>2019-10-24T08:42:12.000Z</time>
      </trkpt>
      <trkpt lat="43.30218" lon="6.12295">
        <ele>288.60000610352</ele>
        <time>2019-10-24T08:42:15.000Z</time>
      </trkpt>
      <trkpt lat="43.30214" lon="6.12292">
        <ele>288</ele>
        <time>2019-10-24T08:42:16.000Z</time>
      </trkpt>
      <trkpt lat="43.30209" lon="6.12288">
        <ele>287.20001220703</ele>
        <time>2019-10-24T08:42:17.000Z</time>
      </trkpt>
      <trkpt lat="43.30203" lon="6.12285">
        <ele>286.60000610352</ele>
        <time>2019-10-24T08:42:18.000Z</time>
      </trkpt>
      <trkpt lat="43.30198" lon="6.12281">
        <ele>286</ele>
        <time>2019-10-24T08:42:19.000Z</time>
      </trkpt>
      <trkpt lat="43.30187" lon="6.12275">
        <ele>284.79998779297</ele>
        <time>2019-10-24T08:42:21.000Z</time>
      </trkpt>
      <trkpt lat="43.30181" lon="6.12273">
        <ele>284.39999389648</ele>
        <time>2019-10-24T08:42:22.000Z</time>
      </trkpt>
      <trkpt lat="43.30175" lon="6.1227">
        <ele>284.20001220703</ele>
        <time>2019-10-24T08:42:23.000Z</time>
      </trkpt>
      <trkpt lat="43.30171" lon="6.12267">
        <ele>283.60000610352</ele>
        <time>2019-10-24T08:42:24.000Z</time>
      </trkpt>
      <trkpt lat="43.30165" lon="6.1226">
        <ele>283</ele>
        <time>2019-10-24T08:42:26.000Z</time>
      </trkpt>
      <trkpt lat="43.30158" lon="6.12252">
        <ele>282.60000610352</ele>
        <time>2019-10-24T08:42:28.000Z</time>
      </trkpt>
      <trkpt lat="43.30154" lon="6.12247">
        <ele>282.39999389648</ele>
        <time>2019-10-24T08:42:29.000Z</time>
      </trkpt>
      <trkpt lat="43.30143" lon="6.12239">
        <ele>281.60000610352</ele>
        <time>2019-10-24T08:42:31.000Z</time>
      </trkpt>
      <trkpt lat="43.30119" lon="6.12231">
        <ele>281.39999389648</ele>
        <time>2019-10-24T08:42:35.000Z</time>
      </trkpt>
      <trkpt lat="43.30113" lon="6.12231">
        <ele>281.60000610352</ele>
        <time>2019-10-24T08:42:36.000Z</time>
      </trkpt>
      <trkpt lat="43.30095" lon="6.12236">
        <ele>281.60000610352</ele>
        <time>2019-10-24T08:42:39.000Z</time>
      </trkpt>
      <trkpt lat="43.30077" lon="6.12243">
        <ele>280.39999389648</ele>
        <time>2019-10-24T08:42:42.000Z</time>
      </trkpt>
      <trkpt lat="43.30063" lon="6.12247">
        <ele>280</ele>
        <time>2019-10-24T08:42:44.000Z</time>
      </trkpt>
      <trkpt lat="43.30056" lon="6.12249">
        <ele>279.39999389648</ele>
        <time>2019-10-24T08:42:45.000Z</time>
      </trkpt>
      <trkpt lat="43.30049" lon="6.1225">
        <ele>278.39999389648</ele>
        <time>2019-10-24T08:42:46.000Z</time>
      </trkpt>
      <trkpt lat="43.30037" lon="6.12249">
        <ele>277</ele>
        <time>2019-10-24T08:42:48.000Z</time>
      </trkpt>
      <trkpt lat="43.30024" lon="6.12248">
        <ele>276.20001220703</ele>
        <time>2019-10-24T08:42:50.000Z</time>
      </trkpt>
      <trkpt lat="43.30017" lon="6.12245">
        <ele>275.39999389648</ele>
        <time>2019-10-24T08:42:51.000Z</time>
      </trkpt>
      <trkpt lat="43.30011" lon="6.1224">
        <ele>274.39999389648</ele>
        <time>2019-10-24T08:42:52.000Z</time>
      </trkpt>
      <trkpt lat="43.30006" lon="6.12236">
        <ele>273.79998779297</ele>
        <time>2019-10-24T08:42:53.000Z</time>
      </trkpt>
      <trkpt lat="43.29995" lon="6.12227">
        <ele>272.79998779297</ele>
        <time>2019-10-24T08:42:55.000Z</time>
      </trkpt>
      <trkpt lat="43.29984" lon="6.12219">
        <ele>272.39999389648</ele>
        <time>2019-10-24T08:42:57.000Z</time>
      </trkpt>
      <trkpt lat="43.29965" lon="6.12204">
        <ele>271.60000610352</ele>
        <time>2019-10-24T08:43:00.000Z</time>
      </trkpt>
      <trkpt lat="43.29958" lon="6.12197">
        <ele>271.20001220703</ele>
        <time>2019-10-24T08:43:01.000Z</time>
      </trkpt>
      <trkpt lat="43.29952" lon="6.12191">
        <ele>270.39999389648</ele>
        <time>2019-10-24T08:43:02.000Z</time>
      </trkpt>
      <trkpt lat="43.2994" lon="6.12183">
        <ele>268.79998779297</ele>
        <time>2019-10-24T08:43:04.000Z</time>
      </trkpt>
      <trkpt lat="43.29934" lon="6.1218">
        <ele>268</ele>
        <time>2019-10-24T08:43:05.000Z</time>
      </trkpt>
      <trkpt lat="43.29929" lon="6.12177">
        <ele>267.39999389648</ele>
        <time>2019-10-24T08:43:06.000Z</time>
      </trkpt>
      <trkpt lat="43.29921" lon="6.12171">
        <ele>267</ele>
        <time>2019-10-24T08:43:08.000Z</time>
      </trkpt>
      <trkpt lat="43.29917" lon="6.12169">
        <ele>266.79998779297</ele>
        <time>2019-10-24T08:43:09.000Z</time>
      </trkpt>
      <trkpt lat="43.29903" lon="6.12161">
        <ele>267</ele>
        <time>2019-10-24T08:43:13.000Z</time>
      </trkpt>
      <trkpt lat="43.29885" lon="6.12154">
        <ele>267.39999389648</ele>
        <time>2019-10-24T08:43:18.000Z</time>
      </trkpt>
      <trkpt lat="43.2988" lon="6.12152">
        <ele>267.20001220703</ele>
        <time>2019-10-24T08:43:19.000Z</time>
      </trkpt>
      <trkpt lat="43.2985" lon="6.12147">
        <ele>266.39999389648</ele>
        <time>2019-10-24T08:43:24.000Z</time>
      </trkpt>
      <trkpt lat="43.2983" lon="6.12143">
        <ele>265.20001220703</ele>
        <time>2019-10-24T08:43:27.000Z</time>
      </trkpt>
      <trkpt lat="43.29816" lon="6.12141">
        <ele>264.79998779297</ele>
        <time>2019-10-24T08:43:29.000Z</time>
      </trkpt>
      <trkpt lat="43.2981" lon="6.1214">
        <ele>264.60000610352</ele>
        <time>2019-10-24T08:43:30.000Z</time>
      </trkpt>
      <trkpt lat="43.29797" lon="6.12136">
        <ele>264</ele>
        <time>2019-10-24T08:43:32.000Z</time>
      </trkpt>
      <trkpt lat="43.29791" lon="6.12133">
        <ele>263.79998779297</ele>
        <time>2019-10-24T08:43:33.000Z</time>
      </trkpt>
      <trkpt lat="43.29768" lon="6.12124">
        <ele>263.20001220703</ele>
        <time>2019-10-24T08:43:37.000Z</time>
      </trkpt>
      <trkpt lat="43.29763" lon="6.12122">
        <ele>262.79998779297</ele>
        <time>2019-10-24T08:43:38.000Z</time>
      </trkpt>
      <trkpt lat="43.29745" lon="6.12115">
        <ele>262.20001220703</ele>
        <time>2019-10-24T08:43:41.000Z</time>
      </trkpt>
      <trkpt lat="43.29733" lon="6.12112">
        <ele>261.79998779297</ele>
        <time>2019-10-24T08:43:43.000Z</time>
      </trkpt>
      <trkpt lat="43.29728" lon="6.12112">
        <ele>261.39999389648</ele>
        <time>2019-10-24T08:43:44.000Z</time>
      </trkpt>
      <trkpt lat="43.29723" lon="6.12112">
        <ele>260.79998779297</ele>
        <time>2019-10-24T08:43:45.000Z</time>
      </trkpt>
      <trkpt lat="43.29719" lon="6.12112">
        <ele>260.39999389648</ele>
        <time>2019-10-24T08:43:46.000Z</time>
      </trkpt>
      <trkpt lat="43.29714" lon="6.12114">
        <ele>260</ele>
        <time>2019-10-24T08:43:47.000Z</time>
      </trkpt>
      <trkpt lat="43.29704" lon="6.12118">
        <ele>259</ele>
        <time>2019-10-24T08:43:49.000Z</time>
      </trkpt>
      <trkpt lat="43.29698" lon="6.1212">
        <ele>257.79998779297</ele>
        <time>2019-10-24T08:43:50.000Z</time>
      </trkpt>
      <trkpt lat="43.29692" lon="6.12121">
        <ele>256.79998779297</ele>
        <time>2019-10-24T08:43:51.000Z</time>
      </trkpt>
      <trkpt lat="43.29686" lon="6.12121">
        <ele>256.20001220703</ele>
        <time>2019-10-24T08:43:52.000Z</time>
      </trkpt>
      <trkpt lat="43.29677" lon="6.12121">
        <ele>254.60000610352</ele>
        <time>2019-10-24T08:43:54.000Z</time>
      </trkpt>
      <trkpt lat="43.29668" lon="6.12122">
        <ele>253</ele>
        <time>2019-10-24T08:43:56.000Z</time>
      </trkpt>
      <trkpt lat="43.29663" lon="6.12123">
        <ele>252.39999389648</ele>
        <time>2019-10-24T08:43:57.000Z</time>
      </trkpt>
      <trkpt lat="43.29658" lon="6.12124">
        <ele>251.80000305176</ele>
        <time>2019-10-24T08:43:58.000Z</time>
      </trkpt>
      <trkpt lat="43.29646" lon="6.12127">
        <ele>250.60000610352</ele>
        <time>2019-10-24T08:44:01.000Z</time>
      </trkpt>
      <trkpt lat="43.29643" lon="6.12128">
        <ele>250</ele>
        <time>2019-10-24T08:44:02.000Z</time>
      </trkpt>
      <trkpt lat="43.2964" lon="6.12128">
        <ele>249.39999389648</ele>
        <time>2019-10-24T08:44:03.000Z</time>
      </trkpt>
      <trkpt lat="43.29631" lon="6.12131">
        <ele>248.19999694824</ele>
        <time>2019-10-24T08:44:06.000Z</time>
      </trkpt>
      <trkpt lat="43.29629" lon="6.12131">
        <ele>247.80000305176</ele>
        <time>2019-10-24T08:44:07.000Z</time>
      </trkpt>
      <trkpt lat="43.29628" lon="6.12131">
        <ele>247</ele>
        <time>2019-10-24T08:44:09.000Z</time>
      </trkpt>
      <trkpt lat="43.29625" lon="6.12131">
        <ele>245.39999389648</ele>
        <time>2019-10-24T08:44:35.000Z</time>
      </trkpt>
      <trkpt lat="43.29624" lon="6.12129">
        <ele>245.39999389648</ele>
        <time>2019-10-24T08:44:36.000Z</time>
      </trkpt>
      <trkpt lat="43.29625" lon="6.12125">
        <ele>245.19999694824</ele>
        <time>2019-10-24T08:44:39.000Z</time>
      </trkpt>
      <trkpt lat="43.29629" lon="6.12123">
        <ele>245.19999694824</ele>
        <time>2019-10-24T08:44:43.000Z</time>
      </trkpt>
      <trkpt lat="43.29631" lon="6.12122">
        <ele>245.39999389648</ele>
        <time>2019-10-24T08:44:45.000Z</time>
      </trkpt>
      <trkpt lat="43.29645" lon="6.12118">
        <ele>246</ele>
        <time>2019-10-24T08:44:52.000Z</time>
      </trkpt>
      <trkpt lat="43.29654" lon="6.12115">
        <ele>246.39999389648</ele>
        <time>2019-10-24T08:44:56.000Z</time>
      </trkpt>
      <trkpt lat="43.29659" lon="6.12114">
        <ele>246.80000305176</ele>
        <time>2019-10-24T08:44:58.000Z</time>
      </trkpt>
      <trkpt lat="43.29664" lon="6.12113">
        <ele>247</ele>
        <time>2019-10-24T08:45:00.000Z</time>
      </trkpt>
      <trkpt lat="43.29677" lon="6.12109">
        <ele>247.39999389648</ele>
        <time>2019-10-24T08:45:05.000Z</time>
      </trkpt>
      <trkpt lat="43.29682" lon="6.12108">
        <ele>247.80000305176</ele>
        <time>2019-10-24T08:45:07.000Z</time>
      </trkpt>
      <trkpt lat="43.29695" lon="6.12103">
        <ele>248.60000610352</ele>
        <time>2019-10-24T08:45:12.000Z</time>
      </trkpt>
      <trkpt lat="43.29705" lon="6.12097">
        <ele>249</ele>
        <time>2019-10-24T08:45:16.000Z</time>
      </trkpt>
      <trkpt lat="43.29714" lon="6.12082">
        <ele>249.60000610352</ele>
        <time>2019-10-24T08:45:21.000Z</time>
      </trkpt>
      <trkpt lat="43.29716" lon="6.12078">
        <ele>249.60000610352</ele>
        <time>2019-10-24T08:45:22.000Z</time>
      </trkpt>
      <trkpt lat="43.29716" lon="6.12053">
        <ele>250.39999389648</ele>
        <time>2019-10-24T08:45:28.000Z</time>
      </trkpt>
      <trkpt lat="43.29715" lon="6.12049">
        <ele>250.60000610352</ele>
        <time>2019-10-24T08:45:29.000Z</time>
      </trkpt>
      <trkpt lat="43.29706" lon="6.12025">
        <ele>251.39999389648</ele>
        <time>2019-10-24T08:45:36.000Z</time>
      </trkpt>
      <trkpt lat="43.29705" lon="6.12021">
        <ele>251.60000610352</ele>
        <time>2019-10-24T08:45:37.000Z</time>
      </trkpt>
      <trkpt lat="43.29689" lon="6.12001">
        <ele>252.39999389648</ele>
        <time>2019-10-24T08:45:44.000Z</time>
      </trkpt>
      <trkpt lat="43.29686" lon="6.12">
        <ele>252.60000610352</ele>
        <time>2019-10-24T08:45:45.000Z</time>
      </trkpt>
      <trkpt lat="43.29677" lon="6.11998">
        <ele>253.19999694824</ele>
        <time>2019-10-24T08:45:48.000Z</time>
      </trkpt>
      <trkpt lat="43.29662" lon="6.12003">
        <ele>253.80000305176</ele>
        <time>2019-10-24T08:45:53.000Z</time>
      </trkpt>
      <trkpt lat="43.29653" lon="6.12006">
        <ele>254</ele>
        <time>2019-10-24T08:45:56.000Z</time>
      </trkpt>
      <trkpt lat="43.29638" lon="6.12013">
        <ele>254.80000305176</ele>
        <time>2019-10-24T08:46:01.000Z</time>
      </trkpt>
      <trkpt lat="43.29627" lon="6.12019">
        <ele>255.39999389648</ele>
        <time>2019-10-24T08:46:05.000Z</time>
      </trkpt>
      <trkpt lat="43.29619" lon="6.12024">
        <ele>255.80000305176</ele>
        <time>2019-10-24T08:46:08.000Z</time>
      </trkpt>
      <trkpt lat="43.29608" lon="6.12033">
        <ele>256.39999389648</ele>
        <time>2019-10-24T08:46:13.000Z</time>
      </trkpt>
      <trkpt lat="43.29598" lon="6.12043">
        <ele>256.79998779297</ele>
        <time>2019-10-24T08:46:17.000Z</time>
      </trkpt>
      <trkpt lat="43.29589" lon="6.1205">
        <ele>257.39999389648</ele>
        <time>2019-10-24T08:46:21.000Z</time>
      </trkpt>
      <trkpt lat="43.29583" lon="6.12055">
        <ele>257.79998779297</ele>
        <time>2019-10-24T08:46:24.000Z</time>
      </trkpt>
      <trkpt lat="43.2958" lon="6.12063">
        <ele>258.20001220703</ele>
        <time>2019-10-24T08:46:27.000Z</time>
      </trkpt>
      <trkpt lat="43.29579" lon="6.12064">
        <ele>258.20001220703</ele>
        <time>2019-10-24T08:46:28.000Z</time>
      </trkpt>
      <trkpt lat="43.29572" lon="6.12069">
        <ele>258.20001220703</ele>
        <time>2019-10-24T08:46:31.000Z</time>
      </trkpt>
      <trkpt lat="43.29555" lon="6.12076">
        <ele>256.39999389648</ele>
        <time>2019-10-24T08:46:36.000Z</time>
      </trkpt>
      <trkpt lat="43.29552" lon="6.12078">
        <ele>255.80000305176</ele>
        <time>2019-10-24T08:46:37.000Z</time>
      </trkpt>
      <trkpt lat="43.2955" lon="6.12079">
        <ele>255.19999694824</ele>
        <time>2019-10-24T08:46:38.000Z</time>
      </trkpt>
      <trkpt lat="43.29546" lon="6.12082">
        <ele>254.19999694824</ele>
        <time>2019-10-24T08:46:40.000Z</time>
      </trkpt>
      <trkpt lat="43.29545" lon="6.12083">
        <ele>253.60000610352</ele>
        <time>2019-10-24T08:46:41.000Z</time>
      </trkpt>
      <trkpt lat="43.29542" lon="6.12088">
        <ele>252.60000610352</ele>
        <time>2019-10-24T08:46:43.000Z</time>
      </trkpt>
      <trkpt lat="43.29538" lon="6.12093">
        <ele>250.80000305176</ele>
        <time>2019-10-24T08:46:45.000Z</time>
      </trkpt>
      <trkpt lat="43.29536" lon="6.12095">
        <ele>250.19999694824</ele>
        <time>2019-10-24T08:46:46.000Z</time>
      </trkpt>
      <trkpt lat="43.29534" lon="6.12097">
        <ele>249.80000305176</ele>
        <time>2019-10-24T08:46:47.000Z</time>
      </trkpt>
      <trkpt lat="43.2953" lon="6.12099">
        <ele>248.60000610352</ele>
        <time>2019-10-24T08:46:49.000Z</time>
      </trkpt>
      <trkpt lat="43.29526" lon="6.12101">
        <ele>247.60000610352</ele>
        <time>2019-10-24T08:46:51.000Z</time>
      </trkpt>
      <trkpt lat="43.29519" lon="6.12104">
        <ele>246.19999694824</ele>
        <time>2019-10-24T08:46:54.000Z</time>
      </trkpt>
      <trkpt lat="43.29513" lon="6.12107">
        <ele>245.80000305176</ele>
        <time>2019-10-24T08:46:56.000Z</time>
      </trkpt>
      <trkpt lat="43.29507" lon="6.12112">
        <ele>245.19999694824</ele>
        <time>2019-10-24T08:46:59.000Z</time>
      </trkpt>
      <trkpt lat="43.29504" lon="6.12113">
        <ele>245</ele>
        <time>2019-10-24T08:47:00.000Z</time>
      </trkpt>
      <trkpt lat="43.29494" lon="6.12117">
        <ele>244</ele>
        <time>2019-10-24T08:47:05.000Z</time>
      </trkpt>
      <trkpt lat="43.29487" lon="6.12119">
        <ele>243.39999389648</ele>
        <time>2019-10-24T08:47:09.000Z</time>
      </trkpt>
      <trkpt lat="43.29485" lon="6.12118">
        <ele>243.19999694824</ele>
        <time>2019-10-24T08:47:10.000Z</time>
      </trkpt>
      <trkpt lat="43.29477" lon="6.1212">
        <ele>243.60000610352</ele>
        <time>2019-10-24T08:47:15.000Z</time>
      </trkpt>
      <trkpt lat="43.29467" lon="6.12126">
        <ele>243.19999694824</ele>
        <time>2019-10-24T08:47:20.000Z</time>
      </trkpt>
      <trkpt lat="43.29465" lon="6.12127">
        <ele>243</ele>
        <time>2019-10-24T08:47:21.000Z</time>
      </trkpt>
      <trkpt lat="43.29457" lon="6.1213">
        <ele>242.39999389648</ele>
        <time>2019-10-24T08:47:24.000Z</time>
      </trkpt>
      <trkpt lat="43.29452" lon="6.12132">
        <ele>241.60000610352</ele>
        <time>2019-10-24T08:47:26.000Z</time>
      </trkpt>
      <trkpt lat="43.29445" lon="6.12135">
        <ele>240.60000610352</ele>
        <time>2019-10-24T08:47:29.000Z</time>
      </trkpt>
      <trkpt lat="43.29442" lon="6.12136">
        <ele>240.60000610352</ele>
        <time>2019-10-24T08:47:30.000Z</time>
      </trkpt>
      <trkpt lat="43.29434" lon="6.12142">
        <ele>239.80000305176</ele>
        <time>2019-10-24T08:47:33.000Z</time>
      </trkpt>
      <trkpt lat="43.29426" lon="6.1215">
        <ele>238.80000305176</ele>
        <time>2019-10-24T08:47:35.000Z</time>
      </trkpt>
      <trkpt lat="43.29424" lon="6.12153">
        <ele>238.19999694824</ele>
        <time>2019-10-24T08:47:36.000Z</time>
      </trkpt>
      <trkpt lat="43.29417" lon="6.12159">
        <ele>237.19999694824</ele>
        <time>2019-10-24T08:47:38.000Z</time>
      </trkpt>
      <trkpt lat="43.29413" lon="6.12162">
        <ele>237</ele>
        <time>2019-10-24T08:47:39.000Z</time>
      </trkpt>
      <trkpt lat="43.29406" lon="6.12167">
        <ele>236.39999389648</ele>
        <time>2019-10-24T08:47:41.000Z</time>
      </trkpt>
      <trkpt lat="43.29402" lon="6.1217">
        <ele>236.19999694824</ele>
        <time>2019-10-24T08:47:42.000Z</time>
      </trkpt>
      <trkpt lat="43.29398" lon="6.12173">
        <ele>235.80000305176</ele>
        <time>2019-10-24T08:47:43.000Z</time>
      </trkpt>
      <trkpt lat="43.29389" lon="6.12178">
        <ele>235.60000610352</ele>
        <time>2019-10-24T08:47:45.000Z</time>
      </trkpt>
      <trkpt lat="43.29386" lon="6.12181">
        <ele>235.19999694824</ele>
        <time>2019-10-24T08:47:46.000Z</time>
      </trkpt>
      <trkpt lat="43.29382" lon="6.12183">
        <ele>234.80000305176</ele>
        <time>2019-10-24T08:47:47.000Z</time>
      </trkpt>
      <trkpt lat="43.29376" lon="6.12189">
        <ele>234.39999389648</ele>
        <time>2019-10-24T08:47:49.000Z</time>
      </trkpt>
      <trkpt lat="43.29368" lon="6.12193">
        <ele>233.60000610352</ele>
        <time>2019-10-24T08:47:51.000Z</time>
      </trkpt>
      <trkpt lat="43.29363" lon="6.12194">
        <ele>233.19999694824</ele>
        <time>2019-10-24T08:47:52.000Z</time>
      </trkpt>
      <trkpt lat="43.29355" lon="6.12196">
        <ele>232.60000610352</ele>
        <time>2019-10-24T08:47:54.000Z</time>
      </trkpt>
      <trkpt lat="43.29351" lon="6.12197">
        <ele>232.39999389648</ele>
        <time>2019-10-24T08:47:55.000Z</time>
      </trkpt>
      <trkpt lat="43.29342" lon="6.122">
        <ele>231.19999694824</ele>
        <time>2019-10-24T08:47:57.000Z</time>
      </trkpt>
      <trkpt lat="43.29324" lon="6.12207">
        <ele>230</ele>
        <time>2019-10-24T08:48:02.000Z</time>
      </trkpt>
      <trkpt lat="43.29306" lon="6.12215">
        <ele>229</ele>
        <time>2019-10-24T08:48:05.000Z</time>
      </trkpt>
      <trkpt lat="43.29299" lon="6.12217">
        <ele>228.80000305176</ele>
        <time>2019-10-24T08:48:06.000Z</time>
      </trkpt>
      <trkpt lat="43.29272" lon="6.12231">
        <ele>228</ele>
        <time>2019-10-24T08:48:10.000Z</time>
      </trkpt>
      <trkpt lat="43.29266" lon="6.12234">
        <ele>227.80000305176</ele>
        <time>2019-10-24T08:48:11.000Z</time>
      </trkpt>
      <trkpt lat="43.29246" lon="6.12243">
        <ele>226.60000610352</ele>
        <time>2019-10-24T08:48:14.000Z</time>
      </trkpt>
      <trkpt lat="43.29239" lon="6.12246">
        <ele>226</ele>
        <time>2019-10-24T08:48:15.000Z</time>
      </trkpt>
      <trkpt lat="43.29225" lon="6.12252">
        <ele>225.19999694824</ele>
        <time>2019-10-24T08:48:17.000Z</time>
      </trkpt>
      <trkpt lat="43.29212" lon="6.12258">
        <ele>224</ele>
        <time>2019-10-24T08:48:19.000Z</time>
      </trkpt>
      <trkpt lat="43.29205" lon="6.12261">
        <ele>223.39999389648</ele>
        <time>2019-10-24T08:48:20.000Z</time>
      </trkpt>
      <trkpt lat="43.29198" lon="6.12265">
        <ele>223</ele>
        <time>2019-10-24T08:48:21.000Z</time>
      </trkpt>
      <trkpt lat="43.29186" lon="6.12272">
        <ele>222.39999389648</ele>
        <time>2019-10-24T08:48:23.000Z</time>
      </trkpt>
      <trkpt lat="43.29181" lon="6.12276">
        <ele>222</ele>
        <time>2019-10-24T08:48:24.000Z</time>
      </trkpt>
      <trkpt lat="43.29176" lon="6.12279">
        <ele>221.39999389648</ele>
        <time>2019-10-24T08:48:25.000Z</time>
      </trkpt>
      <trkpt lat="43.29171" lon="6.12282">
        <ele>221</ele>
        <time>2019-10-24T08:48:26.000Z</time>
      </trkpt>
      <trkpt lat="43.29166" lon="6.12283">
        <ele>220.60000610352</ele>
        <time>2019-10-24T08:48:27.000Z</time>
      </trkpt>
      <trkpt lat="43.29163" lon="6.12284">
        <ele>220.19999694824</ele>
        <time>2019-10-24T08:48:28.000Z</time>
      </trkpt>
      <trkpt lat="43.29157" lon="6.12279">
        <ele>219.39999389648</ele>
        <time>2019-10-24T08:48:31.000Z</time>
      </trkpt>
      <trkpt lat="43.29156" lon="6.12277">
        <ele>219.19999694824</ele>
        <time>2019-10-24T08:48:32.000Z</time>
      </trkpt>
      <trkpt lat="43.2914" lon="6.12258">
        <ele>218.80000305176</ele>
        <time>2019-10-24T08:48:40.000Z</time>
      </trkpt>
      <trkpt lat="43.29131" lon="6.12249">
        <ele>217.80000305176</ele>
        <time>2019-10-24T08:48:43.000Z</time>
      </trkpt>
      <trkpt lat="43.29122" lon="6.12237">
        <ele>216.60000610352</ele>
        <time>2019-10-24T08:48:46.000Z</time>
      </trkpt>
      <trkpt lat="43.29119" lon="6.12233">
        <ele>216.39999389648</ele>
        <time>2019-10-24T08:48:47.000Z</time>
      </trkpt>
      <trkpt lat="43.2911" lon="6.1222">
        <ele>215.39999389648</ele>
        <time>2019-10-24T08:48:50.000Z</time>
      </trkpt>
      <trkpt lat="43.29103" lon="6.1221">
        <ele>214.19999694824</ele>
        <time>2019-10-24T08:48:53.000Z</time>
      </trkpt>
      <trkpt lat="43.29097" lon="6.12202">
        <ele>213</ele>
        <time>2019-10-24T08:48:57.000Z</time>
      </trkpt>
      <trkpt lat="43.29096" lon="6.12201">
        <ele>213</ele>
        <time>2019-10-24T08:48:58.000Z</time>
      </trkpt>
      <trkpt lat="43.29089" lon="6.122">
        <ele>212.19999694824</ele>
        <time>2019-10-24T08:49:03.000Z</time>
      </trkpt>
      <trkpt lat="43.29088" lon="6.12202">
        <ele>211.60000610352</ele>
        <time>2019-10-24T08:49:46.000Z</time>
      </trkpt>
      <trkpt lat="43.29083" lon="6.12203">
        <ele>211.60000610352</ele>
        <time>2019-10-24T08:49:49.000Z</time>
      </trkpt>
      <trkpt lat="43.2908" lon="6.12201">
        <ele>211.60000610352</ele>
        <time>2019-10-24T08:49:51.000Z</time>
      </trkpt>
      <trkpt lat="43.29079" lon="6.12196">
        <ele>211.60000610352</ele>
        <time>2019-10-24T08:49:53.000Z</time>
      </trkpt>
      <trkpt lat="43.2908" lon="6.12188">
        <ele>211.60000610352</ele>
        <time>2019-10-24T08:49:56.000Z</time>
      </trkpt>
      <trkpt lat="43.29084" lon="6.12174">
        <ele>212</ele>
        <time>2019-10-24T08:50:00.000Z</time>
      </trkpt>
      <trkpt lat="43.29096" lon="6.12159">
        <ele>212.39999389648</ele>
        <time>2019-10-24T08:50:06.000Z</time>
      </trkpt>
      <trkpt lat="43.29108" lon="6.12142">
        <ele>212.60000610352</ele>
        <time>2019-10-24T08:50:12.000Z</time>
      </trkpt>
      <trkpt lat="43.2911" lon="6.12138">
        <ele>212.80000305176</ele>
        <time>2019-10-24T08:50:13.000Z</time>
      </trkpt>
      <trkpt lat="43.29115" lon="6.12119">
        <ele>213.39999389648</ele>
        <time>2019-10-24T08:50:18.000Z</time>
      </trkpt>
      <trkpt lat="43.29117" lon="6.12109">
        <ele>213.80000305176</ele>
        <time>2019-10-24T08:50:21.000Z</time>
      </trkpt>
      <trkpt lat="43.29118" lon="6.12104">
        <ele>214.39999389648</ele>
        <time>2019-10-24T08:50:23.000Z</time>
      </trkpt>
      <trkpt lat="43.29119" lon="6.12089">
        <ele>214.80000305176</ele>
        <time>2019-10-24T08:50:28.000Z</time>
      </trkpt>
      <trkpt lat="43.29117" lon="6.12066">
        <ele>215.80000305176</ele>
        <time>2019-10-24T08:50:35.000Z</time>
      </trkpt>
      <trkpt lat="43.29123" lon="6.1205">
        <ele>216.80000305176</ele>
        <time>2019-10-24T08:50:40.000Z</time>
      </trkpt>
      <trkpt lat="43.29124" lon="6.12046">
        <ele>217</ele>
        <time>2019-10-24T08:50:41.000Z</time>
      </trkpt>
      <trkpt lat="43.29129" lon="6.12033">
        <ele>218.19999694824</ele>
        <time>2019-10-24T08:50:45.000Z</time>
      </trkpt>
      <trkpt lat="43.29133" lon="6.12024">
        <ele>218.80000305176</ele>
        <time>2019-10-24T08:50:48.000Z</time>
      </trkpt>
      <trkpt lat="43.29134" lon="6.12021">
        <ele>219.39999389648</ele>
        <time>2019-10-24T08:50:49.000Z</time>
      </trkpt>
      <trkpt lat="43.2914" lon="6.12004">
        <ele>220.60000610352</ele>
        <time>2019-10-24T08:50:54.000Z</time>
      </trkpt>
      <trkpt lat="43.29141" lon="6.12001">
        <ele>220.80000305176</ele>
        <time>2019-10-24T08:50:55.000Z</time>
      </trkpt>
      <trkpt lat="43.29147" lon="6.11978">
        <ele>221</ele>
        <time>2019-10-24T08:51:02.000Z</time>
      </trkpt>
      <trkpt lat="43.2915" lon="6.11969">
        <ele>220.39999389648</ele>
        <time>2019-10-24T08:51:06.000Z</time>
      </trkpt>
      <trkpt lat="43.29155" lon="6.11956">
        <ele>219.80000305176</ele>
        <time>2019-10-24T08:51:12.000Z</time>
      </trkpt>
      <trkpt lat="43.29155" lon="6.11955">
        <ele>219.80000305176</ele>
        <time>2019-10-24T08:51:13.000Z</time>
      </trkpt>
      <trkpt lat="43.29152" lon="6.11961">
        <ele>220</ele>
        <time>2019-10-24T08:51:18.000Z</time>
      </trkpt>
      <trkpt lat="43.2915" lon="6.11968">
        <ele>220</ele>
        <time>2019-10-24T08:51:20.000Z</time>
      </trkpt>
      <trkpt lat="43.29143" lon="6.11985">
        <ele>220.39999389648</ele>
        <time>2019-10-24T08:51:25.000Z</time>
      </trkpt>
      <trkpt lat="43.29138" lon="6.12">
        <ele>221.60000610352</ele>
        <time>2019-10-24T08:51:31.000Z</time>
      </trkpt>
      <trkpt lat="43.29128" lon="6.12027">
        <ele>221</ele>
        <time>2019-10-24T08:51:37.000Z</time>
      </trkpt>
      <trkpt lat="43.29123" lon="6.12039">
        <ele>220.39999389648</ele>
        <time>2019-10-24T08:51:39.000Z</time>
      </trkpt>
      <trkpt lat="43.29118" lon="6.12051">
        <ele>219.60000610352</ele>
        <time>2019-10-24T08:51:41.000Z</time>
      </trkpt>
      <trkpt lat="43.29117" lon="6.12058">
        <ele>219.19999694824</ele>
        <time>2019-10-24T08:51:42.000Z</time>
      </trkpt>
      <trkpt lat="43.29117" lon="6.12065">
        <ele>219</ele>
        <time>2019-10-24T08:51:43.000Z</time>
      </trkpt>
      <trkpt lat="43.29117" lon="6.12088">
        <ele>218.19999694824</ele>
        <time>2019-10-24T08:51:46.000Z</time>
      </trkpt>
      <trkpt lat="43.29116" lon="6.12096">
        <ele>217.80000305176</ele>
        <time>2019-10-24T08:51:47.000Z</time>
      </trkpt>
      <trkpt lat="43.29115" lon="6.12104">
        <ele>217.60000610352</ele>
        <time>2019-10-24T08:51:48.000Z</time>
      </trkpt>
      <trkpt lat="43.29114" lon="6.12113">
        <ele>217</ele>
        <time>2019-10-24T08:51:49.000Z</time>
      </trkpt>
      <trkpt lat="43.29113" lon="6.12121">
        <ele>216.60000610352</ele>
        <time>2019-10-24T08:51:50.000Z</time>
      </trkpt>
      <trkpt lat="43.29108" lon="6.12137">
        <ele>215.80000305176</ele>
        <time>2019-10-24T08:51:52.000Z</time>
      </trkpt>
      <trkpt lat="43.29097" lon="6.12154">
        <ele>214.60000610352</ele>
        <time>2019-10-24T08:51:55.000Z</time>
      </trkpt>
      <trkpt lat="43.29093" lon="6.12159">
        <ele>214.39999389648</ele>
        <time>2019-10-24T08:51:56.000Z</time>
      </trkpt>
      <trkpt lat="43.29086" lon="6.12169">
        <ele>214.19999694824</ele>
        <time>2019-10-24T08:51:58.000Z</time>
      </trkpt>
      <trkpt lat="43.29081" lon="6.12186">
        <ele>214</ele>
        <time>2019-10-24T08:52:01.000Z</time>
      </trkpt>
      <trkpt lat="43.29071" lon="6.12204">
        <ele>213.60000610352</ele>
        <time>2019-10-24T08:52:05.000Z</time>
      </trkpt>
      <trkpt lat="43.29068" lon="6.12206">
        <ele>213.60000610352</ele>
        <time>2019-10-24T08:52:06.000Z</time>
      </trkpt>
      <trkpt lat="43.29046" lon="6.12217">
        <ele>213</ele>
        <time>2019-10-24T08:52:11.000Z</time>
      </trkpt>
      <trkpt lat="43.29032" lon="6.12224">
        <ele>212.60000610352</ele>
        <time>2019-10-24T08:52:14.000Z</time>
      </trkpt>
      <trkpt lat="43.29019" lon="6.12232">
        <ele>211.80000305176</ele>
        <time>2019-10-24T08:52:17.000Z</time>
      </trkpt>
      <trkpt lat="43.29016" lon="6.12236">
        <ele>211.60000610352</ele>
        <time>2019-10-24T08:52:18.000Z</time>
      </trkpt>
      <trkpt lat="43.29009" lon="6.12244">
        <ele>211.60000610352</ele>
        <time>2019-10-24T08:52:20.000Z</time>
      </trkpt>
      <trkpt lat="43.29004" lon="6.12251">
        <ele>211.39999389648</ele>
        <time>2019-10-24T08:52:22.000Z</time>
      </trkpt>
      <trkpt lat="43.28997" lon="6.12246">
        <ele>211</ele>
        <time>2019-10-24T08:52:25.000Z</time>
      </trkpt>
      <trkpt lat="43.28994" lon="6.12237">
        <ele>210.39999389648</ele>
        <time>2019-10-24T08:52:27.000Z</time>
      </trkpt>
      <trkpt lat="43.28993" lon="6.12232">
        <ele>210</ele>
        <time>2019-10-24T08:52:28.000Z</time>
      </trkpt>
      <trkpt lat="43.28991" lon="6.12221">
        <ele>209.80000305176</ele>
        <time>2019-10-24T08:52:30.000Z</time>
      </trkpt>
      <trkpt lat="43.28991" lon="6.12184">
        <ele>209.39999389648</ele>
        <time>2019-10-24T08:52:37.000Z</time>
      </trkpt>
      <trkpt lat="43.28987" lon="6.12159">
        <ele>209.60000610352</ele>
        <time>2019-10-24T08:52:42.000Z</time>
      </trkpt>
      <trkpt lat="43.28979" lon="6.12126">
        <ele>210.39999389648</ele>
        <time>2019-10-24T08:52:49.000Z</time>
      </trkpt>
      <trkpt lat="43.28973" lon="6.121">
        <ele>211.60000610352</ele>
        <time>2019-10-24T08:52:55.000Z</time>
      </trkpt>
      <trkpt lat="43.28967" lon="6.1208">
        <ele>212.60000610352</ele>
        <time>2019-10-24T08:53:00.000Z</time>
      </trkpt>
      <trkpt lat="43.28965" lon="6.12072">
        <ele>213</ele>
        <time>2019-10-24T08:53:02.000Z</time>
      </trkpt>
      <trkpt lat="43.28963" lon="6.12065">
        <ele>213.39999389648</ele>
        <time>2019-10-24T08:53:04.000Z</time>
      </trkpt>
      <trkpt lat="43.28959" lon="6.12054">
        <ele>214.60000610352</ele>
        <time>2019-10-24T08:53:07.000Z</time>
      </trkpt>
      <trkpt lat="43.28958" lon="6.1205">
        <ele>215.19999694824</ele>
        <time>2019-10-24T08:53:08.000Z</time>
      </trkpt>
      <trkpt lat="43.28955" lon="6.12042">
        <ele>215.80000305176</ele>
        <time>2019-10-24T08:53:10.000Z</time>
      </trkpt>
      <trkpt lat="43.2895" lon="6.12031">
        <ele>217</ele>
        <time>2019-10-24T08:53:13.000Z</time>
      </trkpt>
      <trkpt lat="43.28945" lon="6.12022">
        <ele>218.19999694824</ele>
        <time>2019-10-24T08:53:16.000Z</time>
      </trkpt>
      <trkpt lat="43.28937" lon="6.12005">
        <ele>219.39999389648</ele>
        <time>2019-10-24T08:53:21.000Z</time>
      </trkpt>
      <trkpt lat="43.28931" lon="6.11992">
        <ele>220.39999389648</ele>
        <time>2019-10-24T08:53:25.000Z</time>
      </trkpt>
      <trkpt lat="43.28927" lon="6.11977">
        <ele>221.60000610352</ele>
        <time>2019-10-24T08:53:29.000Z</time>
      </trkpt>
      <trkpt lat="43.28926" lon="6.11969">
        <ele>222.19999694824</ele>
        <time>2019-10-24T08:53:31.000Z</time>
      </trkpt>
      <trkpt lat="43.28926" lon="6.11959">
        <ele>222.60000610352</ele>
        <time>2019-10-24T08:53:33.000Z</time>
      </trkpt>
      <trkpt lat="43.28928" lon="6.11938">
        <ele>223.19999694824</ele>
        <time>2019-10-24T08:53:37.000Z</time>
      </trkpt>
      <trkpt lat="43.28933" lon="6.11906">
        <ele>222.60000610352</ele>
        <time>2019-10-24T08:53:42.000Z</time>
      </trkpt>
      <trkpt lat="43.28933" lon="6.11899">
        <ele>222.60000610352</ele>
        <time>2019-10-24T08:53:43.000Z</time>
      </trkpt>
      <trkpt lat="43.28926" lon="6.11857">
        <ele>221.80000305176</ele>
        <time>2019-10-24T08:53:49.000Z</time>
      </trkpt>
      <trkpt lat="43.28924" lon="6.11831">
        <ele>221.60000610352</ele>
        <time>2019-10-24T08:53:52.000Z</time>
      </trkpt>
      <trkpt lat="43.28924" lon="6.11813">
        <ele>221</ele>
        <time>2019-10-24T08:53:54.000Z</time>
      </trkpt>
      <trkpt lat="43.28925" lon="6.11805">
        <ele>220.39999389648</ele>
        <time>2019-10-24T08:53:55.000Z</time>
      </trkpt>
      <trkpt lat="43.28932" lon="6.11783">
        <ele>219.19999694824</ele>
        <time>2019-10-24T08:53:58.000Z</time>
      </trkpt>
      <trkpt lat="43.28943" lon="6.11773">
        <ele>218</ele>
        <time>2019-10-24T08:54:01.000Z</time>
      </trkpt>
      <trkpt lat="43.28951" lon="6.11762">
        <ele>217.39999389648</ele>
        <time>2019-10-24T08:54:04.000Z</time>
      </trkpt>
      <trkpt lat="43.28949" lon="6.11741">
        <ele>217.39999389648</ele>
        <time>2019-10-24T08:54:08.000Z</time>
      </trkpt>
      <trkpt lat="43.28948" lon="6.11736">
        <ele>217.39999389648</ele>
        <time>2019-10-24T08:54:09.000Z</time>
      </trkpt>
      <trkpt lat="43.28937" lon="6.11695">
        <ele>218.19999694824</ele>
        <time>2019-10-24T08:54:17.000Z</time>
      </trkpt>
      <trkpt lat="43.28938" lon="6.11669">
        <ele>218.80000305176</ele>
        <time>2019-10-24T08:54:22.000Z</time>
      </trkpt>
      <trkpt lat="43.28938" lon="6.11654">
        <ele>219</ele>
        <time>2019-10-24T08:54:25.000Z</time>
      </trkpt>
      <trkpt lat="43.28937" lon="6.1163">
        <ele>219.19999694824</ele>
        <time>2019-10-24T08:54:30.000Z</time>
      </trkpt>
      <trkpt lat="43.28936" lon="6.11618">
        <ele>220</ele>
        <time>2019-10-24T08:54:33.000Z</time>
      </trkpt>
      <trkpt lat="43.28935" lon="6.11605">
        <ele>220.80000305176</ele>
        <time>2019-10-24T08:54:36.000Z</time>
      </trkpt>
      <trkpt lat="43.28934" lon="6.116">
        <ele>221.19999694824</ele>
        <time>2019-10-24T08:54:37.000Z</time>
      </trkpt>
      <trkpt lat="43.28934" lon="6.1158">
        <ele>222</ele>
        <time>2019-10-24T08:54:42.000Z</time>
      </trkpt>
      <trkpt lat="43.28934" lon="6.11577">
        <ele>222.39999389648</ele>
        <time>2019-10-24T08:54:43.000Z</time>
      </trkpt>
      <trkpt lat="43.28933" lon="6.11558">
        <ele>223.39999389648</ele>
        <time>2019-10-24T08:54:48.000Z</time>
      </trkpt>
      <trkpt lat="43.28932" lon="6.11554">
        <ele>223.80000305176</ele>
        <time>2019-10-24T08:54:49.000Z</time>
      </trkpt>
      <trkpt lat="43.28932" lon="6.11547">
        <ele>224.39999389648</ele>
        <time>2019-10-24T08:54:51.000Z</time>
      </trkpt>
      <trkpt lat="43.28931" lon="6.11535">
        <ele>225.39999389648</ele>
        <time>2019-10-24T08:54:54.000Z</time>
      </trkpt>
      <trkpt lat="43.2893" lon="6.11527">
        <ele>226</ele>
        <time>2019-10-24T08:54:56.000Z</time>
      </trkpt>
      <trkpt lat="43.28929" lon="6.11515">
        <ele>226.39999389648</ele>
        <time>2019-10-24T08:54:59.000Z</time>
      </trkpt>
      <trkpt lat="43.28927" lon="6.11498">
        <ele>227.80000305176</ele>
        <time>2019-10-24T08:55:03.000Z</time>
      </trkpt>
      <trkpt lat="43.28927" lon="6.11483">
        <ele>229</ele>
        <time>2019-10-24T08:55:07.000Z</time>
      </trkpt>
      <trkpt lat="43.28928" lon="6.11476">
        <ele>229.60000610352</ele>
        <time>2019-10-24T08:55:09.000Z</time>
      </trkpt>
      <trkpt lat="43.28928" lon="6.1147">
        <ele>230.19999694824</ele>
        <time>2019-10-24T08:55:11.000Z</time>
      </trkpt>
      <trkpt lat="43.2893" lon="6.11458">
        <ele>231.39999389648</ele>
        <time>2019-10-24T08:55:15.000Z</time>
      </trkpt>
      <trkpt lat="43.28931" lon="6.11455">
        <ele>231.60000610352</ele>
        <time>2019-10-24T08:55:16.000Z</time>
      </trkpt>
      <trkpt lat="43.28932" lon="6.1145">
        <ele>232.19999694824</ele>
        <time>2019-10-24T08:55:18.000Z</time>
      </trkpt>
      <trkpt lat="43.28932" lon="6.11446">
        <ele>232.39999389648</ele>
        <time>2019-10-24T08:55:19.000Z</time>
      </trkpt>
      <trkpt lat="43.28933" lon="6.11443">
        <ele>232.60000610352</ele>
        <time>2019-10-24T08:55:20.000Z</time>
      </trkpt>
      <trkpt lat="43.28933" lon="6.11436">
        <ele>233.60000610352</ele>
        <time>2019-10-24T08:55:22.000Z</time>
      </trkpt>
      <trkpt lat="43.28936" lon="6.11424">
        <ele>235.19999694824</ele>
        <time>2019-10-24T08:55:26.000Z</time>
      </trkpt>
      <trkpt lat="43.28936" lon="6.1141">
        <ele>236.39999389648</ele>
        <time>2019-10-24T08:55:30.000Z</time>
      </trkpt>
      <trkpt lat="43.28935" lon="6.11407">
        <ele>236.60000610352</ele>
        <time>2019-10-24T08:55:31.000Z</time>
      </trkpt>
      <trkpt lat="43.28932" lon="6.11397">
        <ele>237.39999389648</ele>
        <time>2019-10-24T08:55:34.000Z</time>
      </trkpt>
      <trkpt lat="43.28928" lon="6.11384">
        <ele>238.19999694824</ele>
        <time>2019-10-24T08:55:37.000Z</time>
      </trkpt>
      <trkpt lat="43.28926" lon="6.1138">
        <ele>238.39999389648</ele>
        <time>2019-10-24T08:55:38.000Z</time>
      </trkpt>
      <trkpt lat="43.28921" lon="6.11367">
        <ele>239.39999389648</ele>
        <time>2019-10-24T08:55:43.000Z</time>
      </trkpt>
      <trkpt lat="43.28916" lon="6.11351">
        <ele>240.60000610352</ele>
        <time>2019-10-24T08:55:48.000Z</time>
      </trkpt>
      <trkpt lat="43.28915" lon="6.11348">
        <ele>240.60000610352</ele>
        <time>2019-10-24T08:55:49.000Z</time>
      </trkpt>
      <trkpt lat="43.28912" lon="6.11334">
        <ele>241.80000305176</ele>
        <time>2019-10-24T08:55:53.000Z</time>
      </trkpt>
      <trkpt lat="43.2891" lon="6.11328">
        <ele>242.19999694824</ele>
        <time>2019-10-24T08:55:55.000Z</time>
      </trkpt>
      <trkpt lat="43.28907" lon="6.11318">
        <ele>242.80000305176</ele>
        <time>2019-10-24T08:55:58.000Z</time>
      </trkpt>
      <trkpt lat="43.28905" lon="6.11308">
        <ele>243</ele>
        <time>2019-10-24T08:56:01.000Z</time>
      </trkpt>
      <trkpt lat="43.289" lon="6.11283">
        <ele>242.19999694824</ele>
        <time>2019-10-24T08:56:06.000Z</time>
      </trkpt>
      <trkpt lat="43.28889" lon="6.11245">
        <ele>242</ele>
        <time>2019-10-24T08:56:14.000Z</time>
      </trkpt>
      <trkpt lat="43.28875" lon="6.11213">
        <ele>242.39999389648</ele>
        <time>2019-10-24T08:56:21.000Z</time>
      </trkpt>
      <trkpt lat="43.28868" lon="6.11196">
        <ele>243.60000610352</ele>
        <time>2019-10-24T08:56:26.000Z</time>
      </trkpt>
      <trkpt lat="43.28865" lon="6.1119">
        <ele>244</ele>
        <time>2019-10-24T08:56:28.000Z</time>
      </trkpt>
      <trkpt lat="43.28863" lon="6.11174">
        <ele>245</ele>
        <time>2019-10-24T08:56:32.000Z</time>
      </trkpt>
      <trkpt lat="43.28861" lon="6.1115">
        <ele>244.80000305176</ele>
        <time>2019-10-24T08:56:37.000Z</time>
      </trkpt>
      <trkpt lat="43.28851" lon="6.11123">
        <ele>244.39999389648</ele>
        <time>2019-10-24T08:56:43.000Z</time>
      </trkpt>
      <trkpt lat="43.2884" lon="6.11103">
        <ele>245.39999389648</ele>
        <time>2019-10-24T08:56:49.000Z</time>
      </trkpt>
      <trkpt lat="43.28834" lon="6.11093">
        <ele>246.19999694824</ele>
        <time>2019-10-24T08:56:52.000Z</time>
      </trkpt>
      <trkpt lat="43.28827" lon="6.11083">
        <ele>246.80000305176</ele>
        <time>2019-10-24T08:56:55.000Z</time>
      </trkpt>
      <trkpt lat="43.28822" lon="6.11077">
        <ele>247.39999389648</ele>
        <time>2019-10-24T08:56:57.000Z</time>
      </trkpt>
      <trkpt lat="43.28807" lon="6.11062">
        <ele>248.39999389648</ele>
        <time>2019-10-24T08:57:02.000Z</time>
      </trkpt>
      <trkpt lat="43.28804" lon="6.1106">
        <ele>248.80000305176</ele>
        <time>2019-10-24T08:57:03.000Z</time>
      </trkpt>
      <trkpt lat="43.28794" lon="6.11052">
        <ele>250</ele>
        <time>2019-10-24T08:57:07.000Z</time>
      </trkpt>
      <trkpt lat="43.28792" lon="6.1105">
        <ele>250.19999694824</ele>
        <time>2019-10-24T08:57:08.000Z</time>
      </trkpt>
      <trkpt lat="43.28786" lon="6.11044">
        <ele>251.19999694824</ele>
        <time>2019-10-24T08:57:11.000Z</time>
      </trkpt>
      <trkpt lat="43.28783" lon="6.11038">
        <ele>251.60000610352</ele>
        <time>2019-10-24T08:57:13.000Z</time>
      </trkpt>
      <trkpt lat="43.28779" lon="6.11031">
        <ele>252.39999389648</ele>
        <time>2019-10-24T08:57:16.000Z</time>
      </trkpt>
      <trkpt lat="43.28776" lon="6.11026">
        <ele>253.39999389648</ele>
        <time>2019-10-24T08:57:18.000Z</time>
      </trkpt>
      <trkpt lat="43.28773" lon="6.11021">
        <ele>254</ele>
        <time>2019-10-24T08:57:20.000Z</time>
      </trkpt>
      <trkpt lat="43.28768" lon="6.11016">
        <ele>254.39999389648</ele>
        <time>2019-10-24T08:57:22.000Z</time>
      </trkpt>
      <trkpt lat="43.28766" lon="6.11013">
        <ele>254.80000305176</ele>
        <time>2019-10-24T08:57:23.000Z</time>
      </trkpt>
      <trkpt lat="43.28764" lon="6.11011">
        <ele>255</ele>
        <time>2019-10-24T08:57:24.000Z</time>
      </trkpt>
      <trkpt lat="43.28762" lon="6.11009">
        <ele>255.39999389648</ele>
        <time>2019-10-24T08:57:25.000Z</time>
      </trkpt>
      <trkpt lat="43.28754" lon="6.11">
        <ele>256.60000610352</ele>
        <time>2019-10-24T08:57:29.000Z</time>
      </trkpt>
      <trkpt lat="43.28752" lon="6.10997">
        <ele>257</ele>
        <time>2019-10-24T08:57:30.000Z</time>
      </trkpt>
      <trkpt lat="43.28751" lon="6.10995">
        <ele>257.20001220703</ele>
        <time>2019-10-24T08:57:31.000Z</time>
      </trkpt>
      <trkpt lat="43.28746" lon="6.10987">
        <ele>257.79998779297</ele>
        <time>2019-10-24T08:57:34.000Z</time>
      </trkpt>
      <trkpt lat="43.28745" lon="6.10983">
        <ele>257.79998779297</ele>
        <time>2019-10-24T08:57:35.000Z</time>
      </trkpt>
      <trkpt lat="43.2874" lon="6.10976">
        <ele>259.20001220703</ele>
        <time>2019-10-24T08:57:38.000Z</time>
      </trkpt>
      <trkpt lat="43.28734" lon="6.10966">
        <ele>259.79998779297</ele>
        <time>2019-10-24T08:57:41.000Z</time>
      </trkpt>
      <trkpt lat="43.28731" lon="6.10963">
        <ele>260.20001220703</ele>
        <time>2019-10-24T08:57:42.000Z</time>
      </trkpt>
      <trkpt lat="43.28722" lon="6.10943">
        <ele>261.39999389648</ele>
        <time>2019-10-24T08:57:48.000Z</time>
      </trkpt>
      <trkpt lat="43.28714" lon="6.10932">
        <ele>262.60000610352</ele>
        <time>2019-10-24T08:57:52.000Z</time>
      </trkpt>
      <trkpt lat="43.28709" lon="6.10924">
        <ele>263.79998779297</ele>
        <time>2019-10-24T08:57:55.000Z</time>
      </trkpt>
      <trkpt lat="43.28708" lon="6.10921">
        <ele>264</ele>
        <time>2019-10-24T08:57:56.000Z</time>
      </trkpt>
      <trkpt lat="43.28701" lon="6.10908">
        <ele>265</ele>
        <time>2019-10-24T08:58:01.000Z</time>
      </trkpt>
      <trkpt lat="43.28699" lon="6.10906">
        <ele>265.39999389648</ele>
        <time>2019-10-24T08:58:02.000Z</time>
      </trkpt>
      <trkpt lat="43.28692" lon="6.10896">
        <ele>266.20001220703</ele>
        <time>2019-10-24T08:58:06.000Z</time>
      </trkpt>
      <trkpt lat="43.28688" lon="6.10891">
        <ele>267.20001220703</ele>
        <time>2019-10-24T08:58:08.000Z</time>
      </trkpt>
      <trkpt lat="43.28687" lon="6.10889">
        <ele>267.60000610352</ele>
        <time>2019-10-24T08:58:09.000Z</time>
      </trkpt>
      <trkpt lat="43.28678" lon="6.10876">
        <ele>268.79998779297</ele>
        <time>2019-10-24T08:58:14.000Z</time>
      </trkpt>
      <trkpt lat="43.28676" lon="6.10873">
        <ele>269</ele>
        <time>2019-10-24T08:58:15.000Z</time>
      </trkpt>
      <trkpt lat="43.28673" lon="6.1087">
        <ele>269.39999389648</ele>
        <time>2019-10-24T08:58:19.000Z</time>
      </trkpt>
      <trkpt lat="43.28669" lon="6.10865">
        <ele>269.60000610352</ele>
        <time>2019-10-24T08:58:33.000Z</time>
      </trkpt>
      <trkpt lat="43.28666" lon="6.10861">
        <ele>269.79998779297</ele>
        <time>2019-10-24T08:58:35.000Z</time>
      </trkpt>
      <trkpt lat="43.28664" lon="6.10859">
        <ele>269.79998779297</ele>
        <time>2019-10-24T08:58:36.000Z</time>
      </trkpt>
      <trkpt lat="43.28653" lon="6.10847">
        <ele>271</ele>
        <time>2019-10-24T08:58:41.000Z</time>
      </trkpt>
      <trkpt lat="43.28651" lon="6.10844">
        <ele>271.20001220703</ele>
        <time>2019-10-24T08:58:42.000Z</time>
      </trkpt>
      <trkpt lat="43.28644" lon="6.10834">
        <ele>271.79998779297</ele>
        <time>2019-10-24T08:58:47.000Z</time>
      </trkpt>
      <trkpt lat="43.28642" lon="6.10832">
        <ele>272</ele>
        <time>2019-10-24T08:58:48.000Z</time>
      </trkpt>
      <trkpt lat="43.28635" lon="6.10819">
        <ele>272.79998779297</ele>
        <time>2019-10-24T08:58:53.000Z</time>
      </trkpt>
      <trkpt lat="43.28633" lon="6.10817">
        <ele>273</ele>
        <time>2019-10-24T08:58:54.000Z</time>
      </trkpt>
      <trkpt lat="43.28629" lon="6.10802">
        <ele>274.20001220703</ele>
        <time>2019-10-24T08:58:59.000Z</time>
      </trkpt>
      <trkpt lat="43.28628" lon="6.10798">
        <ele>274.39999389648</ele>
        <time>2019-10-24T08:59:00.000Z</time>
      </trkpt>
      <trkpt lat="43.28627" lon="6.10784">
        <ele>275.20001220703</ele>
        <time>2019-10-24T08:59:04.000Z</time>
      </trkpt>
      <trkpt lat="43.28627" lon="6.1078">
        <ele>275.39999389648</ele>
        <time>2019-10-24T08:59:05.000Z</time>
      </trkpt>
      <trkpt lat="43.28628" lon="6.10775">
        <ele>275.60000610352</ele>
        <time>2019-10-24T08:59:07.000Z</time>
      </trkpt>
      <trkpt lat="43.28627" lon="6.10769">
        <ele>276</ele>
        <time>2019-10-24T08:59:09.000Z</time>
      </trkpt>
      <trkpt lat="43.28626" lon="6.10764">
        <ele>276.39999389648</ele>
        <time>2019-10-24T08:59:11.000Z</time>
      </trkpt>
      <trkpt lat="43.28625" lon="6.10761">
        <ele>276.60000610352</ele>
        <time>2019-10-24T08:59:12.000Z</time>
      </trkpt>
      <trkpt lat="43.28622" lon="6.10751">
        <ele>277.39999389648</ele>
        <time>2019-10-24T08:59:16.000Z</time>
      </trkpt>
      <trkpt lat="43.28621" lon="6.10745">
        <ele>278</ele>
        <time>2019-10-24T08:59:18.000Z</time>
      </trkpt>
      <trkpt lat="43.28619" lon="6.1074">
        <ele>278.60000610352</ele>
        <time>2019-10-24T08:59:20.000Z</time>
      </trkpt>
      <trkpt lat="43.28615" lon="6.10731">
        <ele>279.60000610352</ele>
        <time>2019-10-24T08:59:24.000Z</time>
      </trkpt>
      <trkpt lat="43.28613" lon="6.10728">
        <ele>279.79998779297</ele>
        <time>2019-10-24T08:59:25.000Z</time>
      </trkpt>
      <trkpt lat="43.28606" lon="6.1071">
        <ele>280.79998779297</ele>
        <time>2019-10-24T08:59:31.000Z</time>
      </trkpt>
      <trkpt lat="43.28603" lon="6.10704">
        <ele>281.20001220703</ele>
        <time>2019-10-24T08:59:33.000Z</time>
      </trkpt>
      <trkpt lat="43.28598" lon="6.10692">
        <ele>282</ele>
        <time>2019-10-24T08:59:37.000Z</time>
      </trkpt>
      <trkpt lat="43.28595" lon="6.10685">
        <ele>282.79998779297</ele>
        <time>2019-10-24T08:59:40.000Z</time>
      </trkpt>
      <trkpt lat="43.28592" lon="6.1068">
        <ele>283</ele>
        <time>2019-10-24T08:59:42.000Z</time>
      </trkpt>
      <trkpt lat="43.28587" lon="6.10673">
        <ele>284.20001220703</ele>
        <time>2019-10-24T08:59:45.000Z</time>
      </trkpt>
      <trkpt lat="43.28582" lon="6.10661">
        <ele>284.79998779297</ele>
        <time>2019-10-24T08:59:49.000Z</time>
      </trkpt>
      <trkpt lat="43.28576" lon="6.10638">
        <ele>284.39999389648</ele>
        <time>2019-10-24T08:59:55.000Z</time>
      </trkpt>
      <trkpt lat="43.28568" lon="6.10621">
        <ele>284.60000610352</ele>
        <time>2019-10-24T09:00:00.000Z</time>
      </trkpt>
      <trkpt lat="43.28553" lon="6.10609">
        <ele>285.20001220703</ele>
        <time>2019-10-24T09:00:06.000Z</time>
      </trkpt>
      <trkpt lat="43.28542" lon="6.10596">
        <ele>286.39999389648</ele>
        <time>2019-10-24T09:00:12.000Z</time>
      </trkpt>
      <trkpt lat="43.28537" lon="6.10588">
        <ele>287.60000610352</ele>
        <time>2019-10-24T09:00:16.000Z</time>
      </trkpt>
      <trkpt lat="43.28533" lon="6.10581">
        <ele>288.39999389648</ele>
        <time>2019-10-24T09:00:19.000Z</time>
      </trkpt>
      <trkpt lat="43.28532" lon="6.10579">
        <ele>289</ele>
        <time>2019-10-24T09:00:20.000Z</time>
      </trkpt>
      <trkpt lat="43.2853" lon="6.1057">
        <ele>290.20001220703</ele>
        <time>2019-10-24T09:00:23.000Z</time>
      </trkpt>
      <trkpt lat="43.28527" lon="6.10562">
        <ele>291</ele>
        <time>2019-10-24T09:00:26.000Z</time>
      </trkpt>
      <trkpt lat="43.28524" lon="6.10557">
        <ele>291</ele>
        <time>2019-10-24T09:00:28.000Z</time>
      </trkpt>
      <trkpt lat="43.28519" lon="6.10542">
        <ele>292</ele>
        <time>2019-10-24T09:00:33.000Z</time>
      </trkpt>
      <trkpt lat="43.28514" lon="6.10528">
        <ele>293.20001220703</ele>
        <time>2019-10-24T09:00:38.000Z</time>
      </trkpt>
      <trkpt lat="43.28512" lon="6.10524">
        <ele>293.79998779297</ele>
        <time>2019-10-24T09:00:40.000Z</time>
      </trkpt>
      <trkpt lat="43.28511" lon="6.10521">
        <ele>294.39999389648</ele>
        <time>2019-10-24T09:00:41.000Z</time>
      </trkpt>
      <trkpt lat="43.28508" lon="6.10512">
        <ele>295.60000610352</ele>
        <time>2019-10-24T09:00:45.000Z</time>
      </trkpt>
      <trkpt lat="43.28502" lon="6.10497">
        <ele>296.60000610352</ele>
        <time>2019-10-24T09:00:50.000Z</time>
      </trkpt>
      <trkpt lat="43.28502" lon="6.10494">
        <ele>297</ele>
        <time>2019-10-24T09:00:51.000Z</time>
      </trkpt>
      <trkpt lat="43.28499" lon="6.10488">
        <ele>297.60000610352</ele>
        <time>2019-10-24T09:00:53.000Z</time>
      </trkpt>
      <trkpt lat="43.28496" lon="6.10481">
        <ele>298</ele>
        <time>2019-10-24T09:00:56.000Z</time>
      </trkpt>
      <trkpt lat="43.28493" lon="6.10472">
        <ele>298.79998779297</ele>
        <time>2019-10-24T09:00:59.000Z</time>
      </trkpt>
      <trkpt lat="43.28492" lon="6.10466">
        <ele>299.39999389648</ele>
        <time>2019-10-24T09:01:01.000Z</time>
      </trkpt>
      <trkpt lat="43.2849" lon="6.10461">
        <ele>299.79998779297</ele>
        <time>2019-10-24T09:01:03.000Z</time>
      </trkpt>
      <trkpt lat="43.28485" lon="6.10449">
        <ele>300.39999389648</ele>
        <time>2019-10-24T09:01:07.000Z</time>
      </trkpt>
      <trkpt lat="43.28479" lon="6.10433">
        <ele>300.39999389648</ele>
        <time>2019-10-24T09:01:12.000Z</time>
      </trkpt>
      <trkpt lat="43.28476" lon="6.10427">
        <ele>301</ele>
        <time>2019-10-24T09:01:14.000Z</time>
      </trkpt>
      <trkpt lat="43.28471" lon="6.10412">
        <ele>301.20001220703</ele>
        <time>2019-10-24T09:01:18.000Z</time>
      </trkpt>
      <trkpt lat="43.28467" lon="6.10401">
        <ele>302.20001220703</ele>
        <time>2019-10-24T09:01:21.000Z</time>
      </trkpt>
      <trkpt lat="43.28461" lon="6.10386">
        <ele>303</ele>
        <time>2019-10-24T09:01:25.000Z</time>
      </trkpt>
      <trkpt lat="43.28459" lon="6.10364">
        <ele>303</ele>
        <time>2019-10-24T09:01:30.000Z</time>
      </trkpt>
      <trkpt lat="43.28459" lon="6.10346">
        <ele>302.60000610352</ele>
        <time>2019-10-24T09:01:35.000Z</time>
      </trkpt>
      <trkpt lat="43.28459" lon="6.10316">
        <ele>303</ele>
        <time>2019-10-24T09:01:42.000Z</time>
      </trkpt>
      <trkpt lat="43.2846" lon="6.10312">
        <ele>303.39999389648</ele>
        <time>2019-10-24T09:01:43.000Z</time>
      </trkpt>
      <trkpt lat="43.28464" lon="6.10299">
        <ele>304.79998779297</ele>
        <time>2019-10-24T09:01:47.000Z</time>
      </trkpt>
      <trkpt lat="43.28464" lon="6.10295">
        <ele>305.20001220703</ele>
        <time>2019-10-24T09:01:48.000Z</time>
      </trkpt>
      <trkpt lat="43.28466" lon="6.10289">
        <ele>306</ele>
        <time>2019-10-24T09:01:50.000Z</time>
      </trkpt>
      <trkpt lat="43.28469" lon="6.10278">
        <ele>307</ele>
        <time>2019-10-24T09:01:54.000Z</time>
      </trkpt>
      <trkpt lat="43.28471" lon="6.10276">
        <ele>307.20001220703</ele>
        <time>2019-10-24T09:01:55.000Z</time>
      </trkpt>
      <trkpt lat="43.28474" lon="6.10269">
        <ele>308.60000610352</ele>
        <time>2019-10-24T09:01:58.000Z</time>
      </trkpt>
      <trkpt lat="43.28476" lon="6.10262">
        <ele>309.39999389648</ele>
        <time>2019-10-24T09:02:00.000Z</time>
      </trkpt>
      <trkpt lat="43.28478" lon="6.10259">
        <ele>310</ele>
        <time>2019-10-24T09:02:01.000Z</time>
      </trkpt>
      <trkpt lat="43.28483" lon="6.10247">
        <ele>311</ele>
        <time>2019-10-24T09:02:05.000Z</time>
      </trkpt>
      <trkpt lat="43.28487" lon="6.10237">
        <ele>312.39999389648</ele>
        <time>2019-10-24T09:02:09.000Z</time>
      </trkpt>
      <trkpt lat="43.28488" lon="6.10234">
        <ele>312.39999389648</ele>
        <time>2019-10-24T09:02:10.000Z</time>
      </trkpt>
      <trkpt lat="43.28493" lon="6.10223">
        <ele>312.39999389648</ele>
        <time>2019-10-24T09:02:14.000Z</time>
      </trkpt>
      <trkpt lat="43.28497" lon="6.10212">
        <ele>312.39999389648</ele>
        <time>2019-10-24T09:02:18.000Z</time>
      </trkpt>
      <trkpt lat="43.28501" lon="6.10195">
        <ele>313.79998779297</ele>
        <time>2019-10-24T09:02:24.000Z</time>
      </trkpt>
      <trkpt lat="43.28501" lon="6.10187">
        <ele>315.20001220703</ele>
        <time>2019-10-24T09:02:27.000Z</time>
      </trkpt>
      <trkpt lat="43.28501" lon="6.10186">
        <ele>315.39999389648</ele>
        <time>2019-10-24T09:02:28.000Z</time>
      </trkpt>
      <trkpt lat="43.28501" lon="6.10186">
        <ele>316</ele>
        <time>2019-10-24T09:02:29.000Z</time>
      </trkpt>
      <trkpt lat="43.28498" lon="6.10118">
        <ele>332.60000610352</ele>
        <time>2019-10-24T09:06:56.000Z</time>
      </trkpt>
      <trkpt lat="43.28497" lon="6.10113">
        <ele>332.60000610352</ele>
        <time>2019-10-24T09:06:58.000Z</time>
      </trkpt>
      <trkpt lat="43.28496" lon="6.10111">
        <ele>332.60000610352</ele>
        <time>2019-10-24T09:06:59.000Z</time>
      </trkpt>
      <trkpt lat="43.28496" lon="6.10101">
        <ele>332.39999389648</ele>
        <time>2019-10-24T09:07:03.000Z</time>
      </trkpt>
      <trkpt lat="43.28494" lon="6.10085">
        <ele>332.39999389648</ele>
        <time>2019-10-24T09:07:09.000Z</time>
      </trkpt>
      <trkpt lat="43.28494" lon="6.10083">
        <ele>332.39999389648</ele>
        <time>2019-10-24T09:07:10.000Z</time>
      </trkpt>
      <trkpt lat="43.28498" lon="6.10078">
        <ele>332.79998779297</ele>
        <time>2019-10-24T09:07:13.000Z</time>
      </trkpt>
      <trkpt lat="43.28499" lon="6.10066">
        <ele>333</ele>
        <time>2019-10-24T09:07:18.000Z</time>
      </trkpt>
      <trkpt lat="43.28491" lon="6.10051">
        <ele>331.60000610352</ele>
        <time>2019-10-24T09:07:23.000Z</time>
      </trkpt>
      <trkpt lat="43.28488" lon="6.10048">
        <ele>331.39999389648</ele>
        <time>2019-10-24T09:07:24.000Z</time>
      </trkpt>
      <trkpt lat="43.28475" lon="6.10039">
        <ele>330.20001220703</ele>
        <time>2019-10-24T09:07:27.000Z</time>
      </trkpt>
      <trkpt lat="43.28464" lon="6.1003">
        <ele>329.79998779297</ele>
        <time>2019-10-24T09:07:31.000Z</time>
      </trkpt>
      <trkpt lat="43.28448" lon="6.1002">
        <ele>331.20001220703</ele>
        <time>2019-10-24T09:07:38.000Z</time>
      </trkpt>
      <trkpt lat="43.28446" lon="6.10019">
        <ele>331.20001220703</ele>
        <time>2019-10-24T09:07:39.000Z</time>
      </trkpt>
      <trkpt lat="43.28433" lon="6.10011">
        <ele>332.20001220703</ele>
        <time>2019-10-24T09:07:44.000Z</time>
      </trkpt>
      <trkpt lat="43.28431" lon="6.1001">
        <ele>332.39999389648</ele>
        <time>2019-10-24T09:07:45.000Z</time>
      </trkpt>
      <trkpt lat="43.28422" lon="6.10004">
        <ele>333.39999389648</ele>
        <time>2019-10-24T09:07:49.000Z</time>
      </trkpt>
      <trkpt lat="43.2842" lon="6.10002">
        <ele>333.60000610352</ele>
        <time>2019-10-24T09:07:50.000Z</time>
      </trkpt>
      <trkpt lat="43.28414" lon="6.09998">
        <ele>334.39999389648</ele>
        <time>2019-10-24T09:07:53.000Z</time>
      </trkpt>
      <trkpt lat="43.28412" lon="6.09997">
        <ele>334.60000610352</ele>
        <time>2019-10-24T09:07:54.000Z</time>
      </trkpt>
      <trkpt lat="43.2841" lon="6.09995">
        <ele>335</ele>
        <time>2019-10-24T09:07:55.000Z</time>
      </trkpt>
      <trkpt lat="43.28406" lon="6.09992">
        <ele>335.60000610352</ele>
        <time>2019-10-24T09:07:57.000Z</time>
      </trkpt>
      <trkpt lat="43.28404" lon="6.09991">
        <ele>336</ele>
        <time>2019-10-24T09:07:58.000Z</time>
      </trkpt>
      <trkpt lat="43.28397" lon="6.09983">
        <ele>337.20001220703</ele>
        <time>2019-10-24T09:08:02.000Z</time>
      </trkpt>
      <trkpt lat="43.28395" lon="6.09981">
        <ele>337.60000610352</ele>
        <time>2019-10-24T09:08:03.000Z</time>
      </trkpt>
      <trkpt lat="43.28391" lon="6.09973">
        <ele>338.20001220703</ele>
        <time>2019-10-24T09:08:06.000Z</time>
      </trkpt>
      <trkpt lat="43.28391" lon="6.09967">
        <ele>338.79998779297</ele>
        <time>2019-10-24T09:08:08.000Z</time>
      </trkpt>
      <trkpt lat="43.28391" lon="6.09964">
        <ele>339.20001220703</ele>
        <time>2019-10-24T09:08:09.000Z</time>
      </trkpt>
      <trkpt lat="43.28392" lon="6.09957">
        <ele>340.39999389648</ele>
        <time>2019-10-24T09:08:12.000Z</time>
      </trkpt>
      <trkpt lat="43.28395" lon="6.09954">
        <ele>341.20001220703</ele>
        <time>2019-10-24T09:08:14.000Z</time>
      </trkpt>
      <trkpt lat="43.28396" lon="6.09953">
        <ele>341.39999389648</ele>
        <time>2019-10-24T09:08:15.000Z</time>
      </trkpt>
      <trkpt lat="43.28399" lon="6.09951">
        <ele>342</ele>
        <time>2019-10-24T09:08:17.000Z</time>
      </trkpt>
      <trkpt lat="43.28401" lon="6.09949">
        <ele>342.60000610352</ele>
        <time>2019-10-24T09:08:18.000Z</time>
      </trkpt>
      <trkpt lat="43.28403" lon="6.09948">
        <ele>343.39999389648</ele>
        <time>2019-10-24T09:08:20.000Z</time>
      </trkpt>
      <trkpt lat="43.28404" lon="6.09947">
        <ele>343.60000610352</ele>
        <time>2019-10-24T09:08:21.000Z</time>
      </trkpt>
      <trkpt lat="43.28409" lon="6.09945">
        <ele>344.60000610352</ele>
        <time>2019-10-24T09:08:24.000Z</time>
      </trkpt>
      <trkpt lat="43.28412" lon="6.09945">
        <ele>345.79998779297</ele>
        <time>2019-10-24T09:08:26.000Z</time>
      </trkpt>
      <trkpt lat="43.28414" lon="6.09945">
        <ele>346</ele>
        <time>2019-10-24T09:08:27.000Z</time>
      </trkpt>
      <trkpt lat="43.28418" lon="6.09946">
        <ele>346.79998779297</ele>
        <time>2019-10-24T09:08:29.000Z</time>
      </trkpt>
      <trkpt lat="43.28423" lon="6.09947">
        <ele>347.79998779297</ele>
        <time>2019-10-24T09:08:32.000Z</time>
      </trkpt>
      <trkpt lat="43.28429" lon="6.09949">
        <ele>349</ele>
        <time>2019-10-24T09:08:35.000Z</time>
      </trkpt>
      <trkpt lat="43.28437" lon="6.09951">
        <ele>350.20001220703</ele>
        <time>2019-10-24T09:08:39.000Z</time>
      </trkpt>
      <trkpt lat="43.28444" lon="6.09952">
        <ele>351.39999389648</ele>
        <time>2019-10-24T09:08:42.000Z</time>
      </trkpt>
      <trkpt lat="43.28452" lon="6.09952">
        <ele>352.79998779297</ele>
        <time>2019-10-24T09:08:46.000Z</time>
      </trkpt>
      <trkpt lat="43.28458" lon="6.09952">
        <ele>353.79998779297</ele>
        <time>2019-10-24T09:08:49.000Z</time>
      </trkpt>
      <trkpt lat="43.28462" lon="6.09951">
        <ele>354.39999389648</ele>
        <time>2019-10-24T09:08:51.000Z</time>
      </trkpt>
      <trkpt lat="43.28465" lon="6.09949">
        <ele>354.79998779297</ele>
        <time>2019-10-24T09:08:53.000Z</time>
      </trkpt>
      <trkpt lat="43.28467" lon="6.09945">
        <ele>355.60000610352</ele>
        <time>2019-10-24T09:08:55.000Z</time>
      </trkpt>
      <trkpt lat="43.28469" lon="6.09941">
        <ele>355.79998779297</ele>
        <time>2019-10-24T09:08:57.000Z</time>
      </trkpt>
      <trkpt lat="43.28472" lon="6.09929">
        <ele>357</ele>
        <time>2019-10-24T09:09:02.000Z</time>
      </trkpt>
      <trkpt lat="43.28472" lon="6.09925">
        <ele>357.79998779297</ele>
        <time>2019-10-24T09:09:04.000Z</time>
      </trkpt>
      <trkpt lat="43.28473" lon="6.09922">
        <ele>358</ele>
        <time>2019-10-24T09:09:05.000Z</time>
      </trkpt>
      <trkpt lat="43.28473" lon="6.09909">
        <ele>359</ele>
        <time>2019-10-24T09:09:10.000Z</time>
      </trkpt>
      <trkpt lat="43.28473" lon="6.09907">
        <ele>359.20001220703</ele>
        <time>2019-10-24T09:09:11.000Z</time>
      </trkpt>
      <trkpt lat="43.28477" lon="6.09893">
        <ele>360.39999389648</ele>
        <time>2019-10-24T09:09:17.000Z</time>
      </trkpt>
      <trkpt lat="43.28479" lon="6.09891">
        <ele>360.60000610352</ele>
        <time>2019-10-24T09:09:18.000Z</time>
      </trkpt>
      <trkpt lat="43.28486" lon="6.09883">
        <ele>361.39999389648</ele>
        <time>2019-10-24T09:09:23.000Z</time>
      </trkpt>
      <trkpt lat="43.28488" lon="6.09882">
        <ele>361.79998779297</ele>
        <time>2019-10-24T09:09:24.000Z</time>
      </trkpt>
      <trkpt lat="43.28491" lon="6.0988">
        <ele>362.39999389648</ele>
        <time>2019-10-24T09:09:26.000Z</time>
      </trkpt>
      <trkpt lat="43.28497" lon="6.09881">
        <ele>363.39999389648</ele>
        <time>2019-10-24T09:09:29.000Z</time>
      </trkpt>
      <trkpt lat="43.28499" lon="6.09882">
        <ele>363.60000610352</ele>
        <time>2019-10-24T09:09:30.000Z</time>
      </trkpt>
      <trkpt lat="43.28505" lon="6.09888">
        <ele>364.79998779297</ele>
        <time>2019-10-24T09:09:34.000Z</time>
      </trkpt>
      <trkpt lat="43.28507" lon="6.09889">
        <ele>365</ele>
        <time>2019-10-24T09:09:35.000Z</time>
      </trkpt>
      <trkpt lat="43.28513" lon="6.09892">
        <ele>366</ele>
        <time>2019-10-24T09:09:38.000Z</time>
      </trkpt>
      <trkpt lat="43.28519" lon="6.09895">
        <ele>367.20001220703</ele>
        <time>2019-10-24T09:09:41.000Z</time>
      </trkpt>
      <trkpt lat="43.28525" lon="6.09898">
        <ele>368.20001220703</ele>
        <time>2019-10-24T09:09:44.000Z</time>
      </trkpt>
      <trkpt lat="43.28526" lon="6.09898">
        <ele>368.60000610352</ele>
        <time>2019-10-24T09:09:45.000Z</time>
      </trkpt>
      <trkpt lat="43.28534" lon="6.09899">
        <ele>370</ele>
        <time>2019-10-24T09:09:49.000Z</time>
      </trkpt>
      <trkpt lat="43.28538" lon="6.09899">
        <ele>370.79998779297</ele>
        <time>2019-10-24T09:09:51.000Z</time>
      </trkpt>
      <trkpt lat="43.2854" lon="6.09898">
        <ele>371.20001220703</ele>
        <time>2019-10-24T09:09:52.000Z</time>
      </trkpt>
      <trkpt lat="43.28546" lon="6.09896">
        <ele>372.39999389648</ele>
        <time>2019-10-24T09:09:55.000Z</time>
      </trkpt>
      <trkpt lat="43.2855" lon="6.09894">
        <ele>373</ele>
        <time>2019-10-24T09:09:57.000Z</time>
      </trkpt>
      <trkpt lat="43.28554" lon="6.09891">
        <ele>373.39999389648</ele>
        <time>2019-10-24T09:09:59.000Z</time>
      </trkpt>
      <trkpt lat="43.28561" lon="6.09883">
        <ele>374.60000610352</ele>
        <time>2019-10-24T09:10:03.000Z</time>
      </trkpt>
      <trkpt lat="43.28563" lon="6.09881">
        <ele>374.79998779297</ele>
        <time>2019-10-24T09:10:04.000Z</time>
      </trkpt>
      <trkpt lat="43.28571" lon="6.0988">
        <ele>376</ele>
        <time>2019-10-24T09:10:07.000Z</time>
      </trkpt>
      <trkpt lat="43.28577" lon="6.09882">
        <ele>376.60000610352</ele>
        <time>2019-10-24T09:10:09.000Z</time>
      </trkpt>
      <trkpt lat="43.28587" lon="6.09891">
        <ele>377.20001220703</ele>
        <time>2019-10-24T09:10:13.000Z</time>
      </trkpt>
      <trkpt lat="43.28592" lon="6.09897">
        <ele>377.39999389648</ele>
        <time>2019-10-24T09:10:15.000Z</time>
      </trkpt>
      <trkpt lat="43.28604" lon="6.09917">
        <ele>378.20001220703</ele>
        <time>2019-10-24T09:10:21.000Z</time>
      </trkpt>
      <trkpt lat="43.28612" lon="6.0993">
        <ele>378.60000610352</ele>
        <time>2019-10-24T09:10:25.000Z</time>
      </trkpt>
      <trkpt lat="43.28621" lon="6.09942">
        <ele>379.39999389648</ele>
        <time>2019-10-24T09:10:29.000Z</time>
      </trkpt>
      <trkpt lat="43.28628" lon="6.09952">
        <ele>379.39999389648</ele>
        <time>2019-10-24T09:10:32.000Z</time>
      </trkpt>
      <trkpt lat="43.28643" lon="6.09978">
        <ele>380.20001220703</ele>
        <time>2019-10-24T09:10:40.000Z</time>
      </trkpt>
      <trkpt lat="43.28644" lon="6.09982">
        <ele>380.39999389648</ele>
        <time>2019-10-24T09:10:41.000Z</time>
      </trkpt>
      <trkpt lat="43.28651" lon="6.10007">
        <ele>381</ele>
        <time>2019-10-24T09:10:47.000Z</time>
      </trkpt>
      <trkpt lat="43.28654" lon="6.10029">
        <ele>381.60000610352</ele>
        <time>2019-10-24T09:10:52.000Z</time>
      </trkpt>
      <trkpt lat="43.28655" lon="6.10047">
        <ele>382</ele>
        <time>2019-10-24T09:10:56.000Z</time>
      </trkpt>
      <trkpt lat="43.2866" lon="6.1008">
        <ele>382.60000610352</ele>
        <time>2019-10-24T09:11:03.000Z</time>
      </trkpt>
      <trkpt lat="43.28662" lon="6.1009">
        <ele>382.79998779297</ele>
        <time>2019-10-24T09:11:05.000Z</time>
      </trkpt>
      <trkpt lat="43.28667" lon="6.1011">
        <ele>383.60000610352</ele>
        <time>2019-10-24T09:11:09.000Z</time>
      </trkpt>
      <trkpt lat="43.28674" lon="6.10124">
        <ele>384</ele>
        <time>2019-10-24T09:11:12.000Z</time>
      </trkpt>
      <trkpt lat="43.28691" lon="6.10157">
        <ele>384.60000610352</ele>
        <time>2019-10-24T09:11:20.000Z</time>
      </trkpt>
      <trkpt lat="43.28693" lon="6.10162">
        <ele>384.79998779297</ele>
        <time>2019-10-24T09:11:21.000Z</time>
      </trkpt>
      <trkpt lat="43.28701" lon="6.10187">
        <ele>385.60000610352</ele>
        <time>2019-10-24T09:11:27.000Z</time>
      </trkpt>
      <trkpt lat="43.28705" lon="6.10193">
        <ele>385.79998779297</ele>
        <time>2019-10-24T09:11:29.000Z</time>
      </trkpt>
      <trkpt lat="43.28709" lon="6.10191">
        <ele>386</ele>
        <time>2019-10-24T09:11:31.000Z</time>
      </trkpt>
      <trkpt lat="43.28711" lon="6.10182">
        <ele>386.60000610352</ele>
        <time>2019-10-24T09:11:34.000Z</time>
      </trkpt>
      <trkpt lat="43.2871" lon="6.10179">
        <ele>387</ele>
        <time>2019-10-24T09:11:35.000Z</time>
      </trkpt>
      <trkpt lat="43.28709" lon="6.10169">
        <ele>387.79998779297</ele>
        <time>2019-10-24T09:11:38.000Z</time>
      </trkpt>
      <trkpt lat="43.28706" lon="6.1016">
        <ele>388</ele>
        <time>2019-10-24T09:11:41.000Z</time>
      </trkpt>
      <trkpt lat="43.287" lon="6.10145">
        <ele>388.60000610352</ele>
        <time>2019-10-24T09:11:47.000Z</time>
      </trkpt>
      <trkpt lat="43.28699" lon="6.10143">
        <ele>389</ele>
        <time>2019-10-24T09:11:48.000Z</time>
      </trkpt>
      <trkpt lat="43.28693" lon="6.10129">
        <ele>389.79998779297</ele>
        <time>2019-10-24T09:11:53.000Z</time>
      </trkpt>
      <trkpt lat="43.28691" lon="6.10121">
        <ele>390.20001220703</ele>
        <time>2019-10-24T09:11:56.000Z</time>
      </trkpt>
      <trkpt lat="43.28689" lon="6.10116">
        <ele>390.39999389648</ele>
        <time>2019-10-24T09:11:58.000Z</time>
      </trkpt>
      <trkpt lat="43.28686" lon="6.10106">
        <ele>391.20001220703</ele>
        <time>2019-10-24T09:12:02.000Z</time>
      </trkpt>
      <trkpt lat="43.28685" lon="6.101">
        <ele>391.60000610352</ele>
        <time>2019-10-24T09:12:04.000Z</time>
      </trkpt>
      <trkpt lat="43.28685" lon="6.10095">
        <ele>392.20001220703</ele>
        <time>2019-10-24T09:12:06.000Z</time>
      </trkpt>
      <trkpt lat="43.28684" lon="6.10083">
        <ele>392.39999389648</ele>
        <time>2019-10-24T09:12:10.000Z</time>
      </trkpt>
      <trkpt lat="43.28683" lon="6.10071">
        <ele>393.39999389648</ele>
        <time>2019-10-24T09:12:14.000Z</time>
      </trkpt>
      <trkpt lat="43.28682" lon="6.1006">
        <ele>394.20001220703</ele>
        <time>2019-10-24T09:12:18.000Z</time>
      </trkpt>
      <trkpt lat="43.28683" lon="6.10054">
        <ele>394.39999389648</ele>
        <time>2019-10-24T09:12:20.000Z</time>
      </trkpt>
      <trkpt lat="43.28684" lon="6.1004">
        <ele>395.39999389648</ele>
        <time>2019-10-24T09:12:25.000Z</time>
      </trkpt>
      <trkpt lat="43.28685" lon="6.10038">
        <ele>395.60000610352</ele>
        <time>2019-10-24T09:12:26.000Z</time>
      </trkpt>
      <trkpt lat="43.2869" lon="6.10023">
        <ele>396.60000610352</ele>
        <time>2019-10-24T09:12:32.000Z</time>
      </trkpt>
      <trkpt lat="43.28691" lon="6.10007">
        <ele>397.79998779297</ele>
        <time>2019-10-24T09:12:37.000Z</time>
      </trkpt>
      <trkpt lat="43.28692" lon="6.09997">
        <ele>398.20001220703</ele>
        <time>2019-10-24T09:12:40.000Z</time>
      </trkpt>
      <trkpt lat="43.28692" lon="6.09984">
        <ele>398.79998779297</ele>
        <time>2019-10-24T09:12:44.000Z</time>
      </trkpt>
      <trkpt lat="43.28693" lon="6.09971">
        <ele>399.79998779297</ele>
        <time>2019-10-24T09:12:48.000Z</time>
      </trkpt>
      <trkpt lat="43.28693" lon="6.09968">
        <ele>399.79998779297</ele>
        <time>2019-10-24T09:12:49.000Z</time>
      </trkpt>
      <trkpt lat="43.28693" lon="6.09949">
        <ele>400.60000610352</ele>
        <time>2019-10-24T09:12:55.000Z</time>
      </trkpt>
      <trkpt lat="43.28692" lon="6.09943">
        <ele>401</ele>
        <time>2019-10-24T09:12:57.000Z</time>
      </trkpt>
      <trkpt lat="43.2869" lon="6.09931">
        <ele>401.79998779297</ele>
        <time>2019-10-24T09:13:01.000Z</time>
      </trkpt>
      <trkpt lat="43.2869" lon="6.09928">
        <ele>402</ele>
        <time>2019-10-24T09:13:02.000Z</time>
      </trkpt>
      <trkpt lat="43.28686" lon="6.09914">
        <ele>403</ele>
        <time>2019-10-24T09:13:07.000Z</time>
      </trkpt>
      <trkpt lat="43.28684" lon="6.09908">
        <ele>403.20001220703</ele>
        <time>2019-10-24T09:13:09.000Z</time>
      </trkpt>
      <trkpt lat="43.28681" lon="6.09896">
        <ele>404.20001220703</ele>
        <time>2019-10-24T09:13:13.000Z</time>
      </trkpt>
      <trkpt lat="43.28676" lon="6.09884">
        <ele>405</ele>
        <time>2019-10-24T09:13:17.000Z</time>
      </trkpt>
      <trkpt lat="43.28674" lon="6.09879">
        <ele>405.20001220703</ele>
        <time>2019-10-24T09:13:19.000Z</time>
      </trkpt>
      <trkpt lat="43.28665" lon="6.09862">
        <ele>406</ele>
        <time>2019-10-24T09:13:25.000Z</time>
      </trkpt>
      <trkpt lat="43.28663" lon="6.09856">
        <ele>406.20001220703</ele>
        <time>2019-10-24T09:13:27.000Z</time>
      </trkpt>
      <trkpt lat="43.28661" lon="6.0984">
        <ele>407.20001220703</ele>
        <time>2019-10-24T09:13:32.000Z</time>
      </trkpt>
      <trkpt lat="43.2866" lon="6.09837">
        <ele>407.20001220703</ele>
        <time>2019-10-24T09:13:33.000Z</time>
      </trkpt>
      <trkpt lat="43.28656" lon="6.09819">
        <ele>408</ele>
        <time>2019-10-24T09:13:39.000Z</time>
      </trkpt>
      <trkpt lat="43.28655" lon="6.09813">
        <ele>408.39999389648</ele>
        <time>2019-10-24T09:13:41.000Z</time>
      </trkpt>
      <trkpt lat="43.28651" lon="6.09798">
        <ele>409.79998779297</ele>
        <time>2019-10-24T09:13:46.000Z</time>
      </trkpt>
      <trkpt lat="43.28646" lon="6.09776">
        <ele>410.79998779297</ele>
        <time>2019-10-24T09:13:53.000Z</time>
      </trkpt>
      <trkpt lat="43.28644" lon="6.0977">
        <ele>411.60000610352</ele>
        <time>2019-10-24T09:13:55.000Z</time>
      </trkpt>
      <trkpt lat="43.28643" lon="6.0976">
        <ele>412.20001220703</ele>
        <time>2019-10-24T09:13:58.000Z</time>
      </trkpt>
      <trkpt lat="43.2864" lon="6.09748">
        <ele>413</ele>
        <time>2019-10-24T09:14:02.000Z</time>
      </trkpt>
      <trkpt lat="43.2864" lon="6.09744">
        <ele>413.39999389648</ele>
        <time>2019-10-24T09:14:03.000Z</time>
      </trkpt>
      <trkpt lat="43.28639" lon="6.09731">
        <ele>414.39999389648</ele>
        <time>2019-10-24T09:14:07.000Z</time>
      </trkpt>
      <trkpt lat="43.28639" lon="6.09725">
        <ele>414.60000610352</ele>
        <time>2019-10-24T09:14:09.000Z</time>
      </trkpt>
      <trkpt lat="43.28638" lon="6.09706">
        <ele>415.60000610352</ele>
        <time>2019-10-24T09:14:15.000Z</time>
      </trkpt>
      <trkpt lat="43.28638" lon="6.09696">
        <ele>416.60000610352</ele>
        <time>2019-10-24T09:14:18.000Z</time>
      </trkpt>
      <trkpt lat="43.28634" lon="6.09674">
        <ele>417.60000610352</ele>
        <time>2019-10-24T09:14:25.000Z</time>
      </trkpt>
      <trkpt lat="43.28633" lon="6.09666">
        <ele>418.60000610352</ele>
        <time>2019-10-24T09:14:28.000Z</time>
      </trkpt>
      <trkpt lat="43.28629" lon="6.09654">
        <ele>419.39999389648</ele>
        <time>2019-10-24T09:14:32.000Z</time>
      </trkpt>
      <trkpt lat="43.28626" lon="6.09649">
        <ele>419.60000610352</ele>
        <time>2019-10-24T09:14:34.000Z</time>
      </trkpt>
      <trkpt lat="43.28618" lon="6.09639">
        <ele>420.79998779297</ele>
        <time>2019-10-24T09:14:39.000Z</time>
      </trkpt>
      <trkpt lat="43.28605" lon="6.09631">
        <ele>422</ele>
        <time>2019-10-24T09:14:45.000Z</time>
      </trkpt>
      <trkpt lat="43.28588" lon="6.09618">
        <ele>422.20001220703</ele>
        <time>2019-10-24T09:14:53.000Z</time>
      </trkpt>
      <trkpt lat="43.28582" lon="6.0961">
        <ele>423.39999389648</ele>
        <time>2019-10-24T09:14:57.000Z</time>
      </trkpt>
      <trkpt lat="43.28576" lon="6.09604">
        <ele>424.20001220703</ele>
        <time>2019-10-24T09:15:00.000Z</time>
      </trkpt>
      <trkpt lat="43.28573" lon="6.096">
        <ele>424.39999389648</ele>
        <time>2019-10-24T09:15:02.000Z</time>
      </trkpt>
      <trkpt lat="43.28564" lon="6.0959">
        <ele>425.20001220703</ele>
        <time>2019-10-24T09:15:07.000Z</time>
      </trkpt>
      <trkpt lat="43.28554" lon="6.09576">
        <ele>426.39999389648</ele>
        <time>2019-10-24T09:15:13.000Z</time>
      </trkpt>
      <trkpt lat="43.28551" lon="6.09571">
        <ele>426.79998779297</ele>
        <time>2019-10-24T09:15:15.000Z</time>
      </trkpt>
      <trkpt lat="43.28543" lon="6.09559">
        <ele>427.39999389648</ele>
        <time>2019-10-24T09:15:20.000Z</time>
      </trkpt>
      <trkpt lat="43.28542" lon="6.09556">
        <ele>427.60000610352</ele>
        <time>2019-10-24T09:15:21.000Z</time>
      </trkpt>
      <trkpt lat="43.28539" lon="6.09547">
        <ele>428.60000610352</ele>
        <time>2019-10-24T09:15:24.000Z</time>
      </trkpt>
      <trkpt lat="43.28537" lon="6.09535">
        <ele>429.79998779297</ele>
        <time>2019-10-24T09:15:28.000Z</time>
      </trkpt>
      <trkpt lat="43.28535" lon="6.09523">
        <ele>430.79998779297</ele>
        <time>2019-10-24T09:15:32.000Z</time>
      </trkpt>
      <trkpt lat="43.28533" lon="6.09511">
        <ele>431.60000610352</ele>
        <time>2019-10-24T09:15:36.000Z</time>
      </trkpt>
      <trkpt lat="43.28533" lon="6.09504">
        <ele>432</ele>
        <time>2019-10-24T09:15:38.000Z</time>
      </trkpt>
      <trkpt lat="43.28533" lon="6.09495">
        <ele>433.20001220703</ele>
        <time>2019-10-24T09:15:41.000Z</time>
      </trkpt>
      <trkpt lat="43.28533" lon="6.09482">
        <ele>433.79998779297</ele>
        <time>2019-10-24T09:15:45.000Z</time>
      </trkpt>
      <trkpt lat="43.28533" lon="6.09478">
        <ele>434</ele>
        <time>2019-10-24T09:15:46.000Z</time>
      </trkpt>
      <trkpt lat="43.28536" lon="6.09458">
        <ele>435.20001220703</ele>
        <time>2019-10-24T09:15:52.000Z</time>
      </trkpt>
      <trkpt lat="43.28537" lon="6.09452">
        <ele>435.60000610352</ele>
        <time>2019-10-24T09:15:54.000Z</time>
      </trkpt>
      <trkpt lat="43.28541" lon="6.09442">
        <ele>436.20001220703</ele>
        <time>2019-10-24T09:15:57.000Z</time>
      </trkpt>
      <trkpt lat="43.28546" lon="6.09425">
        <ele>437</ele>
        <time>2019-10-24T09:16:02.000Z</time>
      </trkpt>
      <trkpt lat="43.28553" lon="6.09401">
        <ele>437.39999389648</ele>
        <time>2019-10-24T09:16:09.000Z</time>
      </trkpt>
      <trkpt lat="43.28555" lon="6.09394">
        <ele>437.79998779297</ele>
        <time>2019-10-24T09:16:11.000Z</time>
      </trkpt>
      <trkpt lat="43.28559" lon="6.09375">
        <ele>438.39999389648</ele>
        <time>2019-10-24T09:16:16.000Z</time>
      </trkpt>
      <trkpt lat="43.2856" lon="6.09367">
        <ele>438.79998779297</ele>
        <time>2019-10-24T09:16:18.000Z</time>
      </trkpt>
      <trkpt lat="43.2856" lon="6.09357">
        <ele>439.60000610352</ele>
        <time>2019-10-24T09:16:21.000Z</time>
      </trkpt>
      <trkpt lat="43.28562" lon="6.09348">
        <ele>439.60000610352</ele>
        <time>2019-10-24T09:16:24.000Z</time>
      </trkpt>
      <trkpt lat="43.28562" lon="6.0933">
        <ele>439.79998779297</ele>
        <time>2019-10-24T09:16:29.000Z</time>
      </trkpt>
      <trkpt lat="43.28557" lon="6.09313">
        <ele>440.20001220703</ele>
        <time>2019-10-24T09:16:34.000Z</time>
      </trkpt>
      <trkpt lat="43.28553" lon="6.09302">
        <ele>440.79998779297</ele>
        <time>2019-10-24T09:16:37.000Z</time>
      </trkpt>
      <trkpt lat="43.28546" lon="6.09287">
        <ele>441.60000610352</ele>
        <time>2019-10-24T09:16:41.000Z</time>
      </trkpt>
      <trkpt lat="43.28541" lon="6.09282">
        <ele>441.79998779297</ele>
        <time>2019-10-24T09:16:43.000Z</time>
      </trkpt>
      <trkpt lat="43.28528" lon="6.09269">
        <ele>442.60000610352</ele>
        <time>2019-10-24T09:16:48.000Z</time>
      </trkpt>
      <trkpt lat="43.2852" lon="6.09252">
        <ele>442.79998779297</ele>
        <time>2019-10-24T09:16:53.000Z</time>
      </trkpt>
      <trkpt lat="43.28521" lon="6.09244">
        <ele>443.20001220703</ele>
        <time>2019-10-24T09:16:55.000Z</time>
      </trkpt>
      <trkpt lat="43.28526" lon="6.09231">
        <ele>443.79998779297</ele>
        <time>2019-10-24T09:16:58.000Z</time>
      </trkpt>
      <trkpt lat="43.28531" lon="6.0922">
        <ele>444.39999389648</ele>
        <time>2019-10-24T09:17:01.000Z</time>
      </trkpt>
      <trkpt lat="43.28533" lon="6.09208">
        <ele>444.39999389648</ele>
        <time>2019-10-24T09:17:04.000Z</time>
      </trkpt>
      <trkpt lat="43.28538" lon="6.09193">
        <ele>445.39999389648</ele>
        <time>2019-10-24T09:17:08.000Z</time>
      </trkpt>
      <trkpt lat="43.28541" lon="6.09185">
        <ele>445.79998779297</ele>
        <time>2019-10-24T09:17:10.000Z</time>
      </trkpt>
      <trkpt lat="43.28543" lon="6.09164">
        <ele>446.60000610352</ele>
        <time>2019-10-24T09:17:14.000Z</time>
      </trkpt>
      <trkpt lat="43.28544" lon="6.09146">
        <ele>446.60000610352</ele>
        <time>2019-10-24T09:17:17.000Z</time>
      </trkpt>
      <trkpt lat="43.28549" lon="6.09113">
        <ele>447.39999389648</ele>
        <time>2019-10-24T09:17:23.000Z</time>
      </trkpt>
      <trkpt lat="43.28551" lon="6.09096">
        <ele>447.60000610352</ele>
        <time>2019-10-24T09:17:26.000Z</time>
      </trkpt>
      <trkpt lat="43.28552" lon="6.09087">
        <ele>448</ele>
        <time>2019-10-24T09:17:28.000Z</time>
      </trkpt>
      <trkpt lat="43.28557" lon="6.09055">
        <ele>448.60000610352</ele>
        <time>2019-10-24T09:17:34.000Z</time>
      </trkpt>
      <trkpt lat="43.28561" lon="6.09031">
        <ele>448.39999389648</ele>
        <time>2019-10-24T09:17:39.000Z</time>
      </trkpt>
      <trkpt lat="43.28564" lon="6.0902">
        <ele>448.79998779297</ele>
        <time>2019-10-24T09:17:41.000Z</time>
      </trkpt>
      <trkpt lat="43.28564" lon="6.09014">
        <ele>449</ele>
        <time>2019-10-24T09:17:42.000Z</time>
      </trkpt>
      <trkpt lat="43.28567" lon="6.09002">
        <ele>449.20001220703</ele>
        <time>2019-10-24T09:17:44.000Z</time>
      </trkpt>
      <trkpt lat="43.28567" lon="6.08983">
        <ele>450</ele>
        <time>2019-10-24T09:17:47.000Z</time>
      </trkpt>
      <trkpt lat="43.28567" lon="6.0897">
        <ele>450</ele>
        <time>2019-10-24T09:17:49.000Z</time>
      </trkpt>
      <trkpt lat="43.28567" lon="6.08965">
        <ele>450.20001220703</ele>
        <time>2019-10-24T09:17:50.000Z</time>
      </trkpt>
      <trkpt lat="43.28564" lon="6.08948">
        <ele>450.60000610352</ele>
        <time>2019-10-24T09:17:53.000Z</time>
      </trkpt>
      <trkpt lat="43.28562" lon="6.08936">
        <ele>451</ele>
        <time>2019-10-24T09:17:55.000Z</time>
      </trkpt>
      <trkpt lat="43.28558" lon="6.08919">
        <ele>451.79998779297</ele>
        <time>2019-10-24T09:17:58.000Z</time>
      </trkpt>
      <trkpt lat="43.28556" lon="6.08913">
        <ele>451.79998779297</ele>
        <time>2019-10-24T09:17:59.000Z</time>
      </trkpt>
      <trkpt lat="43.28553" lon="6.08902">
        <ele>452</ele>
        <time>2019-10-24T09:18:01.000Z</time>
      </trkpt>
      <trkpt lat="43.28551" lon="6.08897">
        <ele>452.20001220703</ele>
        <time>2019-10-24T09:18:02.000Z</time>
      </trkpt>
      <trkpt lat="43.28542" lon="6.08876">
        <ele>453.20001220703</ele>
        <time>2019-10-24T09:18:06.000Z</time>
      </trkpt>
      <trkpt lat="43.28539" lon="6.08872">
        <ele>453.60000610352</ele>
        <time>2019-10-24T09:18:07.000Z</time>
      </trkpt>
      <trkpt lat="43.28519" lon="6.08845">
        <ele>454.39999389648</ele>
        <time>2019-10-24T09:18:13.000Z</time>
      </trkpt>
      <trkpt lat="43.28516" lon="6.08842">
        <ele>454.60000610352</ele>
        <time>2019-10-24T09:18:14.000Z</time>
      </trkpt>
      <trkpt lat="43.28501" lon="6.08829">
        <ele>455.20001220703</ele>
        <time>2019-10-24T09:18:18.000Z</time>
      </trkpt>
      <trkpt lat="43.28492" lon="6.08826">
        <ele>455.20001220703</ele>
        <time>2019-10-24T09:18:20.000Z</time>
      </trkpt>
      <trkpt lat="43.28488" lon="6.08825">
        <ele>455.39999389648</ele>
        <time>2019-10-24T09:18:21.000Z</time>
      </trkpt>
      <trkpt lat="43.28471" lon="6.0882">
        <ele>455.39999389648</ele>
        <time>2019-10-24T09:18:25.000Z</time>
      </trkpt>
      <trkpt lat="43.28458" lon="6.08816">
        <ele>455</ele>
        <time>2019-10-24T09:18:28.000Z</time>
      </trkpt>
      <trkpt lat="43.28445" lon="6.08815">
        <ele>455.60000610352</ele>
        <time>2019-10-24T09:18:31.000Z</time>
      </trkpt>
      <trkpt lat="43.28432" lon="6.08811">
        <ele>456.79998779297</ele>
        <time>2019-10-24T09:18:34.000Z</time>
      </trkpt>
      <trkpt lat="43.28423" lon="6.08807">
        <ele>457.20001220703</ele>
        <time>2019-10-24T09:18:36.000Z</time>
      </trkpt>
      <trkpt lat="43.28401" lon="6.08794">
        <ele>458</ele>
        <time>2019-10-24T09:18:41.000Z</time>
      </trkpt>
      <trkpt lat="43.28397" lon="6.08792">
        <ele>458.39999389648</ele>
        <time>2019-10-24T09:18:42.000Z</time>
      </trkpt>
      <trkpt lat="43.2837" lon="6.08771">
        <ele>458.79998779297</ele>
        <time>2019-10-24T09:18:49.000Z</time>
      </trkpt>
      <trkpt lat="43.28367" lon="6.08767">
        <ele>459</ele>
        <time>2019-10-24T09:18:50.000Z</time>
      </trkpt>
      <trkpt lat="43.28365" lon="6.08762">
        <ele>459.39999389648</ele>
        <time>2019-10-24T09:18:51.000Z</time>
      </trkpt>
      <trkpt lat="43.28365" lon="6.08757">
        <ele>459.39999389648</ele>
        <time>2019-10-24T09:18:52.000Z</time>
      </trkpt>
      <trkpt lat="43.28371" lon="6.0875">
        <ele>459.20001220703</ele>
        <time>2019-10-24T09:18:54.000Z</time>
      </trkpt>
      <trkpt lat="43.28375" lon="6.08749">
        <ele>459.20001220703</ele>
        <time>2019-10-24T09:18:55.000Z</time>
      </trkpt>
      <trkpt lat="43.2838" lon="6.08747">
        <ele>459.20001220703</ele>
        <time>2019-10-24T09:18:56.000Z</time>
      </trkpt>
      <trkpt lat="43.28384" lon="6.08746">
        <ele>459.20001220703</ele>
        <time>2019-10-24T09:18:57.000Z</time>
      </trkpt>
      <trkpt lat="43.28397" lon="6.08739">
        <ele>459.20001220703</ele>
        <time>2019-10-24T09:19:00.000Z</time>
      </trkpt>
      <trkpt lat="43.28401" lon="6.08736">
        <ele>459.79998779297</ele>
        <time>2019-10-24T09:19:01.000Z</time>
      </trkpt>
      <trkpt lat="43.28409" lon="6.08731">
        <ele>460.39999389648</ele>
        <time>2019-10-24T09:19:03.000Z</time>
      </trkpt>
      <trkpt lat="43.28413" lon="6.08728">
        <ele>460.79998779297</ele>
        <time>2019-10-24T09:19:04.000Z</time>
      </trkpt>
      <trkpt lat="43.28416" lon="6.08725">
        <ele>461</ele>
        <time>2019-10-24T09:19:05.000Z</time>
      </trkpt>
      <trkpt lat="43.28439" lon="6.08704">
        <ele>460.39999389648</ele>
        <time>2019-10-24T09:19:11.000Z</time>
      </trkpt>
      <trkpt lat="43.28454" lon="6.08689">
        <ele>461.39999389648</ele>
        <time>2019-10-24T09:19:15.000Z</time>
      </trkpt>
      <trkpt lat="43.28466" lon="6.08677">
        <ele>462.39999389648</ele>
        <time>2019-10-24T09:19:18.000Z</time>
      </trkpt>
      <trkpt lat="43.2849" lon="6.08647">
        <ele>463</ele>
        <time>2019-10-24T09:19:25.000Z</time>
      </trkpt>
      <trkpt lat="43.28495" lon="6.08637">
        <ele>463.20001220703</ele>
        <time>2019-10-24T09:19:27.000Z</time>
      </trkpt>
      <trkpt lat="43.28497" lon="6.08632">
        <ele>463.60000610352</ele>
        <time>2019-10-24T09:19:28.000Z</time>
      </trkpt>
      <trkpt lat="43.28497" lon="6.08626">
        <ele>463.60000610352</ele>
        <time>2019-10-24T09:19:29.000Z</time>
      </trkpt>
      <trkpt lat="43.28492" lon="6.0861">
        <ele>464.20001220703</ele>
        <time>2019-10-24T09:19:32.000Z</time>
      </trkpt>
      <trkpt lat="43.2849" lon="6.08605">
        <ele>464.39999389648</ele>
        <time>2019-10-24T09:19:33.000Z</time>
      </trkpt>
      <trkpt lat="43.28469" lon="6.08574">
        <ele>464.60000610352</ele>
        <time>2019-10-24T09:19:39.000Z</time>
      </trkpt>
      <trkpt lat="43.28449" lon="6.08558">
        <ele>465.60000610352</ele>
        <time>2019-10-24T09:19:43.000Z</time>
      </trkpt>
      <trkpt lat="43.28438" lon="6.08552">
        <ele>465.39999389648</ele>
        <time>2019-10-24T09:19:45.000Z</time>
      </trkpt>
      <trkpt lat="43.28386" lon="6.08525">
        <ele>464.60000610352</ele>
        <time>2019-10-24T09:19:54.000Z</time>
      </trkpt>
      <trkpt lat="43.2838" lon="6.0852">
        <ele>465</ele>
        <time>2019-10-24T09:19:55.000Z</time>
      </trkpt>
      <trkpt lat="43.28368" lon="6.08503">
        <ele>464</ele>
        <time>2019-10-24T09:19:58.000Z</time>
      </trkpt>
      <trkpt lat="43.28365" lon="6.08496">
        <ele>463.60000610352</ele>
        <time>2019-10-24T09:19:59.000Z</time>
      </trkpt>
      <trkpt lat="43.28362" lon="6.08464">
        <ele>463.20001220703</ele>
        <time>2019-10-24T09:20:03.000Z</time>
      </trkpt>
      <trkpt lat="43.28363" lon="6.08456">
        <ele>463.39999389648</ele>
        <time>2019-10-24T09:20:04.000Z</time>
      </trkpt>
      <trkpt lat="43.28364" lon="6.08403">
        <ele>463.39999389648</ele>
        <time>2019-10-24T09:20:10.000Z</time>
      </trkpt>
      <trkpt lat="43.28363" lon="6.08384">
        <ele>463</ele>
        <time>2019-10-24T09:20:12.000Z</time>
      </trkpt>
      <trkpt lat="43.2836" lon="6.08366">
        <ele>462.60000610352</ele>
        <time>2019-10-24T09:20:14.000Z</time>
      </trkpt>
      <trkpt lat="43.28358" lon="6.08357">
        <ele>462.20001220703</ele>
        <time>2019-10-24T09:20:15.000Z</time>
      </trkpt>
      <trkpt lat="43.28352" lon="6.08341">
        <ele>462</ele>
        <time>2019-10-24T09:20:17.000Z</time>
      </trkpt>
      <trkpt lat="43.28349" lon="6.08333">
        <ele>462</ele>
        <time>2019-10-24T09:20:18.000Z</time>
      </trkpt>
      <trkpt lat="43.28344" lon="6.08327">
        <ele>462.20001220703</ele>
        <time>2019-10-24T09:20:19.000Z</time>
      </trkpt>
      <trkpt lat="43.28315" lon="6.08297">
        <ele>462.20001220703</ele>
        <time>2019-10-24T09:20:25.000Z</time>
      </trkpt>
      <trkpt lat="43.28288" lon="6.08269">
        <ele>460.79998779297</ele>
        <time>2019-10-24T09:20:31.000Z</time>
      </trkpt>
      <trkpt lat="43.28288" lon="6.08255">
        <ele>460.39999389648</ele>
        <time>2019-10-24T09:20:34.000Z</time>
      </trkpt>
      <trkpt lat="43.283" lon="6.08246">
        <ele>460</ele>
        <time>2019-10-24T09:20:37.000Z</time>
      </trkpt>
      <trkpt lat="43.28317" lon="6.08237">
        <ele>459.60000610352</ele>
        <time>2019-10-24T09:20:40.000Z</time>
      </trkpt>
      <trkpt lat="43.28323" lon="6.08233">
        <ele>459.20001220703</ele>
        <time>2019-10-24T09:20:41.000Z</time>
      </trkpt>
      <trkpt lat="43.28335" lon="6.08224">
        <ele>459</ele>
        <time>2019-10-24T09:20:43.000Z</time>
      </trkpt>
      <trkpt lat="43.28352" lon="6.08211">
        <ele>458.60000610352</ele>
        <time>2019-10-24T09:20:46.000Z</time>
      </trkpt>
      <trkpt lat="43.28363" lon="6.08201">
        <ele>458.20001220703</ele>
        <time>2019-10-24T09:20:48.000Z</time>
      </trkpt>
      <trkpt lat="43.28368" lon="6.08197">
        <ele>458.20001220703</ele>
        <time>2019-10-24T09:20:49.000Z</time>
      </trkpt>
      <trkpt lat="43.28402" lon="6.08177">
        <ele>457.39999389648</ele>
        <time>2019-10-24T09:20:55.000Z</time>
      </trkpt>
      <trkpt lat="43.28407" lon="6.08174">
        <ele>457.20001220703</ele>
        <time>2019-10-24T09:20:56.000Z</time>
      </trkpt>
      <trkpt lat="43.28422" lon="6.0816">
        <ele>456.60000610352</ele>
        <time>2019-10-24T09:20:59.000Z</time>
      </trkpt>
      <trkpt lat="43.28426" lon="6.08155">
        <ele>456.60000610352</ele>
        <time>2019-10-24T09:21:00.000Z</time>
      </trkpt>
      <trkpt lat="43.28435" lon="6.08144">
        <ele>456</ele>
        <time>2019-10-24T09:21:02.000Z</time>
      </trkpt>
      <trkpt lat="43.28443" lon="6.08131">
        <ele>455.39999389648</ele>
        <time>2019-10-24T09:21:04.000Z</time>
      </trkpt>
      <trkpt lat="43.28445" lon="6.08125">
        <ele>455.20001220703</ele>
        <time>2019-10-24T09:21:05.000Z</time>
      </trkpt>
      <trkpt lat="43.2845" lon="6.08092">
        <ele>455.20001220703</ele>
        <time>2019-10-24T09:21:09.000Z</time>
      </trkpt>
      <trkpt lat="43.28452" lon="6.08047">
        <ele>454.60000610352</ele>
        <time>2019-10-24T09:21:14.000Z</time>
      </trkpt>
      <trkpt lat="43.28453" lon="6.08038">
        <ele>454</ele>
        <time>2019-10-24T09:21:15.000Z</time>
      </trkpt>
      <trkpt lat="43.28453" lon="6.0802">
        <ele>453.39999389648</ele>
        <time>2019-10-24T09:21:17.000Z</time>
      </trkpt>
      <trkpt lat="43.28451" lon="6.07994">
        <ele>453.39999389648</ele>
        <time>2019-10-24T09:21:20.000Z</time>
      </trkpt>
      <trkpt lat="43.28448" lon="6.07977">
        <ele>453.39999389648</ele>
        <time>2019-10-24T09:21:22.000Z</time>
      </trkpt>
      <trkpt lat="43.28442" lon="6.07962">
        <ele>452.60000610352</ele>
        <time>2019-10-24T09:21:24.000Z</time>
      </trkpt>
      <trkpt lat="43.28439" lon="6.07954">
        <ele>452.39999389648</ele>
        <time>2019-10-24T09:21:25.000Z</time>
      </trkpt>
      <trkpt lat="43.28424" lon="6.07909">
        <ele>452.39999389648</ele>
        <time>2019-10-24T09:21:31.000Z</time>
      </trkpt>
      <trkpt lat="43.28427" lon="6.07888">
        <ele>452.39999389648</ele>
        <time>2019-10-24T09:21:34.000Z</time>
      </trkpt>
      <trkpt lat="43.28438" lon="6.07874">
        <ele>451.60000610352</ele>
        <time>2019-10-24T09:21:37.000Z</time>
      </trkpt>
      <trkpt lat="43.28443" lon="6.07871">
        <ele>451.20001220703</ele>
        <time>2019-10-24T09:21:38.000Z</time>
      </trkpt>
      <trkpt lat="43.28449" lon="6.07868">
        <ele>450.79998779297</ele>
        <time>2019-10-24T09:21:39.000Z</time>
      </trkpt>
      <trkpt lat="43.28462" lon="6.07862">
        <ele>450.79998779297</ele>
        <time>2019-10-24T09:21:41.000Z</time>
      </trkpt>
      <trkpt lat="43.28486" lon="6.07856">
        <ele>449.79998779297</ele>
        <time>2019-10-24T09:21:45.000Z</time>
      </trkpt>
      <trkpt lat="43.28493" lon="6.07855">
        <ele>449.60000610352</ele>
        <time>2019-10-24T09:21:46.000Z</time>
      </trkpt>
      <trkpt lat="43.28518" lon="6.07852">
        <ele>448.79998779297</ele>
        <time>2019-10-24T09:21:50.000Z</time>
      </trkpt>
      <trkpt lat="43.2853" lon="6.0785">
        <ele>448.60000610352</ele>
        <time>2019-10-24T09:21:52.000Z</time>
      </trkpt>
      <trkpt lat="43.28535" lon="6.07849">
        <ele>448.20001220703</ele>
        <time>2019-10-24T09:21:53.000Z</time>
      </trkpt>
      <trkpt lat="43.2854" lon="6.07847">
        <ele>448</ele>
        <time>2019-10-24T09:21:54.000Z</time>
      </trkpt>
      <trkpt lat="43.28545" lon="6.07844">
        <ele>447.79998779297</ele>
        <time>2019-10-24T09:21:55.000Z</time>
      </trkpt>
      <trkpt lat="43.28552" lon="6.07835">
        <ele>447.20001220703</ele>
        <time>2019-10-24T09:21:57.000Z</time>
      </trkpt>
      <trkpt lat="43.28561" lon="6.07811">
        <ele>446.79998779297</ele>
        <time>2019-10-24T09:22:01.000Z</time>
      </trkpt>
      <trkpt lat="43.28562" lon="6.07804">
        <ele>446.79998779297</ele>
        <time>2019-10-24T09:22:02.000Z</time>
      </trkpt>
      <trkpt lat="43.28565" lon="6.07791">
        <ele>447</ele>
        <time>2019-10-24T09:22:04.000Z</time>
      </trkpt>
      <trkpt lat="43.28566" lon="6.07779">
        <ele>447.20001220703</ele>
        <time>2019-10-24T09:22:06.000Z</time>
      </trkpt>
      <trkpt lat="43.28569" lon="6.07765">
        <ele>446.79998779297</ele>
        <time>2019-10-24T09:22:08.000Z</time>
      </trkpt>
      <trkpt lat="43.28569" lon="6.07758">
        <ele>446.20001220703</ele>
        <time>2019-10-24T09:22:09.000Z</time>
      </trkpt>
      <trkpt lat="43.2857" lon="6.07751">
        <ele>445.20001220703</ele>
        <time>2019-10-24T09:22:10.000Z</time>
      </trkpt>
      <trkpt lat="43.2857" lon="6.07743">
        <ele>445</ele>
        <time>2019-10-24T09:22:11.000Z</time>
      </trkpt>
      <trkpt lat="43.28576" lon="6.07711">
        <ele>444</ele>
        <time>2019-10-24T09:22:15.000Z</time>
      </trkpt>
      <trkpt lat="43.28578" lon="6.07704">
        <ele>443.79998779297</ele>
        <time>2019-10-24T09:22:16.000Z</time>
      </trkpt>
      <trkpt lat="43.28585" lon="6.07693">
        <ele>442</ele>
        <time>2019-10-24T09:22:18.000Z</time>
      </trkpt>
      <trkpt lat="43.28595" lon="6.07685">
        <ele>441.20001220703</ele>
        <time>2019-10-24T09:22:20.000Z</time>
      </trkpt>
      <trkpt lat="43.286" lon="6.07681">
        <ele>440.20001220703</ele>
        <time>2019-10-24T09:22:21.000Z</time>
      </trkpt>
      <trkpt lat="43.28605" lon="6.07679">
        <ele>439.39999389648</ele>
        <time>2019-10-24T09:22:22.000Z</time>
      </trkpt>
      <trkpt lat="43.2861" lon="6.07676">
        <ele>438.39999389648</ele>
        <time>2019-10-24T09:22:23.000Z</time>
      </trkpt>
      <trkpt lat="43.28621" lon="6.07671">
        <ele>437.39999389648</ele>
        <time>2019-10-24T09:22:25.000Z</time>
      </trkpt>
      <trkpt lat="43.28626" lon="6.07668">
        <ele>437.39999389648</ele>
        <time>2019-10-24T09:22:26.000Z</time>
      </trkpt>
      <trkpt lat="43.28642" lon="6.07664">
        <ele>438.39999389648</ele>
        <time>2019-10-24T09:22:29.000Z</time>
      </trkpt>
      <trkpt lat="43.28646" lon="6.07662">
        <ele>437.79998779297</ele>
        <time>2019-10-24T09:22:30.000Z</time>
      </trkpt>
      <trkpt lat="43.28651" lon="6.0766">
        <ele>437.20001220703</ele>
        <time>2019-10-24T09:22:31.000Z</time>
      </trkpt>
      <trkpt lat="43.28665" lon="6.07653">
        <ele>436</ele>
        <time>2019-10-24T09:22:34.000Z</time>
      </trkpt>
      <trkpt lat="43.28674" lon="6.07645">
        <ele>435.39999389648</ele>
        <time>2019-10-24T09:22:36.000Z</time>
      </trkpt>
      <trkpt lat="43.28678" lon="6.07641">
        <ele>435</ele>
        <time>2019-10-24T09:22:37.000Z</time>
      </trkpt>
      <trkpt lat="43.28683" lon="6.07628">
        <ele>433.39999389648</ele>
        <time>2019-10-24T09:22:39.000Z</time>
      </trkpt>
      <trkpt lat="43.28684" lon="6.07621">
        <ele>433</ele>
        <time>2019-10-24T09:22:40.000Z</time>
      </trkpt>
      <trkpt lat="43.28685" lon="6.07613">
        <ele>432.79998779297</ele>
        <time>2019-10-24T09:22:41.000Z</time>
      </trkpt>
      <trkpt lat="43.28684" lon="6.07598">
        <ele>431.79998779297</ele>
        <time>2019-10-24T09:22:43.000Z</time>
      </trkpt>
      <trkpt lat="43.28681" lon="6.07584">
        <ele>430.60000610352</ele>
        <time>2019-10-24T09:22:45.000Z</time>
      </trkpt>
      <trkpt lat="43.28675" lon="6.07571">
        <ele>429.39999389648</ele>
        <time>2019-10-24T09:22:47.000Z</time>
      </trkpt>
      <trkpt lat="43.28664" lon="6.07555">
        <ele>428.39999389648</ele>
        <time>2019-10-24T09:22:50.000Z</time>
      </trkpt>
      <trkpt lat="43.28656" lon="6.07547">
        <ele>428</ele>
        <time>2019-10-24T09:22:52.000Z</time>
      </trkpt>
      <trkpt lat="43.28645" lon="6.07532">
        <ele>427.20001220703</ele>
        <time>2019-10-24T09:22:55.000Z</time>
      </trkpt>
      <trkpt lat="43.28637" lon="6.07522">
        <ele>426.79998779297</ele>
        <time>2019-10-24T09:22:57.000Z</time>
      </trkpt>
      <trkpt lat="43.28634" lon="6.07517">
        <ele>427</ele>
        <time>2019-10-24T09:22:58.000Z</time>
      </trkpt>
      <trkpt lat="43.28614" lon="6.0749">
        <ele>426.60000610352</ele>
        <time>2019-10-24T09:23:04.000Z</time>
      </trkpt>
      <trkpt lat="43.28599" lon="6.07477">
        <ele>425.79998779297</ele>
        <time>2019-10-24T09:23:08.000Z</time>
      </trkpt>
      <trkpt lat="43.28587" lon="6.07467">
        <ele>425</ele>
        <time>2019-10-24T09:23:11.000Z</time>
      </trkpt>
      <trkpt lat="43.28574" lon="6.07458">
        <ele>424.39999389648</ele>
        <time>2019-10-24T09:23:14.000Z</time>
      </trkpt>
      <trkpt lat="43.28566" lon="6.07451">
        <ele>424</ele>
        <time>2019-10-24T09:23:16.000Z</time>
      </trkpt>
      <trkpt lat="43.28561" lon="6.07443">
        <ele>424</ele>
        <time>2019-10-24T09:23:18.000Z</time>
      </trkpt>
      <trkpt lat="43.28556" lon="6.07426">
        <ele>424</ele>
        <time>2019-10-24T09:23:22.000Z</time>
      </trkpt>
      <trkpt lat="43.28556" lon="6.0741">
        <ele>424</ele>
        <time>2019-10-24T09:23:26.000Z</time>
      </trkpt>
      <trkpt lat="43.28556" lon="6.07389">
        <ele>424.60000610352</ele>
        <time>2019-10-24T09:23:31.000Z</time>
      </trkpt>
      <trkpt lat="43.28556" lon="6.07373">
        <ele>425.39999389648</ele>
        <time>2019-10-24T09:23:35.000Z</time>
      </trkpt>
      <trkpt lat="43.28556" lon="6.07371">
        <ele>425.79998779297</ele>
        <time>2019-10-24T09:23:36.000Z</time>
      </trkpt>
      <trkpt lat="43.28559" lon="6.07355">
        <ele>426.60000610352</ele>
        <time>2019-10-24T09:23:41.000Z</time>
      </trkpt>
      <trkpt lat="43.28559" lon="6.07351">
        <ele>426.79998779297</ele>
        <time>2019-10-24T09:23:42.000Z</time>
      </trkpt>
      <trkpt lat="43.28563" lon="6.07331">
        <ele>426.39999389648</ele>
        <time>2019-10-24T09:23:47.000Z</time>
      </trkpt>
      <trkpt lat="43.28575" lon="6.07307">
        <ele>425.20001220703</ele>
        <time>2019-10-24T09:23:52.000Z</time>
      </trkpt>
      <trkpt lat="43.28579" lon="6.07301">
        <ele>425</ele>
        <time>2019-10-24T09:23:53.000Z</time>
      </trkpt>
      <trkpt lat="43.28582" lon="6.07295">
        <ele>424.60000610352</ele>
        <time>2019-10-24T09:23:54.000Z</time>
      </trkpt>
      <trkpt lat="43.28592" lon="6.07278">
        <ele>423.60000610352</ele>
        <time>2019-10-24T09:23:57.000Z</time>
      </trkpt>
      <trkpt lat="43.28596" lon="6.07272">
        <ele>423.60000610352</ele>
        <time>2019-10-24T09:23:58.000Z</time>
      </trkpt>
      <trkpt lat="43.28598" lon="6.07265">
        <ele>423.20001220703</ele>
        <time>2019-10-24T09:23:59.000Z</time>
      </trkpt>
      <trkpt lat="43.28605" lon="6.0725">
        <ele>422.39999389648</ele>
        <time>2019-10-24T09:24:01.000Z</time>
      </trkpt>
      <trkpt lat="43.28607" lon="6.07242">
        <ele>422</ele>
        <time>2019-10-24T09:24:02.000Z</time>
      </trkpt>
      <trkpt lat="43.28612" lon="6.07224">
        <ele>420.79998779297</ele>
        <time>2019-10-24T09:24:04.000Z</time>
      </trkpt>
      <trkpt lat="43.28616" lon="6.07206">
        <ele>420.20001220703</ele>
        <time>2019-10-24T09:24:06.000Z</time>
      </trkpt>
      <trkpt lat="43.28619" lon="6.07198">
        <ele>419</ele>
        <time>2019-10-24T09:24:07.000Z</time>
      </trkpt>
      <trkpt lat="43.28624" lon="6.0718">
        <ele>417.20001220703</ele>
        <time>2019-10-24T09:24:09.000Z</time>
      </trkpt>
      <trkpt lat="43.28627" lon="6.07171">
        <ele>416.20001220703</ele>
        <time>2019-10-24T09:24:10.000Z</time>
      </trkpt>
      <trkpt lat="43.28633" lon="6.07155">
        <ele>414.39999389648</ele>
        <time>2019-10-24T09:24:12.000Z</time>
      </trkpt>
      <trkpt lat="43.28637" lon="6.07138">
        <ele>413.39999389648</ele>
        <time>2019-10-24T09:24:14.000Z</time>
      </trkpt>
      <trkpt lat="43.2864" lon="6.07129">
        <ele>412.79998779297</ele>
        <time>2019-10-24T09:24:15.000Z</time>
      </trkpt>
      <trkpt lat="43.28646" lon="6.07103">
        <ele>412.20001220703</ele>
        <time>2019-10-24T09:24:18.000Z</time>
      </trkpt>
      <trkpt lat="43.28649" lon="6.07086">
        <ele>411.60000610352</ele>
        <time>2019-10-24T09:24:20.000Z</time>
      </trkpt>
      <trkpt lat="43.28653" lon="6.07067">
        <ele>411</ele>
        <time>2019-10-24T09:24:23.000Z</time>
      </trkpt>
      <trkpt lat="43.28655" lon="6.07056">
        <ele>410.79998779297</ele>
        <time>2019-10-24T09:24:25.000Z</time>
      </trkpt>
      <trkpt lat="43.28656" lon="6.07044">
        <ele>409.79998779297</ele>
        <time>2019-10-24T09:24:28.000Z</time>
      </trkpt>
      <trkpt lat="43.28658" lon="6.07035">
        <ele>409</ele>
        <time>2019-10-24T09:24:30.000Z</time>
      </trkpt>
      <trkpt lat="43.28659" lon="6.0703">
        <ele>408.79998779297</ele>
        <time>2019-10-24T09:24:31.000Z</time>
      </trkpt>
      <trkpt lat="43.28661" lon="6.07018">
        <ele>408</ele>
        <time>2019-10-24T09:24:33.000Z</time>
      </trkpt>
      <trkpt lat="43.28662" lon="6.07012">
        <ele>407.39999389648</ele>
        <time>2019-10-24T09:24:34.000Z</time>
      </trkpt>
      <trkpt lat="43.28664" lon="6.07007">
        <ele>407</ele>
        <time>2019-10-24T09:24:35.000Z</time>
      </trkpt>
      <trkpt lat="43.28665" lon="6.07003">
        <ele>406.20001220703</ele>
        <time>2019-10-24T09:24:36.000Z</time>
      </trkpt>
      <trkpt lat="43.28667" lon="6.07001">
        <ele>405.39999389648</ele>
        <time>2019-10-24T09:24:38.000Z</time>
      </trkpt>
      <trkpt lat="43.28666" lon="6.07001">
        <ele>405.20001220703</ele>
        <time>2019-10-24T09:24:39.000Z</time>
      </trkpt>
      <trkpt lat="43.28666" lon="6.06995">
        <ele>404.79998779297</ele>
        <time>2019-10-24T09:25:04.000Z</time>
      </trkpt>
      <trkpt lat="43.28667" lon="6.06993">
        <ele>404.79998779297</ele>
        <time>2019-10-24T09:25:05.000Z</time>
      </trkpt>
      <trkpt lat="43.28667" lon="6.0699">
        <ele>405</ele>
        <time>2019-10-24T09:25:06.000Z</time>
      </trkpt>
      <trkpt lat="43.28662" lon="6.06973">
        <ele>405</ele>
        <time>2019-10-24T09:25:10.000Z</time>
      </trkpt>
      <trkpt lat="43.28661" lon="6.06969">
        <ele>405.20001220703</ele>
        <time>2019-10-24T09:25:11.000Z</time>
      </trkpt>
      <trkpt lat="43.28652" lon="6.0695">
        <ele>406</ele>
        <time>2019-10-24T09:25:17.000Z</time>
      </trkpt>
      <trkpt lat="43.28652" lon="6.06947">
        <ele>406.20001220703</ele>
        <time>2019-10-24T09:25:18.000Z</time>
      </trkpt>
      <trkpt lat="43.28654" lon="6.06937">
        <ele>407.20001220703</ele>
        <time>2019-10-24T09:25:21.000Z</time>
      </trkpt>
      <trkpt lat="43.28654" lon="6.06934">
        <ele>407.39999389648</ele>
        <time>2019-10-24T09:25:22.000Z</time>
      </trkpt>
      <trkpt lat="43.28661" lon="6.06915">
        <ele>408.20001220703</ele>
        <time>2019-10-24T09:25:28.000Z</time>
      </trkpt>
      <trkpt lat="43.28671" lon="6.06894">
        <ele>409.39999389648</ele>
        <time>2019-10-24T09:25:35.000Z</time>
      </trkpt>
      <trkpt lat="43.28682" lon="6.06869">
        <ele>410.20001220703</ele>
        <time>2019-10-24T09:25:42.000Z</time>
      </trkpt>
      <trkpt lat="43.28685" lon="6.06862">
        <ele>410.60000610352</ele>
        <time>2019-10-24T09:25:44.000Z</time>
      </trkpt>
      <trkpt lat="43.28692" lon="6.06844">
        <ele>411.79998779297</ele>
        <time>2019-10-24T09:25:49.000Z</time>
      </trkpt>
      <trkpt lat="43.28701" lon="6.0682">
        <ele>412.60000610352</ele>
        <time>2019-10-24T09:25:55.000Z</time>
      </trkpt>
      <trkpt lat="43.28713" lon="6.06781">
        <ele>412.60000610352</ele>
        <time>2019-10-24T09:26:03.000Z</time>
      </trkpt>
      <trkpt lat="43.28721" lon="6.06768">
        <ele>412.60000610352</ele>
        <time>2019-10-24T09:26:08.000Z</time>
      </trkpt>
      <trkpt lat="43.28736" lon="6.06759">
        <ele>412.20001220703</ele>
        <time>2019-10-24T09:26:13.000Z</time>
      </trkpt>
      <trkpt lat="43.28761" lon="6.06743">
        <ele>412.20001220703</ele>
        <time>2019-10-24T09:26:20.000Z</time>
      </trkpt>
      <trkpt lat="43.28776" lon="6.06745">
        <ele>412.20001220703</ele>
        <time>2019-10-24T09:26:24.000Z</time>
      </trkpt>
      <trkpt lat="43.28804" lon="6.06752">
        <ele>412</ele>
        <time>2019-10-24T09:26:31.000Z</time>
      </trkpt>
      <trkpt lat="43.28831" lon="6.06752">
        <ele>411.79998779297</ele>
        <time>2019-10-24T09:26:38.000Z</time>
      </trkpt>
      <trkpt lat="43.28854" lon="6.06751">
        <ele>411.20001220703</ele>
        <time>2019-10-24T09:26:44.000Z</time>
      </trkpt>
      <trkpt lat="43.28869" lon="6.0675">
        <ele>411.79998779297</ele>
        <time>2019-10-24T09:26:49.000Z</time>
      </trkpt>
      <trkpt lat="43.28881" lon="6.06747">
        <ele>411</ele>
        <time>2019-10-24T09:26:56.000Z</time>
      </trkpt>
      <trkpt lat="43.28883" lon="6.06745">
        <ele>410.60000610352</ele>
        <time>2019-10-24T09:26:57.000Z</time>
      </trkpt>
      <trkpt lat="43.28889" lon="6.06744">
        <ele>410.20001220703</ele>
        <time>2019-10-24T09:27:00.000Z</time>
      </trkpt>
      <trkpt lat="43.28892" lon="6.06745">
        <ele>409.60000610352</ele>
        <time>2019-10-24T09:27:02.000Z</time>
      </trkpt>
      <trkpt lat="43.28896" lon="6.06748">
        <ele>409</ele>
        <time>2019-10-24T09:27:04.000Z</time>
      </trkpt>
      <trkpt lat="43.28898" lon="6.0675">
        <ele>408.60000610352</ele>
        <time>2019-10-24T09:27:05.000Z</time>
      </trkpt>
      <trkpt lat="43.28901" lon="6.06752">
        <ele>408.39999389648</ele>
        <time>2019-10-24T09:27:06.000Z</time>
      </trkpt>
      <trkpt lat="43.28907" lon="6.06754">
        <ele>407.39999389648</ele>
        <time>2019-10-24T09:27:08.000Z</time>
      </trkpt>
      <trkpt lat="43.2891" lon="6.06754">
        <ele>406.60000610352</ele>
        <time>2019-10-24T09:27:09.000Z</time>
      </trkpt>
      <trkpt lat="43.28913" lon="6.06753">
        <ele>406.20001220703</ele>
        <time>2019-10-24T09:27:10.000Z</time>
      </trkpt>
      <trkpt lat="43.28925" lon="6.06754">
        <ele>404.79998779297</ele>
        <time>2019-10-24T09:27:14.000Z</time>
      </trkpt>
      <trkpt lat="43.28932" lon="6.06761">
        <ele>403.60000610352</ele>
        <time>2019-10-24T09:27:17.000Z</time>
      </trkpt>
      <trkpt lat="43.28935" lon="6.06766">
        <ele>402.39999389648</ele>
        <time>2019-10-24T09:27:19.000Z</time>
      </trkpt>
      <trkpt lat="43.28937" lon="6.06775">
        <ele>401.39999389648</ele>
        <time>2019-10-24T09:27:23.000Z</time>
      </trkpt>
      <trkpt lat="43.28938" lon="6.06778">
        <ele>401.20001220703</ele>
        <time>2019-10-24T09:27:24.000Z</time>
      </trkpt>
      <trkpt lat="43.2894" lon="6.06786">
        <ele>400.39999389648</ele>
        <time>2019-10-24T09:27:27.000Z</time>
      </trkpt>
      <trkpt lat="43.28941" lon="6.06788">
        <ele>400.20001220703</ele>
        <time>2019-10-24T09:27:28.000Z</time>
      </trkpt>
      <trkpt lat="43.28946" lon="6.06798">
        <ele>398.60000610352</ele>
        <time>2019-10-24T09:27:32.000Z</time>
      </trkpt>
      <trkpt lat="43.28947" lon="6.068">
        <ele>398.20001220703</ele>
        <time>2019-10-24T09:27:33.000Z</time>
      </trkpt>
      <trkpt lat="43.28948" lon="6.06804">
        <ele>397.39999389648</ele>
        <time>2019-10-24T09:27:34.000Z</time>
      </trkpt>
      <trkpt lat="43.28951" lon="6.0681">
        <ele>396.60000610352</ele>
        <time>2019-10-24T09:27:36.000Z</time>
      </trkpt>
      <trkpt lat="43.28952" lon="6.06813">
        <ele>396.20001220703</ele>
        <time>2019-10-24T09:27:37.000Z</time>
      </trkpt>
      <trkpt lat="43.28955" lon="6.06819">
        <ele>396</ele>
        <time>2019-10-24T09:27:39.000Z</time>
      </trkpt>
      <trkpt lat="43.28959" lon="6.06824">
        <ele>395</ele>
        <time>2019-10-24T09:27:41.000Z</time>
      </trkpt>
      <trkpt lat="43.28962" lon="6.06828">
        <ele>393.39999389648</ele>
        <time>2019-10-24T09:27:43.000Z</time>
      </trkpt>
      <trkpt lat="43.28964" lon="6.0683">
        <ele>393</ele>
        <time>2019-10-24T09:27:44.000Z</time>
      </trkpt>
      <trkpt lat="43.28968" lon="6.06836">
        <ele>392.20001220703</ele>
        <time>2019-10-24T09:27:47.000Z</time>
      </trkpt>
      <trkpt lat="43.28971" lon="6.06841">
        <ele>391.39999389648</ele>
        <time>2019-10-24T09:27:49.000Z</time>
      </trkpt>
      <trkpt lat="43.28973" lon="6.06844">
        <ele>391</ele>
        <time>2019-10-24T09:27:50.000Z</time>
      </trkpt>
      <trkpt lat="43.28979" lon="6.06852">
        <ele>389.79998779297</ele>
        <time>2019-10-24T09:27:53.000Z</time>
      </trkpt>
      <trkpt lat="43.28987" lon="6.06858">
        <ele>389.20001220703</ele>
        <time>2019-10-24T09:27:56.000Z</time>
      </trkpt>
      <trkpt lat="43.28989" lon="6.0686">
        <ele>388.79998779297</ele>
        <time>2019-10-24T09:27:57.000Z</time>
      </trkpt>
      <trkpt lat="43.28994" lon="6.06865">
        <ele>387.60000610352</ele>
        <time>2019-10-24T09:28:00.000Z</time>
      </trkpt>
      <trkpt lat="43.28996" lon="6.06867">
        <ele>387.20001220703</ele>
        <time>2019-10-24T09:28:01.000Z</time>
      </trkpt>
      <trkpt lat="43.29001" lon="6.06873">
        <ele>386.39999389648</ele>
        <time>2019-10-24T09:28:04.000Z</time>
      </trkpt>
      <trkpt lat="43.29003" lon="6.06875">
        <ele>386.20001220703</ele>
        <time>2019-10-24T09:28:05.000Z</time>
      </trkpt>
      <trkpt lat="43.29005" lon="6.06874">
        <ele>386</ele>
        <time>2019-10-24T09:28:06.000Z</time>
      </trkpt>
      <trkpt lat="43.29009" lon="6.06876">
        <ele>385.60000610352</ele>
        <time>2019-10-24T09:28:08.000Z</time>
      </trkpt>
      <trkpt lat="43.29018" lon="6.06879">
        <ele>384.39999389648</ele>
        <time>2019-10-24T09:28:11.000Z</time>
      </trkpt>
      <trkpt lat="43.29025" lon="6.06883">
        <ele>383.39999389648</ele>
        <time>2019-10-24T09:28:14.000Z</time>
      </trkpt>
      <trkpt lat="43.29029" lon="6.06887">
        <ele>382.60000610352</ele>
        <time>2019-10-24T09:28:16.000Z</time>
      </trkpt>
      <trkpt lat="43.29035" lon="6.06886">
        <ele>382</ele>
        <time>2019-10-24T09:28:19.000Z</time>
      </trkpt>
      <trkpt lat="43.29037" lon="6.06886">
        <ele>381.79998779297</ele>
        <time>2019-10-24T09:28:20.000Z</time>
      </trkpt>
      <trkpt lat="43.29039" lon="6.06887">
        <ele>381.39999389648</ele>
        <time>2019-10-24T09:28:21.000Z</time>
      </trkpt>
      <trkpt lat="43.29044" lon="6.06887">
        <ele>380.60000610352</ele>
        <time>2019-10-24T09:28:23.000Z</time>
      </trkpt>
      <trkpt lat="43.29053" lon="6.06887">
        <ele>379.20001220703</ele>
        <time>2019-10-24T09:28:27.000Z</time>
      </trkpt>
      <trkpt lat="43.29061" lon="6.06887">
        <ele>378</ele>
        <time>2019-10-24T09:28:30.000Z</time>
      </trkpt>
      <trkpt lat="43.29065" lon="6.06885">
        <ele>377</ele>
        <time>2019-10-24T09:28:32.000Z</time>
      </trkpt>
      <trkpt lat="43.29067" lon="6.06885">
        <ele>376.39999389648</ele>
        <time>2019-10-24T09:28:33.000Z</time>
      </trkpt>
      <trkpt lat="43.29077" lon="6.0689">
        <ele>375.39999389648</ele>
        <time>2019-10-24T09:28:36.000Z</time>
      </trkpt>
      <trkpt lat="43.29084" lon="6.06892">
        <ele>374</ele>
        <time>2019-10-24T09:28:38.000Z</time>
      </trkpt>
      <trkpt lat="43.29089" lon="6.06894">
        <ele>373.39999389648</ele>
        <time>2019-10-24T09:28:40.000Z</time>
      </trkpt>
      <trkpt lat="43.29097" lon="6.06893">
        <ele>373.39999389648</ele>
        <time>2019-10-24T09:28:44.000Z</time>
      </trkpt>
      <trkpt lat="43.29099" lon="6.06889">
        <ele>373.39999389648</ele>
        <time>2019-10-24T09:28:46.000Z</time>
      </trkpt>
      <trkpt lat="43.29093" lon="6.06886">
        <ele>373.39999389648</ele>
        <time>2019-10-24T09:28:50.000Z</time>
      </trkpt>
      <trkpt lat="43.29083" lon="6.06878">
        <ele>373.20001220703</ele>
        <time>2019-10-24T09:28:56.000Z</time>
      </trkpt>
      <trkpt lat="43.2908" lon="6.0687">
        <ele>373</ele>
        <time>2019-10-24T09:28:59.000Z</time>
      </trkpt>
      <trkpt lat="43.29078" lon="6.06863">
        <ele>372.79998779297</ele>
        <time>2019-10-24T09:29:01.000Z</time>
      </trkpt>
      <trkpt lat="43.2908" lon="6.06851">
        <ele>373</ele>
        <time>2019-10-24T09:29:05.000Z</time>
      </trkpt>
      <trkpt lat="43.29089" lon="6.06836">
        <ele>372.79998779297</ele>
        <time>2019-10-24T09:29:10.000Z</time>
      </trkpt>
      <trkpt lat="43.291" lon="6.0682">
        <ele>372.79998779297</ele>
        <time>2019-10-24T09:29:15.000Z</time>
      </trkpt>
      <trkpt lat="43.29109" lon="6.06814">
        <ele>372</ele>
        <time>2019-10-24T09:29:18.000Z</time>
      </trkpt>
      <trkpt lat="43.29121" lon="6.06803">
        <ele>371.39999389648</ele>
        <time>2019-10-24T09:29:22.000Z</time>
      </trkpt>
      <trkpt lat="43.29136" lon="6.06783">
        <ele>370.79998779297</ele>
        <time>2019-10-24T09:29:28.000Z</time>
      </trkpt>
      <trkpt lat="43.29149" lon="6.06767">
        <ele>370.39999389648</ele>
        <time>2019-10-24T09:29:33.000Z</time>
      </trkpt>
      <trkpt lat="43.29153" lon="6.06758">
        <ele>369.79998779297</ele>
        <time>2019-10-24T09:29:38.000Z</time>
      </trkpt>
      <trkpt lat="43.29153" lon="6.06755">
        <ele>369.60000610352</ele>
        <time>2019-10-24T09:29:40.000Z</time>
      </trkpt>
      <trkpt lat="43.29154" lon="6.06753">
        <ele>369.39999389648</ele>
        <time>2019-10-24T09:29:42.000Z</time>
      </trkpt>
      <trkpt lat="43.29156" lon="6.06751">
        <ele>369.39999389648</ele>
        <time>2019-10-24T09:29:43.000Z</time>
      </trkpt>
      <trkpt lat="43.2916" lon="6.06746">
        <ele>370.20001220703</ele>
        <time>2019-10-24T09:29:47.000Z</time>
      </trkpt>
      <trkpt lat="43.29162" lon="6.06746">
        <ele>370.39999389648</ele>
        <time>2019-10-24T09:29:49.000Z</time>
      </trkpt>
      <trkpt lat="43.29163" lon="6.06747">
        <ele>370.20001220703</ele>
        <time>2019-10-24T09:29:50.000Z</time>
      </trkpt>
      <trkpt lat="43.29167" lon="6.06743">
        <ele>369.79998779297</ele>
        <time>2019-10-24T09:29:53.000Z</time>
      </trkpt>
      <trkpt lat="43.29168" lon="6.06741">
        <ele>369.60000610352</ele>
        <time>2019-10-24T09:29:54.000Z</time>
      </trkpt>
      <trkpt lat="43.29177" lon="6.06721">
        <ele>370</ele>
        <time>2019-10-24T09:30:01.000Z</time>
      </trkpt>
      <trkpt lat="43.29179" lon="6.06709">
        <ele>370.60000610352</ele>
        <time>2019-10-24T09:30:04.000Z</time>
      </trkpt>
      <trkpt lat="43.2918" lon="6.06701">
        <ele>371.20001220703</ele>
        <time>2019-10-24T09:30:06.000Z</time>
      </trkpt>
      <trkpt lat="43.29182" lon="6.06691">
        <ele>371.79998779297</ele>
        <time>2019-10-24T09:30:09.000Z</time>
      </trkpt>
      <trkpt lat="43.29184" lon="6.06681">
        <ele>372</ele>
        <time>2019-10-24T09:30:12.000Z</time>
      </trkpt>
      <trkpt lat="43.29187" lon="6.06668">
        <ele>372.79998779297</ele>
        <time>2019-10-24T09:30:16.000Z</time>
      </trkpt>
      <trkpt lat="43.2919" lon="6.06661">
        <ele>373.20001220703</ele>
        <time>2019-10-24T09:30:18.000Z</time>
      </trkpt>
      <trkpt lat="43.292" lon="6.06628">
        <ele>373.20001220703</ele>
        <time>2019-10-24T09:30:26.000Z</time>
      </trkpt>
      <trkpt lat="43.29204" lon="6.06602">
        <ele>373.20001220703</ele>
        <time>2019-10-24T09:30:32.000Z</time>
      </trkpt>
      <trkpt lat="43.292" lon="6.06584">
        <ele>373.20001220703</ele>
        <time>2019-10-24T09:30:37.000Z</time>
      </trkpt>
      <trkpt lat="43.29198" lon="6.06561">
        <ele>372.79998779297</ele>
        <time>2019-10-24T09:30:42.000Z</time>
      </trkpt>
      <trkpt lat="43.29197" lon="6.06556">
        <ele>372.79998779297</ele>
        <time>2019-10-24T09:30:43.000Z</time>
      </trkpt>
      <trkpt lat="43.29201" lon="6.06542">
        <ele>373.39999389648</ele>
        <time>2019-10-24T09:30:47.000Z</time>
      </trkpt>
      <trkpt lat="43.29205" lon="6.06538">
        <ele>373.79998779297</ele>
        <time>2019-10-24T09:30:49.000Z</time>
      </trkpt>
      <trkpt lat="43.29213" lon="6.06529">
        <ele>374.20001220703</ele>
        <time>2019-10-24T09:30:53.000Z</time>
      </trkpt>
      <trkpt lat="43.29222" lon="6.06513">
        <ele>373</ele>
        <time>2019-10-24T09:30:57.000Z</time>
      </trkpt>
      <trkpt lat="43.29226" lon="6.06509">
        <ele>372.79998779297</ele>
        <time>2019-10-24T09:30:58.000Z</time>
      </trkpt>
      <trkpt lat="43.29229" lon="6.06505">
        <ele>372.60000610352</ele>
        <time>2019-10-24T09:30:59.000Z</time>
      </trkpt>
      <trkpt lat="43.29233" lon="6.06501">
        <ele>372.39999389648</ele>
        <time>2019-10-24T09:31:00.000Z</time>
      </trkpt>
      <trkpt lat="43.29246" lon="6.06495">
        <ele>371.39999389648</ele>
        <time>2019-10-24T09:31:03.000Z</time>
      </trkpt>
      <trkpt lat="43.29254" lon="6.06495">
        <ele>370.79998779297</ele>
        <time>2019-10-24T09:31:05.000Z</time>
      </trkpt>
      <trkpt lat="43.29258" lon="6.06495">
        <ele>370.20001220703</ele>
        <time>2019-10-24T09:31:06.000Z</time>
      </trkpt>
      <trkpt lat="43.29267" lon="6.06495">
        <ele>368.79998779297</ele>
        <time>2019-10-24T09:31:08.000Z</time>
      </trkpt>
      <trkpt lat="43.29277" lon="6.06496">
        <ele>367.20001220703</ele>
        <time>2019-10-24T09:31:10.000Z</time>
      </trkpt>
      <trkpt lat="43.29293" lon="6.06492">
        <ele>365.60000610352</ele>
        <time>2019-10-24T09:31:13.000Z</time>
      </trkpt>
      <trkpt lat="43.29307" lon="6.06477">
        <ele>364</ele>
        <time>2019-10-24T09:31:16.000Z</time>
      </trkpt>
      <trkpt lat="43.2931" lon="6.06463">
        <ele>363</ele>
        <time>2019-10-24T09:31:19.000Z</time>
      </trkpt>
      <trkpt lat="43.29304" lon="6.06447">
        <ele>362</ele>
        <time>2019-10-24T09:31:23.000Z</time>
      </trkpt>
      <trkpt lat="43.29304" lon="6.06443">
        <ele>361.60000610352</ele>
        <time>2019-10-24T09:31:24.000Z</time>
      </trkpt>
      <trkpt lat="43.29307" lon="6.06436">
        <ele>361</ele>
        <time>2019-10-24T09:31:26.000Z</time>
      </trkpt>
      <trkpt lat="43.29316" lon="6.06438">
        <ele>360.39999389648</ele>
        <time>2019-10-24T09:31:30.000Z</time>
      </trkpt>
      <trkpt lat="43.2933" lon="6.06439">
        <ele>360.60000610352</ele>
        <time>2019-10-24T09:31:35.000Z</time>
      </trkpt>
      <trkpt lat="43.29342" lon="6.06435">
        <ele>361</ele>
        <time>2019-10-24T09:31:39.000Z</time>
      </trkpt>
      <trkpt lat="43.29349" lon="6.06433">
        <ele>361.20001220703</ele>
        <time>2019-10-24T09:31:41.000Z</time>
      </trkpt>
      <trkpt lat="43.29369" lon="6.06424">
        <ele>361.20001220703</ele>
        <time>2019-10-24T09:31:47.000Z</time>
      </trkpt>
      <trkpt lat="43.29395" lon="6.06403">
        <ele>361.39999389648</ele>
        <time>2019-10-24T09:31:54.000Z</time>
      </trkpt>
      <trkpt lat="43.29409" lon="6.0639">
        <ele>361</ele>
        <time>2019-10-24T09:31:58.000Z</time>
      </trkpt>
      <trkpt lat="43.29416" lon="6.06387">
        <ele>360.79998779297</ele>
        <time>2019-10-24T09:32:00.000Z</time>
      </trkpt>
      <trkpt lat="43.29421" lon="6.06384">
        <ele>360.79998779297</ele>
        <time>2019-10-24T09:32:01.000Z</time>
      </trkpt>
      <trkpt lat="43.29431" lon="6.06377">
        <ele>361</ele>
        <time>2019-10-24T09:32:04.000Z</time>
      </trkpt>
      <trkpt lat="43.29455" lon="6.0636">
        <ele>361.60000610352</ele>
        <time>2019-10-24T09:32:11.000Z</time>
      </trkpt>
      <trkpt lat="43.29467" lon="6.06362">
        <ele>361.39999389648</ele>
        <time>2019-10-24T09:32:15.000Z</time>
      </trkpt>
      <trkpt lat="43.29479" lon="6.06359">
        <ele>360.60000610352</ele>
        <time>2019-10-24T09:32:20.000Z</time>
      </trkpt>
      <trkpt lat="43.29488" lon="6.06345">
        <ele>360</ele>
        <time>2019-10-24T09:32:25.000Z</time>
      </trkpt>
      <trkpt lat="43.29497" lon="6.06326">
        <ele>358.60000610352</ele>
        <time>2019-10-24T09:32:29.000Z</time>
      </trkpt>
      <trkpt lat="43.295" lon="6.06321">
        <ele>358.20001220703</ele>
        <time>2019-10-24T09:32:30.000Z</time>
      </trkpt>
      <trkpt lat="43.29506" lon="6.06311">
        <ele>357.60000610352</ele>
        <time>2019-10-24T09:32:32.000Z</time>
      </trkpt>
      <trkpt lat="43.29512" lon="6.06301">
        <ele>356.39999389648</ele>
        <time>2019-10-24T09:32:34.000Z</time>
      </trkpt>
      <trkpt lat="43.29518" lon="6.06293">
        <ele>355</ele>
        <time>2019-10-24T09:32:36.000Z</time>
      </trkpt>
      <trkpt lat="43.29526" lon="6.06285">
        <ele>352.79998779297</ele>
        <time>2019-10-24T09:32:38.000Z</time>
      </trkpt>
      <trkpt lat="43.29531" lon="6.06281">
        <ele>351.60000610352</ele>
        <time>2019-10-24T09:32:39.000Z</time>
      </trkpt>
      <trkpt lat="43.29535" lon="6.06278">
        <ele>350.60000610352</ele>
        <time>2019-10-24T09:32:40.000Z</time>
      </trkpt>
      <trkpt lat="43.29539" lon="6.06274">
        <ele>349.79998779297</ele>
        <time>2019-10-24T09:32:41.000Z</time>
      </trkpt>
      <trkpt lat="43.29547" lon="6.06267">
        <ele>348.20001220703</ele>
        <time>2019-10-24T09:32:43.000Z</time>
      </trkpt>
      <trkpt lat="43.29551" lon="6.06264">
        <ele>347</ele>
        <time>2019-10-24T09:32:44.000Z</time>
      </trkpt>
      <trkpt lat="43.29556" lon="6.06261">
        <ele>345.79998779297</ele>
        <time>2019-10-24T09:32:45.000Z</time>
      </trkpt>
      <trkpt lat="43.29561" lon="6.06258">
        <ele>344.79998779297</ele>
        <time>2019-10-24T09:32:46.000Z</time>
      </trkpt>
      <trkpt lat="43.29573" lon="6.06248">
        <ele>343.39999389648</ele>
        <time>2019-10-24T09:32:49.000Z</time>
      </trkpt>
      <trkpt lat="43.29577" lon="6.06244">
        <ele>343</ele>
        <time>2019-10-24T09:32:50.000Z</time>
      </trkpt>
      <trkpt lat="43.29581" lon="6.06241">
        <ele>342.60000610352</ele>
        <time>2019-10-24T09:32:51.000Z</time>
      </trkpt>
      <trkpt lat="43.29584" lon="6.06238">
        <ele>342.20001220703</ele>
        <time>2019-10-24T09:32:52.000Z</time>
      </trkpt>
      <trkpt lat="43.29586" lon="6.06235">
        <ele>342</ele>
        <time>2019-10-24T09:32:53.000Z</time>
      </trkpt>
      <trkpt lat="43.29588" lon="6.06234">
        <ele>341.60000610352</ele>
        <time>2019-10-24T09:32:56.000Z</time>
      </trkpt>
      <trkpt lat="43.29591" lon="6.06233">
        <ele>341.39999389648</ele>
        <time>2019-10-24T09:33:02.000Z</time>
      </trkpt>
      <trkpt lat="43.29603" lon="6.06223">
        <ele>341.20001220703</ele>
        <time>2019-10-24T09:33:06.000Z</time>
      </trkpt>
      <trkpt lat="43.29612" lon="6.06215">
        <ele>340.79998779297</ele>
        <time>2019-10-24T09:33:08.000Z</time>
      </trkpt>
      <trkpt lat="43.29623" lon="6.06205">
        <ele>340.20001220703</ele>
        <time>2019-10-24T09:33:10.000Z</time>
      </trkpt>
      <trkpt lat="43.29627" lon="6.06199">
        <ele>340.20001220703</ele>
        <time>2019-10-24T09:33:11.000Z</time>
      </trkpt>
      <trkpt lat="43.29632" lon="6.06193">
        <ele>339.79998779297</ele>
        <time>2019-10-24T09:33:12.000Z</time>
      </trkpt>
      <trkpt lat="43.2964" lon="6.06179">
        <ele>338.60000610352</ele>
        <time>2019-10-24T09:33:14.000Z</time>
      </trkpt>
      <trkpt lat="43.29643" lon="6.06173">
        <ele>338.20001220703</ele>
        <time>2019-10-24T09:33:15.000Z</time>
      </trkpt>
      <trkpt lat="43.2965" lon="6.06161">
        <ele>337.39999389648</ele>
        <time>2019-10-24T09:33:17.000Z</time>
      </trkpt>
      <trkpt lat="43.29659" lon="6.06151">
        <ele>337.20001220703</ele>
        <time>2019-10-24T09:33:19.000Z</time>
      </trkpt>
      <trkpt lat="43.29672" lon="6.06136">
        <ele>336.39999389648</ele>
        <time>2019-10-24T09:33:22.000Z</time>
      </trkpt>
      <trkpt lat="43.29676" lon="6.06132">
        <ele>335.60000610352</ele>
        <time>2019-10-24T09:33:23.000Z</time>
      </trkpt>
      <trkpt lat="43.29681" lon="6.06127">
        <ele>334.60000610352</ele>
        <time>2019-10-24T09:33:24.000Z</time>
      </trkpt>
      <trkpt lat="43.29688" lon="6.06118">
        <ele>333.39999389648</ele>
        <time>2019-10-24T09:33:26.000Z</time>
      </trkpt>
      <trkpt lat="43.29695" lon="6.06112">
        <ele>332</ele>
        <time>2019-10-24T09:33:28.000Z</time>
      </trkpt>
      <trkpt lat="43.29699" lon="6.06109">
        <ele>331.60000610352</ele>
        <time>2019-10-24T09:33:29.000Z</time>
      </trkpt>
      <trkpt lat="43.29713" lon="6.06097">
        <ele>331</ele>
        <time>2019-10-24T09:33:32.000Z</time>
      </trkpt>
      <trkpt lat="43.29717" lon="6.06093">
        <ele>330.79998779297</ele>
        <time>2019-10-24T09:33:33.000Z</time>
      </trkpt>
      <trkpt lat="43.29737" lon="6.06065">
        <ele>329.60000610352</ele>
        <time>2019-10-24T09:33:38.000Z</time>
      </trkpt>
      <trkpt lat="43.29745" lon="6.06057">
        <ele>329.20001220703</ele>
        <time>2019-10-24T09:33:40.000Z</time>
      </trkpt>
      <trkpt lat="43.29759" lon="6.06049">
        <ele>329.39999389648</ele>
        <time>2019-10-24T09:33:43.000Z</time>
      </trkpt>
      <trkpt lat="43.29775" lon="6.06048">
        <ele>328.39999389648</ele>
        <time>2019-10-24T09:33:46.000Z</time>
      </trkpt>
      <trkpt lat="43.2978" lon="6.06048">
        <ele>327.39999389648</ele>
        <time>2019-10-24T09:33:47.000Z</time>
      </trkpt>
      <trkpt lat="43.29786" lon="6.06047">
        <ele>326.79998779297</ele>
        <time>2019-10-24T09:33:48.000Z</time>
      </trkpt>
      <trkpt lat="43.29805" lon="6.0604">
        <ele>325.79998779297</ele>
        <time>2019-10-24T09:33:51.000Z</time>
      </trkpt>
      <trkpt lat="43.29824" lon="6.06028">
        <ele>324.20001220703</ele>
        <time>2019-10-24T09:33:54.000Z</time>
      </trkpt>
      <trkpt lat="43.29842" lon="6.06013">
        <ele>323</ele>
        <time>2019-10-24T09:33:57.000Z</time>
      </trkpt>
      <trkpt lat="43.29867" lon="6.05986">
        <ele>321.79998779297</ele>
        <time>2019-10-24T09:34:02.000Z</time>
      </trkpt>
      <trkpt lat="43.29871" lon="6.05982">
        <ele>321.60000610352</ele>
        <time>2019-10-24T09:34:03.000Z</time>
      </trkpt>
      <trkpt lat="43.29879" lon="6.05975">
        <ele>319.60000610352</ele>
        <time>2019-10-24T09:34:05.000Z</time>
      </trkpt>
      <trkpt lat="43.29884" lon="6.05972">
        <ele>318.60000610352</ele>
        <time>2019-10-24T09:34:06.000Z</time>
      </trkpt>
      <trkpt lat="43.29893" lon="6.05965">
        <ele>317.39999389648</ele>
        <time>2019-10-24T09:34:08.000Z</time>
      </trkpt>
      <trkpt lat="43.299" lon="6.0596">
        <ele>316.60000610352</ele>
        <time>2019-10-24T09:34:10.000Z</time>
      </trkpt>
      <trkpt lat="43.29905" lon="6.05956">
        <ele>315.79998779297</ele>
        <time>2019-10-24T09:34:12.000Z</time>
      </trkpt>
      <trkpt lat="43.29911" lon="6.05951">
        <ele>314.60000610352</ele>
        <time>2019-10-24T09:34:14.000Z</time>
      </trkpt>
      <trkpt lat="43.29913" lon="6.05948">
        <ele>314.39999389648</ele>
        <time>2019-10-24T09:34:15.000Z</time>
      </trkpt>
      <trkpt lat="43.29919" lon="6.0594">
        <ele>314.39999389648</ele>
        <time>2019-10-24T09:34:17.000Z</time>
      </trkpt>
      <trkpt lat="43.29926" lon="6.05934">
        <ele>314.20001220703</ele>
        <time>2019-10-24T09:34:19.000Z</time>
      </trkpt>
      <trkpt lat="43.29934" lon="6.05927">
        <ele>314</ele>
        <time>2019-10-24T09:34:23.000Z</time>
      </trkpt>
      <trkpt lat="43.29944" lon="6.05923">
        <ele>313</ele>
        <time>2019-10-24T09:34:28.000Z</time>
      </trkpt>
      <trkpt lat="43.29946" lon="6.05921">
        <ele>312.39999389648</ele>
        <time>2019-10-24T09:34:29.000Z</time>
      </trkpt>
      <trkpt lat="43.29955" lon="6.05909">
        <ele>312.39999389648</ele>
        <time>2019-10-24T09:34:34.000Z</time>
      </trkpt>
      <trkpt lat="43.2996" lon="6.059">
        <ele>312.79998779297</ele>
        <time>2019-10-24T09:34:39.000Z</time>
      </trkpt>
      <trkpt lat="43.2997" lon="6.05894">
        <ele>312.20001220703</ele>
        <time>2019-10-24T09:34:43.000Z</time>
      </trkpt>
      <trkpt lat="43.29977" lon="6.05894">
        <ele>312</ele>
        <time>2019-10-24T09:34:45.000Z</time>
      </trkpt>
      <trkpt lat="43.29985" lon="6.05896">
        <ele>311.60000610352</ele>
        <time>2019-10-24T09:34:47.000Z</time>
      </trkpt>
      <trkpt lat="43.29989" lon="6.05897">
        <ele>311.39999389648</ele>
        <time>2019-10-24T09:34:48.000Z</time>
      </trkpt>
      <trkpt lat="43.29997" lon="6.05895">
        <ele>310.79998779297</ele>
        <time>2019-10-24T09:34:50.000Z</time>
      </trkpt>
      <trkpt lat="43.30006" lon="6.0589">
        <ele>310</ele>
        <time>2019-10-24T09:34:52.000Z</time>
      </trkpt>
      <trkpt lat="43.3001" lon="6.05887">
        <ele>309.60000610352</ele>
        <time>2019-10-24T09:34:53.000Z</time>
      </trkpt>
      <trkpt lat="43.30018" lon="6.0588">
        <ele>309</ele>
        <time>2019-10-24T09:34:55.000Z</time>
      </trkpt>
      <trkpt lat="43.30029" lon="6.05869">
        <ele>308.79998779297</ele>
        <time>2019-10-24T09:34:58.000Z</time>
      </trkpt>
      <trkpt lat="43.3004" lon="6.05859">
        <ele>308.60000610352</ele>
        <time>2019-10-24T09:35:01.000Z</time>
      </trkpt>
      <trkpt lat="43.30051" lon="6.05849">
        <ele>307.79998779297</ele>
        <time>2019-10-24T09:35:04.000Z</time>
      </trkpt>
      <trkpt lat="43.30055" lon="6.05846">
        <ele>307.39999389648</ele>
        <time>2019-10-24T09:35:05.000Z</time>
      </trkpt>
      <trkpt lat="43.30071" lon="6.05834">
        <ele>306.60000610352</ele>
        <time>2019-10-24T09:35:09.000Z</time>
      </trkpt>
      <trkpt lat="43.30075" lon="6.05831">
        <ele>306.39999389648</ele>
        <time>2019-10-24T09:35:10.000Z</time>
      </trkpt>
      <trkpt lat="43.30084" lon="6.05825">
        <ele>306</ele>
        <time>2019-10-24T09:35:12.000Z</time>
      </trkpt>
      <trkpt lat="43.30088" lon="6.05822">
        <ele>306</ele>
        <time>2019-10-24T09:35:13.000Z</time>
      </trkpt>
      <trkpt lat="43.30107" lon="6.05808">
        <ele>305.20001220703</ele>
        <time>2019-10-24T09:35:17.000Z</time>
      </trkpt>
      <trkpt lat="43.3013" lon="6.05791">
        <ele>304.20001220703</ele>
        <time>2019-10-24T09:35:22.000Z</time>
      </trkpt>
      <trkpt lat="43.30135" lon="6.05788">
        <ele>304</ele>
        <time>2019-10-24T09:35:23.000Z</time>
      </trkpt>
      <trkpt lat="43.30139" lon="6.05785">
        <ele>304</ele>
        <time>2019-10-24T09:35:24.000Z</time>
      </trkpt>
      <trkpt lat="43.30152" lon="6.05774">
        <ele>303.39999389648</ele>
        <time>2019-10-24T09:35:27.000Z</time>
      </trkpt>
      <trkpt lat="43.30157" lon="6.05771">
        <ele>303</ele>
        <time>2019-10-24T09:35:28.000Z</time>
      </trkpt>
      <trkpt lat="43.30184" lon="6.05755">
        <ele>302.20001220703</ele>
        <time>2019-10-24T09:35:34.000Z</time>
      </trkpt>
      <trkpt lat="43.30188" lon="6.05752">
        <ele>302</ele>
        <time>2019-10-24T09:35:35.000Z</time>
      </trkpt>
      <trkpt lat="43.30211" lon="6.05737">
        <ele>301.39999389648</ele>
        <time>2019-10-24T09:35:41.000Z</time>
      </trkpt>
      <trkpt lat="43.30221" lon="6.05731">
        <ele>301</ele>
        <time>2019-10-24T09:35:44.000Z</time>
      </trkpt>
      <trkpt lat="43.30238" lon="6.05721">
        <ele>300.79998779297</ele>
        <time>2019-10-24T09:35:49.000Z</time>
      </trkpt>
      <trkpt lat="43.30268" lon="6.05701">
        <ele>300.79998779297</ele>
        <time>2019-10-24T09:35:57.000Z</time>
      </trkpt>
      <trkpt lat="43.30294" lon="6.0568">
        <ele>300.20001220703</ele>
        <time>2019-10-24T09:36:04.000Z</time>
      </trkpt>
      <trkpt lat="43.30298" lon="6.05677">
        <ele>300.20001220703</ele>
        <time>2019-10-24T09:36:05.000Z</time>
      </trkpt>
      <trkpt lat="43.30316" lon="6.05659">
        <ele>300</ele>
        <time>2019-10-24T09:36:10.000Z</time>
      </trkpt>
      <trkpt lat="43.3032" lon="6.05656">
        <ele>300</ele>
        <time>2019-10-24T09:36:11.000Z</time>
      </trkpt>
      <trkpt lat="43.30327" lon="6.0565">
        <ele>299.60000610352</ele>
        <time>2019-10-24T09:36:13.000Z</time>
      </trkpt>
      <trkpt lat="43.30335" lon="6.05638">
        <ele>299.60000610352</ele>
        <time>2019-10-24T09:36:16.000Z</time>
      </trkpt>
      <trkpt lat="43.3035" lon="6.05627">
        <ele>299.39999389648</ele>
        <time>2019-10-24T09:36:20.000Z</time>
      </trkpt>
      <trkpt lat="43.30374" lon="6.05602">
        <ele>299.20001220703</ele>
        <time>2019-10-24T09:36:27.000Z</time>
      </trkpt>
      <trkpt lat="43.30395" lon="6.05574">
        <ele>298.79998779297</ele>
        <time>2019-10-24T09:36:34.000Z</time>
      </trkpt>
      <trkpt lat="43.30397" lon="6.05571">
        <ele>298.60000610352</ele>
        <time>2019-10-24T09:36:35.000Z</time>
      </trkpt>
      <trkpt lat="43.30411" lon="6.0556">
        <ele>298.39999389648</ele>
        <time>2019-10-24T09:36:40.000Z</time>
      </trkpt>
      <trkpt lat="43.30422" lon="6.05562">
        <ele>298</ele>
        <time>2019-10-24T09:36:44.000Z</time>
      </trkpt>
      <trkpt lat="43.30433" lon="6.05554">
        <ele>297.79998779297</ele>
        <time>2019-10-24T09:36:48.000Z</time>
      </trkpt>
      <trkpt lat="43.30458" lon="6.05532">
        <ele>297.79998779297</ele>
        <time>2019-10-24T09:36:56.000Z</time>
      </trkpt>
      <trkpt lat="43.30475" lon="6.05518">
        <ele>298</ele>
        <time>2019-10-24T09:37:02.000Z</time>
      </trkpt>
      <trkpt lat="43.30491" lon="6.05513">
        <ele>297.60000610352</ele>
        <time>2019-10-24T09:37:07.000Z</time>
      </trkpt>
      <trkpt lat="43.30493" lon="6.05512">
        <ele>297.60000610352</ele>
        <time>2019-10-24T09:37:08.000Z</time>
      </trkpt>
      <trkpt lat="43.305" lon="6.05512">
        <ele>297.60000610352</ele>
        <time>2019-10-24T09:37:12.000Z</time>
      </trkpt>
      <trkpt lat="43.305" lon="6.05511">
        <ele>297.60000610352</ele>
        <time>2019-10-24T09:37:13.000Z</time>
      </trkpt>
      <trkpt lat="43.30503" lon="6.0551">
        <ele>297.79998779297</ele>
        <time>2019-10-24T09:38:02.000Z</time>
      </trkpt>
      <trkpt lat="43.30506" lon="6.05507">
        <ele>297.79998779297</ele>
        <time>2019-10-24T09:38:04.000Z</time>
      </trkpt>
      <trkpt lat="43.30511" lon="6.05498">
        <ele>297.79998779297</ele>
        <time>2019-10-24T09:38:07.000Z</time>
      </trkpt>
      <trkpt lat="43.30515" lon="6.05491">
        <ele>297.79998779297</ele>
        <time>2019-10-24T09:38:09.000Z</time>
      </trkpt>
      <trkpt lat="43.30527" lon="6.05474">
        <ele>299</ele>
        <time>2019-10-24T09:38:14.000Z</time>
      </trkpt>
      <trkpt lat="43.30535" lon="6.05465">
        <ele>298.60000610352</ele>
        <time>2019-10-24T09:38:17.000Z</time>
      </trkpt>
      <trkpt lat="43.30542" lon="6.05459">
        <ele>297.79998779297</ele>
        <time>2019-10-24T09:38:19.000Z</time>
      </trkpt>
      <trkpt lat="43.3056" lon="6.05442">
        <ele>297.60000610352</ele>
        <time>2019-10-24T09:38:24.000Z</time>
      </trkpt>
      <trkpt lat="43.30596" lon="6.05412">
        <ele>297.20001220703</ele>
        <time>2019-10-24T09:38:32.000Z</time>
      </trkpt>
      <trkpt lat="43.30627" lon="6.05392">
        <ele>297</ele>
        <time>2019-10-24T09:38:39.000Z</time>
      </trkpt>
      <trkpt lat="43.30654" lon="6.05374">
        <ele>296.60000610352</ele>
        <time>2019-10-24T09:38:45.000Z</time>
      </trkpt>
      <trkpt lat="43.30664" lon="6.05367">
        <ele>296.39999389648</ele>
        <time>2019-10-24T09:38:47.000Z</time>
      </trkpt>
      <trkpt lat="43.30715" lon="6.05334">
        <ele>295.60000610352</ele>
        <time>2019-10-24T09:38:57.000Z</time>
      </trkpt>
      <trkpt lat="43.3072" lon="6.05331">
        <ele>295.39999389648</ele>
        <time>2019-10-24T09:38:58.000Z</time>
      </trkpt>
      <trkpt lat="43.30762" lon="6.05299">
        <ele>295</ele>
        <time>2019-10-24T09:39:06.000Z</time>
      </trkpt>
      <trkpt lat="43.30795" lon="6.0526">
        <ele>294.79998779297</ele>
        <time>2019-10-24T09:39:13.000Z</time>
      </trkpt>
      <trkpt lat="43.30823" lon="6.05227">
        <ele>294.20001220703</ele>
        <time>2019-10-24T09:39:19.000Z</time>
      </trkpt>
      <trkpt lat="43.30829" lon="6.05223">
        <ele>294.20001220703</ele>
        <time>2019-10-24T09:39:20.000Z</time>
      </trkpt>
      <trkpt lat="43.30873" lon="6.05195">
        <ele>293.79998779297</ele>
        <time>2019-10-24T09:39:28.000Z</time>
      </trkpt>
      <trkpt lat="43.30923" lon="6.05161">
        <ele>293.60000610352</ele>
        <time>2019-10-24T09:39:37.000Z</time>
      </trkpt>
      <trkpt lat="43.30959" lon="6.05123">
        <ele>293</ele>
        <time>2019-10-24T09:39:44.000Z</time>
      </trkpt>
      <trkpt lat="43.30969" lon="6.05113">
        <ele>292.79998779297</ele>
        <time>2019-10-24T09:39:46.000Z</time>
      </trkpt>
      <trkpt lat="43.30992" lon="6.05096">
        <ele>292.60000610352</ele>
        <time>2019-10-24T09:39:50.000Z</time>
      </trkpt>
      <trkpt lat="43.31003" lon="6.0509">
        <ele>292.60000610352</ele>
        <time>2019-10-24T09:39:52.000Z</time>
      </trkpt>
      <trkpt lat="43.31047" lon="6.05081">
        <ele>292.60000610352</ele>
        <time>2019-10-24T09:39:59.000Z</time>
      </trkpt>
      <trkpt lat="43.31102" lon="6.05072">
        <ele>292.60000610352</ele>
        <time>2019-10-24T09:40:08.000Z</time>
      </trkpt>
      <trkpt lat="43.31121" lon="6.05069">
        <ele>292.60000610352</ele>
        <time>2019-10-24T09:40:11.000Z</time>
      </trkpt>
      <trkpt lat="43.31178" lon="6.05069">
        <ele>292.60000610352</ele>
        <time>2019-10-24T09:40:20.000Z</time>
      </trkpt>
      <trkpt lat="43.31229" lon="6.05066">
        <ele>292.20001220703</ele>
        <time>2019-10-24T09:40:28.000Z</time>
      </trkpt>
      <trkpt lat="43.31286" lon="6.05054">
        <ele>292.60000610352</ele>
        <time>2019-10-24T09:40:37.000Z</time>
      </trkpt>
      <trkpt lat="43.31293" lon="6.05053">
        <ele>292.60000610352</ele>
        <time>2019-10-24T09:40:38.000Z</time>
      </trkpt>
      <trkpt lat="43.31352" lon="6.05046">
        <ele>292.20001220703</ele>
        <time>2019-10-24T09:40:47.000Z</time>
      </trkpt>
      <trkpt lat="43.31359" lon="6.05046">
        <ele>292.20001220703</ele>
        <time>2019-10-24T09:40:48.000Z</time>
      </trkpt>
      <trkpt lat="43.31366" lon="6.05047">
        <ele>292</ele>
        <time>2019-10-24T09:40:49.000Z</time>
      </trkpt>
      <trkpt lat="43.31411" lon="6.05057">
        <ele>291.79998779297</ele>
        <time>2019-10-24T09:40:56.000Z</time>
      </trkpt>
      <trkpt lat="43.31467" lon="6.05077">
        <ele>291.60000610352</ele>
        <time>2019-10-24T09:41:05.000Z</time>
      </trkpt>
      <trkpt lat="43.31486" lon="6.05082">
        <ele>291.39999389648</ele>
        <time>2019-10-24T09:41:08.000Z</time>
      </trkpt>
      <trkpt lat="43.31531" lon="6.0509">
        <ele>291.20001220703</ele>
        <time>2019-10-24T09:41:15.000Z</time>
      </trkpt>
      <trkpt lat="43.3157" lon="6.05098">
        <ele>290.79998779297</ele>
        <time>2019-10-24T09:41:21.000Z</time>
      </trkpt>
      <trkpt lat="43.31602" lon="6.05103">
        <ele>290.79998779297</ele>
        <time>2019-10-24T09:41:26.000Z</time>
      </trkpt>
      <trkpt lat="43.31661" lon="6.05109">
        <ele>290.39999389648</ele>
        <time>2019-10-24T09:41:35.000Z</time>
      </trkpt>
      <trkpt lat="43.31667" lon="6.05111">
        <ele>290.39999389648</ele>
        <time>2019-10-24T09:41:36.000Z</time>
      </trkpt>
      <trkpt lat="43.31724" lon="6.05127">
        <ele>290</ele>
        <time>2019-10-24T09:41:45.000Z</time>
      </trkpt>
      <trkpt lat="43.3178" lon="6.05145">
        <ele>290.20001220703</ele>
        <time>2019-10-24T09:41:54.000Z</time>
      </trkpt>
      <trkpt lat="43.31786" lon="6.05146">
        <ele>290.20001220703</ele>
        <time>2019-10-24T09:41:55.000Z</time>
      </trkpt>
      <trkpt lat="43.31812" lon="6.05146">
        <ele>290.20001220703</ele>
        <time>2019-10-24T09:41:59.000Z</time>
      </trkpt>
      <trkpt lat="43.31825" lon="6.05141">
        <ele>290.20001220703</ele>
        <time>2019-10-24T09:42:01.000Z</time>
      </trkpt>
      <trkpt lat="43.31866" lon="6.05115">
        <ele>289.79998779297</ele>
        <time>2019-10-24T09:42:08.000Z</time>
      </trkpt>
      <trkpt lat="43.31918" lon="6.05079">
        <ele>290</ele>
        <time>2019-10-24T09:42:17.000Z</time>
      </trkpt>
      <trkpt lat="43.31935" lon="6.05067">
        <ele>290</ele>
        <time>2019-10-24T09:42:20.000Z</time>
      </trkpt>
      <trkpt lat="43.31959" lon="6.05056">
        <ele>290.39999389648</ele>
        <time>2019-10-24T09:42:24.000Z</time>
      </trkpt>
      <trkpt lat="43.31966" lon="6.05054">
        <ele>290.39999389648</ele>
        <time>2019-10-24T09:42:25.000Z</time>
      </trkpt>
      <trkpt lat="43.32017" lon="6.05046">
        <ele>290</ele>
        <time>2019-10-24T09:42:33.000Z</time>
      </trkpt>
      <trkpt lat="43.32054" lon="6.05038">
        <ele>290</ele>
        <time>2019-10-24T09:42:39.000Z</time>
      </trkpt>
      <trkpt lat="43.32096" lon="6.05021">
        <ele>290.60000610352</ele>
        <time>2019-10-24T09:42:46.000Z</time>
      </trkpt>
      <trkpt lat="43.32128" lon="6.04996">
        <ele>291.20001220703</ele>
        <time>2019-10-24T09:42:52.000Z</time>
      </trkpt>
      <trkpt lat="43.32165" lon="6.04977">
        <ele>291</ele>
        <time>2019-10-24T09:42:58.000Z</time>
      </trkpt>
      <trkpt lat="43.32199" lon="6.04974">
        <ele>290.39999389648</ele>
        <time>2019-10-24T09:43:03.000Z</time>
      </trkpt>
      <trkpt lat="43.32225" lon="6.0498">
        <ele>289.79998779297</ele>
        <time>2019-10-24T09:43:07.000Z</time>
      </trkpt>
      <trkpt lat="43.32237" lon="6.04983">
        <ele>289.79998779297</ele>
        <time>2019-10-24T09:43:09.000Z</time>
      </trkpt>
      <trkpt lat="43.3227" lon="6.04981">
        <ele>290</ele>
        <time>2019-10-24T09:43:14.000Z</time>
      </trkpt>
      <trkpt lat="43.3233" lon="6.04976">
        <ele>289.60000610352</ele>
        <time>2019-10-24T09:43:23.000Z</time>
      </trkpt>
      <trkpt lat="43.32386" lon="6.0497">
        <ele>289.60000610352</ele>
        <time>2019-10-24T09:43:32.000Z</time>
      </trkpt>
      <trkpt lat="43.32398" lon="6.04969">
        <ele>289.60000610352</ele>
        <time>2019-10-24T09:43:34.000Z</time>
      </trkpt>
      <trkpt lat="43.32444" lon="6.0496">
        <ele>289.20001220703</ele>
        <time>2019-10-24T09:43:42.000Z</time>
      </trkpt>
      <trkpt lat="43.32476" lon="6.04953">
        <ele>288.79998779297</ele>
        <time>2019-10-24T09:43:49.000Z</time>
      </trkpt>
      <trkpt lat="43.32484" lon="6.04951">
        <ele>288.79998779297</ele>
        <time>2019-10-24T09:43:51.000Z</time>
      </trkpt>
      <trkpt lat="43.32503" lon="6.04947">
        <ele>288.79998779297</ele>
        <time>2019-10-24T09:43:56.000Z</time>
      </trkpt>
      <trkpt lat="43.32512" lon="6.04949">
        <ele>288.79998779297</ele>
        <time>2019-10-24T09:44:00.000Z</time>
      </trkpt>
      <trkpt lat="43.32513" lon="6.04949">
        <ele>288.79998779297</ele>
        <time>2019-10-24T09:44:01.000Z</time>
      </trkpt>
      <trkpt lat="43.32521" lon="6.04951">
        <ele>288.39999389648</ele>
        <time>2019-10-24T09:44:05.000Z</time>
      </trkpt>
      <trkpt lat="43.32528" lon="6.04948">
        <ele>288.39999389648</ele>
        <time>2019-10-24T09:44:07.000Z</time>
      </trkpt>
      <trkpt lat="43.32536" lon="6.04943">
        <ele>288.39999389648</ele>
        <time>2019-10-24T09:44:09.000Z</time>
      </trkpt>
      <trkpt lat="43.32559" lon="6.0493">
        <ele>288.60000610352</ele>
        <time>2019-10-24T09:44:15.000Z</time>
      </trkpt>
      <trkpt lat="43.32563" lon="6.04927">
        <ele>288.79998779297</ele>
        <time>2019-10-24T09:44:16.000Z</time>
      </trkpt>
      <trkpt lat="43.3258" lon="6.04916">
        <ele>288.60000610352</ele>
        <time>2019-10-24T09:44:20.000Z</time>
      </trkpt>
      <trkpt lat="43.32607" lon="6.04898">
        <ele>288.39999389648</ele>
        <time>2019-10-24T09:44:26.000Z</time>
      </trkpt>
      <trkpt lat="43.32615" lon="6.04892">
        <ele>288.39999389648</ele>
        <time>2019-10-24T09:44:28.000Z</time>
      </trkpt>
      <trkpt lat="43.32627" lon="6.04881">
        <ele>288.60000610352</ele>
        <time>2019-10-24T09:44:31.000Z</time>
      </trkpt>
      <trkpt lat="43.3263" lon="6.04877">
        <ele>288.60000610352</ele>
        <time>2019-10-24T09:44:32.000Z</time>
      </trkpt>
      <trkpt lat="43.32643" lon="6.04856">
        <ele>288.79998779297</ele>
        <time>2019-10-24T09:44:36.000Z</time>
      </trkpt>
      <trkpt lat="43.32664" lon="6.04822">
        <ele>289</ele>
        <time>2019-10-24T09:44:43.000Z</time>
      </trkpt>
      <trkpt lat="43.32677" lon="6.04807">
        <ele>289</ele>
        <time>2019-10-24T09:44:48.000Z</time>
      </trkpt>
      <trkpt lat="43.32684" lon="6.04797">
        <ele>289</ele>
        <time>2019-10-24T09:44:53.000Z</time>
      </trkpt>
      <trkpt lat="43.32686" lon="6.04797">
        <ele>289</ele>
        <time>2019-10-24T09:44:54.000Z</time>
      </trkpt>
      <trkpt lat="43.32687" lon="6.04803">
        <ele>289.20001220703</ele>
        <time>2019-10-24T09:44:57.000Z</time>
      </trkpt>
      <trkpt lat="43.32685" lon="6.04819">
        <ele>289.20001220703</ele>
        <time>2019-10-24T09:45:02.000Z</time>
      </trkpt>
      <trkpt lat="43.32693" lon="6.04847">
        <ele>289.20001220703</ele>
        <time>2019-10-24T09:45:08.000Z</time>
      </trkpt>
      <trkpt lat="43.32709" lon="6.04886">
        <ele>289.60000610352</ele>
        <time>2019-10-24T09:45:17.000Z</time>
      </trkpt>
      <trkpt lat="43.32713" lon="6.04891">
        <ele>289.60000610352</ele>
        <time>2019-10-24T09:45:19.000Z</time>
      </trkpt>
      <trkpt lat="43.3272" lon="6.04891">
        <ele>289.60000610352</ele>
        <time>2019-10-24T09:45:21.000Z</time>
      </trkpt>
      <trkpt lat="43.32727" lon="6.04889">
        <ele>289.60000610352</ele>
        <time>2019-10-24T09:45:23.000Z</time>
      </trkpt>
      <trkpt lat="43.32744" lon="6.04887">
        <ele>289.60000610352</ele>
        <time>2019-10-24T09:45:27.000Z</time>
      </trkpt>
      <trkpt lat="43.32776" lon="6.04882">
        <ele>289.60000610352</ele>
        <time>2019-10-24T09:45:35.000Z</time>
      </trkpt>
      <trkpt lat="43.32799" lon="6.04886">
        <ele>289</ele>
        <time>2019-10-24T09:45:41.000Z</time>
      </trkpt>
      <trkpt lat="43.32802" lon="6.04889">
        <ele>289</ele>
        <time>2019-10-24T09:45:42.000Z</time>
      </trkpt>
      <trkpt lat="43.3281" lon="6.04888">
        <ele>289</ele>
        <time>2019-10-24T09:45:44.000Z</time>
      </trkpt>
      <trkpt lat="43.32826" lon="6.04893">
        <ele>288.79998779297</ele>
        <time>2019-10-24T09:45:48.000Z</time>
      </trkpt>
      <trkpt lat="43.32842" lon="6.04893">
        <ele>288.60000610352</ele>
        <time>2019-10-24T09:45:52.000Z</time>
      </trkpt>
      <trkpt lat="43.32846" lon="6.04894">
        <ele>288.39999389648</ele>
        <time>2019-10-24T09:45:53.000Z</time>
      </trkpt>
      <trkpt lat="43.32869" lon="6.04899">
        <ele>288.79998779297</ele>
        <time>2019-10-24T09:45:59.000Z</time>
      </trkpt>
      <trkpt lat="43.32891" lon="6.04902">
        <ele>289</ele>
        <time>2019-10-24T09:46:05.000Z</time>
      </trkpt>
      <trkpt lat="43.32899" lon="6.04903">
        <ele>289</ele>
        <time>2019-10-24T09:46:07.000Z</time>
      </trkpt>
      <trkpt lat="43.32915" lon="6.04907">
        <ele>288.79998779297</ele>
        <time>2019-10-24T09:46:11.000Z</time>
      </trkpt>
      <trkpt lat="43.32939" lon="6.04911">
        <ele>289</ele>
        <time>2019-10-24T09:46:17.000Z</time>
      </trkpt>
      <trkpt lat="43.32968" lon="6.04916">
        <ele>288.79998779297</ele>
        <time>2019-10-24T09:46:25.000Z</time>
      </trkpt>
      <trkpt lat="43.32989" lon="6.04918">
        <ele>289</ele>
        <time>2019-10-24T09:46:31.000Z</time>
      </trkpt>
      <trkpt lat="43.33009" lon="6.04918">
        <ele>289.20001220703</ele>
        <time>2019-10-24T09:46:37.000Z</time>
      </trkpt>
      <trkpt lat="43.33012" lon="6.04916">
        <ele>289.20001220703</ele>
        <time>2019-10-24T09:46:38.000Z</time>
      </trkpt>
      <trkpt lat="43.33015" lon="6.04907">
        <ele>289.20001220703</ele>
        <time>2019-10-24T09:46:40.000Z</time>
      </trkpt>
      <trkpt lat="43.3302" lon="6.04864">
        <ele>289.20001220703</ele>
        <time>2019-10-24T09:46:48.000Z</time>
      </trkpt>
      <trkpt lat="43.3302" lon="6.04858">
        <ele>289.20001220703</ele>
        <time>2019-10-24T09:46:49.000Z</time>
      </trkpt>
      <trkpt lat="43.33022" lon="6.04832">
        <ele>289.60000610352</ele>
        <time>2019-10-24T09:46:54.000Z</time>
      </trkpt>
      <trkpt lat="43.33026" lon="6.04807">
        <ele>290</ele>
        <time>2019-10-24T09:46:59.000Z</time>
      </trkpt>
      <trkpt lat="43.33026" lon="6.04797">
        <ele>290</ele>
        <time>2019-10-24T09:47:01.000Z</time>
      </trkpt>
      <trkpt lat="43.33028" lon="6.04779">
        <ele>290.20001220703</ele>
        <time>2019-10-24T09:47:04.000Z</time>
      </trkpt>
      <trkpt lat="43.33035" lon="6.04728">
        <ele>290.39999389648</ele>
        <time>2019-10-24T09:47:13.000Z</time>
      </trkpt>
      <trkpt lat="43.33038" lon="6.04699">
        <ele>290.60000610352</ele>
        <time>2019-10-24T09:47:18.000Z</time>
      </trkpt>
      <trkpt lat="43.33039" lon="6.04683">
        <ele>290.79998779297</ele>
        <time>2019-10-24T09:47:21.000Z</time>
      </trkpt>
      <trkpt lat="43.33042" lon="6.0467">
        <ele>291</ele>
        <time>2019-10-24T09:47:25.000Z</time>
      </trkpt>
      <trkpt lat="43.33051" lon="6.04669">
        <ele>291</ele>
        <time>2019-10-24T09:47:29.000Z</time>
      </trkpt>
      <trkpt lat="43.3307" lon="6.04678">
        <ele>291.20001220703</ele>
        <time>2019-10-24T09:47:36.000Z</time>
      </trkpt>
      <trkpt lat="43.33084" lon="6.04684">
        <ele>291</ele>
        <time>2019-10-24T09:47:40.000Z</time>
      </trkpt>
      <trkpt lat="43.33101" lon="6.04684">
        <ele>291.60000610352</ele>
        <time>2019-10-24T09:47:44.000Z</time>
      </trkpt>
      <trkpt lat="43.33105" lon="6.04684">
        <ele>291.79998779297</ele>
        <time>2019-10-24T09:47:45.000Z</time>
      </trkpt>
      <trkpt lat="43.33112" lon="6.04686">
        <ele>291.79998779297</ele>
        <time>2019-10-24T09:47:47.000Z</time>
      </trkpt>
      <trkpt lat="43.33125" lon="6.04693">
        <ele>291.79998779297</ele>
        <time>2019-10-24T09:47:52.000Z</time>
      </trkpt>
      <trkpt lat="43.33149" lon="6.0471">
        <ele>292.20001220703</ele>
        <time>2019-10-24T09:47:59.000Z</time>
      </trkpt>
      <trkpt lat="43.33175" lon="6.0473">
        <ele>292.39999389648</ele>
        <time>2019-10-24T09:48:07.000Z</time>
      </trkpt>
      <trkpt lat="43.33186" lon="6.0474">
        <ele>292.20001220703</ele>
        <time>2019-10-24T09:48:12.000Z</time>
      </trkpt>
      <trkpt lat="43.33204" lon="6.04745">
        <ele>292.79998779297</ele>
        <time>2019-10-24T09:48:18.000Z</time>
      </trkpt>
      <trkpt lat="43.33208" lon="6.04745">
        <ele>292.79998779297</ele>
        <time>2019-10-24T09:48:19.000Z</time>
      </trkpt>
      <trkpt lat="43.33226" lon="6.04748">
        <ele>293</ele>
        <time>2019-10-24T09:48:24.000Z</time>
      </trkpt>
      <trkpt lat="43.33244" lon="6.04752">
        <ele>294</ele>
        <time>2019-10-24T09:48:29.000Z</time>
      </trkpt>
      <trkpt lat="43.33251" lon="6.04752">
        <ele>294.20001220703</ele>
        <time>2019-10-24T09:48:31.000Z</time>
      </trkpt>
      <trkpt lat="43.33262" lon="6.04753">
        <ele>295</ele>
        <time>2019-10-24T09:48:34.000Z</time>
      </trkpt>
      <trkpt lat="43.33274" lon="6.04753">
        <ele>296.20001220703</ele>
        <time>2019-10-24T09:48:38.000Z</time>
      </trkpt>
      <trkpt lat="43.33278" lon="6.04753">
        <ele>296.39999389648</ele>
        <time>2019-10-24T09:48:39.000Z</time>
      </trkpt>
      <trkpt lat="43.33291" lon="6.04753">
        <ele>297.39999389648</ele>
        <time>2019-10-24T09:48:43.000Z</time>
      </trkpt>
      <trkpt lat="43.33309" lon="6.04752">
        <ele>298.39999389648</ele>
        <time>2019-10-24T09:48:48.000Z</time>
      </trkpt>
      <trkpt lat="43.33313" lon="6.04752">
        <ele>298.60000610352</ele>
        <time>2019-10-24T09:48:49.000Z</time>
      </trkpt>
      <trkpt lat="43.33348" lon="6.0475">
        <ele>299.39999389648</ele>
        <time>2019-10-24T09:48:58.000Z</time>
      </trkpt>
      <trkpt lat="43.33357" lon="6.04751">
        <ele>299.39999389648</ele>
        <time>2019-10-24T09:49:00.000Z</time>
      </trkpt>
      <trkpt lat="43.33383" lon="6.04754">
        <ele>300</ele>
        <time>2019-10-24T09:49:06.000Z</time>
      </trkpt>
      <trkpt lat="43.33409" lon="6.04759">
        <ele>300.39999389648</ele>
        <time>2019-10-24T09:49:12.000Z</time>
      </trkpt>
      <trkpt lat="43.33418" lon="6.04761">
        <ele>300.79998779297</ele>
        <time>2019-10-24T09:49:14.000Z</time>
      </trkpt>
      <trkpt lat="43.3343" lon="6.04765">
        <ele>301.39999389648</ele>
        <time>2019-10-24T09:49:17.000Z</time>
      </trkpt>
      <trkpt lat="43.33434" lon="6.04768">
        <ele>301.60000610352</ele>
        <time>2019-10-24T09:49:18.000Z</time>
      </trkpt>
      <trkpt lat="43.33438" lon="6.0477">
        <ele>301.79998779297</ele>
        <time>2019-10-24T09:49:19.000Z</time>
      </trkpt>
      <trkpt lat="43.33442" lon="6.04771">
        <ele>302</ele>
        <time>2019-10-24T09:49:20.000Z</time>
      </trkpt>
      <trkpt lat="43.33454" lon="6.04776">
        <ele>302.60000610352</ele>
        <time>2019-10-24T09:49:23.000Z</time>
      </trkpt>
      <trkpt lat="43.33459" lon="6.04778">
        <ele>302.79998779297</ele>
        <time>2019-10-24T09:49:24.000Z</time>
      </trkpt>
      <trkpt lat="43.33467" lon="6.04783">
        <ele>302.79998779297</ele>
        <time>2019-10-24T09:49:26.000Z</time>
      </trkpt>
      <trkpt lat="43.33494" lon="6.04792">
        <ele>303</ele>
        <time>2019-10-24T09:49:32.000Z</time>
      </trkpt>
      <trkpt lat="43.33499" lon="6.04793">
        <ele>303</ele>
        <time>2019-10-24T09:49:33.000Z</time>
      </trkpt>
      <trkpt lat="43.33556" lon="6.04793">
        <ele>303</ele>
        <time>2019-10-24T09:49:45.000Z</time>
      </trkpt>
      <trkpt lat="43.33589" lon="6.04797">
        <ele>303.60000610352</ele>
        <time>2019-10-24T09:49:52.000Z</time>
      </trkpt>
      <trkpt lat="43.33598" lon="6.04798">
        <ele>303.79998779297</ele>
        <time>2019-10-24T09:49:54.000Z</time>
      </trkpt>
      <trkpt lat="43.3363" lon="6.048">
        <ele>304.20001220703</ele>
        <time>2019-10-24T09:50:01.000Z</time>
      </trkpt>
      <trkpt lat="43.33644" lon="6.048">
        <ele>304.39999389648</ele>
        <time>2019-10-24T09:50:04.000Z</time>
      </trkpt>
      <trkpt lat="43.33677" lon="6.04798">
        <ele>305.20001220703</ele>
        <time>2019-10-24T09:50:11.000Z</time>
      </trkpt>
      <trkpt lat="43.33692" lon="6.048">
        <ele>305.39999389648</ele>
        <time>2019-10-24T09:50:14.000Z</time>
      </trkpt>
      <trkpt lat="43.33711" lon="6.04808">
        <ele>305.79998779297</ele>
        <time>2019-10-24T09:50:18.000Z</time>
      </trkpt>
      <trkpt lat="43.33747" lon="6.04836">
        <ele>306.60000610352</ele>
        <time>2019-10-24T09:50:26.000Z</time>
      </trkpt>
      <trkpt lat="43.33783" lon="6.04876">
        <ele>306.39999389648</ele>
        <time>2019-10-24T09:50:35.000Z</time>
      </trkpt>
      <trkpt lat="43.33823" lon="6.04929">
        <ele>306.79998779297</ele>
        <time>2019-10-24T09:50:45.000Z</time>
      </trkpt>
      <trkpt lat="43.33853" lon="6.04951">
        <ele>306.79998779297</ele>
        <time>2019-10-24T09:50:51.000Z</time>
      </trkpt>
      <trkpt lat="43.33899" lon="6.04966">
        <ele>306.79998779297</ele>
        <time>2019-10-24T09:50:59.000Z</time>
      </trkpt>
      <trkpt lat="43.33955" lon="6.04981">
        <ele>307.39999389648</ele>
        <time>2019-10-24T09:51:09.000Z</time>
      </trkpt>
      <trkpt lat="43.33966" lon="6.04982">
        <ele>307.39999389648</ele>
        <time>2019-10-24T09:51:11.000Z</time>
      </trkpt>
      <trkpt lat="43.33971" lon="6.04983">
        <ele>307.60000610352</ele>
        <time>2019-10-24T09:51:12.000Z</time>
      </trkpt>
      <trkpt lat="43.33981" lon="6.04985">
        <ele>307.79998779297</ele>
        <time>2019-10-24T09:51:14.000Z</time>
      </trkpt>
      <trkpt lat="43.33991" lon="6.04988">
        <ele>308.60000610352</ele>
        <time>2019-10-24T09:51:16.000Z</time>
      </trkpt>
      <trkpt lat="43.33996" lon="6.04989">
        <ele>308.79998779297</ele>
        <time>2019-10-24T09:51:17.000Z</time>
      </trkpt>
      <trkpt lat="43.34006" lon="6.04991">
        <ele>309.20001220703</ele>
        <time>2019-10-24T09:51:19.000Z</time>
      </trkpt>
      <trkpt lat="43.34021" lon="6.04997">
        <ele>309.79998779297</ele>
        <time>2019-10-24T09:51:22.000Z</time>
      </trkpt>
      <trkpt lat="43.3403" lon="6.05">
        <ele>310.39999389648</ele>
        <time>2019-10-24T09:51:24.000Z</time>
      </trkpt>
      <trkpt lat="43.3404" lon="6.05003">
        <ele>310.79998779297</ele>
        <time>2019-10-24T09:51:26.000Z</time>
      </trkpt>
      <trkpt lat="43.34072" lon="6.05013">
        <ele>311.79998779297</ele>
        <time>2019-10-24T09:51:32.000Z</time>
      </trkpt>
      <trkpt lat="43.34077" lon="6.05015">
        <ele>312</ele>
        <time>2019-10-24T09:51:33.000Z</time>
      </trkpt>
      <trkpt lat="43.34093" lon="6.05021">
        <ele>312</ele>
        <time>2019-10-24T09:51:36.000Z</time>
      </trkpt>
      <trkpt lat="43.34114" lon="6.05029">
        <ele>312.39999389648</ele>
        <time>2019-10-24T09:51:40.000Z</time>
      </trkpt>
      <trkpt lat="43.34141" lon="6.05038">
        <ele>312.79998779297</ele>
        <time>2019-10-24T09:51:45.000Z</time>
      </trkpt>
      <trkpt lat="43.34161" lon="6.05045">
        <ele>313</ele>
        <time>2019-10-24T09:51:49.000Z</time>
      </trkpt>
      <trkpt lat="43.34166" lon="6.05047">
        <ele>313.20001220703</ele>
        <time>2019-10-24T09:51:50.000Z</time>
      </trkpt>
      <trkpt lat="43.34186" lon="6.05061">
        <ele>313.39999389648</ele>
        <time>2019-10-24T09:51:54.000Z</time>
      </trkpt>
      <trkpt lat="43.34215" lon="6.05082">
        <ele>313.60000610352</ele>
        <time>2019-10-24T09:52:00.000Z</time>
      </trkpt>
      <trkpt lat="43.34221" lon="6.05084">
        <ele>313.79998779297</ele>
        <time>2019-10-24T09:52:01.000Z</time>
      </trkpt>
      <trkpt lat="43.34256" lon="6.05087">
        <ele>314</ele>
        <time>2019-10-24T09:52:07.000Z</time>
      </trkpt>
      <trkpt lat="43.34312" lon="6.05092">
        <ele>314.79998779297</ele>
        <time>2019-10-24T09:52:16.000Z</time>
      </trkpt>
      <trkpt lat="43.34324" lon="6.05093">
        <ele>315.20001220703</ele>
        <time>2019-10-24T09:52:18.000Z</time>
      </trkpt>
      <trkpt lat="43.34374" lon="6.05099">
        <ele>315.79998779297</ele>
        <time>2019-10-24T09:52:26.000Z</time>
      </trkpt>
      <trkpt lat="43.34398" lon="6.05104">
        <ele>316.20001220703</ele>
        <time>2019-10-24T09:52:30.000Z</time>
      </trkpt>
      <trkpt lat="43.34429" lon="6.05108">
        <ele>316.60000610352</ele>
        <time>2019-10-24T09:52:35.000Z</time>
      </trkpt>
      <trkpt lat="43.34454" lon="6.05114">
        <ele>317.39999389648</ele>
        <time>2019-10-24T09:52:39.000Z</time>
      </trkpt>
      <trkpt lat="43.34471" lon="6.05122">
        <ele>317.79998779297</ele>
        <time>2019-10-24T09:52:42.000Z</time>
      </trkpt>
      <trkpt lat="43.34487" lon="6.05132">
        <ele>318.39999389648</ele>
        <time>2019-10-24T09:52:45.000Z</time>
      </trkpt>
      <trkpt lat="43.345" lon="6.05142">
        <ele>319</ele>
        <time>2019-10-24T09:52:48.000Z</time>
      </trkpt>
      <trkpt lat="43.34508" lon="6.05148">
        <ele>319.60000610352</ele>
        <time>2019-10-24T09:52:50.000Z</time>
      </trkpt>
      <trkpt lat="43.34529" lon="6.05168">
        <ele>319.79998779297</ele>
        <time>2019-10-24T09:52:56.000Z</time>
      </trkpt>
      <trkpt lat="43.34555" lon="6.05191">
        <ele>320.79998779297</ele>
        <time>2019-10-24T09:53:03.000Z</time>
      </trkpt>
      <trkpt lat="43.34588" lon="6.05218">
        <ele>322</ele>
        <time>2019-10-24T09:53:11.000Z</time>
      </trkpt>
      <trkpt lat="43.3462" lon="6.05234">
        <ele>323</ele>
        <time>2019-10-24T09:53:18.000Z</time>
      </trkpt>
      <trkpt lat="43.34662" lon="6.05246">
        <ele>323.79998779297</ele>
        <time>2019-10-24T09:53:27.000Z</time>
      </trkpt>
      <trkpt lat="43.34682" lon="6.05249">
        <ele>324</ele>
        <time>2019-10-24T09:53:31.000Z</time>
      </trkpt>
      <trkpt lat="43.34702" lon="6.05255">
        <ele>325</ele>
        <time>2019-10-24T09:53:35.000Z</time>
      </trkpt>
      <trkpt lat="43.34706" lon="6.05257">
        <ele>325.20001220703</ele>
        <time>2019-10-24T09:53:36.000Z</time>
      </trkpt>
      <trkpt lat="43.34736" lon="6.05265">
        <ele>326</ele>
        <time>2019-10-24T09:53:42.000Z</time>
      </trkpt>
      <trkpt lat="43.34746" lon="6.05268">
        <ele>326.39999389648</ele>
        <time>2019-10-24T09:53:44.000Z</time>
      </trkpt>
      <trkpt lat="43.34774" lon="6.05273">
        <ele>327</ele>
        <time>2019-10-24T09:53:49.000Z</time>
      </trkpt>
      <trkpt lat="43.34785" lon="6.05276">
        <ele>327.60000610352</ele>
        <time>2019-10-24T09:53:51.000Z</time>
      </trkpt>
      <trkpt lat="43.34806" lon="6.05281">
        <ele>328.60000610352</ele>
        <time>2019-10-24T09:53:55.000Z</time>
      </trkpt>
      <trkpt lat="43.34811" lon="6.05283">
        <ele>328.79998779297</ele>
        <time>2019-10-24T09:53:56.000Z</time>
      </trkpt>
      <trkpt lat="43.34844" lon="6.05291">
        <ele>329.79998779297</ele>
        <time>2019-10-24T09:54:02.000Z</time>
      </trkpt>
      <trkpt lat="43.34861" lon="6.05293">
        <ele>330.39999389648</ele>
        <time>2019-10-24T09:54:05.000Z</time>
      </trkpt>
      <trkpt lat="43.34872" lon="6.05294">
        <ele>330.79998779297</ele>
        <time>2019-10-24T09:54:07.000Z</time>
      </trkpt>
      <trkpt lat="43.34899" lon="6.05295">
        <ele>331.79998779297</ele>
        <time>2019-10-24T09:54:12.000Z</time>
      </trkpt>
      <trkpt lat="43.34904" lon="6.05295">
        <ele>332</ele>
        <time>2019-10-24T09:54:13.000Z</time>
      </trkpt>
      <trkpt lat="43.34909" lon="6.05296">
        <ele>332.20001220703</ele>
        <time>2019-10-24T09:54:14.000Z</time>
      </trkpt>
      <trkpt lat="43.34928" lon="6.05302">
        <ele>333</ele>
        <time>2019-10-24T09:54:18.000Z</time>
      </trkpt>
      <trkpt lat="43.34933" lon="6.05303">
        <ele>333.20001220703</ele>
        <time>2019-10-24T09:54:19.000Z</time>
      </trkpt>
      <trkpt lat="43.3496" lon="6.05311">
        <ele>334.20001220703</ele>
        <time>2019-10-24T09:54:25.000Z</time>
      </trkpt>
      <trkpt lat="43.3497" lon="6.05314">
        <ele>334.79998779297</ele>
        <time>2019-10-24T09:54:27.000Z</time>
      </trkpt>
      <trkpt lat="43.34983" lon="6.05318">
        <ele>335.39999389648</ele>
        <time>2019-10-24T09:54:30.000Z</time>
      </trkpt>
      <trkpt lat="43.35005" lon="6.05326">
        <ele>336.39999389648</ele>
        <time>2019-10-24T09:54:35.000Z</time>
      </trkpt>
      <trkpt lat="43.3501" lon="6.05327">
        <ele>336.60000610352</ele>
        <time>2019-10-24T09:54:36.000Z</time>
      </trkpt>
      <trkpt lat="43.35032" lon="6.05334">
        <ele>337.60000610352</ele>
        <time>2019-10-24T09:54:41.000Z</time>
      </trkpt>
      <trkpt lat="43.3504" lon="6.05336">
        <ele>337.79998779297</ele>
        <time>2019-10-24T09:54:43.000Z</time>
      </trkpt>
      <trkpt lat="43.35059" lon="6.05342">
        <ele>339</ele>
        <time>2019-10-24T09:54:47.000Z</time>
      </trkpt>
      <trkpt lat="43.35082" lon="6.05348">
        <ele>340</ele>
        <time>2019-10-24T09:54:52.000Z</time>
      </trkpt>
      <trkpt lat="43.35086" lon="6.05349">
        <ele>340.60000610352</ele>
        <time>2019-10-24T09:54:53.000Z</time>
      </trkpt>
      <trkpt lat="43.35094" lon="6.05352">
        <ele>341</ele>
        <time>2019-10-24T09:54:55.000Z</time>
      </trkpt>
      <trkpt lat="43.35115" lon="6.05358">
        <ele>342.20001220703</ele>
        <time>2019-10-24T09:55:00.000Z</time>
      </trkpt>
      <trkpt lat="43.3512" lon="6.05359">
        <ele>342.60000610352</ele>
        <time>2019-10-24T09:55:01.000Z</time>
      </trkpt>
      <trkpt lat="43.35142" lon="6.05366">
        <ele>343.60000610352</ele>
        <time>2019-10-24T09:55:06.000Z</time>
      </trkpt>
      <trkpt lat="43.35156" lon="6.05369">
        <ele>344.20001220703</ele>
        <time>2019-10-24T09:55:09.000Z</time>
      </trkpt>
      <trkpt lat="43.35161" lon="6.0537">
        <ele>344.60000610352</ele>
        <time>2019-10-24T09:55:10.000Z</time>
      </trkpt>
      <trkpt lat="43.35186" lon="6.05375">
        <ele>345.60000610352</ele>
        <time>2019-10-24T09:55:15.000Z</time>
      </trkpt>
      <trkpt lat="43.35202" lon="6.05378">
        <ele>346.39999389648</ele>
        <time>2019-10-24T09:55:18.000Z</time>
      </trkpt>
      <trkpt lat="43.35207" lon="6.05379">
        <ele>346.60000610352</ele>
        <time>2019-10-24T09:55:19.000Z</time>
      </trkpt>
      <trkpt lat="43.35228" lon="6.0538">
        <ele>347.79998779297</ele>
        <time>2019-10-24T09:55:23.000Z</time>
      </trkpt>
      <trkpt lat="43.35243" lon="6.05381">
        <ele>348.60000610352</ele>
        <time>2019-10-24T09:55:26.000Z</time>
      </trkpt>
      <trkpt lat="43.35249" lon="6.05381">
        <ele>348.79998779297</ele>
        <time>2019-10-24T09:55:27.000Z</time>
      </trkpt>
      <trkpt lat="43.35254" lon="6.05381">
        <ele>348.79998779297</ele>
        <time>2019-10-24T09:55:28.000Z</time>
      </trkpt>
      <trkpt lat="43.35276" lon="6.05379">
        <ele>349.79998779297</ele>
        <time>2019-10-24T09:55:32.000Z</time>
      </trkpt>
      <trkpt lat="43.35286" lon="6.05379">
        <ele>350.60000610352</ele>
        <time>2019-10-24T09:55:34.000Z</time>
      </trkpt>
      <trkpt lat="43.35296" lon="6.0538">
        <ele>350.79998779297</ele>
        <time>2019-10-24T09:55:36.000Z</time>
      </trkpt>
      <trkpt lat="43.35311" lon="6.05381">
        <ele>352</ele>
        <time>2019-10-24T09:55:39.000Z</time>
      </trkpt>
      <trkpt lat="43.35331" lon="6.05381">
        <ele>353.20001220703</ele>
        <time>2019-10-24T09:55:43.000Z</time>
      </trkpt>
      <trkpt lat="43.35357" lon="6.0538">
        <ele>354.39999389648</ele>
        <time>2019-10-24T09:55:48.000Z</time>
      </trkpt>
      <trkpt lat="43.35373" lon="6.0538">
        <ele>355.39999389648</ele>
        <time>2019-10-24T09:55:51.000Z</time>
      </trkpt>
      <trkpt lat="43.35378" lon="6.05379">
        <ele>355.79998779297</ele>
        <time>2019-10-24T09:55:52.000Z</time>
      </trkpt>
      <trkpt lat="43.35393" lon="6.05377">
        <ele>356.60000610352</ele>
        <time>2019-10-24T09:55:55.000Z</time>
      </trkpt>
      <trkpt lat="43.35408" lon="6.05374">
        <ele>357.60000610352</ele>
        <time>2019-10-24T09:55:58.000Z</time>
      </trkpt>
      <trkpt lat="43.35413" lon="6.05373">
        <ele>358</ele>
        <time>2019-10-24T09:55:59.000Z</time>
      </trkpt>
      <trkpt lat="43.35418" lon="6.05373">
        <ele>358.20001220703</ele>
        <time>2019-10-24T09:56:00.000Z</time>
      </trkpt>
      <trkpt lat="43.35432" lon="6.05372">
        <ele>359.20001220703</ele>
        <time>2019-10-24T09:56:03.000Z</time>
      </trkpt>
      <trkpt lat="43.35437" lon="6.05372">
        <ele>359.39999389648</ele>
        <time>2019-10-24T09:56:04.000Z</time>
      </trkpt>
      <trkpt lat="43.35452" lon="6.05371">
        <ele>360.20001220703</ele>
        <time>2019-10-24T09:56:07.000Z</time>
      </trkpt>
      <trkpt lat="43.35468" lon="6.05371">
        <ele>361.20001220703</ele>
        <time>2019-10-24T09:56:10.000Z</time>
      </trkpt>
      <trkpt lat="43.35473" lon="6.05372">
        <ele>361.39999389648</ele>
        <time>2019-10-24T09:56:11.000Z</time>
      </trkpt>
      <trkpt lat="43.35494" lon="6.05371">
        <ele>362.20001220703</ele>
        <time>2019-10-24T09:56:15.000Z</time>
      </trkpt>
      <trkpt lat="43.355" lon="6.05369">
        <ele>362.60000610352</ele>
        <time>2019-10-24T09:56:16.000Z</time>
      </trkpt>
      <trkpt lat="43.35516" lon="6.0536">
        <ele>363.60000610352</ele>
        <time>2019-10-24T09:56:19.000Z</time>
      </trkpt>
      <trkpt lat="43.35526" lon="6.05354">
        <ele>364.20001220703</ele>
        <time>2019-10-24T09:56:21.000Z</time>
      </trkpt>
      <trkpt lat="43.35537" lon="6.05353">
        <ele>364.60000610352</ele>
        <time>2019-10-24T09:56:23.000Z</time>
      </trkpt>
      <trkpt lat="43.35547" lon="6.05354">
        <ele>365.39999389648</ele>
        <time>2019-10-24T09:56:25.000Z</time>
      </trkpt>
      <trkpt lat="43.35558" lon="6.05354">
        <ele>366</ele>
        <time>2019-10-24T09:56:27.000Z</time>
      </trkpt>
      <trkpt lat="43.35569" lon="6.05352">
        <ele>366.39999389648</ele>
        <time>2019-10-24T09:56:29.000Z</time>
      </trkpt>
      <trkpt lat="43.35581" lon="6.0535">
        <ele>367</ele>
        <time>2019-10-24T09:56:31.000Z</time>
      </trkpt>
      <trkpt lat="43.35596" lon="6.05345">
        <ele>367.79998779297</ele>
        <time>2019-10-24T09:56:34.000Z</time>
      </trkpt>
      <trkpt lat="43.35601" lon="6.05343">
        <ele>368</ele>
        <time>2019-10-24T09:56:35.000Z</time>
      </trkpt>
      <trkpt lat="43.35606" lon="6.05341">
        <ele>368.39999389648</ele>
        <time>2019-10-24T09:56:36.000Z</time>
      </trkpt>
      <trkpt lat="43.35622" lon="6.05338">
        <ele>369.20001220703</ele>
        <time>2019-10-24T09:56:39.000Z</time>
      </trkpt>
      <trkpt lat="43.35628" lon="6.05337">
        <ele>369.20001220703</ele>
        <time>2019-10-24T09:56:40.000Z</time>
      </trkpt>
      <trkpt lat="43.35655" lon="6.05337">
        <ele>370.20001220703</ele>
        <time>2019-10-24T09:56:45.000Z</time>
      </trkpt>
      <trkpt lat="43.35666" lon="6.05339">
        <ele>370.60000610352</ele>
        <time>2019-10-24T09:56:47.000Z</time>
      </trkpt>
      <trkpt lat="43.3569" lon="6.05341">
        <ele>371</ele>
        <time>2019-10-24T09:56:52.000Z</time>
      </trkpt>
      <trkpt lat="43.35711" lon="6.05343">
        <ele>371</ele>
        <time>2019-10-24T09:56:56.000Z</time>
      </trkpt>
      <trkpt lat="43.35726" lon="6.05345">
        <ele>371</ele>
        <time>2019-10-24T09:56:59.000Z</time>
      </trkpt>
      <trkpt lat="43.35736" lon="6.05347">
        <ele>371.20001220703</ele>
        <time>2019-10-24T09:57:01.000Z</time>
      </trkpt>
      <trkpt lat="43.35741" lon="6.05348">
        <ele>371.20001220703</ele>
        <time>2019-10-24T09:57:02.000Z</time>
      </trkpt>
      <trkpt lat="43.3576" lon="6.0535">
        <ele>371</ele>
        <time>2019-10-24T09:57:06.000Z</time>
      </trkpt>
      <trkpt lat="43.3577" lon="6.05352">
        <ele>371.20001220703</ele>
        <time>2019-10-24T09:57:08.000Z</time>
      </trkpt>
      <trkpt lat="43.35776" lon="6.05353">
        <ele>371.39999389648</ele>
        <time>2019-10-24T09:57:09.000Z</time>
      </trkpt>
      <trkpt lat="43.35781" lon="6.05354">
        <ele>371.60000610352</ele>
        <time>2019-10-24T09:57:10.000Z</time>
      </trkpt>
      <trkpt lat="43.35798" lon="6.05359">
        <ele>371.60000610352</ele>
        <time>2019-10-24T09:57:13.000Z</time>
      </trkpt>
      <trkpt lat="43.35841" lon="6.05366">
        <ele>370.79998779297</ele>
        <time>2019-10-24T09:57:20.000Z</time>
      </trkpt>
      <trkpt lat="43.35858" lon="6.05368">
        <ele>370.39999389648</ele>
        <time>2019-10-24T09:57:23.000Z</time>
      </trkpt>
      <trkpt lat="43.35864" lon="6.05369">
        <ele>370.60000610352</ele>
        <time>2019-10-24T09:57:24.000Z</time>
      </trkpt>
      <trkpt lat="43.35869" lon="6.05371">
        <ele>370.39999389648</ele>
        <time>2019-10-24T09:57:25.000Z</time>
      </trkpt>
      <trkpt lat="43.35886" lon="6.0538">
        <ele>370</ele>
        <time>2019-10-24T09:57:28.000Z</time>
      </trkpt>
      <trkpt lat="43.35896" lon="6.05388">
        <ele>369.79998779297</ele>
        <time>2019-10-24T09:57:30.000Z</time>
      </trkpt>
      <trkpt lat="43.35932" lon="6.05417">
        <ele>369.79998779297</ele>
        <time>2019-10-24T09:57:37.000Z</time>
      </trkpt>
      <trkpt lat="43.35942" lon="6.05427">
        <ele>369.79998779297</ele>
        <time>2019-10-24T09:57:39.000Z</time>
      </trkpt>
      <trkpt lat="43.35962" lon="6.05448">
        <ele>369.60000610352</ele>
        <time>2019-10-24T09:57:43.000Z</time>
      </trkpt>
      <trkpt lat="43.35972" lon="6.05459">
        <ele>369.20001220703</ele>
        <time>2019-10-24T09:57:45.000Z</time>
      </trkpt>
      <trkpt lat="43.35997" lon="6.05487">
        <ele>369</ele>
        <time>2019-10-24T09:57:50.000Z</time>
      </trkpt>
      <trkpt lat="43.36036" lon="6.0552">
        <ele>369.39999389648</ele>
        <time>2019-10-24T09:57:57.000Z</time>
      </trkpt>
      <trkpt lat="43.36072" lon="6.0555">
        <ele>369.79998779297</ele>
        <time>2019-10-24T09:58:04.000Z</time>
      </trkpt>
      <trkpt lat="43.36081" lon="6.05561">
        <ele>370.39999389648</ele>
        <time>2019-10-24T09:58:06.000Z</time>
      </trkpt>
      <trkpt lat="43.36088" lon="6.05573">
        <ele>371.60000610352</ele>
        <time>2019-10-24T09:58:08.000Z</time>
      </trkpt>
      <trkpt lat="43.36092" lon="6.0558">
        <ele>372</ele>
        <time>2019-10-24T09:58:09.000Z</time>
      </trkpt>
      <trkpt lat="43.36109" lon="6.05606">
        <ele>372.79998779297</ele>
        <time>2019-10-24T09:58:13.000Z</time>
      </trkpt>
      <trkpt lat="43.36137" lon="6.05641">
        <ele>373.79998779297</ele>
        <time>2019-10-24T09:58:19.000Z</time>
      </trkpt>
      <trkpt lat="43.36142" lon="6.05646">
        <ele>373.79998779297</ele>
        <time>2019-10-24T09:58:20.000Z</time>
      </trkpt>
      <trkpt lat="43.36163" lon="6.05675">
        <ele>373.79998779297</ele>
        <time>2019-10-24T09:58:25.000Z</time>
      </trkpt>
      <trkpt lat="43.36178" lon="6.05699">
        <ele>375</ele>
        <time>2019-10-24T09:58:29.000Z</time>
      </trkpt>
      <trkpt lat="43.36183" lon="6.05704">
        <ele>375.39999389648</ele>
        <time>2019-10-24T09:58:30.000Z</time>
      </trkpt>
      <trkpt lat="43.36201" lon="6.05724">
        <ele>376.39999389648</ele>
        <time>2019-10-24T09:58:34.000Z</time>
      </trkpt>
      <trkpt lat="43.36209" lon="6.05731">
        <ele>376.79998779297</ele>
        <time>2019-10-24T09:58:36.000Z</time>
      </trkpt>
      <trkpt lat="43.3622" lon="6.05733">
        <ele>377.39999389648</ele>
        <time>2019-10-24T09:58:39.000Z</time>
      </trkpt>
      <trkpt lat="43.36228" lon="6.05729">
        <ele>378.20001220703</ele>
        <time>2019-10-24T09:58:41.000Z</time>
      </trkpt>
      <trkpt lat="43.36233" lon="6.05727">
        <ele>378.79998779297</ele>
        <time>2019-10-24T09:58:42.000Z</time>
      </trkpt>
      <trkpt lat="43.36242" lon="6.05724">
        <ele>380.20001220703</ele>
        <time>2019-10-24T09:58:44.000Z</time>
      </trkpt>
      <trkpt lat="43.36246" lon="6.05722">
        <ele>380.79998779297</ele>
        <time>2019-10-24T09:58:45.000Z</time>
      </trkpt>
      <trkpt lat="43.3625" lon="6.05721">
        <ele>381.60000610352</ele>
        <time>2019-10-24T09:58:46.000Z</time>
      </trkpt>
      <trkpt lat="43.36259" lon="6.05721">
        <ele>382.39999389648</ele>
        <time>2019-10-24T09:58:48.000Z</time>
      </trkpt>
      <trkpt lat="43.36264" lon="6.05721">
        <ele>382.79998779297</ele>
        <time>2019-10-24T09:58:49.000Z</time>
      </trkpt>
      <trkpt lat="43.36268" lon="6.05723">
        <ele>383.39999389648</ele>
        <time>2019-10-24T09:58:50.000Z</time>
      </trkpt>
      <trkpt lat="43.36273" lon="6.05724">
        <ele>384</ele>
        <time>2019-10-24T09:58:51.000Z</time>
      </trkpt>
      <trkpt lat="43.36278" lon="6.05726">
        <ele>384.39999389648</ele>
        <time>2019-10-24T09:58:52.000Z</time>
      </trkpt>
      <trkpt lat="43.3629" lon="6.0574">
        <ele>385</ele>
        <time>2019-10-24T09:58:55.000Z</time>
      </trkpt>
      <trkpt lat="43.36302" lon="6.05765">
        <ele>384.20001220703</ele>
        <time>2019-10-24T09:58:58.000Z</time>
      </trkpt>
      <trkpt lat="43.3632" lon="6.05786">
        <ele>383.60000610352</ele>
        <time>2019-10-24T09:59:01.000Z</time>
      </trkpt>
      <trkpt lat="43.36326" lon="6.05793">
        <ele>383</ele>
        <time>2019-10-24T09:59:02.000Z</time>
      </trkpt>
      <trkpt lat="43.36332" lon="6.05801">
        <ele>382.39999389648</ele>
        <time>2019-10-24T09:59:03.000Z</time>
      </trkpt>
      <trkpt lat="43.36337" lon="6.05808">
        <ele>382</ele>
        <time>2019-10-24T09:59:04.000Z</time>
      </trkpt>
      <trkpt lat="43.36345" lon="6.05826">
        <ele>381</ele>
        <time>2019-10-24T09:59:06.000Z</time>
      </trkpt>
      <trkpt lat="43.36353" lon="6.05846">
        <ele>379.79998779297</ele>
        <time>2019-10-24T09:59:08.000Z</time>
      </trkpt>
      <trkpt lat="43.36357" lon="6.05855">
        <ele>378.79998779297</ele>
        <time>2019-10-24T09:59:09.000Z</time>
      </trkpt>
      <trkpt lat="43.36363" lon="6.05864">
        <ele>378.20001220703</ele>
        <time>2019-10-24T09:59:10.000Z</time>
      </trkpt>
      <trkpt lat="43.36376" lon="6.05876">
        <ele>377.20001220703</ele>
        <time>2019-10-24T09:59:12.000Z</time>
      </trkpt>
      <trkpt lat="43.36383" lon="6.05881">
        <ele>376.79998779297</ele>
        <time>2019-10-24T09:59:13.000Z</time>
      </trkpt>
      <trkpt lat="43.36389" lon="6.05887">
        <ele>376.39999389648</ele>
        <time>2019-10-24T09:59:14.000Z</time>
      </trkpt>
      <trkpt lat="43.36395" lon="6.05893">
        <ele>375.79998779297</ele>
        <time>2019-10-24T09:59:15.000Z</time>
      </trkpt>
      <trkpt lat="43.36403" lon="6.05913">
        <ele>374.60000610352</ele>
        <time>2019-10-24T09:59:17.000Z</time>
      </trkpt>
      <trkpt lat="43.36412" lon="6.05935">
        <ele>373.39999389648</ele>
        <time>2019-10-24T09:59:19.000Z</time>
      </trkpt>
      <trkpt lat="43.36422" lon="6.05957">
        <ele>372.20001220703</ele>
        <time>2019-10-24T09:59:21.000Z</time>
      </trkpt>
      <trkpt lat="43.36428" lon="6.05968">
        <ele>372</ele>
        <time>2019-10-24T09:59:22.000Z</time>
      </trkpt>
      <trkpt lat="43.36434" lon="6.0598">
        <ele>371</ele>
        <time>2019-10-24T09:59:23.000Z</time>
      </trkpt>
      <trkpt lat="43.36448" lon="6.06003">
        <ele>369.39999389648</ele>
        <time>2019-10-24T09:59:25.000Z</time>
      </trkpt>
      <trkpt lat="43.36455" lon="6.06015">
        <ele>367.60000610352</ele>
        <time>2019-10-24T09:59:26.000Z</time>
      </trkpt>
      <trkpt lat="43.36462" lon="6.06025">
        <ele>366.39999389648</ele>
        <time>2019-10-24T09:59:27.000Z</time>
      </trkpt>
      <trkpt lat="43.36471" lon="6.06035">
        <ele>365</ele>
        <time>2019-10-24T09:59:28.000Z</time>
      </trkpt>
      <trkpt lat="43.36479" lon="6.06044">
        <ele>363.79998779297</ele>
        <time>2019-10-24T09:59:29.000Z</time>
      </trkpt>
      <trkpt lat="43.36488" lon="6.06054">
        <ele>362.39999389648</ele>
        <time>2019-10-24T09:59:30.000Z</time>
      </trkpt>
      <trkpt lat="43.36496" lon="6.06063">
        <ele>361</ele>
        <time>2019-10-24T09:59:31.000Z</time>
      </trkpt>
      <trkpt lat="43.36514" lon="6.06082">
        <ele>359.60000610352</ele>
        <time>2019-10-24T09:59:33.000Z</time>
      </trkpt>
      <trkpt lat="43.36531" lon="6.06101">
        <ele>358</ele>
        <time>2019-10-24T09:59:35.000Z</time>
      </trkpt>
      <trkpt lat="43.36549" lon="6.06119">
        <ele>356.79998779297</ele>
        <time>2019-10-24T09:59:37.000Z</time>
      </trkpt>
      <trkpt lat="43.36558" lon="6.06128">
        <ele>355.60000610352</ele>
        <time>2019-10-24T09:59:38.000Z</time>
      </trkpt>
      <trkpt lat="43.36577" lon="6.06146">
        <ele>354.20001220703</ele>
        <time>2019-10-24T09:59:40.000Z</time>
      </trkpt>
      <trkpt lat="43.36595" lon="6.06164">
        <ele>352.79998779297</ele>
        <time>2019-10-24T09:59:42.000Z</time>
      </trkpt>
      <trkpt lat="43.36609" lon="6.06183">
        <ele>351.79998779297</ele>
        <time>2019-10-24T09:59:44.000Z</time>
      </trkpt>
      <trkpt lat="43.36624" lon="6.06204">
        <ele>349.79998779297</ele>
        <time>2019-10-24T09:59:46.000Z</time>
      </trkpt>
      <trkpt lat="43.36631" lon="6.06215">
        <ele>348</ele>
        <time>2019-10-24T09:59:47.000Z</time>
      </trkpt>
      <trkpt lat="43.36638" lon="6.06227">
        <ele>347</ele>
        <time>2019-10-24T09:59:48.000Z</time>
      </trkpt>
      <trkpt lat="43.36652" lon="6.06251">
        <ele>345.39999389648</ele>
        <time>2019-10-24T09:59:50.000Z</time>
      </trkpt>
      <trkpt lat="43.36658" lon="6.06263">
        <ele>344.60000610352</ele>
        <time>2019-10-24T09:59:51.000Z</time>
      </trkpt>
      <trkpt lat="43.36666" lon="6.06274">
        <ele>343</ele>
        <time>2019-10-24T09:59:52.000Z</time>
      </trkpt>
      <trkpt lat="43.36679" lon="6.06297">
        <ele>341.20001220703</ele>
        <time>2019-10-24T09:59:54.000Z</time>
      </trkpt>
      <trkpt lat="43.3669" lon="6.0632">
        <ele>339.79998779297</ele>
        <time>2019-10-24T09:59:56.000Z</time>
      </trkpt>
      <trkpt lat="43.36702" lon="6.06342">
        <ele>338.20001220703</ele>
        <time>2019-10-24T09:59:58.000Z</time>
      </trkpt>
      <trkpt lat="43.36708" lon="6.06351">
        <ele>337.60000610352</ele>
        <time>2019-10-24T09:59:59.000Z</time>
      </trkpt>
      <trkpt lat="43.36714" lon="6.06359">
        <ele>337.20001220703</ele>
        <time>2019-10-24T10:00:00.000Z</time>
      </trkpt>
      <trkpt lat="43.36735" lon="6.06378">
        <ele>335.60000610352</ele>
        <time>2019-10-24T10:00:03.000Z</time>
      </trkpt>
      <trkpt lat="43.3675" lon="6.06388">
        <ele>334.60000610352</ele>
        <time>2019-10-24T10:00:05.000Z</time>
      </trkpt>
      <trkpt lat="43.36764" lon="6.06398">
        <ele>333.60000610352</ele>
        <time>2019-10-24T10:00:07.000Z</time>
      </trkpt>
      <trkpt lat="43.36772" lon="6.06401">
        <ele>333.39999389648</ele>
        <time>2019-10-24T10:00:08.000Z</time>
      </trkpt>
      <trkpt lat="43.36787" lon="6.06408">
        <ele>333.39999389648</ele>
        <time>2019-10-24T10:00:10.000Z</time>
      </trkpt>
      <trkpt lat="43.36794" lon="6.06413">
        <ele>333.39999389648</ele>
        <time>2019-10-24T10:00:11.000Z</time>
      </trkpt>
      <trkpt lat="43.36813" lon="6.06429">
        <ele>332.79998779297</ele>
        <time>2019-10-24T10:00:14.000Z</time>
      </trkpt>
      <trkpt lat="43.3682" lon="6.06434">
        <ele>332.60000610352</ele>
        <time>2019-10-24T10:00:15.000Z</time>
      </trkpt>
      <trkpt lat="43.36826" lon="6.06438">
        <ele>332.39999389648</ele>
        <time>2019-10-24T10:00:16.000Z</time>
      </trkpt>
      <trkpt lat="43.36843" lon="6.06451">
        <ele>332</ele>
        <time>2019-10-24T10:00:19.000Z</time>
      </trkpt>
      <trkpt lat="43.36858" lon="6.06465">
        <ele>332</ele>
        <time>2019-10-24T10:00:22.000Z</time>
      </trkpt>
      <trkpt lat="43.36867" lon="6.06477">
        <ele>332</ele>
        <time>2019-10-24T10:00:24.000Z</time>
      </trkpt>
      <trkpt lat="43.3688" lon="6.06496">
        <ele>332</ele>
        <time>2019-10-24T10:00:27.000Z</time>
      </trkpt>
      <trkpt lat="43.36887" lon="6.06511">
        <ele>332</ele>
        <time>2019-10-24T10:00:29.000Z</time>
      </trkpt>
      <trkpt lat="43.36906" lon="6.06545">
        <ele>332</ele>
        <time>2019-10-24T10:00:34.000Z</time>
      </trkpt>
      <trkpt lat="43.36917" lon="6.06564">
        <ele>332.39999389648</ele>
        <time>2019-10-24T10:00:37.000Z</time>
      </trkpt>
      <trkpt lat="43.36925" lon="6.06577">
        <ele>333.39999389648</ele>
        <time>2019-10-24T10:00:39.000Z</time>
      </trkpt>
      <trkpt lat="43.36942" lon="6.06604">
        <ele>334.20001220703</ele>
        <time>2019-10-24T10:00:43.000Z</time>
      </trkpt>
      <trkpt lat="43.36955" lon="6.06624">
        <ele>333.79998779297</ele>
        <time>2019-10-24T10:00:46.000Z</time>
      </trkpt>
      <trkpt lat="43.36969" lon="6.06642">
        <ele>333.60000610352</ele>
        <time>2019-10-24T10:00:49.000Z</time>
      </trkpt>
      <trkpt lat="43.36979" lon="6.06653">
        <ele>333.60000610352</ele>
        <time>2019-10-24T10:00:51.000Z</time>
      </trkpt>
      <trkpt lat="43.36987" lon="6.06666">
        <ele>333.20001220703</ele>
        <time>2019-10-24T10:00:53.000Z</time>
      </trkpt>
      <trkpt lat="43.37013" lon="6.06704">
        <ele>333</ele>
        <time>2019-10-24T10:00:59.000Z</time>
      </trkpt>
      <trkpt lat="43.37049" lon="6.06742">
        <ele>332.79998779297</ele>
        <time>2019-10-24T10:01:06.000Z</time>
      </trkpt>
      <trkpt lat="43.37087" lon="6.06773">
        <ele>332.39999389648</ele>
        <time>2019-10-24T10:01:13.000Z</time>
      </trkpt>
      <trkpt lat="43.37121" lon="6.06794">
        <ele>333.20001220703</ele>
        <time>2019-10-24T10:01:19.000Z</time>
      </trkpt>
      <trkpt lat="43.37136" lon="6.068">
        <ele>333.20001220703</ele>
        <time>2019-10-24T10:01:22.000Z</time>
      </trkpt>
      <trkpt lat="43.3714" lon="6.06803">
        <ele>333.20001220703</ele>
        <time>2019-10-24T10:01:23.000Z</time>
      </trkpt>
      <trkpt lat="43.37147" lon="6.06813">
        <ele>333.39999389648</ele>
        <time>2019-10-24T10:01:25.000Z</time>
      </trkpt>
      <trkpt lat="43.37153" lon="6.06823">
        <ele>333.60000610352</ele>
        <time>2019-10-24T10:01:27.000Z</time>
      </trkpt>
      <trkpt lat="43.37152" lon="6.0684">
        <ele>333</ele>
        <time>2019-10-24T10:01:30.000Z</time>
      </trkpt>
      <trkpt lat="43.3715" lon="6.06846">
        <ele>332.79998779297</ele>
        <time>2019-10-24T10:01:31.000Z</time>
      </trkpt>
      <trkpt lat="43.37147" lon="6.06851">
        <ele>332.60000610352</ele>
        <time>2019-10-24T10:01:32.000Z</time>
      </trkpt>
      <trkpt lat="43.37144" lon="6.06855">
        <ele>332.39999389648</ele>
        <time>2019-10-24T10:01:33.000Z</time>
      </trkpt>
      <trkpt lat="43.37142" lon="6.06858">
        <ele>331.79998779297</ele>
        <time>2019-10-24T10:01:34.000Z</time>
      </trkpt>
      <trkpt lat="43.37141" lon="6.06863">
        <ele>331.39999389648</ele>
        <time>2019-10-24T10:01:35.000Z</time>
      </trkpt>
      <trkpt lat="43.3714" lon="6.06875">
        <ele>330.79998779297</ele>
        <time>2019-10-24T10:01:37.000Z</time>
      </trkpt>
      <trkpt lat="43.3714" lon="6.06887">
        <ele>330.20001220703</ele>
        <time>2019-10-24T10:01:39.000Z</time>
      </trkpt>
      <trkpt lat="43.37139" lon="6.06901">
        <ele>329.39999389648</ele>
        <time>2019-10-24T10:01:41.000Z</time>
      </trkpt>
      <trkpt lat="43.37138" lon="6.06907">
        <ele>328.79998779297</ele>
        <time>2019-10-24T10:01:42.000Z</time>
      </trkpt>
      <trkpt lat="43.37132" lon="6.06927">
        <ele>328.60000610352</ele>
        <time>2019-10-24T10:01:45.000Z</time>
      </trkpt>
      <trkpt lat="43.37119" lon="6.06939">
        <ele>328</ele>
        <time>2019-10-24T10:01:48.000Z</time>
      </trkpt>
      <trkpt lat="43.37115" lon="6.06944">
        <ele>328</ele>
        <time>2019-10-24T10:01:49.000Z</time>
      </trkpt>
      <trkpt lat="43.37105" lon="6.06954">
        <ele>328.39999389648</ele>
        <time>2019-10-24T10:01:51.000Z</time>
      </trkpt>
      <trkpt lat="43.37084" lon="6.0697">
        <ele>328.60000610352</ele>
        <time>2019-10-24T10:01:55.000Z</time>
      </trkpt>
      <trkpt lat="43.37079" lon="6.06973">
        <ele>328.39999389648</ele>
        <time>2019-10-24T10:01:56.000Z</time>
      </trkpt>
      <trkpt lat="43.37061" lon="6.06981">
        <ele>328.39999389648</ele>
        <time>2019-10-24T10:01:59.000Z</time>
      </trkpt>
      <trkpt lat="43.37045" lon="6.06991">
        <ele>328.60000610352</ele>
        <time>2019-10-24T10:02:02.000Z</time>
      </trkpt>
      <trkpt lat="43.37041" lon="6.06996">
        <ele>328.60000610352</ele>
        <time>2019-10-24T10:02:03.000Z</time>
      </trkpt>
      <trkpt lat="43.3703" lon="6.07011">
        <ele>330</ele>
        <time>2019-10-24T10:02:06.000Z</time>
      </trkpt>
      <trkpt lat="43.37026" lon="6.07017">
        <ele>330.20001220703</ele>
        <time>2019-10-24T10:02:07.000Z</time>
      </trkpt>
      <trkpt lat="43.37019" lon="6.07028">
        <ele>330.39999389648</ele>
        <time>2019-10-24T10:02:09.000Z</time>
      </trkpt>
      <trkpt lat="43.37016" lon="6.07034">
        <ele>330.39999389648</ele>
        <time>2019-10-24T10:02:10.000Z</time>
      </trkpt>
      <trkpt lat="43.37011" lon="6.07047">
        <ele>330.39999389648</ele>
        <time>2019-10-24T10:02:12.000Z</time>
      </trkpt>
      <trkpt lat="43.37003" lon="6.0707">
        <ele>330.20001220703</ele>
        <time>2019-10-24T10:02:16.000Z</time>
      </trkpt>
      <trkpt lat="43.37" lon="6.07075">
        <ele>330.20001220703</ele>
        <time>2019-10-24T10:02:17.000Z</time>
      </trkpt>
      <trkpt lat="43.36989" lon="6.07099">
        <ele>330.60000610352</ele>
        <time>2019-10-24T10:02:21.000Z</time>
      </trkpt>
      <trkpt lat="43.36986" lon="6.07106">
        <ele>331</ele>
        <time>2019-10-24T10:02:22.000Z</time>
      </trkpt>
      <trkpt lat="43.36981" lon="6.07119">
        <ele>330.79998779297</ele>
        <time>2019-10-24T10:02:24.000Z</time>
      </trkpt>
      <trkpt lat="43.36978" lon="6.07125">
        <ele>330.39999389648</ele>
        <time>2019-10-24T10:02:25.000Z</time>
      </trkpt>
      <trkpt lat="43.36974" lon="6.0713">
        <ele>329.60000610352</ele>
        <time>2019-10-24T10:02:26.000Z</time>
      </trkpt>
      <trkpt lat="43.36967" lon="6.07137">
        <ele>328</ele>
        <time>2019-10-24T10:02:28.000Z</time>
      </trkpt>
      <trkpt lat="43.36963" lon="6.07139">
        <ele>327.60000610352</ele>
        <time>2019-10-24T10:02:29.000Z</time>
      </trkpt>
      <trkpt lat="43.3696" lon="6.07141">
        <ele>327.20001220703</ele>
        <time>2019-10-24T10:02:30.000Z</time>
      </trkpt>
      <trkpt lat="43.36956" lon="6.07143">
        <ele>326.79998779297</ele>
        <time>2019-10-24T10:02:31.000Z</time>
      </trkpt>
      <trkpt lat="43.36952" lon="6.07145">
        <ele>326.39999389648</ele>
        <time>2019-10-24T10:02:32.000Z</time>
      </trkpt>
      <trkpt lat="43.36947" lon="6.07147">
        <ele>326</ele>
        <time>2019-10-24T10:02:33.000Z</time>
      </trkpt>
      <trkpt lat="43.36943" lon="6.07148">
        <ele>325.20001220703</ele>
        <time>2019-10-24T10:02:34.000Z</time>
      </trkpt>
      <trkpt lat="43.36932" lon="6.07151">
        <ele>324</ele>
        <time>2019-10-24T10:02:36.000Z</time>
      </trkpt>
      <trkpt lat="43.36927" lon="6.07153">
        <ele>323.60000610352</ele>
        <time>2019-10-24T10:02:37.000Z</time>
      </trkpt>
      <trkpt lat="43.36911" lon="6.07159">
        <ele>322.60000610352</ele>
        <time>2019-10-24T10:02:40.000Z</time>
      </trkpt>
      <trkpt lat="43.36902" lon="6.07157">
        <ele>321.60000610352</ele>
        <time>2019-10-24T10:02:42.000Z</time>
      </trkpt>
      <trkpt lat="43.36899" lon="6.07154">
        <ele>321.39999389648</ele>
        <time>2019-10-24T10:02:43.000Z</time>
      </trkpt>
      <trkpt lat="43.36891" lon="6.07155">
        <ele>320.60000610352</ele>
        <time>2019-10-24T10:02:46.000Z</time>
      </trkpt>
      <trkpt lat="43.36886" lon="6.07163">
        <ele>320.20001220703</ele>
        <time>2019-10-24T10:02:48.000Z</time>
      </trkpt>
      <trkpt lat="43.36885" lon="6.07165">
        <ele>320</ele>
        <time>2019-10-24T10:02:49.000Z</time>
      </trkpt>
      <trkpt lat="43.36882" lon="6.0717">
        <ele>319.60000610352</ele>
        <time>2019-10-24T10:02:52.000Z</time>
      </trkpt>
      <trkpt lat="43.3688" lon="6.07177">
        <ele>319.60000610352</ele>
        <time>2019-10-24T10:02:54.000Z</time>
      </trkpt>
      <trkpt lat="43.36878" lon="6.07193">
        <ele>319.20001220703</ele>
        <time>2019-10-24T10:02:58.000Z</time>
      </trkpt>
      <trkpt lat="43.36878" lon="6.07196">
        <ele>319</ele>
        <time>2019-10-24T10:02:59.000Z</time>
      </trkpt>
      <trkpt lat="43.36874" lon="6.07214">
        <ele>318.79998779297</ele>
        <time>2019-10-24T10:03:05.000Z</time>
      </trkpt>
      <trkpt lat="43.3687" lon="6.07227">
        <ele>318</ele>
        <time>2019-10-24T10:03:09.000Z</time>
      </trkpt>
      <trkpt lat="43.36869" lon="6.0723">
        <ele>317.60000610352</ele>
        <time>2019-10-24T10:03:10.000Z</time>
      </trkpt>
      <trkpt lat="43.36862" lon="6.07252">
        <ele>316.79998779297</ele>
        <time>2019-10-24T10:03:15.000Z</time>
      </trkpt>
      <trkpt lat="43.3686" lon="6.07268">
        <ele>315.20001220703</ele>
        <time>2019-10-24T10:03:18.000Z</time>
      </trkpt>
      <trkpt lat="43.36859" lon="6.0728">
        <ele>314.20001220703</ele>
        <time>2019-10-24T10:03:20.000Z</time>
      </trkpt>
      <trkpt lat="43.36859" lon="6.07286">
        <ele>313.79998779297</ele>
        <time>2019-10-24T10:03:21.000Z</time>
      </trkpt>
      <trkpt lat="43.36859" lon="6.07298">
        <ele>312.39999389648</ele>
        <time>2019-10-24T10:03:23.000Z</time>
      </trkpt>
      <trkpt lat="43.36859" lon="6.07317">
        <ele>311</ele>
        <time>2019-10-24T10:03:26.000Z</time>
      </trkpt>
      <trkpt lat="43.3686" lon="6.0733">
        <ele>310.20001220703</ele>
        <time>2019-10-24T10:03:28.000Z</time>
      </trkpt>
      <trkpt lat="43.36863" lon="6.0734">
        <ele>309.79998779297</ele>
        <time>2019-10-24T10:03:30.000Z</time>
      </trkpt>
      <trkpt lat="43.36868" lon="6.0736">
        <ele>308.60000610352</ele>
        <time>2019-10-24T10:03:33.000Z</time>
      </trkpt>
      <trkpt lat="43.36869" lon="6.07367">
        <ele>308</ele>
        <time>2019-10-24T10:03:34.000Z</time>
      </trkpt>
      <trkpt lat="43.36871" lon="6.07381">
        <ele>307.60000610352</ele>
        <time>2019-10-24T10:03:36.000Z</time>
      </trkpt>
      <trkpt lat="43.36872" lon="6.07388">
        <ele>307.39999389648</ele>
        <time>2019-10-24T10:03:37.000Z</time>
      </trkpt>
      <trkpt lat="43.36873" lon="6.07395">
        <ele>307.20001220703</ele>
        <time>2019-10-24T10:03:38.000Z</time>
      </trkpt>
      <trkpt lat="43.36875" lon="6.07413">
        <ele>306</ele>
        <time>2019-10-24T10:03:41.000Z</time>
      </trkpt>
      <trkpt lat="43.36876" lon="6.07418">
        <ele>305.60000610352</ele>
        <time>2019-10-24T10:03:42.000Z</time>
      </trkpt>
      <trkpt lat="43.36879" lon="6.07438">
        <ele>305.20001220703</ele>
        <time>2019-10-24T10:03:46.000Z</time>
      </trkpt>
      <trkpt lat="43.36881" lon="6.07448">
        <ele>304.79998779297</ele>
        <time>2019-10-24T10:03:48.000Z</time>
      </trkpt>
      <trkpt lat="43.36882" lon="6.0747">
        <ele>304</ele>
        <time>2019-10-24T10:03:52.000Z</time>
      </trkpt>
      <trkpt lat="43.36885" lon="6.07506">
        <ele>304.20001220703</ele>
        <time>2019-10-24T10:03:59.000Z</time>
      </trkpt>
      <trkpt lat="43.36885" lon="6.07533">
        <ele>304.20001220703</ele>
        <time>2019-10-24T10:04:05.000Z</time>
      </trkpt>
      <trkpt lat="43.36886" lon="6.07558">
        <ele>303.79998779297</ele>
        <time>2019-10-24T10:04:10.000Z</time>
      </trkpt>
      <trkpt lat="43.36886" lon="6.07564">
        <ele>303.60000610352</ele>
        <time>2019-10-24T10:04:11.000Z</time>
      </trkpt>
      <trkpt lat="43.36893" lon="6.07616">
        <ele>303</ele>
        <time>2019-10-24T10:04:20.000Z</time>
      </trkpt>
      <trkpt lat="43.36894" lon="6.07622">
        <ele>303</ele>
        <time>2019-10-24T10:04:21.000Z</time>
      </trkpt>
      <trkpt lat="43.36897" lon="6.07632">
        <ele>302.79998779297</ele>
        <time>2019-10-24T10:04:23.000Z</time>
      </trkpt>
      <trkpt lat="43.369" lon="6.07643">
        <ele>302.60000610352</ele>
        <time>2019-10-24T10:04:25.000Z</time>
      </trkpt>
      <trkpt lat="43.36903" lon="6.07653">
        <ele>302.39999389648</ele>
        <time>2019-10-24T10:04:27.000Z</time>
      </trkpt>
      <trkpt lat="43.3691" lon="6.07679">
        <ele>302.60000610352</ele>
        <time>2019-10-24T10:04:32.000Z</time>
      </trkpt>
      <trkpt lat="43.36912" lon="6.0769">
        <ele>302.60000610352</ele>
        <time>2019-10-24T10:04:34.000Z</time>
      </trkpt>
      <trkpt lat="43.36917" lon="6.07721">
        <ele>303.60000610352</ele>
        <time>2019-10-24T10:04:40.000Z</time>
      </trkpt>
      <trkpt lat="43.36917" lon="6.07726">
        <ele>304</ele>
        <time>2019-10-24T10:04:41.000Z</time>
      </trkpt>
      <trkpt lat="43.36924" lon="6.07759">
        <ele>302.79998779297</ele>
        <time>2019-10-24T10:04:48.000Z</time>
      </trkpt>
      <trkpt lat="43.36925" lon="6.07769">
        <ele>303</ele>
        <time>2019-10-24T10:04:50.000Z</time>
      </trkpt>
      <trkpt lat="43.36928" lon="6.07786">
        <ele>303</ele>
        <time>2019-10-24T10:04:53.000Z</time>
      </trkpt>
      <trkpt lat="43.36928" lon="6.07791">
        <ele>303</ele>
        <time>2019-10-24T10:04:54.000Z</time>
      </trkpt>
      <trkpt lat="43.36933" lon="6.07818">
        <ele>302.79998779297</ele>
        <time>2019-10-24T10:04:59.000Z</time>
      </trkpt>
      <trkpt lat="43.36935" lon="6.07828">
        <ele>303</ele>
        <time>2019-10-24T10:05:01.000Z</time>
      </trkpt>
      <trkpt lat="43.3694" lon="6.07856">
        <ele>303</ele>
        <time>2019-10-24T10:05:06.000Z</time>
      </trkpt>
      <trkpt lat="43.36945" lon="6.07893">
        <ele>303</ele>
        <time>2019-10-24T10:05:13.000Z</time>
      </trkpt>
      <trkpt lat="43.36949" lon="6.07933">
        <ele>303</ele>
        <time>2019-10-24T10:05:20.000Z</time>
      </trkpt>
      <trkpt lat="43.36955" lon="6.07955">
        <ele>302.79998779297</ele>
        <time>2019-10-24T10:05:24.000Z</time>
      </trkpt>
      <trkpt lat="43.3696" lon="6.07971">
        <ele>302.79998779297</ele>
        <time>2019-10-24T10:05:27.000Z</time>
      </trkpt>
      <trkpt lat="43.36976" lon="6.08009">
        <ele>302.39999389648</ele>
        <time>2019-10-24T10:05:34.000Z</time>
      </trkpt>
      <trkpt lat="43.36978" lon="6.08014">
        <ele>302.39999389648</ele>
        <time>2019-10-24T10:05:35.000Z</time>
      </trkpt>
      <trkpt lat="43.36988" lon="6.0805">
        <ele>301.79998779297</ele>
        <time>2019-10-24T10:05:41.000Z</time>
      </trkpt>
      <trkpt lat="43.36997" lon="6.0808">
        <ele>301.39999389648</ele>
        <time>2019-10-24T10:05:46.000Z</time>
      </trkpt>
      <trkpt lat="43.37002" lon="6.08098">
        <ele>301</ele>
        <time>2019-10-24T10:05:49.000Z</time>
      </trkpt>
      <trkpt lat="43.37004" lon="6.0811">
        <ele>300.39999389648</ele>
        <time>2019-10-24T10:05:51.000Z</time>
      </trkpt>
      <trkpt lat="43.37012" lon="6.08142">
        <ele>300.20001220703</ele>
        <time>2019-10-24T10:05:56.000Z</time>
      </trkpt>
      <trkpt lat="43.37024" lon="6.08186">
        <ele>299.60000610352</ele>
        <time>2019-10-24T10:06:03.000Z</time>
      </trkpt>
      <trkpt lat="43.37031" lon="6.0821">
        <ele>299.60000610352</ele>
        <time>2019-10-24T10:06:07.000Z</time>
      </trkpt>
      <trkpt lat="43.37034" lon="6.08222">
        <ele>300</ele>
        <time>2019-10-24T10:06:09.000Z</time>
      </trkpt>
      <trkpt lat="43.37045" lon="6.08263">
        <ele>300.60000610352</ele>
        <time>2019-10-24T10:06:16.000Z</time>
      </trkpt>
      <trkpt lat="43.37051" lon="6.08286">
        <ele>301</ele>
        <time>2019-10-24T10:06:20.000Z</time>
      </trkpt>
      <trkpt lat="43.37055" lon="6.08304">
        <ele>301.20001220703</ele>
        <time>2019-10-24T10:06:23.000Z</time>
      </trkpt>
      <trkpt lat="43.37057" lon="6.0831">
        <ele>301</ele>
        <time>2019-10-24T10:06:24.000Z</time>
      </trkpt>
      <trkpt lat="43.37066" lon="6.08343">
        <ele>301.60000610352</ele>
        <time>2019-10-24T10:06:30.000Z</time>
      </trkpt>
      <trkpt lat="43.37068" lon="6.08349">
        <ele>301.60000610352</ele>
        <time>2019-10-24T10:06:31.000Z</time>
      </trkpt>
      <trkpt lat="43.3708" lon="6.08385">
        <ele>302.39999389648</ele>
        <time>2019-10-24T10:06:37.000Z</time>
      </trkpt>
      <trkpt lat="43.37095" lon="6.08418">
        <ele>302.20001220703</ele>
        <time>2019-10-24T10:06:44.000Z</time>
      </trkpt>
      <trkpt lat="43.37106" lon="6.08443">
        <ele>302</ele>
        <time>2019-10-24T10:06:51.000Z</time>
      </trkpt>
      <trkpt lat="43.37123" lon="6.08465">
        <ele>302.39999389648</ele>
        <time>2019-10-24T10:06:58.000Z</time>
      </trkpt>
      <trkpt lat="43.37129" lon="6.08475">
        <ele>302.79998779297</ele>
        <time>2019-10-24T10:07:01.000Z</time>
      </trkpt>
      <trkpt lat="43.37133" lon="6.08483">
        <ele>303</ele>
        <time>2019-10-24T10:07:03.000Z</time>
      </trkpt>
      <trkpt lat="43.37147" lon="6.0851">
        <ele>303.60000610352</ele>
        <time>2019-10-24T10:07:09.000Z</time>
      </trkpt>
      <trkpt lat="43.37151" lon="6.0852">
        <ele>303.79998779297</ele>
        <time>2019-10-24T10:07:11.000Z</time>
      </trkpt>
      <trkpt lat="43.37158" lon="6.08539">
        <ele>304</ele>
        <time>2019-10-24T10:07:15.000Z</time>
      </trkpt>
      <trkpt lat="43.3717" lon="6.08574">
        <ele>303.79998779297</ele>
        <time>2019-10-24T10:07:22.000Z</time>
      </trkpt>
      <trkpt lat="43.37173" lon="6.08591">
        <ele>303.79998779297</ele>
        <time>2019-10-24T10:07:25.000Z</time>
      </trkpt>
      <trkpt lat="43.37172" lon="6.08604">
        <ele>303.79998779297</ele>
        <time>2019-10-24T10:07:27.000Z</time>
      </trkpt>
      <trkpt lat="43.37177" lon="6.08625">
        <ele>303.60000610352</ele>
        <time>2019-10-24T10:07:31.000Z</time>
      </trkpt>
      <trkpt lat="43.3719" lon="6.08658">
        <ele>303</ele>
        <time>2019-10-24T10:07:38.000Z</time>
      </trkpt>
      <trkpt lat="43.37192" lon="6.08669">
        <ele>302.79998779297</ele>
        <time>2019-10-24T10:07:40.000Z</time>
      </trkpt>
      <trkpt lat="43.37201" lon="6.08695">
        <ele>302.39999389648</ele>
        <time>2019-10-24T10:07:45.000Z</time>
      </trkpt>
      <trkpt lat="43.37209" lon="6.08726">
        <ele>301.79998779297</ele>
        <time>2019-10-24T10:07:51.000Z</time>
      </trkpt>
      <trkpt lat="43.37214" lon="6.08746">
        <ele>301.60000610352</ele>
        <time>2019-10-24T10:07:55.000Z</time>
      </trkpt>
      <trkpt lat="43.37217" lon="6.08761">
        <ele>301.20001220703</ele>
        <time>2019-10-24T10:07:58.000Z</time>
      </trkpt>
      <trkpt lat="43.37227" lon="6.08798">
        <ele>300.79998779297</ele>
        <time>2019-10-24T10:08:05.000Z</time>
      </trkpt>
      <trkpt lat="43.37232" lon="6.08817">
        <ele>300.60000610352</ele>
        <time>2019-10-24T10:08:09.000Z</time>
      </trkpt>
      <trkpt lat="43.37237" lon="6.0883">
        <ele>300.60000610352</ele>
        <time>2019-10-24T10:08:12.000Z</time>
      </trkpt>
      <trkpt lat="43.37252" lon="6.08849">
        <ele>300.60000610352</ele>
        <time>2019-10-24T10:08:18.000Z</time>
      </trkpt>
      <trkpt lat="43.37275" lon="6.08873">
        <ele>300.39999389648</ele>
        <time>2019-10-24T10:08:26.000Z</time>
      </trkpt>
      <trkpt lat="43.37292" lon="6.08885">
        <ele>300.39999389648</ele>
        <time>2019-10-24T10:08:32.000Z</time>
      </trkpt>
      <trkpt lat="43.37315" lon="6.08901">
        <ele>300</ele>
        <time>2019-10-24T10:08:41.000Z</time>
      </trkpt>
      <trkpt lat="43.37338" lon="6.08913">
        <ele>299.60000610352</ele>
        <time>2019-10-24T10:08:48.000Z</time>
      </trkpt>
      <trkpt lat="43.37345" lon="6.08919">
        <ele>299.60000610352</ele>
        <time>2019-10-24T10:08:50.000Z</time>
      </trkpt>
      <trkpt lat="43.37361" lon="6.08931">
        <ele>299</ele>
        <time>2019-10-24T10:08:55.000Z</time>
      </trkpt>
      <trkpt lat="43.3737" lon="6.08939">
        <ele>298.39999389648</ele>
        <time>2019-10-24T10:08:58.000Z</time>
      </trkpt>
      <trkpt lat="43.37381" lon="6.08954">
        <ele>297.20001220703</ele>
        <time>2019-10-24T10:09:03.000Z</time>
      </trkpt>
      <trkpt lat="43.37384" lon="6.08972">
        <ele>296</ele>
        <time>2019-10-24T10:09:09.000Z</time>
      </trkpt>
      <trkpt lat="43.37385" lon="6.08972">
        <ele>295.79998779297</ele>
        <time>2019-10-24T10:09:10.000Z</time>
      </trkpt>
      <trkpt lat="43.37386" lon="6.08975">
        <ele>294</ele>
        <time>2019-10-24T10:10:02.000Z</time>
      </trkpt>
      <trkpt lat="43.37388" lon="6.0898">
        <ele>294.20001220703</ele>
        <time>2019-10-24T10:10:04.000Z</time>
      </trkpt>
      <trkpt lat="43.374" lon="6.08979">
        <ele>294.39999389648</ele>
        <time>2019-10-24T10:10:08.000Z</time>
      </trkpt>
      <trkpt lat="43.37427" lon="6.08972">
        <ele>294.79998779297</ele>
        <time>2019-10-24T10:10:15.000Z</time>
      </trkpt>
      <trkpt lat="43.37448" lon="6.08962">
        <ele>295.20001220703</ele>
        <time>2019-10-24T10:10:20.000Z</time>
      </trkpt>
      <trkpt lat="43.37466" lon="6.08953">
        <ele>295.39999389648</ele>
        <time>2019-10-24T10:10:24.000Z</time>
      </trkpt>
      <trkpt lat="43.37508" lon="6.08929">
        <ele>295.39999389648</ele>
        <time>2019-10-24T10:10:33.000Z</time>
      </trkpt>
      <trkpt lat="43.37534" lon="6.0891">
        <ele>295.20001220703</ele>
        <time>2019-10-24T10:10:40.000Z</time>
      </trkpt>
      <trkpt lat="43.37536" lon="6.0891">
        <ele>295</ele>
        <time>2019-10-24T10:10:41.000Z</time>
      </trkpt>
      <trkpt lat="43.3754" lon="6.08915">
        <ele>294.60000610352</ele>
        <time>2019-10-24T10:10:44.000Z</time>
      </trkpt>
      <trkpt lat="43.37544" lon="6.08919">
        <ele>294.20001220703</ele>
        <time>2019-10-24T10:10:46.000Z</time>
      </trkpt>
      <trkpt lat="43.3755" lon="6.08925">
        <ele>293</ele>
        <time>2019-10-24T10:10:49.000Z</time>
      </trkpt>
      <trkpt lat="43.37558" lon="6.08934">
        <ele>292.20001220703</ele>
        <time>2019-10-24T10:10:54.000Z</time>
      </trkpt>
      <trkpt lat="43.37572" lon="6.08937">
        <ele>292</ele>
        <time>2019-10-24T10:10:59.000Z</time>
      </trkpt>
      <trkpt lat="43.37579" lon="6.08937">
        <ele>291.60000610352</ele>
        <time>2019-10-24T10:11:01.000Z</time>
      </trkpt>
      <trkpt lat="43.37591" lon="6.08939">
        <ele>290.60000610352</ele>
        <time>2019-10-24T10:11:05.000Z</time>
      </trkpt>
      <trkpt lat="43.376" lon="6.08945">
        <ele>290</ele>
        <time>2019-10-24T10:11:09.000Z</time>
      </trkpt>
      <trkpt lat="43.37605" lon="6.08949">
        <ele>289.60000610352</ele>
        <time>2019-10-24T10:11:11.000Z</time>
      </trkpt>
      <trkpt lat="43.37614" lon="6.0895">
        <ele>289</ele>
        <time>2019-10-24T10:11:14.000Z</time>
      </trkpt>
      <trkpt lat="43.37621" lon="6.08949">
        <ele>288.20001220703</ele>
        <time>2019-10-24T10:11:16.000Z</time>
      </trkpt>
      <trkpt lat="43.37631" lon="6.08946">
        <ele>287.39999389648</ele>
        <time>2019-10-24T10:11:19.000Z</time>
      </trkpt>
      <trkpt lat="43.37634" lon="6.08945">
        <ele>287</ele>
        <time>2019-10-24T10:11:20.000Z</time>
      </trkpt>
      <trkpt lat="43.37643" lon="6.08944">
        <ele>286.79998779297</ele>
        <time>2019-10-24T10:11:23.000Z</time>
      </trkpt>
      <trkpt lat="43.37657" lon="6.08937">
        <ele>286.39999389648</ele>
        <time>2019-10-24T10:11:28.000Z</time>
      </trkpt>
      <trkpt lat="43.37668" lon="6.08933">
        <ele>286</ele>
        <time>2019-10-24T10:11:32.000Z</time>
      </trkpt>
      <trkpt lat="43.37679" lon="6.08928">
        <ele>284.60000610352</ele>
        <time>2019-10-24T10:11:36.000Z</time>
      </trkpt>
      <trkpt lat="43.37695" lon="6.08914">
        <ele>284.39999389648</ele>
        <time>2019-10-24T10:11:40.000Z</time>
      </trkpt>
      <trkpt lat="43.37698" lon="6.08908">
        <ele>284.39999389648</ele>
        <time>2019-10-24T10:11:41.000Z</time>
      </trkpt>
      <trkpt lat="43.37703" lon="6.08895">
        <ele>283.60000610352</ele>
        <time>2019-10-24T10:11:43.000Z</time>
      </trkpt>
      <trkpt lat="43.37705" lon="6.08888">
        <ele>283.20001220703</ele>
        <time>2019-10-24T10:11:44.000Z</time>
      </trkpt>
      <trkpt lat="43.37707" lon="6.08882">
        <ele>282.39999389648</ele>
        <time>2019-10-24T10:11:45.000Z</time>
      </trkpt>
      <trkpt lat="43.37709" lon="6.08875">
        <ele>282</ele>
        <time>2019-10-24T10:11:46.000Z</time>
      </trkpt>
      <trkpt lat="43.37715" lon="6.08859">
        <ele>280.60000610352</ele>
        <time>2019-10-24T10:11:49.000Z</time>
      </trkpt>
      <trkpt lat="43.37718" lon="6.0884">
        <ele>279.60000610352</ele>
        <time>2019-10-24T10:11:52.000Z</time>
      </trkpt>
      <trkpt lat="43.3772" lon="6.08829">
        <ele>278.60000610352</ele>
        <time>2019-10-24T10:11:54.000Z</time>
      </trkpt>
      <trkpt lat="43.37722" lon="6.08825">
        <ele>278.20001220703</ele>
        <time>2019-10-24T10:11:55.000Z</time>
      </trkpt>
      <trkpt lat="43.37726" lon="6.08816">
        <ele>277.60000610352</ele>
        <time>2019-10-24T10:11:58.000Z</time>
      </trkpt>
      <trkpt lat="43.37731" lon="6.08813">
        <ele>277.20001220703</ele>
        <time>2019-10-24T10:12:00.000Z</time>
      </trkpt>
      <trkpt lat="43.37736" lon="6.08813">
        <ele>277</ele>
        <time>2019-10-24T10:12:02.000Z</time>
      </trkpt>
      <trkpt lat="43.37751" lon="6.08819">
        <ele>276.20001220703</ele>
        <time>2019-10-24T10:12:07.000Z</time>
      </trkpt>
      <trkpt lat="43.37754" lon="6.08819">
        <ele>276</ele>
        <time>2019-10-24T10:12:08.000Z</time>
      </trkpt>
      <trkpt lat="43.37759" lon="6.08813">
        <ele>276</ele>
        <time>2019-10-24T10:12:10.000Z</time>
      </trkpt>
      <trkpt lat="43.37764" lon="6.08796">
        <ele>275.39999389648</ele>
        <time>2019-10-24T10:12:14.000Z</time>
      </trkpt>
      <trkpt lat="43.37766" lon="6.08791">
        <ele>275.20001220703</ele>
        <time>2019-10-24T10:12:15.000Z</time>
      </trkpt>
      <trkpt lat="43.37772" lon="6.08777">
        <ele>275</ele>
        <time>2019-10-24T10:12:18.000Z</time>
      </trkpt>
      <trkpt lat="43.37775" lon="6.08772">
        <ele>274.79998779297</ele>
        <time>2019-10-24T10:12:19.000Z</time>
      </trkpt>
      <trkpt lat="43.37787" lon="6.0876">
        <ele>274</ele>
        <time>2019-10-24T10:12:22.000Z</time>
      </trkpt>
      <trkpt lat="43.37792" lon="6.08757">
        <ele>273.20001220703</ele>
        <time>2019-10-24T10:12:23.000Z</time>
      </trkpt>
      <trkpt lat="43.37798" lon="6.08754">
        <ele>272.79998779297</ele>
        <time>2019-10-24T10:12:24.000Z</time>
      </trkpt>
      <trkpt lat="43.37812" lon="6.08736">
        <ele>271.60000610352</ele>
        <time>2019-10-24T10:12:27.000Z</time>
      </trkpt>
      <trkpt lat="43.37819" lon="6.08706">
        <ele>270</ele>
        <time>2019-10-24T10:12:30.000Z</time>
      </trkpt>
      <trkpt lat="43.37821" lon="6.08694">
        <ele>269.39999389648</ele>
        <time>2019-10-24T10:12:31.000Z</time>
      </trkpt>
      <trkpt lat="43.37823" lon="6.08683">
        <ele>268.79998779297</ele>
        <time>2019-10-24T10:12:32.000Z</time>
      </trkpt>
      <trkpt lat="43.37828" lon="6.08662">
        <ele>267.39999389648</ele>
        <time>2019-10-24T10:12:34.000Z</time>
      </trkpt>
      <trkpt lat="43.37832" lon="6.08654">
        <ele>267</ele>
        <time>2019-10-24T10:12:35.000Z</time>
      </trkpt>
      <trkpt lat="43.37844" lon="6.08637">
        <ele>266</ele>
        <time>2019-10-24T10:12:37.000Z</time>
      </trkpt>
      <trkpt lat="43.37855" lon="6.08618">
        <ele>265.20001220703</ele>
        <time>2019-10-24T10:12:39.000Z</time>
      </trkpt>
      <trkpt lat="43.37859" lon="6.08608">
        <ele>264.39999389648</ele>
        <time>2019-10-24T10:12:40.000Z</time>
      </trkpt>
      <trkpt lat="43.37865" lon="6.08587">
        <ele>263.20001220703</ele>
        <time>2019-10-24T10:12:42.000Z</time>
      </trkpt>
      <trkpt lat="43.37866" lon="6.08576">
        <ele>262.79998779297</ele>
        <time>2019-10-24T10:12:43.000Z</time>
      </trkpt>
      <trkpt lat="43.37868" lon="6.08565">
        <ele>262.60000610352</ele>
        <time>2019-10-24T10:12:44.000Z</time>
      </trkpt>
      <trkpt lat="43.37871" lon="6.08543">
        <ele>262</ele>
        <time>2019-10-24T10:12:46.000Z</time>
      </trkpt>
      <trkpt lat="43.37875" lon="6.0851">
        <ele>261.39999389648</ele>
        <time>2019-10-24T10:12:49.000Z</time>
      </trkpt>
      <trkpt lat="43.37876" lon="6.0848">
        <ele>260.79998779297</ele>
        <time>2019-10-24T10:12:52.000Z</time>
      </trkpt>
      <trkpt lat="43.37876" lon="6.08461">
        <ele>260.39999389648</ele>
        <time>2019-10-24T10:12:54.000Z</time>
      </trkpt>
      <trkpt lat="43.37886" lon="6.08426">
        <ele>259.60000610352</ele>
        <time>2019-10-24T10:12:58.000Z</time>
      </trkpt>
      <trkpt lat="43.37888" lon="6.08419">
        <ele>259.60000610352</ele>
        <time>2019-10-24T10:12:59.000Z</time>
      </trkpt>
      <trkpt lat="43.37891" lon="6.08395">
        <ele>259.60000610352</ele>
        <time>2019-10-24T10:13:02.000Z</time>
      </trkpt>
      <trkpt lat="43.37896" lon="6.08351">
        <ele>259.79998779297</ele>
        <time>2019-10-24T10:13:08.000Z</time>
      </trkpt>
      <trkpt lat="43.37898" lon="6.08318">
        <ele>259.79998779297</ele>
        <time>2019-10-24T10:13:13.000Z</time>
      </trkpt>
      <trkpt lat="43.37902" lon="6.08298">
        <ele>260</ele>
        <time>2019-10-24T10:13:17.000Z</time>
      </trkpt>
      <trkpt lat="43.37905" lon="6.08295">
        <ele>260.20001220703</ele>
        <time>2019-10-24T10:13:18.000Z</time>
      </trkpt>
      <trkpt lat="43.37917" lon="6.08295">
        <ele>260.39999389648</ele>
        <time>2019-10-24T10:13:21.000Z</time>
      </trkpt>
      <trkpt lat="43.37942" lon="6.08298">
        <ele>259.20001220703</ele>
        <time>2019-10-24T10:13:25.000Z</time>
      </trkpt>
      <trkpt lat="43.3796" lon="6.083">
        <ele>258</ele>
        <time>2019-10-24T10:13:27.000Z</time>
      </trkpt>
      <trkpt lat="43.37979" lon="6.08302">
        <ele>256.60000610352</ele>
        <time>2019-10-24T10:13:29.000Z</time>
      </trkpt>
      <trkpt lat="43.37999" lon="6.08305">
        <ele>255.19999694824</ele>
        <time>2019-10-24T10:13:31.000Z</time>
      </trkpt>
      <trkpt lat="43.38018" lon="6.08308">
        <ele>253.60000610352</ele>
        <time>2019-10-24T10:13:33.000Z</time>
      </trkpt>
      <trkpt lat="43.38037" lon="6.08309">
        <ele>251.80000305176</ele>
        <time>2019-10-24T10:13:35.000Z</time>
      </trkpt>
      <trkpt lat="43.38055" lon="6.08311">
        <ele>250.80000305176</ele>
        <time>2019-10-24T10:13:37.000Z</time>
      </trkpt>
      <trkpt lat="43.38088" lon="6.08311">
        <ele>249.19999694824</ele>
        <time>2019-10-24T10:13:41.000Z</time>
      </trkpt>
      <trkpt lat="43.38096" lon="6.08311">
        <ele>248.80000305176</ele>
        <time>2019-10-24T10:13:42.000Z</time>
      </trkpt>
      <trkpt lat="43.38104" lon="6.0831">
        <ele>248.80000305176</ele>
        <time>2019-10-24T10:13:43.000Z</time>
      </trkpt>
      <trkpt lat="43.38118" lon="6.08305">
        <ele>248.80000305176</ele>
        <time>2019-10-24T10:13:45.000Z</time>
      </trkpt>
      <trkpt lat="43.38132" lon="6.08287">
        <ele>248.39999389648</ele>
        <time>2019-10-24T10:13:48.000Z</time>
      </trkpt>
      <trkpt lat="43.38137" lon="6.0828">
        <ele>248.19999694824</ele>
        <time>2019-10-24T10:13:49.000Z</time>
      </trkpt>
      <trkpt lat="43.38171" lon="6.08235">
        <ele>247.60000610352</ele>
        <time>2019-10-24T10:13:57.000Z</time>
      </trkpt>
      <trkpt lat="43.38199" lon="6.08196">
        <ele>247.39999389648</ele>
        <time>2019-10-24T10:14:04.000Z</time>
      </trkpt>
      <trkpt lat="43.38215" lon="6.08171">
        <ele>247</ele>
        <time>2019-10-24T10:14:08.000Z</time>
      </trkpt>
      <trkpt lat="43.38222" lon="6.08158">
        <ele>246.80000305176</ele>
        <time>2019-10-24T10:14:10.000Z</time>
      </trkpt>
      <trkpt lat="43.38242" lon="6.08107">
        <ele>246.39999389648</ele>
        <time>2019-10-24T10:14:17.000Z</time>
      </trkpt>
      <trkpt lat="43.38251" lon="6.08085">
        <ele>246</ele>
        <time>2019-10-24T10:14:20.000Z</time>
      </trkpt>
      <trkpt lat="43.38257" lon="6.08071">
        <ele>245.80000305176</ele>
        <time>2019-10-24T10:14:22.000Z</time>
      </trkpt>
      <trkpt lat="43.38263" lon="6.08056">
        <ele>245.60000610352</ele>
        <time>2019-10-24T10:14:24.000Z</time>
      </trkpt>
      <trkpt lat="43.38266" lon="6.0805">
        <ele>245.60000610352</ele>
        <time>2019-10-24T10:14:25.000Z</time>
      </trkpt>
      <trkpt lat="43.38274" lon="6.0803">
        <ele>245.60000610352</ele>
        <time>2019-10-24T10:14:28.000Z</time>
      </trkpt>
      <trkpt lat="43.38296" lon="6.07981">
        <ele>245.80000305176</ele>
        <time>2019-10-24T10:14:35.000Z</time>
      </trkpt>
      <trkpt lat="43.38324" lon="6.07926">
        <ele>246.19999694824</ele>
        <time>2019-10-24T10:14:43.000Z</time>
      </trkpt>
      <trkpt lat="43.38355" lon="6.07886">
        <ele>246</ele>
        <time>2019-10-24T10:14:50.000Z</time>
      </trkpt>
      <trkpt lat="43.38384" lon="6.07842">
        <ele>245.80000305176</ele>
        <time>2019-10-24T10:14:57.000Z</time>
      </trkpt>
      <trkpt lat="43.38411" lon="6.07796">
        <ele>245.60000610352</ele>
        <time>2019-10-24T10:15:04.000Z</time>
      </trkpt>
      <trkpt lat="43.38424" lon="6.07751">
        <ele>245.39999389648</ele>
        <time>2019-10-24T10:15:10.000Z</time>
      </trkpt>
      <trkpt lat="43.38433" lon="6.07697">
        <ele>245.19999694824</ele>
        <time>2019-10-24T10:15:17.000Z</time>
      </trkpt>
      <trkpt lat="43.38434" lon="6.0769">
        <ele>245</ele>
        <time>2019-10-24T10:15:18.000Z</time>
      </trkpt>
      <trkpt lat="43.38437" lon="6.07684">
        <ele>245</ele>
        <time>2019-10-24T10:15:19.000Z</time>
      </trkpt>
      <trkpt lat="43.3845" lon="6.07675">
        <ele>244.80000305176</ele>
        <time>2019-10-24T10:15:22.000Z</time>
      </trkpt>
      <trkpt lat="43.38456" lon="6.07674">
        <ele>244.80000305176</ele>
        <time>2019-10-24T10:15:23.000Z</time>
      </trkpt>
      <trkpt lat="43.38478" lon="6.07667">
        <ele>245.19999694824</ele>
        <time>2019-10-24T10:15:28.000Z</time>
      </trkpt>
      <trkpt lat="43.38498" lon="6.07661">
        <ele>245.39999389648</ele>
        <time>2019-10-24T10:15:34.000Z</time>
      </trkpt>
      <trkpt lat="43.38524" lon="6.07656">
        <ele>245.80000305176</ele>
        <time>2019-10-24T10:15:43.000Z</time>
      </trkpt>
      <trkpt lat="43.38526" lon="6.07663">
        <ele>246</ele>
        <time>2019-10-24T10:15:45.000Z</time>
      </trkpt>
      <trkpt lat="43.38526" lon="6.07666">
        <ele>246</ele>
        <time>2019-10-24T10:15:46.000Z</time>
      </trkpt>
      <trkpt lat="43.38528" lon="6.07672">
        <ele>246.19999694824</ele>
        <time>2019-10-24T10:15:50.000Z</time>
      </trkpt>
      <trkpt lat="43.38532" lon="6.07662">
        <ele>246.39999389648</ele>
        <time>2019-10-24T10:15:54.000Z</time>
      </trkpt>
      <trkpt lat="43.38539" lon="6.07655">
        <ele>246.60000610352</ele>
        <time>2019-10-24T10:15:57.000Z</time>
      </trkpt>
      <trkpt lat="43.38544" lon="6.0765">
        <ele>247</ele>
        <time>2019-10-24T10:15:59.000Z</time>
      </trkpt>
      <trkpt lat="43.38567" lon="6.07638">
        <ele>248</ele>
        <time>2019-10-24T10:16:07.000Z</time>
      </trkpt>
      <trkpt lat="43.3857" lon="6.07637">
        <ele>248</ele>
        <time>2019-10-24T10:16:08.000Z</time>
      </trkpt>
      <trkpt lat="43.38589" lon="6.07633">
        <ele>249.19999694824</ele>
        <time>2019-10-24T10:16:14.000Z</time>
      </trkpt>
      <trkpt lat="43.38598" lon="6.07632">
        <ele>249.80000305176</ele>
        <time>2019-10-24T10:16:17.000Z</time>
      </trkpt>
      <trkpt lat="43.38607" lon="6.07629">
        <ele>250.39999389648</ele>
        <time>2019-10-24T10:16:20.000Z</time>
      </trkpt>
      <trkpt lat="43.3862" lon="6.07626">
        <ele>251.39999389648</ele>
        <time>2019-10-24T10:16:25.000Z</time>
      </trkpt>
      <trkpt lat="43.38634" lon="6.07623">
        <ele>252.80000305176</ele>
        <time>2019-10-24T10:16:30.000Z</time>
      </trkpt>
      <trkpt lat="43.38638" lon="6.07622">
        <ele>253.19999694824</ele>
        <time>2019-10-24T10:16:32.000Z</time>
      </trkpt>
      <trkpt lat="43.38653" lon="6.07624">
        <ele>253.39999389648</ele>
        <time>2019-10-24T10:16:39.000Z</time>
      </trkpt>
      <trkpt lat="43.3866" lon="6.07627">
        <ele>253.39999389648</ele>
        <time>2019-10-24T10:16:42.000Z</time>
      </trkpt>
      <trkpt lat="43.38663" lon="6.07632">
        <ele>253.19999694824</ele>
        <time>2019-10-24T10:16:44.000Z</time>
      </trkpt>
      <trkpt lat="43.38665" lon="6.07653">
        <ele>253.19999694824</ele>
        <time>2019-10-24T10:16:50.000Z</time>
      </trkpt>
      <trkpt lat="43.38661" lon="6.07663">
        <ele>253</ele>
        <time>2019-10-24T10:16:54.000Z</time>
      </trkpt>
      <trkpt lat="43.3866" lon="6.07667">
        <ele>253</ele>
        <time>2019-10-24T10:16:56.000Z</time>
      </trkpt>
      <trkpt lat="43.38659" lon="6.07681">
        <ele>253.39999389648</ele>
        <time>2019-10-24T10:17:03.000Z</time>
      </trkpt>
      <trkpt lat="43.38659" lon="6.07683">
        <ele>253.39999389648</ele>
        <time>2019-10-24T10:17:04.000Z</time>
      </trkpt>
      <trkpt lat="43.3866" lon="6.07687">
        <ele>253.60000610352</ele>
        <time>2019-10-24T10:17:06.000Z</time>
      </trkpt>
      <trkpt lat="43.38659" lon="6.07692">
        <ele>253.39999389648</ele>
        <time>2019-10-24T10:17:09.000Z</time>
      </trkpt>
      <trkpt lat="43.38663" lon="6.0769">
        <ele>253.39999389648</ele>
        <time>2019-10-24T10:17:13.000Z</time>
      </trkpt>
      <trkpt lat="43.38663" lon="6.07685">
        <ele>253.39999389648</ele>
        <time>2019-10-24T10:17:15.000Z</time>
      </trkpt>
      <trkpt lat="43.38663" lon="6.07683">
        <ele>253.39999389648</ele>
        <time>2019-10-24T10:17:16.000Z</time>
      </trkpt>
      <trkpt lat="43.38661" lon="6.07681">
        <ele>253.39999389648</ele>
        <time>2019-10-24T10:17:18.000Z</time>
      </trkpt>
      <trkpt lat="43.38659" lon="6.07686">
        <ele>253.39999389648</ele>
        <time>2019-10-24T10:17:22.000Z</time>
      </trkpt>
      <trkpt lat="43.38663" lon="6.07685">
        <ele>253.39999389648</ele>
        <time>2019-10-24T10:17:26.000Z</time>
      </trkpt>
      <trkpt lat="43.38662" lon="6.0768">
        <ele>253.39999389648</ele>
        <time>2019-10-24T10:17:28.000Z</time>
      </trkpt>
      <trkpt lat="43.38661" lon="6.07671">
        <ele>253.39999389648</ele>
        <time>2019-10-24T10:17:32.000Z</time>
      </trkpt>
      <trkpt lat="43.38661" lon="6.07669">
        <ele>253.39999389648</ele>
        <time>2019-10-24T10:17:33.000Z</time>
      </trkpt>
      <trkpt lat="43.38665" lon="6.07666">
        <ele>253.80000305176</ele>
        <time>2019-10-24T10:17:36.000Z</time>
      </trkpt>
      <trkpt lat="43.38667" lon="6.07667">
        <ele>254</ele>
        <time>2019-10-24T10:17:37.000Z</time>
      </trkpt>
      <trkpt lat="43.38668" lon="6.0767">
        <ele>253.60000610352</ele>
        <time>2019-10-24T10:17:40.000Z</time>
      </trkpt>
      <trkpt lat="43.38668" lon="6.0767">
        <ele>253.80000305176</ele>
        <time>2019-10-24T10:17:41.000Z</time>
      </trkpt>
    </trkseg>
  </trk>
</gpx>